<?xml version="1.0" encoding="UTF-8" standalone="no" ?>
<gpx xmlns="http://www.topografix.com/GPX/1/1" xmlns:xsi="http://www.w3.org/2001/XMLSchema-instance" xsi:schemaLocation="http://www.topografix.com/GPX/1/1 http://www.topografix.com/GPX/1/1/gpx.xsd" version="1.1" creator="VisuGPX - https://www.visugpx.com">
  <metadata>
    <name>VTT - Brec</name>
    <desc><![CDATA[VTT - Rando ASCVTT du 11 sept 2011 / Le Suquet - Pelasque - granges de la Brasque - The Brec - Utelle - Le suquet / Relevé terrain:   1 900 m / 45 km

CR ASCVTT ici : <http://www.ascvtt.com/2011/09/13/the-brec/>
 
]]></desc>
  </metadata>
  <trk>
    <name><![CDATA[2011-09-11T06:22:32Z]]></name>
    <trkseg>
      <trkpt lat="43.94296" lon="7.28293">
        <ele>349.126</ele>
        <time>2011-09-11T06:22:37Z</time>
      </trkpt>
      <trkpt lat="43.94301" lon="7.28296">
        <ele>353.127</ele>
        <time>2011-09-11T06:22:40Z</time>
      </trkpt>
      <trkpt lat="43.9431" lon="7.28287">
        <ele>354.639</ele>
        <time>2011-09-11T06:22:45Z</time>
      </trkpt>
      <trkpt lat="43.94317" lon="7.28283">
        <ele>355.43</ele>
        <time>2011-09-11T06:22:48Z</time>
      </trkpt>
      <trkpt lat="43.9433" lon="7.28285">
        <ele>355.146</ele>
        <time>2011-09-11T06:22:54Z</time>
      </trkpt>
      <trkpt lat="43.94342" lon="7.28278">
        <ele>356.626</ele>
        <time>2011-09-11T06:22:58Z</time>
      </trkpt>
      <trkpt lat="43.94342" lon="7.28266">
        <ele>356.797</ele>
        <time>2011-09-11T06:23:01Z</time>
      </trkpt>
      <trkpt lat="43.94341" lon="7.28263">
        <ele>356.806</ele>
        <time>2011-09-11T06:23:02Z</time>
      </trkpt>
      <trkpt lat="43.94328" lon="7.28237">
        <ele>358.246</ele>
        <time>2011-09-11T06:23:10Z</time>
      </trkpt>
      <trkpt lat="43.94321" lon="7.28218">
        <ele>359.427</ele>
        <time>2011-09-11T06:23:17Z</time>
      </trkpt>
      <trkpt lat="43.94322" lon="7.28203">
        <ele>362.292</ele>
        <time>2011-09-11T06:23:22Z</time>
      </trkpt>
      <trkpt lat="43.94326" lon="7.28181">
        <ele>365.119</ele>
        <time>2011-09-11T06:23:29Z</time>
      </trkpt>
      <trkpt lat="43.94331" lon="7.28162">
        <ele>369.114</ele>
        <time>2011-09-11T06:23:35Z</time>
      </trkpt>
      <trkpt lat="43.94337" lon="7.28138">
        <ele>371.049</ele>
        <time>2011-09-11T06:23:42Z</time>
      </trkpt>
      <trkpt lat="43.94341" lon="7.28117">
        <ele>374.07</ele>
        <time>2011-09-11T06:23:48Z</time>
      </trkpt>
      <trkpt lat="43.94346" lon="7.28091">
        <ele>380.737</ele>
        <time>2011-09-11T06:23:57Z</time>
      </trkpt>
      <trkpt lat="43.94347" lon="7.28074">
        <ele>383.828</ele>
        <time>2011-09-11T06:24:02Z</time>
      </trkpt>
      <trkpt lat="43.9435" lon="7.2807">
        <ele>385.34</ele>
        <time>2011-09-11T06:24:04Z</time>
      </trkpt>
      <trkpt lat="43.94353" lon="7.28044">
        <ele>386.925</ele>
        <time>2011-09-11T06:24:11Z</time>
      </trkpt>
      <trkpt lat="43.94355" lon="7.28019">
        <ele>380.907</ele>
        <time>2011-09-11T06:24:17Z</time>
      </trkpt>
      <trkpt lat="43.9436" lon="7.27995">
        <ele>376.912</ele>
        <time>2011-09-11T06:24:24Z</time>
      </trkpt>
      <trkpt lat="43.94361" lon="7.27992">
        <ele>376.545</ele>
        <time>2011-09-11T06:24:25Z</time>
      </trkpt>
      <trkpt lat="43.94366" lon="7.27969">
        <ele>373.263</ele>
        <time>2011-09-11T06:24:32Z</time>
      </trkpt>
      <trkpt lat="43.94374" lon="7.27955">
        <ele>373.197</ele>
        <time>2011-09-11T06:24:37Z</time>
      </trkpt>
      <trkpt lat="43.94375" lon="7.27934">
        <ele>372.552</ele>
        <time>2011-09-11T06:24:43Z</time>
      </trkpt>
      <trkpt lat="43.94388" lon="7.27924">
        <ele>375.008</ele>
        <time>2011-09-11T06:24:49Z</time>
      </trkpt>
      <trkpt lat="43.944" lon="7.2791">
        <ele>379.439</ele>
        <time>2011-09-11T06:24:56Z</time>
      </trkpt>
      <trkpt lat="43.94422" lon="7.27895">
        <ele>384.662</ele>
        <time>2011-09-11T06:25:04Z</time>
      </trkpt>
      <trkpt lat="43.94431" lon="7.27883">
        <ele>387.22</ele>
        <time>2011-09-11T06:25:09Z</time>
      </trkpt>
      <trkpt lat="43.94436" lon="7.27857">
        <ele>390.063</ele>
        <time>2011-09-11T06:25:17Z</time>
      </trkpt>
      <trkpt lat="43.94442" lon="7.27835">
        <ele>388.056</ele>
        <time>2011-09-11T06:25:24Z</time>
      </trkpt>
      <trkpt lat="43.94449" lon="7.27825">
        <ele>389.718</ele>
        <time>2011-09-11T06:25:29Z</time>
      </trkpt>
      <trkpt lat="43.9446" lon="7.27809">
        <ele>387.378</ele>
        <time>2011-09-11T06:25:36Z</time>
      </trkpt>
      <trkpt lat="43.94475" lon="7.27797">
        <ele>388.098</ele>
        <time>2011-09-11T06:25:42Z</time>
      </trkpt>
      <trkpt lat="43.94489" lon="7.27785">
        <ele>390.825</ele>
        <time>2011-09-11T06:25:48Z</time>
      </trkpt>
      <trkpt lat="43.94499" lon="7.27773">
        <ele>393.34</ele>
        <time>2011-09-11T06:25:53Z</time>
      </trkpt>
      <trkpt lat="43.94512" lon="7.27756">
        <ele>396.116</ele>
        <time>2011-09-11T06:26:00Z</time>
      </trkpt>
      <trkpt lat="43.94519" lon="7.27744">
        <ele>397.815</ele>
        <time>2011-09-11T06:26:05Z</time>
      </trkpt>
      <trkpt lat="43.94531" lon="7.27728">
        <ele>400.256</ele>
        <time>2011-09-11T06:26:12Z</time>
      </trkpt>
      <trkpt lat="43.94549" lon="7.27714">
        <ele>402.378</ele>
        <time>2011-09-11T06:26:19Z</time>
      </trkpt>
      <trkpt lat="43.94558" lon="7.27702">
        <ele>403.524</ele>
        <time>2011-09-11T06:26:25Z</time>
      </trkpt>
      <trkpt lat="43.94568" lon="7.27682">
        <ele>403.915</ele>
        <time>2011-09-11T06:26:33Z</time>
      </trkpt>
      <trkpt lat="43.94581" lon="7.27667">
        <ele>404.453</ele>
        <time>2011-09-11T06:26:40Z</time>
      </trkpt>
      <trkpt lat="43.94589" lon="7.27652">
        <ele>405.675</ele>
        <time>2011-09-11T06:26:46Z</time>
      </trkpt>
      <trkpt lat="43.94599" lon="7.27642">
        <ele>407.308</ele>
        <time>2011-09-11T06:26:51Z</time>
      </trkpt>
      <trkpt lat="43.94622" lon="7.27631">
        <ele>406.281</ele>
        <time>2011-09-11T06:27:00Z</time>
      </trkpt>
      <trkpt lat="43.94639" lon="7.27615">
        <ele>408.293</ele>
        <time>2011-09-11T06:27:08Z</time>
      </trkpt>
      <trkpt lat="43.9465" lon="7.27597">
        <ele>410.475</ele>
        <time>2011-09-11T06:27:15Z</time>
      </trkpt>
      <trkpt lat="43.94659" lon="7.2758">
        <ele>412.041</ele>
        <time>2011-09-11T06:27:22Z</time>
      </trkpt>
      <trkpt lat="43.94663" lon="7.27572">
        <ele>411.648</ele>
        <time>2011-09-11T06:27:25Z</time>
      </trkpt>
      <trkpt lat="43.94667" lon="7.27562">
        <ele>412.569</ele>
        <time>2011-09-11T06:27:29Z</time>
      </trkpt>
      <trkpt lat="43.94676" lon="7.27538">
        <ele>413.69</ele>
        <time>2011-09-11T06:27:37Z</time>
      </trkpt>
      <trkpt lat="43.94682" lon="7.27513">
        <ele>416.727</ele>
        <time>2011-09-11T06:27:45Z</time>
      </trkpt>
      <trkpt lat="43.94677" lon="7.27486">
        <ele>415.699</ele>
        <time>2011-09-11T06:27:52Z</time>
      </trkpt>
      <trkpt lat="43.94674" lon="7.27469">
        <ele>421.981</ele>
        <time>2011-09-11T06:27:59Z</time>
      </trkpt>
      <trkpt lat="43.94665" lon="7.27447">
        <ele>419.295</ele>
        <time>2011-09-11T06:28:06Z</time>
      </trkpt>
      <trkpt lat="43.94662" lon="7.2743">
        <ele>415.992</ele>
        <time>2011-09-11T06:28:11Z</time>
      </trkpt>
      <trkpt lat="43.9467" lon="7.2742">
        <ele>418.167</ele>
        <time>2011-09-11T06:28:16Z</time>
      </trkpt>
      <trkpt lat="43.94685" lon="7.27418">
        <ele>421.64</ele>
        <time>2011-09-11T06:28:23Z</time>
      </trkpt>
      <trkpt lat="43.94695" lon="7.27418">
        <ele>422.389</ele>
        <time>2011-09-11T06:28:29Z</time>
      </trkpt>
      <trkpt lat="43.94704" lon="7.27423">
        <ele>421.875</ele>
        <time>2011-09-11T06:28:34Z</time>
      </trkpt>
      <trkpt lat="43.94707" lon="7.27429">
        <ele>416.468</ele>
        <time>2011-09-11T06:28:40Z</time>
      </trkpt>
      <trkpt lat="43.94707" lon="7.27431">
        <ele>416.247</ele>
        <time>2011-09-11T06:28:41Z</time>
      </trkpt>
      <trkpt lat="43.94709" lon="7.27444">
        <ele>415.151</ele>
        <time>2011-09-11T06:28:46Z</time>
      </trkpt>
      <trkpt lat="43.94699" lon="7.27454">
        <ele>410.834</ele>
        <time>2011-09-11T06:28:52Z</time>
      </trkpt>
      <trkpt lat="43.94697" lon="7.27461">
        <ele>410.225</ele>
        <time>2011-09-11T06:28:55Z</time>
      </trkpt>
      <trkpt lat="43.94689" lon="7.27481">
        <ele>409.076</ele>
        <time>2011-09-11T06:29:03Z</time>
      </trkpt>
      <trkpt lat="43.94686" lon="7.27499">
        <ele>408.01</ele>
        <time>2011-09-11T06:29:09Z</time>
      </trkpt>
      <trkpt lat="43.94682" lon="7.27516">
        <ele>410.398</ele>
        <time>2011-09-11T06:29:15Z</time>
      </trkpt>
      <trkpt lat="43.94671" lon="7.27534">
        <ele>411.265</ele>
        <time>2011-09-11T06:29:22Z</time>
      </trkpt>
      <trkpt lat="43.94661" lon="7.27553">
        <ele>412.178</ele>
        <time>2011-09-11T06:29:29Z</time>
      </trkpt>
      <trkpt lat="43.94654" lon="7.2757">
        <ele>413.973</ele>
        <time>2011-09-11T06:29:37Z</time>
      </trkpt>
      <trkpt lat="43.94648" lon="7.27585">
        <ele>413.116</ele>
        <time>2011-09-11T06:29:43Z</time>
      </trkpt>
      <trkpt lat="43.94642" lon="7.27598">
        <ele>412.026</ele>
        <time>2011-09-11T06:29:49Z</time>
      </trkpt>
      <trkpt lat="43.94636" lon="7.27615">
        <ele>411.989</ele>
        <time>2011-09-11T06:29:56Z</time>
      </trkpt>
      <trkpt lat="43.94626" lon="7.27628">
        <ele>416.308</ele>
        <time>2011-09-11T06:30:03Z</time>
      </trkpt>
      <trkpt lat="43.94619" lon="7.27643">
        <ele>418.195</ele>
        <time>2011-09-11T06:30:09Z</time>
      </trkpt>
      <trkpt lat="43.94608" lon="7.27659">
        <ele>422.097</ele>
        <time>2011-09-11T06:30:17Z</time>
      </trkpt>
      <trkpt lat="43.94602" lon="7.27671">
        <ele>421.769</ele>
        <time>2011-09-11T06:30:22Z</time>
      </trkpt>
      <trkpt lat="43.94592" lon="7.27677">
        <ele>426.639</ele>
        <time>2011-09-11T06:30:28Z</time>
      </trkpt>
      <trkpt lat="43.94581" lon="7.27683">
        <ele>430.665</ele>
        <time>2011-09-11T06:30:34Z</time>
      </trkpt>
      <trkpt lat="43.94567" lon="7.27697">
        <ele>426.374</ele>
        <time>2011-09-11T06:30:42Z</time>
      </trkpt>
      <trkpt lat="43.94552" lon="7.27714">
        <ele>421.531</ele>
        <time>2011-09-11T06:30:51Z</time>
      </trkpt>
      <trkpt lat="43.9454" lon="7.27733">
        <ele>416.129</ele>
        <time>2011-09-11T06:31:00Z</time>
      </trkpt>
      <trkpt lat="43.94532" lon="7.27747">
        <ele>414.739</ele>
        <time>2011-09-11T06:31:07Z</time>
      </trkpt>
      <trkpt lat="43.94524" lon="7.27765">
        <ele>416.344</ele>
        <time>2011-09-11T06:31:15Z</time>
      </trkpt>
      <trkpt lat="43.94521" lon="7.27787">
        <ele>418.126</ele>
        <time>2011-09-11T06:31:23Z</time>
      </trkpt>
      <trkpt lat="43.94522" lon="7.27804">
        <ele>417.437</ele>
        <time>2011-09-11T06:31:29Z</time>
      </trkpt>
      <trkpt lat="43.94522" lon="7.27806">
        <ele>418.068</ele>
        <time>2011-09-11T06:31:30Z</time>
      </trkpt>
      <trkpt lat="43.94518" lon="7.27827">
        <ele>422.458</ele>
        <time>2011-09-11T06:31:38Z</time>
      </trkpt>
      <trkpt lat="43.94511" lon="7.27843">
        <ele>425.237</ele>
        <time>2011-09-11T06:31:45Z</time>
      </trkpt>
      <trkpt lat="43.94503" lon="7.2786">
        <ele>424.885</ele>
        <time>2011-09-11T06:31:52Z</time>
      </trkpt>
      <trkpt lat="43.94499" lon="7.2787">
        <ele>424.592</ele>
        <time>2011-09-11T06:31:56Z</time>
      </trkpt>
      <trkpt lat="43.94501" lon="7.27884">
        <ele>429.009</ele>
        <time>2011-09-11T06:32:00Z</time>
      </trkpt>
      <trkpt lat="43.94503" lon="7.27904">
        <ele>434.981</ele>
        <time>2011-09-11T06:32:07Z</time>
      </trkpt>
      <trkpt lat="43.94502" lon="7.27921">
        <ele>437.908</ele>
        <time>2011-09-11T06:32:13Z</time>
      </trkpt>
      <trkpt lat="43.94501" lon="7.27938">
        <ele>440.188</ele>
        <time>2011-09-11T06:32:19Z</time>
      </trkpt>
      <trkpt lat="43.94498" lon="7.27961">
        <ele>441.462</ele>
        <time>2011-09-11T06:32:27Z</time>
      </trkpt>
      <trkpt lat="43.94495" lon="7.27981">
        <ele>443.546</ele>
        <time>2011-09-11T06:32:34Z</time>
      </trkpt>
      <trkpt lat="43.94492" lon="7.28002">
        <ele>445.625</ele>
        <time>2011-09-11T06:32:42Z</time>
      </trkpt>
      <trkpt lat="43.9449" lon="7.28025">
        <ele>447.104</ele>
        <time>2011-09-11T06:32:50Z</time>
      </trkpt>
      <trkpt lat="43.94493" lon="7.28047">
        <ele>448.704</ele>
        <time>2011-09-11T06:32:58Z</time>
      </trkpt>
      <trkpt lat="43.94499" lon="7.28062">
        <ele>448.872</ele>
        <time>2011-09-11T06:33:04Z</time>
      </trkpt>
      <trkpt lat="43.94507" lon="7.28075">
        <ele>450.316</ele>
        <time>2011-09-11T06:33:10Z</time>
      </trkpt>
      <trkpt lat="43.9452" lon="7.28089">
        <ele>452.387</ele>
        <time>2011-09-11T06:33:18Z</time>
      </trkpt>
      <trkpt lat="43.94533" lon="7.28101">
        <ele>453.408</ele>
        <time>2011-09-11T06:33:25Z</time>
      </trkpt>
      <trkpt lat="43.94547" lon="7.28114">
        <ele>455.297</ele>
        <time>2011-09-11T06:33:33Z</time>
      </trkpt>
      <trkpt lat="43.94561" lon="7.28125">
        <ele>457.94</ele>
        <time>2011-09-11T06:33:41Z</time>
      </trkpt>
      <trkpt lat="43.94577" lon="7.28134">
        <ele>460.809</ele>
        <time>2011-09-11T06:33:50Z</time>
      </trkpt>
      <trkpt lat="43.94596" lon="7.28134">
        <ele>462.226</ele>
        <time>2011-09-11T06:33:59Z</time>
      </trkpt>
      <trkpt lat="43.94611" lon="7.28125">
        <ele>462.708</ele>
        <time>2011-09-11T06:34:06Z</time>
      </trkpt>
      <trkpt lat="43.94623" lon="7.28112">
        <ele>466.045</ele>
        <time>2011-09-11T06:34:14Z</time>
      </trkpt>
      <trkpt lat="43.94635" lon="7.28102">
        <ele>469.155</ele>
        <time>2011-09-11T06:34:21Z</time>
      </trkpt>
      <trkpt lat="43.94643" lon="7.28093">
        <ele>470.562</ele>
        <time>2011-09-11T06:34:26Z</time>
      </trkpt>
      <trkpt lat="43.94654" lon="7.28081">
        <ele>474.946</ele>
        <time>2011-09-11T06:34:32Z</time>
      </trkpt>
      <trkpt lat="43.94672" lon="7.28066">
        <ele>477.172</ele>
        <time>2011-09-11T06:34:40Z</time>
      </trkpt>
      <trkpt lat="43.94686" lon="7.28052">
        <ele>478.792</ele>
        <time>2011-09-11T06:34:47Z</time>
      </trkpt>
      <trkpt lat="43.947" lon="7.28043">
        <ele>479.214</ele>
        <time>2011-09-11T06:34:54Z</time>
      </trkpt>
      <trkpt lat="43.94715" lon="7.28038">
        <ele>479.996</ele>
        <time>2011-09-11T06:35:01Z</time>
      </trkpt>
      <trkpt lat="43.94727" lon="7.28035">
        <ele>477.496</ele>
        <time>2011-09-11T06:35:07Z</time>
      </trkpt>
      <trkpt lat="43.94741" lon="7.28031">
        <ele>476.027</ele>
        <time>2011-09-11T06:35:14Z</time>
      </trkpt>
      <trkpt lat="43.94756" lon="7.28033">
        <ele>475.645</ele>
        <time>2011-09-11T06:35:21Z</time>
      </trkpt>
      <trkpt lat="43.94765" lon="7.28045">
        <ele>475.844</ele>
        <time>2011-09-11T06:35:27Z</time>
      </trkpt>
      <trkpt lat="43.94768" lon="7.28061">
        <ele>476.013</ele>
        <time>2011-09-11T06:35:33Z</time>
      </trkpt>
      <trkpt lat="43.9477" lon="7.2808">
        <ele>477.078</ele>
        <time>2011-09-11T06:35:40Z</time>
      </trkpt>
      <trkpt lat="43.94774" lon="7.28093">
        <ele>475.332</ele>
        <time>2011-09-11T06:35:45Z</time>
      </trkpt>
      <trkpt lat="43.94776" lon="7.28117">
        <ele>476.746</ele>
        <time>2011-09-11T06:35:53Z</time>
      </trkpt>
      <trkpt lat="43.94782" lon="7.28139">
        <ele>476.956</ele>
        <time>2011-09-11T06:36:00Z</time>
      </trkpt>
      <trkpt lat="43.94788" lon="7.28162">
        <ele>477.687</ele>
        <time>2011-09-11T06:36:08Z</time>
      </trkpt>
      <trkpt lat="43.94795" lon="7.28184">
        <ele>478.586</ele>
        <time>2011-09-11T06:36:16Z</time>
      </trkpt>
      <trkpt lat="43.94804" lon="7.28204">
        <ele>479.932</ele>
        <time>2011-09-11T06:36:24Z</time>
      </trkpt>
      <trkpt lat="43.94816" lon="7.28221">
        <ele>483.334</ele>
        <time>2011-09-11T06:36:33Z</time>
      </trkpt>
      <trkpt lat="43.9483" lon="7.28232">
        <ele>486.684</ele>
        <time>2011-09-11T06:36:41Z</time>
      </trkpt>
      <trkpt lat="43.94844" lon="7.28243">
        <ele>489.255</ele>
        <time>2011-09-11T06:36:49Z</time>
      </trkpt>
      <trkpt lat="43.94856" lon="7.28261">
        <ele>489.434</ele>
        <time>2011-09-11T06:36:56Z</time>
      </trkpt>
      <trkpt lat="43.94865" lon="7.28284">
        <ele>489.713</ele>
        <time>2011-09-11T06:37:04Z</time>
      </trkpt>
      <trkpt lat="43.94875" lon="7.28297">
        <ele>490.673</ele>
        <time>2011-09-11T06:37:10Z</time>
      </trkpt>
      <trkpt lat="43.94883" lon="7.28289">
        <ele>493.387</ele>
        <time>2011-09-11T06:37:15Z</time>
      </trkpt>
      <trkpt lat="43.94879" lon="7.28281">
        <ele>495.458</ele>
        <time>2011-09-11T06:37:18Z</time>
      </trkpt>
      <trkpt lat="43.94867" lon="7.28257">
        <ele>502.841</ele>
        <time>2011-09-11T06:37:27Z</time>
      </trkpt>
      <trkpt lat="43.94855" lon="7.28234">
        <ele>506.771</ele>
        <time>2011-09-11T06:37:35Z</time>
      </trkpt>
      <trkpt lat="43.94847" lon="7.28218">
        <ele>508.178</ele>
        <time>2011-09-11T06:37:41Z</time>
      </trkpt>
      <trkpt lat="43.94836" lon="7.28195">
        <ele>509.428</ele>
        <time>2011-09-11T06:37:49Z</time>
      </trkpt>
      <trkpt lat="43.94835" lon="7.28174">
        <ele>509.575</ele>
        <time>2011-09-11T06:37:56Z</time>
      </trkpt>
      <trkpt lat="43.94836" lon="7.28158">
        <ele>509.615</ele>
        <time>2011-09-11T06:38:01Z</time>
      </trkpt>
      <trkpt lat="43.94835" lon="7.28138">
        <ele>511.849</ele>
        <time>2011-09-11T06:38:08Z</time>
      </trkpt>
      <trkpt lat="43.94836" lon="7.28119">
        <ele>517.072</ele>
        <time>2011-09-11T06:38:15Z</time>
      </trkpt>
      <trkpt lat="43.94836" lon="7.28102">
        <ele>524.125</ele>
        <time>2011-09-11T06:38:21Z</time>
      </trkpt>
      <trkpt lat="43.94834" lon="7.28082">
        <ele>524.211</ele>
        <time>2011-09-11T06:38:27Z</time>
      </trkpt>
      <trkpt lat="43.94837" lon="7.28059">
        <ele>517.044</ele>
        <time>2011-09-11T06:38:33Z</time>
      </trkpt>
      <trkpt lat="43.94844" lon="7.28035">
        <ele>516.463</ele>
        <time>2011-09-11T06:38:41Z</time>
      </trkpt>
      <trkpt lat="43.9485" lon="7.28022">
        <ele>518.086</ele>
        <time>2011-09-11T06:38:47Z</time>
      </trkpt>
      <trkpt lat="43.94856" lon="7.28">
        <ele>520.294</ele>
        <time>2011-09-11T06:38:54Z</time>
      </trkpt>
      <trkpt lat="43.94864" lon="7.27982">
        <ele>522.396</ele>
        <time>2011-09-11T06:39:01Z</time>
      </trkpt>
      <trkpt lat="43.94873" lon="7.27963">
        <ele>527.737</ele>
        <time>2011-09-11T06:39:08Z</time>
      </trkpt>
      <trkpt lat="43.94883" lon="7.27951">
        <ele>525.825</ele>
        <time>2011-09-11T06:39:15Z</time>
      </trkpt>
      <trkpt lat="43.94885" lon="7.27936">
        <ele>526.475</ele>
        <time>2011-09-11T06:39:20Z</time>
      </trkpt>
      <trkpt lat="43.94892" lon="7.27921">
        <ele>525.693</ele>
        <time>2011-09-11T06:39:26Z</time>
      </trkpt>
      <trkpt lat="43.94897" lon="7.27901">
        <ele>527.214</ele>
        <time>2011-09-11T06:39:34Z</time>
      </trkpt>
      <trkpt lat="43.94901" lon="7.27883">
        <ele>529.094</ele>
        <time>2011-09-11T06:39:41Z</time>
      </trkpt>
      <trkpt lat="43.94903" lon="7.27859">
        <ele>527.384</ele>
        <time>2011-09-11T06:39:49Z</time>
      </trkpt>
      <trkpt lat="43.94909" lon="7.27841">
        <ele>529.318</ele>
        <time>2011-09-11T06:39:56Z</time>
      </trkpt>
      <trkpt lat="43.94916" lon="7.27827">
        <ele>530.444</ele>
        <time>2011-09-11T06:40:02Z</time>
      </trkpt>
      <trkpt lat="43.94918" lon="7.27822">
        <ele>530.083</ele>
        <time>2011-09-11T06:40:04Z</time>
      </trkpt>
      <trkpt lat="43.94919" lon="7.27816">
        <ele>529.984</ele>
        <time>2011-09-11T06:40:06Z</time>
      </trkpt>
      <trkpt lat="43.94924" lon="7.27806">
        <ele>529.854</ele>
        <time>2011-09-11T06:40:10Z</time>
      </trkpt>
      <trkpt lat="43.94928" lon="7.27792">
        <ele>529.793</ele>
        <time>2011-09-11T06:40:16Z</time>
      </trkpt>
      <trkpt lat="43.94938" lon="7.2778">
        <ele>531.774</ele>
        <time>2011-09-11T06:40:23Z</time>
      </trkpt>
      <trkpt lat="43.94951" lon="7.27772">
        <ele>532.845</ele>
        <time>2011-09-11T06:40:30Z</time>
      </trkpt>
      <trkpt lat="43.94963" lon="7.27761">
        <ele>533.524</ele>
        <time>2011-09-11T06:40:36Z</time>
      </trkpt>
      <trkpt lat="43.94975" lon="7.27754">
        <ele>534.354</ele>
        <time>2011-09-11T06:40:42Z</time>
      </trkpt>
      <trkpt lat="43.94994" lon="7.27747">
        <ele>534.684</ele>
        <time>2011-09-11T06:40:50Z</time>
      </trkpt>
      <trkpt lat="43.9501" lon="7.27745">
        <ele>536.866</ele>
        <time>2011-09-11T06:40:57Z</time>
      </trkpt>
      <trkpt lat="43.95025" lon="7.27749">
        <ele>537.954</ele>
        <time>2011-09-11T06:41:04Z</time>
      </trkpt>
      <trkpt lat="43.95041" lon="7.27751">
        <ele>540.093</ele>
        <time>2011-09-11T06:41:12Z</time>
      </trkpt>
      <trkpt lat="43.95054" lon="7.27744">
        <ele>541.674</ele>
        <time>2011-09-11T06:41:19Z</time>
      </trkpt>
      <trkpt lat="43.95067" lon="7.2773">
        <ele>544.635</ele>
        <time>2011-09-11T06:41:28Z</time>
      </trkpt>
      <trkpt lat="43.95079" lon="7.27718">
        <ele>546.595</ele>
        <time>2011-09-11T06:41:35Z</time>
      </trkpt>
      <trkpt lat="43.95088" lon="7.27702">
        <ele>546.66</ele>
        <time>2011-09-11T06:41:42Z</time>
      </trkpt>
      <trkpt lat="43.95091" lon="7.27697">
        <ele>547.613</ele>
        <time>2011-09-11T06:41:44Z</time>
      </trkpt>
      <trkpt lat="43.95098" lon="7.27678">
        <ele>549.253</ele>
        <time>2011-09-11T06:41:51Z</time>
      </trkpt>
      <trkpt lat="43.95099" lon="7.27664">
        <ele>549.773</ele>
        <time>2011-09-11T06:41:56Z</time>
      </trkpt>
      <trkpt lat="43.95099" lon="7.27648">
        <ele>551.465</ele>
        <time>2011-09-11T06:42:01Z</time>
      </trkpt>
      <trkpt lat="43.95106" lon="7.2763">
        <ele>552.387</ele>
        <time>2011-09-11T06:42:08Z</time>
      </trkpt>
      <trkpt lat="43.9511" lon="7.27614">
        <ele>552.814</ele>
        <time>2011-09-11T06:42:14Z</time>
      </trkpt>
      <trkpt lat="43.95112" lon="7.27593">
        <ele>552.665</ele>
        <time>2011-09-11T06:42:21Z</time>
      </trkpt>
      <trkpt lat="43.95117" lon="7.27577">
        <ele>554.033</ele>
        <time>2011-09-11T06:42:27Z</time>
      </trkpt>
      <trkpt lat="43.95123" lon="7.27559">
        <ele>554.494</ele>
        <time>2011-09-11T06:42:33Z</time>
      </trkpt>
      <trkpt lat="43.95134" lon="7.27533">
        <ele>555.763</ele>
        <time>2011-09-11T06:42:43Z</time>
      </trkpt>
      <trkpt lat="43.9514" lon="7.27515">
        <ele>557.623</ele>
        <time>2011-09-11T06:42:50Z</time>
      </trkpt>
      <trkpt lat="43.95147" lon="7.27499">
        <ele>557.553</ele>
        <time>2011-09-11T06:42:56Z</time>
      </trkpt>
      <trkpt lat="43.95153" lon="7.27483">
        <ele>557.743</ele>
        <time>2011-09-11T06:43:02Z</time>
      </trkpt>
      <trkpt lat="43.95161" lon="7.27468">
        <ele>559.893</ele>
        <time>2011-09-11T06:43:09Z</time>
      </trkpt>
      <trkpt lat="43.95171" lon="7.27452">
        <ele>560.062</ele>
        <time>2011-09-11T06:43:15Z</time>
      </trkpt>
      <trkpt lat="43.95179" lon="7.27452">
        <ele>560.813</ele>
        <time>2011-09-11T06:43:19Z</time>
      </trkpt>
      <trkpt lat="43.95194" lon="7.27457">
        <ele>563.234</ele>
        <time>2011-09-11T06:43:27Z</time>
      </trkpt>
      <trkpt lat="43.95205" lon="7.27463">
        <ele>564.944</ele>
        <time>2011-09-11T06:43:34Z</time>
      </trkpt>
      <trkpt lat="43.95218" lon="7.27466">
        <ele>564.382</ele>
        <time>2011-09-11T06:43:41Z</time>
      </trkpt>
      <trkpt lat="43.95233" lon="7.27466">
        <ele>565.054</ele>
        <time>2011-09-11T06:43:49Z</time>
      </trkpt>
      <trkpt lat="43.95249" lon="7.27468">
        <ele>566.883</ele>
        <time>2011-09-11T06:43:57Z</time>
      </trkpt>
      <trkpt lat="43.95264" lon="7.27471">
        <ele>570.198</ele>
        <time>2011-09-11T06:44:05Z</time>
      </trkpt>
      <trkpt lat="43.95284" lon="7.27479">
        <ele>576.641</ele>
        <time>2011-09-11T06:44:16Z</time>
      </trkpt>
      <trkpt lat="43.95298" lon="7.27485">
        <ele>579.057</ele>
        <time>2011-09-11T06:44:23Z</time>
      </trkpt>
      <trkpt lat="43.95312" lon="7.27491">
        <ele>580.688</ele>
        <time>2011-09-11T06:44:30Z</time>
      </trkpt>
      <trkpt lat="43.95325" lon="7.275">
        <ele>581.026</ele>
        <time>2011-09-11T06:44:37Z</time>
      </trkpt>
      <trkpt lat="43.95343" lon="7.27513">
        <ele>580.075</ele>
        <time>2011-09-11T06:44:44Z</time>
      </trkpt>
      <trkpt lat="43.9536" lon="7.27524">
        <ele>580.105</ele>
        <time>2011-09-11T06:44:52Z</time>
      </trkpt>
      <trkpt lat="43.95377" lon="7.27531">
        <ele>579.814</ele>
        <time>2011-09-11T06:44:58Z</time>
      </trkpt>
      <trkpt lat="43.95396" lon="7.27536">
        <ele>576.901</ele>
        <time>2011-09-11T06:45:04Z</time>
      </trkpt>
      <trkpt lat="43.95417" lon="7.27536">
        <ele>575.922</ele>
        <time>2011-09-11T06:45:11Z</time>
      </trkpt>
      <trkpt lat="43.95433" lon="7.27532">
        <ele>575.832</ele>
        <time>2011-09-11T06:45:17Z</time>
      </trkpt>
      <trkpt lat="43.95448" lon="7.27523">
        <ele>577.322</ele>
        <time>2011-09-11T06:45:24Z</time>
      </trkpt>
      <trkpt lat="43.95459" lon="7.27514">
        <ele>579.114</ele>
        <time>2011-09-11T06:45:30Z</time>
      </trkpt>
      <trkpt lat="43.95473" lon="7.27501">
        <ele>581.915</ele>
        <time>2011-09-11T06:45:38Z</time>
      </trkpt>
      <trkpt lat="43.95487" lon="7.27488">
        <ele>586.146</ele>
        <time>2011-09-11T06:45:47Z</time>
      </trkpt>
      <trkpt lat="43.95497" lon="7.27478">
        <ele>588.686</ele>
        <time>2011-09-11T06:45:53Z</time>
      </trkpt>
      <trkpt lat="43.95509" lon="7.27466">
        <ele>590.204</ele>
        <time>2011-09-11T06:46:00Z</time>
      </trkpt>
      <trkpt lat="43.95521" lon="7.27449">
        <ele>589.022</ele>
        <time>2011-09-11T06:46:07Z</time>
      </trkpt>
      <trkpt lat="43.95533" lon="7.27436">
        <ele>588.911</ele>
        <time>2011-09-11T06:46:12Z</time>
      </trkpt>
      <trkpt lat="43.9554" lon="7.27417">
        <ele>588.332</ele>
        <time>2011-09-11T06:46:18Z</time>
      </trkpt>
      <trkpt lat="43.95545" lon="7.27396">
        <ele>590.644</ele>
        <time>2011-09-11T06:46:25Z</time>
      </trkpt>
      <trkpt lat="43.95553" lon="7.27383">
        <ele>591.054</ele>
        <time>2011-09-11T06:46:31Z</time>
      </trkpt>
      <trkpt lat="43.95567" lon="7.27372">
        <ele>593.697</ele>
        <time>2011-09-11T06:46:39Z</time>
      </trkpt>
      <trkpt lat="43.95581" lon="7.27361">
        <ele>596.106</ele>
        <time>2011-09-11T06:46:47Z</time>
      </trkpt>
      <trkpt lat="43.95598" lon="7.27348">
        <ele>597.745</ele>
        <time>2011-09-11T06:46:54Z</time>
      </trkpt>
      <trkpt lat="43.95609" lon="7.27331">
        <ele>600.535</ele>
        <time>2011-09-11T06:47:02Z</time>
      </trkpt>
      <trkpt lat="43.95608" lon="7.27322">
        <ele>602.908</ele>
        <time>2011-09-11T06:47:05Z</time>
      </trkpt>
      <trkpt lat="43.95601" lon="7.27311">
        <ele>607.097</ele>
        <time>2011-09-11T06:47:11Z</time>
      </trkpt>
      <trkpt lat="43.9559" lon="7.27298">
        <ele>609.207</ele>
        <time>2011-09-11T06:47:19Z</time>
      </trkpt>
      <trkpt lat="43.95581" lon="7.2728">
        <ele>612.597</ele>
        <time>2011-09-11T06:47:28Z</time>
      </trkpt>
      <trkpt lat="43.95575" lon="7.27272">
        <ele>615.429</ele>
        <time>2011-09-11T06:47:33Z</time>
      </trkpt>
      <trkpt lat="43.95569" lon="7.27259">
        <ele>619.741</ele>
        <time>2011-09-11T06:47:40Z</time>
      </trkpt>
      <trkpt lat="43.95566" lon="7.27251">
        <ele>622.261</ele>
        <time>2011-09-11T06:47:44Z</time>
      </trkpt>
      <trkpt lat="43.95558" lon="7.27233">
        <ele>618.546</ele>
        <time>2011-09-11T06:47:50Z</time>
      </trkpt>
      <trkpt lat="43.95549" lon="7.27213">
        <ele>619.916</ele>
        <time>2011-09-11T06:47:58Z</time>
      </trkpt>
      <trkpt lat="43.95544" lon="7.272">
        <ele>620.746</ele>
        <time>2011-09-11T06:48:04Z</time>
      </trkpt>
      <trkpt lat="43.95543" lon="7.27179">
        <ele>623.279</ele>
        <time>2011-09-11T06:48:12Z</time>
      </trkpt>
      <trkpt lat="43.95551" lon="7.27155">
        <ele>621.653</ele>
        <time>2011-09-11T06:48:20Z</time>
      </trkpt>
      <trkpt lat="43.95563" lon="7.27136">
        <ele>621.803</ele>
        <time>2011-09-11T06:48:27Z</time>
      </trkpt>
      <trkpt lat="43.95572" lon="7.27113">
        <ele>619.38</ele>
        <time>2011-09-11T06:48:35Z</time>
      </trkpt>
      <trkpt lat="43.95581" lon="7.27098">
        <ele>619.631</ele>
        <time>2011-09-11T06:48:41Z</time>
      </trkpt>
      <trkpt lat="43.95594" lon="7.27086">
        <ele>620.622</ele>
        <time>2011-09-11T06:48:48Z</time>
      </trkpt>
      <trkpt lat="43.95606" lon="7.27083">
        <ele>621.005</ele>
        <time>2011-09-11T06:48:53Z</time>
      </trkpt>
      <trkpt lat="43.95622" lon="7.27085">
        <ele>621.673</ele>
        <time>2011-09-11T06:49:00Z</time>
      </trkpt>
      <trkpt lat="43.95636" lon="7.27079">
        <ele>622.462</ele>
        <time>2011-09-11T06:49:06Z</time>
      </trkpt>
      <trkpt lat="43.95657" lon="7.27071">
        <ele>625.746</ele>
        <time>2011-09-11T06:49:15Z</time>
      </trkpt>
      <trkpt lat="43.9567" lon="7.27069">
        <ele>626.224</ele>
        <time>2011-09-11T06:49:21Z</time>
      </trkpt>
      <trkpt lat="43.95689" lon="7.27064">
        <ele>624.98</ele>
        <time>2011-09-11T06:49:29Z</time>
      </trkpt>
      <trkpt lat="43.95705" lon="7.27055">
        <ele>626.524</ele>
        <time>2011-09-11T06:49:36Z</time>
      </trkpt>
      <trkpt lat="43.95716" lon="7.2705">
        <ele>627.384</ele>
        <time>2011-09-11T06:49:41Z</time>
      </trkpt>
      <trkpt lat="43.9572" lon="7.2706">
        <ele>629.126</ele>
        <time>2011-09-11T06:49:45Z</time>
      </trkpt>
      <trkpt lat="43.95713" lon="7.27069">
        <ele>630.967</ele>
        <time>2011-09-11T06:49:49Z</time>
      </trkpt>
      <trkpt lat="43.95703" lon="7.27083">
        <ele>632.717</ele>
        <time>2011-09-11T06:49:55Z</time>
      </trkpt>
      <trkpt lat="43.95684" lon="7.27105">
        <ele>633.134</ele>
        <time>2011-09-11T06:50:05Z</time>
      </trkpt>
      <trkpt lat="43.95671" lon="7.27118">
        <ele>632.933</ele>
        <time>2011-09-11T06:50:12Z</time>
      </trkpt>
      <trkpt lat="43.95656" lon="7.27133">
        <ele>633.073</ele>
        <time>2011-09-11T06:50:19Z</time>
      </trkpt>
      <trkpt lat="43.95646" lon="7.27151">
        <ele>633.592</ele>
        <time>2011-09-11T06:50:25Z</time>
      </trkpt>
      <trkpt lat="43.95644" lon="7.27171">
        <ele>632.121</ele>
        <time>2011-09-11T06:50:31Z</time>
      </trkpt>
      <trkpt lat="43.9565" lon="7.27189">
        <ele>630.979</ele>
        <time>2011-09-11T06:50:36Z</time>
      </trkpt>
      <trkpt lat="43.95655" lon="7.2722">
        <ele>631.162</ele>
        <time>2011-09-11T06:50:45Z</time>
      </trkpt>
      <trkpt lat="43.95657" lon="7.27245">
        <ele>630.861</ele>
        <time>2011-09-11T06:50:52Z</time>
      </trkpt>
      <trkpt lat="43.95663" lon="7.27266">
        <ele>630.441</ele>
        <time>2011-09-11T06:50:59Z</time>
      </trkpt>
      <trkpt lat="43.95671" lon="7.27275">
        <ele>632.305</ele>
        <time>2011-09-11T06:51:04Z</time>
      </trkpt>
      <trkpt lat="43.95681" lon="7.27286">
        <ele>633.513</ele>
        <time>2011-09-11T06:51:10Z</time>
      </trkpt>
      <trkpt lat="43.95692" lon="7.27298">
        <ele>636.806</ele>
        <time>2011-09-11T06:51:17Z</time>
      </trkpt>
      <trkpt lat="43.95702" lon="7.27308">
        <ele>639.566</ele>
        <time>2011-09-11T06:51:23Z</time>
      </trkpt>
      <trkpt lat="43.95713" lon="7.27321">
        <ele>641.807</ele>
        <time>2011-09-11T06:51:30Z</time>
      </trkpt>
      <trkpt lat="43.95726" lon="7.27329">
        <ele>643.006</ele>
        <time>2011-09-11T06:51:37Z</time>
      </trkpt>
      <trkpt lat="43.95731" lon="7.27331">
        <ele>642.925</ele>
        <time>2011-09-11T06:51:39Z</time>
      </trkpt>
      <trkpt lat="43.95739" lon="7.27342">
        <ele>645.306</ele>
        <time>2011-09-11T06:51:45Z</time>
      </trkpt>
      <trkpt lat="43.95748" lon="7.27352">
        <ele>649.475</ele>
        <time>2011-09-11T06:51:52Z</time>
      </trkpt>
      <trkpt lat="43.95754" lon="7.27365">
        <ele>649.503</ele>
        <time>2011-09-11T06:51:57Z</time>
      </trkpt>
      <trkpt lat="43.95748" lon="7.27382">
        <ele>650.163</ele>
        <time>2011-09-11T06:52:03Z</time>
      </trkpt>
      <trkpt lat="43.95748" lon="7.274">
        <ele>649.412</ele>
        <time>2011-09-11T06:52:09Z</time>
      </trkpt>
      <trkpt lat="43.95755" lon="7.27413">
        <ele>647.029</ele>
        <time>2011-09-11T06:52:14Z</time>
      </trkpt>
      <trkpt lat="43.95762" lon="7.27426">
        <ele>647.42</ele>
        <time>2011-09-11T06:52:19Z</time>
      </trkpt>
      <trkpt lat="43.95765" lon="7.27451">
        <ele>649.623</ele>
        <time>2011-09-11T06:52:27Z</time>
      </trkpt>
      <trkpt lat="43.9576" lon="7.27472">
        <ele>650.741</ele>
        <time>2011-09-11T06:52:33Z</time>
      </trkpt>
      <trkpt lat="43.95759" lon="7.27497">
        <ele>649.83</ele>
        <time>2011-09-11T06:52:39Z</time>
      </trkpt>
      <trkpt lat="43.95755" lon="7.27521">
        <ele>651.253</ele>
        <time>2011-09-11T06:52:45Z</time>
      </trkpt>
      <trkpt lat="43.95742" lon="7.27539">
        <ele>651.462</ele>
        <time>2011-09-11T06:52:51Z</time>
      </trkpt>
      <trkpt lat="43.95729" lon="7.27549">
        <ele>652.342</ele>
        <time>2011-09-11T06:52:57Z</time>
      </trkpt>
      <trkpt lat="43.95716" lon="7.27561">
        <ele>653.032</ele>
        <time>2011-09-11T06:53:02Z</time>
      </trkpt>
      <trkpt lat="43.95706" lon="7.27578">
        <ele>654.376</ele>
        <time>2011-09-11T06:53:07Z</time>
      </trkpt>
      <trkpt lat="43.957" lon="7.2759">
        <ele>654.534</ele>
        <time>2011-09-11T06:53:11Z</time>
      </trkpt>
      <trkpt lat="43.95699" lon="7.27612">
        <ele>653.481</ele>
        <time>2011-09-11T06:53:16Z</time>
      </trkpt>
      <trkpt lat="43.957" lon="7.27622">
        <ele>653.5</ele>
        <time>2011-09-11T06:53:18Z</time>
      </trkpt>
      <trkpt lat="43.95702" lon="7.27653">
        <ele>652.428</ele>
        <time>2011-09-11T06:53:24Z</time>
      </trkpt>
      <trkpt lat="43.95701" lon="7.2767">
        <ele>652.569</ele>
        <time>2011-09-11T06:53:28Z</time>
      </trkpt>
      <trkpt lat="43.95711" lon="7.2767">
        <ele>652.922</ele>
        <time>2011-09-11T06:53:33Z</time>
      </trkpt>
      <trkpt lat="43.95716" lon="7.27663">
        <ele>655.289</ele>
        <time>2011-09-11T06:53:37Z</time>
      </trkpt>
      <trkpt lat="43.95716" lon="7.27661">
        <ele>655.938</ele>
        <time>2011-09-11T06:53:38Z</time>
      </trkpt>
      <trkpt lat="43.95716" lon="7.27652">
        <ele>660.212</ele>
        <time>2011-09-11T06:53:42Z</time>
      </trkpt>
      <trkpt lat="43.95717" lon="7.2764">
        <ele>663.102</ele>
        <time>2011-09-11T06:53:47Z</time>
      </trkpt>
      <trkpt lat="43.95727" lon="7.27625">
        <ele>661.523</ele>
        <time>2011-09-11T06:53:54Z</time>
      </trkpt>
      <trkpt lat="43.95737" lon="7.27615">
        <ele>660.523</ele>
        <time>2011-09-11T06:54:02Z</time>
      </trkpt>
      <trkpt lat="43.95737" lon="7.27615">
        <ele>660.723</ele>
        <time>2011-09-11T06:54:03Z</time>
      </trkpt>
      <trkpt lat="43.95747" lon="7.27605">
        <ele>664.903</ele>
        <time>2011-09-11T06:54:10Z</time>
      </trkpt>
      <trkpt lat="43.95762" lon="7.27589">
        <ele>666.735</ele>
        <time>2011-09-11T06:54:17Z</time>
      </trkpt>
      <trkpt lat="43.95771" lon="7.27576">
        <ele>668.727</ele>
        <time>2011-09-11T06:54:22Z</time>
      </trkpt>
      <trkpt lat="43.95779" lon="7.27558">
        <ele>667.903</ele>
        <time>2011-09-11T06:54:29Z</time>
      </trkpt>
      <trkpt lat="43.95784" lon="7.27547">
        <ele>666.282</ele>
        <time>2011-09-11T06:54:34Z</time>
      </trkpt>
      <trkpt lat="43.95788" lon="7.27537">
        <ele>666.002</ele>
        <time>2011-09-11T06:54:39Z</time>
      </trkpt>
      <trkpt lat="43.958" lon="7.27526">
        <ele>669.035</ele>
        <time>2011-09-11T06:54:46Z</time>
      </trkpt>
      <trkpt lat="43.95811" lon="7.27512">
        <ele>672.767</ele>
        <time>2011-09-11T06:54:53Z</time>
      </trkpt>
      <trkpt lat="43.95816" lon="7.27495">
        <ele>680.332</ele>
        <time>2011-09-11T06:55:00Z</time>
      </trkpt>
      <trkpt lat="43.95823" lon="7.2748">
        <ele>687.696</ele>
        <time>2011-09-11T06:55:06Z</time>
      </trkpt>
      <trkpt lat="43.95829" lon="7.27462">
        <ele>690.243</ele>
        <time>2011-09-11T06:55:12Z</time>
      </trkpt>
      <trkpt lat="43.95832" lon="7.27444">
        <ele>687.887</ele>
        <time>2011-09-11T06:55:19Z</time>
      </trkpt>
      <trkpt lat="43.95835" lon="7.27424">
        <ele>688.105</ele>
        <time>2011-09-11T06:55:26Z</time>
      </trkpt>
      <trkpt lat="43.95837" lon="7.27414">
        <ele>688.016</ele>
        <time>2011-09-11T06:55:30Z</time>
      </trkpt>
      <trkpt lat="43.95849" lon="7.27404">
        <ele>686.742</ele>
        <time>2011-09-11T06:55:37Z</time>
      </trkpt>
      <trkpt lat="43.95851" lon="7.27402">
        <ele>686.59</ele>
        <time>2011-09-11T06:55:38Z</time>
      </trkpt>
      <trkpt lat="43.95861" lon="7.27387">
        <ele>689.517</ele>
        <time>2011-09-11T06:55:44Z</time>
      </trkpt>
      <trkpt lat="43.95861" lon="7.27381">
        <ele>691.78</ele>
        <time>2011-09-11T06:55:46Z</time>
      </trkpt>
      <trkpt lat="43.95861" lon="7.27372">
        <ele>695.824</ele>
        <time>2011-09-11T06:55:50Z</time>
      </trkpt>
      <trkpt lat="43.95853" lon="7.27353">
        <ele>696.841</ele>
        <time>2011-09-11T06:55:57Z</time>
      </trkpt>
      <trkpt lat="43.95844" lon="7.27343">
        <ele>695.057</ele>
        <time>2011-09-11T06:56:03Z</time>
      </trkpt>
      <trkpt lat="43.95837" lon="7.2733">
        <ele>694.766</ele>
        <time>2011-09-11T06:56:08Z</time>
      </trkpt>
      <trkpt lat="43.95828" lon="7.27316">
        <ele>696.316</ele>
        <time>2011-09-11T06:56:15Z</time>
      </trkpt>
      <trkpt lat="43.95817" lon="7.27304">
        <ele>694.087</ele>
        <time>2011-09-11T06:56:22Z</time>
      </trkpt>
      <trkpt lat="43.95809" lon="7.27289">
        <ele>695.78</ele>
        <time>2011-09-11T06:56:29Z</time>
      </trkpt>
      <trkpt lat="43.95809" lon="7.2727">
        <ele>695.908</ele>
        <time>2011-09-11T06:56:35Z</time>
      </trkpt>
      <trkpt lat="43.95815" lon="7.27251">
        <ele>695.484</ele>
        <time>2011-09-11T06:56:41Z</time>
      </trkpt>
      <trkpt lat="43.95831" lon="7.27237">
        <ele>695.853</ele>
        <time>2011-09-11T06:56:49Z</time>
      </trkpt>
      <trkpt lat="43.95844" lon="7.27226">
        <ele>695.682</ele>
        <time>2011-09-11T06:56:56Z</time>
      </trkpt>
      <trkpt lat="43.95853" lon="7.27215">
        <ele>697.675</ele>
        <time>2011-09-11T06:57:02Z</time>
      </trkpt>
      <trkpt lat="43.95861" lon="7.27197">
        <ele>696.802</ele>
        <time>2011-09-11T06:57:08Z</time>
      </trkpt>
      <trkpt lat="43.95872" lon="7.27175">
        <ele>696.742</ele>
        <time>2011-09-11T06:57:15Z</time>
      </trkpt>
      <trkpt lat="43.95883" lon="7.2715">
        <ele>698.074</ele>
        <time>2011-09-11T06:57:23Z</time>
      </trkpt>
      <trkpt lat="43.95891" lon="7.27125">
        <ele>698.452</ele>
        <time>2011-09-11T06:57:30Z</time>
      </trkpt>
      <trkpt lat="43.95899" lon="7.27108">
        <ele>697.802</ele>
        <time>2011-09-11T06:57:35Z</time>
      </trkpt>
      <trkpt lat="43.95912" lon="7.27075">
        <ele>695.808</ele>
        <time>2011-09-11T06:57:44Z</time>
      </trkpt>
      <trkpt lat="43.95928" lon="7.27057">
        <ele>693.877</ele>
        <time>2011-09-11T06:57:49Z</time>
      </trkpt>
      <trkpt lat="43.95947" lon="7.2704">
        <ele>693.138</ele>
        <time>2011-09-11T06:57:55Z</time>
      </trkpt>
      <trkpt lat="43.95955" lon="7.27027">
        <ele>696.343</ele>
        <time>2011-09-11T06:58:00Z</time>
      </trkpt>
      <trkpt lat="43.9596" lon="7.27">
        <ele>701.746</ele>
        <time>2011-09-11T06:58:07Z</time>
      </trkpt>
      <trkpt lat="43.95968" lon="7.26979">
        <ele>702.354</ele>
        <time>2011-09-11T06:58:13Z</time>
      </trkpt>
      <trkpt lat="43.95978" lon="7.26962">
        <ele>699.782</ele>
        <time>2011-09-11T06:58:18Z</time>
      </trkpt>
      <trkpt lat="43.9599" lon="7.26955">
        <ele>700.524</ele>
        <time>2011-09-11T06:58:23Z</time>
      </trkpt>
      <trkpt lat="43.96001" lon="7.2696">
        <ele>700.142</ele>
        <time>2011-09-11T06:58:28Z</time>
      </trkpt>
      <trkpt lat="43.96009" lon="7.26967">
        <ele>699.581</ele>
        <time>2011-09-11T06:58:32Z</time>
      </trkpt>
      <trkpt lat="43.96023" lon="7.2697">
        <ele>700.422</ele>
        <time>2011-09-11T06:58:37Z</time>
      </trkpt>
      <trkpt lat="43.96035" lon="7.26979">
        <ele>702.644</ele>
        <time>2011-09-11T06:58:42Z</time>
      </trkpt>
      <trkpt lat="43.96038" lon="7.26981">
        <ele>702.994</ele>
        <time>2011-09-11T06:58:43Z</time>
      </trkpt>
      <trkpt lat="43.96058" lon="7.26974">
        <ele>703.3</ele>
        <time>2011-09-11T06:58:49Z</time>
      </trkpt>
      <trkpt lat="43.96075" lon="7.26974">
        <ele>699.778</ele>
        <time>2011-09-11T06:58:54Z</time>
      </trkpt>
      <trkpt lat="43.96091" lon="7.2697">
        <ele>697.357</ele>
        <time>2011-09-11T06:58:59Z</time>
      </trkpt>
      <trkpt lat="43.96103" lon="7.26974">
        <ele>696.217</ele>
        <time>2011-09-11T06:59:03Z</time>
      </trkpt>
      <trkpt lat="43.96119" lon="7.26978">
        <ele>695.858</ele>
        <time>2011-09-11T06:59:08Z</time>
      </trkpt>
      <trkpt lat="43.96128" lon="7.2698">
        <ele>701.575</ele>
        <time>2011-09-11T06:59:13Z</time>
      </trkpt>
      <trkpt lat="43.96139" lon="7.26985">
        <ele>703.593</ele>
        <time>2011-09-11T06:59:18Z</time>
      </trkpt>
      <trkpt lat="43.96153" lon="7.26981">
        <ele>706.942</ele>
        <time>2011-09-11T06:59:25Z</time>
      </trkpt>
      <trkpt lat="43.96159" lon="7.26974">
        <ele>707.442</ele>
        <time>2011-09-11T06:59:30Z</time>
      </trkpt>
      <trkpt lat="43.96166" lon="7.26957">
        <ele>709.593</ele>
        <time>2011-09-11T06:59:36Z</time>
      </trkpt>
      <trkpt lat="43.96179" lon="7.26947">
        <ele>709.7</ele>
        <time>2011-09-11T06:59:42Z</time>
      </trkpt>
      <trkpt lat="43.96194" lon="7.26941">
        <ele>709.027</ele>
        <time>2011-09-11T06:59:49Z</time>
      </trkpt>
      <trkpt lat="43.96203" lon="7.26933">
        <ele>710.812</ele>
        <time>2011-09-11T06:59:55Z</time>
      </trkpt>
      <trkpt lat="43.96205" lon="7.26932">
        <ele>710.812</ele>
        <time>2011-09-11T06:59:56Z</time>
      </trkpt>
      <trkpt lat="43.96218" lon="7.26933">
        <ele>712.182</ele>
        <time>2011-09-11T07:00:02Z</time>
      </trkpt>
      <trkpt lat="43.96228" lon="7.2692">
        <ele>713.131</ele>
        <time>2011-09-11T07:00:09Z</time>
      </trkpt>
      <trkpt lat="43.96238" lon="7.2691">
        <ele>712.848</ele>
        <time>2011-09-11T07:00:16Z</time>
      </trkpt>
      <trkpt lat="43.96247" lon="7.26894">
        <ele>716.291</ele>
        <time>2011-09-11T07:00:24Z</time>
      </trkpt>
      <trkpt lat="43.96257" lon="7.26878">
        <ele>720.393</ele>
        <time>2011-09-11T07:00:32Z</time>
      </trkpt>
      <trkpt lat="43.96265" lon="7.2687">
        <ele>721.284</ele>
        <time>2011-09-11T07:00:38Z</time>
      </trkpt>
      <trkpt lat="43.96273" lon="7.26859">
        <ele>724.031</ele>
        <time>2011-09-11T07:00:44Z</time>
      </trkpt>
      <trkpt lat="43.96273" lon="7.26857">
        <ele>724.711</ele>
        <time>2011-09-11T07:00:45Z</time>
      </trkpt>
      <trkpt lat="43.9628" lon="7.26842">
        <ele>728.272</ele>
        <time>2011-09-11T07:00:52Z</time>
      </trkpt>
      <trkpt lat="43.96288" lon="7.26827">
        <ele>727.572</ele>
        <time>2011-09-11T07:01:00Z</time>
      </trkpt>
      <trkpt lat="43.96302" lon="7.26817">
        <ele>727.892</ele>
        <time>2011-09-11T07:01:08Z</time>
      </trkpt>
      <trkpt lat="43.96313" lon="7.26813">
        <ele>726.9</ele>
        <time>2011-09-11T07:01:15Z</time>
      </trkpt>
      <trkpt lat="43.96322" lon="7.26814">
        <ele>726.22</ele>
        <time>2011-09-11T07:01:21Z</time>
      </trkpt>
      <trkpt lat="43.96339" lon="7.26809">
        <ele>728.492</ele>
        <time>2011-09-11T07:01:29Z</time>
      </trkpt>
      <trkpt lat="43.96355" lon="7.26803">
        <ele>728.701</ele>
        <time>2011-09-11T07:01:35Z</time>
      </trkpt>
      <trkpt lat="43.96366" lon="7.26797">
        <ele>733.608</ele>
        <time>2011-09-11T07:01:40Z</time>
      </trkpt>
      <trkpt lat="43.96376" lon="7.26791">
        <ele>737.717</ele>
        <time>2011-09-11T07:01:46Z</time>
      </trkpt>
      <trkpt lat="43.96389" lon="7.26786">
        <ele>735.929</ele>
        <time>2011-09-11T07:01:53Z</time>
      </trkpt>
      <trkpt lat="43.96402" lon="7.26786">
        <ele>731.547</ele>
        <time>2011-09-11T07:01:59Z</time>
      </trkpt>
      <trkpt lat="43.96418" lon="7.2679">
        <ele>731.89</ele>
        <time>2011-09-11T07:02:06Z</time>
      </trkpt>
      <trkpt lat="43.9643" lon="7.26795">
        <ele>732.301</ele>
        <time>2011-09-11T07:02:12Z</time>
      </trkpt>
      <trkpt lat="43.96448" lon="7.26798">
        <ele>736.905</ele>
        <time>2011-09-11T07:02:19Z</time>
      </trkpt>
      <trkpt lat="43.96461" lon="7.26806">
        <ele>742.193</ele>
        <time>2011-09-11T07:02:25Z</time>
      </trkpt>
      <trkpt lat="43.96464" lon="7.26808">
        <ele>743.454</ele>
        <time>2011-09-11T07:02:27Z</time>
      </trkpt>
      <trkpt lat="43.96472" lon="7.26806">
        <ele>752.539</ele>
        <time>2011-09-11T07:02:32Z</time>
      </trkpt>
      <trkpt lat="43.96483" lon="7.26806">
        <ele>765.741</ele>
        <time>2011-09-11T07:02:39Z</time>
      </trkpt>
      <trkpt lat="43.96497" lon="7.26814">
        <ele>761.465</ele>
        <time>2011-09-11T07:02:45Z</time>
      </trkpt>
      <trkpt lat="43.96512" lon="7.2682">
        <ele>754.884</ele>
        <time>2011-09-11T07:02:51Z</time>
      </trkpt>
      <trkpt lat="43.96527" lon="7.26826">
        <ele>746.979</ele>
        <time>2011-09-11T07:02:58Z</time>
      </trkpt>
      <trkpt lat="43.96539" lon="7.26832">
        <ele>741.892</ele>
        <time>2011-09-11T07:03:04Z</time>
      </trkpt>
      <trkpt lat="43.96549" lon="7.26834">
        <ele>740.635</ele>
        <time>2011-09-11T07:03:09Z</time>
      </trkpt>
      <trkpt lat="43.96559" lon="7.26836">
        <ele>741.562</ele>
        <time>2011-09-11T07:03:15Z</time>
      </trkpt>
      <trkpt lat="43.96572" lon="7.26838">
        <ele>743.713</ele>
        <time>2011-09-11T07:03:21Z</time>
      </trkpt>
      <trkpt lat="43.96584" lon="7.26837">
        <ele>744.973</ele>
        <time>2011-09-11T07:03:27Z</time>
      </trkpt>
      <trkpt lat="43.96595" lon="7.26832">
        <ele>750.556</ele>
        <time>2011-09-11T07:03:33Z</time>
      </trkpt>
      <trkpt lat="43.96609" lon="7.26828">
        <ele>752.496</ele>
        <time>2011-09-11T07:03:40Z</time>
      </trkpt>
      <trkpt lat="43.9662" lon="7.26826">
        <ele>751.213</ele>
        <time>2011-09-11T07:03:47Z</time>
      </trkpt>
      <trkpt lat="43.96633" lon="7.26824">
        <ele>749.72</ele>
        <time>2011-09-11T07:03:54Z</time>
      </trkpt>
      <trkpt lat="43.96644" lon="7.26821">
        <ele>750.322</ele>
        <time>2011-09-11T07:04:00Z</time>
      </trkpt>
      <trkpt lat="43.96653" lon="7.26812">
        <ele>758.406</ele>
        <time>2011-09-11T07:04:08Z</time>
      </trkpt>
      <trkpt lat="43.96656" lon="7.26808">
        <ele>761.458</ele>
        <time>2011-09-11T07:04:11Z</time>
      </trkpt>
      <trkpt lat="43.96661" lon="7.26797">
        <ele>766.048</ele>
        <time>2011-09-11T07:04:17Z</time>
      </trkpt>
      <trkpt lat="43.96668" lon="7.26786">
        <ele>768.547</ele>
        <time>2011-09-11T07:04:24Z</time>
      </trkpt>
      <trkpt lat="43.96675" lon="7.26777">
        <ele>767.262</ele>
        <time>2011-09-11T07:04:31Z</time>
      </trkpt>
      <trkpt lat="43.9668" lon="7.26767">
        <ele>769.042</ele>
        <time>2011-09-11T07:04:38Z</time>
      </trkpt>
      <trkpt lat="43.96689" lon="7.26756">
        <ele>767.931</ele>
        <time>2011-09-11T07:04:45Z</time>
      </trkpt>
      <trkpt lat="43.96697" lon="7.26748">
        <ele>768.531</ele>
        <time>2011-09-11T07:04:51Z</time>
      </trkpt>
      <trkpt lat="43.96704" lon="7.26747">
        <ele>767.841</ele>
        <time>2011-09-11T07:04:56Z</time>
      </trkpt>
      <trkpt lat="43.96719" lon="7.26747">
        <ele>764.889</ele>
        <time>2011-09-11T07:05:05Z</time>
      </trkpt>
      <trkpt lat="43.9673" lon="7.26744">
        <ele>763.208</ele>
        <time>2011-09-11T07:05:12Z</time>
      </trkpt>
      <trkpt lat="43.96739" lon="7.26738">
        <ele>764.421</ele>
        <time>2011-09-11T07:05:18Z</time>
      </trkpt>
      <trkpt lat="43.96745" lon="7.26726">
        <ele>770.007</ele>
        <time>2011-09-11T07:05:24Z</time>
      </trkpt>
      <trkpt lat="43.96749" lon="7.2671">
        <ele>772.716</ele>
        <time>2011-09-11T07:05:30Z</time>
      </trkpt>
      <trkpt lat="43.96758" lon="7.26698">
        <ele>772.153</ele>
        <time>2011-09-11T07:05:36Z</time>
      </trkpt>
      <trkpt lat="43.96762" lon="7.26695">
        <ele>772.942</ele>
        <time>2011-09-11T07:05:39Z</time>
      </trkpt>
      <trkpt lat="43.9677" lon="7.26694">
        <ele>772.873</ele>
        <time>2011-09-11T07:05:44Z</time>
      </trkpt>
      <trkpt lat="43.96783" lon="7.26695">
        <ele>773.823</ele>
        <time>2011-09-11T07:05:53Z</time>
      </trkpt>
      <trkpt lat="43.96796" lon="7.267">
        <ele>773.36</ele>
        <time>2011-09-11T07:06:01Z</time>
      </trkpt>
      <trkpt lat="43.96807" lon="7.26697">
        <ele>777.933</ele>
        <time>2011-09-11T07:06:08Z</time>
      </trkpt>
      <trkpt lat="43.96816" lon="7.26692">
        <ele>781.702</ele>
        <time>2011-09-11T07:06:15Z</time>
      </trkpt>
      <trkpt lat="43.96829" lon="7.26692">
        <ele>779.68</ele>
        <time>2011-09-11T07:06:24Z</time>
      </trkpt>
      <trkpt lat="43.96838" lon="7.26692">
        <ele>782.164</ele>
        <time>2011-09-11T07:06:31Z</time>
      </trkpt>
      <trkpt lat="43.96848" lon="7.26688">
        <ele>783.22</ele>
        <time>2011-09-11T07:06:38Z</time>
      </trkpt>
      <trkpt lat="43.96851" lon="7.26687">
        <ele>784.343</ele>
        <time>2011-09-11T07:06:40Z</time>
      </trkpt>
      <trkpt lat="43.96865" lon="7.26685">
        <ele>780.909</ele>
        <time>2011-09-11T07:06:48Z</time>
      </trkpt>
      <trkpt lat="43.96866" lon="7.26686">
        <ele>780.559</ele>
        <time>2011-09-11T07:06:49Z</time>
      </trkpt>
      <trkpt lat="43.96869" lon="7.267">
        <ele>781.703</ele>
        <time>2011-09-11T07:06:56Z</time>
      </trkpt>
      <trkpt lat="43.96868" lon="7.26705">
        <ele>788.204</ele>
        <time>2011-09-11T07:07:01Z</time>
      </trkpt>
      <trkpt lat="43.96877" lon="7.26719">
        <ele>793.492</ele>
        <time>2011-09-11T07:07:09Z</time>
      </trkpt>
      <trkpt lat="43.96884" lon="7.26727">
        <ele>798.635</ele>
        <time>2011-09-11T07:07:15Z</time>
      </trkpt>
      <trkpt lat="43.96891" lon="7.26739">
        <ele>801.301</ele>
        <time>2011-09-11T07:07:20Z</time>
      </trkpt>
      <trkpt lat="43.96903" lon="7.26764">
        <ele>793.827</ele>
        <time>2011-09-11T07:07:27Z</time>
      </trkpt>
      <trkpt lat="43.96911" lon="7.2678">
        <ele>794.047</ele>
        <time>2011-09-11T07:07:33Z</time>
      </trkpt>
      <trkpt lat="43.96914" lon="7.26792">
        <ele>791.302</ele>
        <time>2011-09-11T07:07:37Z</time>
      </trkpt>
      <trkpt lat="43.96918" lon="7.26794">
        <ele>797.165</ele>
        <time>2011-09-11T07:07:41Z</time>
      </trkpt>
      <trkpt lat="43.96928" lon="7.26795">
        <ele>807.455</ele>
        <time>2011-09-11T07:07:47Z</time>
      </trkpt>
      <trkpt lat="43.96937" lon="7.26788">
        <ele>815.478</ele>
        <time>2011-09-11T07:07:52Z</time>
      </trkpt>
      <trkpt lat="43.96941" lon="7.26785">
        <ele>817.445</ele>
        <time>2011-09-11T07:07:54Z</time>
      </trkpt>
      <trkpt lat="43.96957" lon="7.26775">
        <ele>829.171</ele>
        <time>2011-09-11T07:08:00Z</time>
      </trkpt>
      <trkpt lat="43.96971" lon="7.26776">
        <ele>828.781</ele>
        <time>2011-09-11T07:08:05Z</time>
      </trkpt>
      <trkpt lat="43.96985" lon="7.26777">
        <ele>819.65</ele>
        <time>2011-09-11T07:08:10Z</time>
      </trkpt>
      <trkpt lat="43.97002" lon="7.26795">
        <ele>807.312</ele>
        <time>2011-09-11T07:08:16Z</time>
      </trkpt>
      <trkpt lat="43.9702" lon="7.26804">
        <ele>800.999</ele>
        <time>2011-09-11T07:08:22Z</time>
      </trkpt>
      <trkpt lat="43.97035" lon="7.26808">
        <ele>799.814</ele>
        <time>2011-09-11T07:08:28Z</time>
      </trkpt>
      <trkpt lat="43.97055" lon="7.26811">
        <ele>798.416</ele>
        <time>2011-09-11T07:08:35Z</time>
      </trkpt>
      <trkpt lat="43.97063" lon="7.26814">
        <ele>797.247</ele>
        <time>2011-09-11T07:08:38Z</time>
      </trkpt>
      <trkpt lat="43.97069" lon="7.26824">
        <ele>795.187</ele>
        <time>2011-09-11T07:08:42Z</time>
      </trkpt>
      <trkpt lat="43.97089" lon="7.26831">
        <ele>794.017</ele>
        <time>2011-09-11T07:08:48Z</time>
      </trkpt>
      <trkpt lat="43.97111" lon="7.26839">
        <ele>794.831</ele>
        <time>2011-09-11T07:08:55Z</time>
      </trkpt>
      <trkpt lat="43.97132" lon="7.26846">
        <ele>794.4</ele>
        <time>2011-09-11T07:09:03Z</time>
      </trkpt>
      <trkpt lat="43.97148" lon="7.26848">
        <ele>794.59</ele>
        <time>2011-09-11T07:09:08Z</time>
      </trkpt>
      <trkpt lat="43.97155" lon="7.2685">
        <ele>794.851</ele>
        <time>2011-09-11T07:09:10Z</time>
      </trkpt>
      <trkpt lat="43.97164" lon="7.26864">
        <ele>793.332</ele>
        <time>2011-09-11T07:09:14Z</time>
      </trkpt>
      <trkpt lat="43.97165" lon="7.26869">
        <ele>793.672</ele>
        <time>2011-09-11T07:09:15Z</time>
      </trkpt>
      <trkpt lat="43.97165" lon="7.26876">
        <ele>796.426</ele>
        <time>2011-09-11T07:09:17Z</time>
      </trkpt>
      <trkpt lat="43.97173" lon="7.26878">
        <ele>800.49</ele>
        <time>2011-09-11T07:09:21Z</time>
      </trkpt>
      <trkpt lat="43.97188" lon="7.26877">
        <ele>803.629</ele>
        <time>2011-09-11T07:09:25Z</time>
      </trkpt>
      <trkpt lat="43.972" lon="7.26892">
        <ele>807.242</ele>
        <time>2011-09-11T07:09:31Z</time>
      </trkpt>
      <trkpt lat="43.97202" lon="7.26895">
        <ele>806.75</ele>
        <time>2011-09-11T07:09:32Z</time>
      </trkpt>
      <trkpt lat="43.97216" lon="7.2691">
        <ele>811.63</ele>
        <time>2011-09-11T07:09:39Z</time>
      </trkpt>
      <trkpt lat="43.97223" lon="7.26921">
        <ele>812.75</ele>
        <time>2011-09-11T07:09:44Z</time>
      </trkpt>
      <trkpt lat="43.97228" lon="7.26932">
        <ele>814.35</ele>
        <time>2011-09-11T07:09:50Z</time>
      </trkpt>
      <trkpt lat="43.97235" lon="7.2695">
        <ele>811.044</ele>
        <time>2011-09-11T07:09:56Z</time>
      </trkpt>
      <trkpt lat="43.97242" lon="7.26964">
        <ele>812.185</ele>
        <time>2011-09-11T07:10:01Z</time>
      </trkpt>
      <trkpt lat="43.97257" lon="7.26975">
        <ele>803.578</ele>
        <time>2011-09-11T07:10:06Z</time>
      </trkpt>
      <trkpt lat="43.97258" lon="7.26975">
        <ele>804.631</ele>
        <time>2011-09-11T07:10:07Z</time>
      </trkpt>
      <trkpt lat="43.97258" lon="7.26955">
        <ele>809.691</ele>
        <time>2011-09-11T07:10:12Z</time>
      </trkpt>
      <trkpt lat="43.97261" lon="7.26936">
        <ele>808.55</ele>
        <time>2011-09-11T07:10:16Z</time>
      </trkpt>
      <trkpt lat="43.97269" lon="7.26916">
        <ele>813.256</ele>
        <time>2011-09-11T07:10:20Z</time>
      </trkpt>
      <trkpt lat="43.97276" lon="7.26901">
        <ele>814.568</ele>
        <time>2011-09-11T07:10:24Z</time>
      </trkpt>
      <trkpt lat="43.97283" lon="7.26888">
        <ele>814.695</ele>
        <time>2011-09-11T07:10:30Z</time>
      </trkpt>
      <trkpt lat="43.97291" lon="7.26888">
        <ele>814.033</ele>
        <time>2011-09-11T07:10:35Z</time>
      </trkpt>
      <trkpt lat="43.97308" lon="7.26894">
        <ele>808.921</ele>
        <time>2011-09-11T07:10:43Z</time>
      </trkpt>
      <trkpt lat="43.9732" lon="7.26901">
        <ele>808.031</ele>
        <time>2011-09-11T07:10:50Z</time>
      </trkpt>
      <trkpt lat="43.97329" lon="7.26905">
        <ele>811.177</ele>
        <time>2011-09-11T07:10:56Z</time>
      </trkpt>
      <trkpt lat="43.9734" lon="7.26914">
        <ele>807.671</ele>
        <time>2011-09-11T07:11:02Z</time>
      </trkpt>
      <trkpt lat="43.97354" lon="7.26918">
        <ele>810.032</ele>
        <time>2011-09-11T07:11:09Z</time>
      </trkpt>
      <trkpt lat="43.97371" lon="7.2692">
        <ele>811.684</ele>
        <time>2011-09-11T07:11:16Z</time>
      </trkpt>
      <trkpt lat="43.97383" lon="7.26915">
        <ele>819.432</ele>
        <time>2011-09-11T07:11:22Z</time>
      </trkpt>
      <trkpt lat="43.97394" lon="7.26914">
        <ele>823.482</ele>
        <time>2011-09-11T07:11:28Z</time>
      </trkpt>
      <trkpt lat="43.97402" lon="7.26912">
        <ele>822.165</ele>
        <time>2011-09-11T07:11:32Z</time>
      </trkpt>
      <trkpt lat="43.97405" lon="7.2691">
        <ele>820.923</ele>
        <time>2011-09-11T07:11:34Z</time>
      </trkpt>
      <trkpt lat="43.974" lon="7.26901">
        <ele>825.379</ele>
        <time>2011-09-11T07:11:40Z</time>
      </trkpt>
      <trkpt lat="43.97398" lon="7.26901">
        <ele>826.401</ele>
        <time>2011-09-11T07:11:41Z</time>
      </trkpt>
      <trkpt lat="43.97385" lon="7.26891">
        <ele>830.742</ele>
        <time>2011-09-11T07:11:48Z</time>
      </trkpt>
      <trkpt lat="43.97374" lon="7.26873">
        <ele>835.729</ele>
        <time>2011-09-11T07:11:57Z</time>
      </trkpt>
      <trkpt lat="43.97375" lon="7.26855">
        <ele>837.358</ele>
        <time>2011-09-11T07:12:04Z</time>
      </trkpt>
      <trkpt lat="43.97378" lon="7.26839">
        <ele>839.028</ele>
        <time>2011-09-11T07:12:11Z</time>
      </trkpt>
      <trkpt lat="43.97377" lon="7.26826">
        <ele>837.207</ele>
        <time>2011-09-11T07:12:16Z</time>
      </trkpt>
      <trkpt lat="43.97368" lon="7.26814">
        <ele>839.427</ele>
        <time>2011-09-11T07:12:22Z</time>
      </trkpt>
      <trkpt lat="43.97367" lon="7.26812">
        <ele>839.797</ele>
        <time>2011-09-11T07:12:23Z</time>
      </trkpt>
      <trkpt lat="43.97368" lon="7.268">
        <ele>841.119</ele>
        <time>2011-09-11T07:12:28Z</time>
      </trkpt>
      <trkpt lat="43.9737" lon="7.2678">
        <ele>843.538</ele>
        <time>2011-09-11T07:12:36Z</time>
      </trkpt>
      <trkpt lat="43.97367" lon="7.26766">
        <ele>848.402</ele>
        <time>2011-09-11T07:12:42Z</time>
      </trkpt>
      <trkpt lat="43.97366" lon="7.26765">
        <ele>849.844</ele>
        <time>2011-09-11T07:12:43Z</time>
      </trkpt>
      <trkpt lat="43.97353" lon="7.26764">
        <ele>861.407</ele>
        <time>2011-09-11T07:12:52Z</time>
      </trkpt>
      <trkpt lat="43.97343" lon="7.26756">
        <ele>851.735</ele>
        <time>2011-09-11T07:12:58Z</time>
      </trkpt>
      <trkpt lat="43.97333" lon="7.26746">
        <ele>853.057</ele>
        <time>2011-09-11T07:13:05Z</time>
      </trkpt>
      <trkpt lat="43.97332" lon="7.26733">
        <ele>856.298</ele>
        <time>2011-09-11T07:13:11Z</time>
      </trkpt>
      <trkpt lat="43.97327" lon="7.26726">
        <ele>861.591</ele>
        <time>2011-09-11T07:13:17Z</time>
      </trkpt>
      <trkpt lat="43.97318" lon="7.26719">
        <ele>860.338</ele>
        <time>2011-09-11T07:13:23Z</time>
      </trkpt>
      <trkpt lat="43.97315" lon="7.26716">
        <ele>864.131</ele>
        <time>2011-09-11T07:13:27Z</time>
      </trkpt>
      <trkpt lat="43.97303" lon="7.26701">
        <ele>852.901</ele>
        <time>2011-09-11T07:13:36Z</time>
      </trkpt>
      <trkpt lat="43.97298" lon="7.26691">
        <ele>851.992</ele>
        <time>2011-09-11T07:13:42Z</time>
      </trkpt>
      <trkpt lat="43.97297" lon="7.26681">
        <ele>855.587</ele>
        <time>2011-09-11T07:13:48Z</time>
      </trkpt>
      <trkpt lat="43.97296" lon="7.26673">
        <ele>857.246</ele>
        <time>2011-09-11T07:13:53Z</time>
      </trkpt>
      <trkpt lat="43.97298" lon="7.26662">
        <ele>861.289</ele>
        <time>2011-09-11T07:14:01Z</time>
      </trkpt>
      <trkpt lat="43.97298" lon="7.26645">
        <ele>861.051</ele>
        <time>2011-09-11T07:14:09Z</time>
      </trkpt>
      <trkpt lat="43.97296" lon="7.26643">
        <ele>862.58</ele>
        <time>2011-09-11T07:14:11Z</time>
      </trkpt>
      <trkpt lat="43.97288" lon="7.26638">
        <ele>865.12</ele>
        <time>2011-09-11T07:14:19Z</time>
      </trkpt>
      <trkpt lat="43.97279" lon="7.26633">
        <ele>869.969</ele>
        <time>2011-09-11T07:14:27Z</time>
      </trkpt>
      <trkpt lat="43.97267" lon="7.26622">
        <ele>863.531</ele>
        <time>2011-09-11T07:14:35Z</time>
      </trkpt>
      <trkpt lat="43.97258" lon="7.26614">
        <ele>862.663</ele>
        <time>2011-09-11T07:14:43Z</time>
      </trkpt>
      <trkpt lat="43.97257" lon="7.26613">
        <ele>862.953</ele>
        <time>2011-09-11T07:14:44Z</time>
      </trkpt>
      <trkpt lat="43.97259" lon="7.26606">
        <ele>863.765</ele>
        <time>2011-09-11T07:14:48Z</time>
      </trkpt>
      <trkpt lat="43.97264" lon="7.26594">
        <ele>868.097</ele>
        <time>2011-09-11T07:14:56Z</time>
      </trkpt>
      <trkpt lat="43.97267" lon="7.26584">
        <ele>867.335</ele>
        <time>2011-09-11T07:15:03Z</time>
      </trkpt>
      <trkpt lat="43.97267" lon="7.26578">
        <ele>869.015</ele>
        <time>2011-09-11T07:15:07Z</time>
      </trkpt>
      <trkpt lat="43.97268" lon="7.26568">
        <ele>872.387</ele>
        <time>2011-09-11T07:15:13Z</time>
      </trkpt>
      <trkpt lat="43.9727" lon="7.26555">
        <ele>873.146</ele>
        <time>2011-09-11T07:15:20Z</time>
      </trkpt>
      <trkpt lat="43.97271" lon="7.26552">
        <ele>872.035</ele>
        <time>2011-09-11T07:15:21Z</time>
      </trkpt>
      <trkpt lat="43.97274" lon="7.26542">
        <ele>876.137</ele>
        <time>2011-09-11T07:15:28Z</time>
      </trkpt>
      <trkpt lat="43.9728" lon="7.26531">
        <ele>875.404</ele>
        <time>2011-09-11T07:15:36Z</time>
      </trkpt>
      <trkpt lat="43.97281" lon="7.26526">
        <ele>876.225</ele>
        <time>2011-09-11T07:15:39Z</time>
      </trkpt>
      <trkpt lat="43.9728" lon="7.26512">
        <ele>879.247</ele>
        <time>2011-09-11T07:15:47Z</time>
      </trkpt>
      <trkpt lat="43.97274" lon="7.26494">
        <ele>884.779</ele>
        <time>2011-09-11T07:15:57Z</time>
      </trkpt>
      <trkpt lat="43.97267" lon="7.26483">
        <ele>890.65</ele>
        <time>2011-09-11T07:16:04Z</time>
      </trkpt>
      <trkpt lat="43.9726" lon="7.26472">
        <ele>893.95</ele>
        <time>2011-09-11T07:16:11Z</time>
      </trkpt>
      <trkpt lat="43.97257" lon="7.26456">
        <ele>898.459</ele>
        <time>2011-09-11T07:16:20Z</time>
      </trkpt>
      <trkpt lat="43.97256" lon="7.26449">
        <ele>900.019</ele>
        <time>2011-09-11T07:16:24Z</time>
      </trkpt>
      <trkpt lat="43.9726" lon="7.26442">
        <ele>898.283</ele>
        <time>2011-09-11T07:16:30Z</time>
      </trkpt>
      <trkpt lat="43.9726" lon="7.2644">
        <ele>893.359</ele>
        <time>2011-09-11T07:16:37Z</time>
      </trkpt>
      <trkpt lat="43.97268" lon="7.26443">
        <ele>872.192</ele>
        <time>2011-09-11T07:22:42Z</time>
      </trkpt>
      <trkpt lat="43.97274" lon="7.26446">
        <ele>871.72</ele>
        <time>2011-09-11T07:22:46Z</time>
      </trkpt>
      <trkpt lat="43.97279" lon="7.2645">
        <ele>872.942</ele>
        <time>2011-09-11T07:22:48Z</time>
      </trkpt>
      <trkpt lat="43.97295" lon="7.26444">
        <ele>875.375</ele>
        <time>2011-09-11T07:22:52Z</time>
      </trkpt>
      <trkpt lat="43.97298" lon="7.2644">
        <ele>877.137</ele>
        <time>2011-09-11T07:22:53Z</time>
      </trkpt>
      <trkpt lat="43.97303" lon="7.26431">
        <ele>878.378</ele>
        <time>2011-09-11T07:22:55Z</time>
      </trkpt>
      <trkpt lat="43.97314" lon="7.26392">
        <ele>879.495</ele>
        <time>2011-09-11T07:23:02Z</time>
      </trkpt>
      <trkpt lat="43.97318" lon="7.26372">
        <ele>880.094</ele>
        <time>2011-09-11T07:23:07Z</time>
      </trkpt>
      <trkpt lat="43.97321" lon="7.2635">
        <ele>881.794</ele>
        <time>2011-09-11T07:23:15Z</time>
      </trkpt>
      <trkpt lat="43.97327" lon="7.26325">
        <ele>881.964</ele>
        <time>2011-09-11T07:23:23Z</time>
      </trkpt>
      <trkpt lat="43.97328" lon="7.26323">
        <ele>882.004</ele>
        <time>2011-09-11T07:23:24Z</time>
      </trkpt>
      <trkpt lat="43.97338" lon="7.26321">
        <ele>881.812</ele>
        <time>2011-09-11T07:23:28Z</time>
      </trkpt>
      <trkpt lat="43.9735" lon="7.26327">
        <ele>879.889</ele>
        <time>2011-09-11T07:23:34Z</time>
      </trkpt>
      <trkpt lat="43.97364" lon="7.26335">
        <ele>882.533</ele>
        <time>2011-09-11T07:23:41Z</time>
      </trkpt>
      <trkpt lat="43.97376" lon="7.26349">
        <ele>882.281</ele>
        <time>2011-09-11T07:23:48Z</time>
      </trkpt>
      <trkpt lat="43.97384" lon="7.2636">
        <ele>885.795</ele>
        <time>2011-09-11T07:23:54Z</time>
      </trkpt>
      <trkpt lat="43.97393" lon="7.26365">
        <ele>892.663</ele>
        <time>2011-09-11T07:23:59Z</time>
      </trkpt>
      <trkpt lat="43.97409" lon="7.26366">
        <ele>894.045</ele>
        <time>2011-09-11T07:24:05Z</time>
      </trkpt>
      <trkpt lat="43.97429" lon="7.2636">
        <ele>894.802</ele>
        <time>2011-09-11T07:24:13Z</time>
      </trkpt>
      <trkpt lat="43.9744" lon="7.26364">
        <ele>894.781</ele>
        <time>2011-09-11T07:24:17Z</time>
      </trkpt>
      <trkpt lat="43.97449" lon="7.26374">
        <ele>894.209</ele>
        <time>2011-09-11T07:24:20Z</time>
      </trkpt>
      <trkpt lat="43.97461" lon="7.26372">
        <ele>894.059</ele>
        <time>2011-09-11T07:24:23Z</time>
      </trkpt>
      <trkpt lat="43.97487" lon="7.26379">
        <ele>893.729</ele>
        <time>2011-09-11T07:24:29Z</time>
      </trkpt>
      <trkpt lat="43.9749" lon="7.26382">
        <ele>893.358</ele>
        <time>2011-09-11T07:24:30Z</time>
      </trkpt>
      <trkpt lat="43.97501" lon="7.26408">
        <ele>888.417</ele>
        <time>2011-09-11T07:24:35Z</time>
      </trkpt>
      <trkpt lat="43.97502" lon="7.26413">
        <ele>888.377</ele>
        <time>2011-09-11T07:24:36Z</time>
      </trkpt>
      <trkpt lat="43.97511" lon="7.26434">
        <ele>885.545</ele>
        <time>2011-09-11T07:24:41Z</time>
      </trkpt>
      <trkpt lat="43.97523" lon="7.26452">
        <ele>885.408</ele>
        <time>2011-09-11T07:24:46Z</time>
      </trkpt>
      <trkpt lat="43.97538" lon="7.26458">
        <ele>891.07</ele>
        <time>2011-09-11T07:24:51Z</time>
      </trkpt>
      <trkpt lat="43.97554" lon="7.26467">
        <ele>897.955</ele>
        <time>2011-09-11T07:24:56Z</time>
      </trkpt>
      <trkpt lat="43.97564" lon="7.26474">
        <ele>899.683</ele>
        <time>2011-09-11T07:24:59Z</time>
      </trkpt>
      <trkpt lat="43.97587" lon="7.26469">
        <ele>899.225</ele>
        <time>2011-09-11T07:25:04Z</time>
      </trkpt>
      <trkpt lat="43.97611" lon="7.26478">
        <ele>897.09</ele>
        <time>2011-09-11T07:25:09Z</time>
      </trkpt>
      <trkpt lat="43.97624" lon="7.26503">
        <ele>891.406</ele>
        <time>2011-09-11T07:25:14Z</time>
      </trkpt>
      <trkpt lat="43.97625" lon="7.26513">
        <ele>888.804</ele>
        <time>2011-09-11T07:25:16Z</time>
      </trkpt>
      <trkpt lat="43.97632" lon="7.26546">
        <ele>881.659</ele>
        <time>2011-09-11T07:25:23Z</time>
      </trkpt>
      <trkpt lat="43.97639" lon="7.26568">
        <ele>881.481</ele>
        <time>2011-09-11T07:25:28Z</time>
      </trkpt>
      <trkpt lat="43.97642" lon="7.26596">
        <ele>878.508</ele>
        <time>2011-09-11T07:25:34Z</time>
      </trkpt>
      <trkpt lat="43.97649" lon="7.26628">
        <ele>879.041</ele>
        <time>2011-09-11T07:25:41Z</time>
      </trkpt>
      <trkpt lat="43.9766" lon="7.26643">
        <ele>885.167</ele>
        <time>2011-09-11T07:25:46Z</time>
      </trkpt>
      <trkpt lat="43.97663" lon="7.26644">
        <ele>883.493</ele>
        <time>2011-09-11T07:25:47Z</time>
      </trkpt>
      <trkpt lat="43.97676" lon="7.26632">
        <ele>883.787</ele>
        <time>2011-09-11T07:25:51Z</time>
      </trkpt>
      <trkpt lat="43.97679" lon="7.26628">
        <ele>884.258</ele>
        <time>2011-09-11T07:25:52Z</time>
      </trkpt>
      <trkpt lat="43.97691" lon="7.26608">
        <ele>885.48</ele>
        <time>2011-09-11T07:25:56Z</time>
      </trkpt>
      <trkpt lat="43.97706" lon="7.26604">
        <ele>888.804</ele>
        <time>2011-09-11T07:26:00Z</time>
      </trkpt>
      <trkpt lat="43.97713" lon="7.26611">
        <ele>887.964</ele>
        <time>2011-09-11T07:26:02Z</time>
      </trkpt>
      <trkpt lat="43.97733" lon="7.26636">
        <ele>886.867</ele>
        <time>2011-09-11T07:26:08Z</time>
      </trkpt>
      <trkpt lat="43.97753" lon="7.26642">
        <ele>891.544</ele>
        <time>2011-09-11T07:26:13Z</time>
      </trkpt>
      <trkpt lat="43.97767" lon="7.26654">
        <ele>896.279</ele>
        <time>2011-09-11T07:26:18Z</time>
      </trkpt>
      <trkpt lat="43.97781" lon="7.2667">
        <ele>895.805</ele>
        <time>2011-09-11T07:26:23Z</time>
      </trkpt>
      <trkpt lat="43.97786" lon="7.26675">
        <ele>900.77</ele>
        <time>2011-09-11T07:26:26Z</time>
      </trkpt>
      <trkpt lat="43.97801" lon="7.26674">
        <ele>906.129</ele>
        <time>2011-09-11T07:26:33Z</time>
      </trkpt>
      <trkpt lat="43.97817" lon="7.26669">
        <ele>902.922</ele>
        <time>2011-09-11T07:26:38Z</time>
      </trkpt>
      <trkpt lat="43.97826" lon="7.2667">
        <ele>903.454</ele>
        <time>2011-09-11T07:26:40Z</time>
      </trkpt>
      <trkpt lat="43.97842" lon="7.26668">
        <ele>902.122</ele>
        <time>2011-09-11T07:26:43Z</time>
      </trkpt>
      <trkpt lat="43.97866" lon="7.26673">
        <ele>902.852</ele>
        <time>2011-09-11T07:26:49Z</time>
      </trkpt>
      <trkpt lat="43.97869" lon="7.26672">
        <ele>903.243</ele>
        <time>2011-09-11T07:26:50Z</time>
      </trkpt>
      <trkpt lat="43.97877" lon="7.26667">
        <ele>913.358</ele>
        <time>2011-09-11T07:26:57Z</time>
      </trkpt>
      <trkpt lat="43.97881" lon="7.26661">
        <ele>919.462</ele>
        <time>2011-09-11T07:27:17Z</time>
      </trkpt>
      <trkpt lat="43.97883" lon="7.2666">
        <ele>917.839</ele>
        <time>2011-09-11T07:27:20Z</time>
      </trkpt>
      <trkpt lat="43.97881" lon="7.26657">
        <ele>912.115</ele>
        <time>2011-09-11T07:27:26Z</time>
      </trkpt>
      <trkpt lat="43.97883" lon="7.26659">
        <ele>894.96</ele>
        <time>2011-09-11T07:27:43Z</time>
      </trkpt>
      <trkpt lat="43.97879" lon="7.26645">
        <ele>897.08</ele>
        <time>2011-09-11T07:27:50Z</time>
      </trkpt>
      <trkpt lat="43.97878" lon="7.26642">
        <ele>897.301</ele>
        <time>2011-09-11T07:27:51Z</time>
      </trkpt>
      <trkpt lat="43.97864" lon="7.2663">
        <ele>899.555</ele>
        <time>2011-09-11T07:27:57Z</time>
      </trkpt>
      <trkpt lat="43.97855" lon="7.26616">
        <ele>902.377</ele>
        <time>2011-09-11T07:28:03Z</time>
      </trkpt>
      <trkpt lat="43.97842" lon="7.26596">
        <ele>903.546</ele>
        <time>2011-09-11T07:28:10Z</time>
      </trkpt>
      <trkpt lat="43.97831" lon="7.26578">
        <ele>905.979</ele>
        <time>2011-09-11T07:28:16Z</time>
      </trkpt>
      <trkpt lat="43.97821" lon="7.26563">
        <ele>906.808</ele>
        <time>2011-09-11T07:28:21Z</time>
      </trkpt>
      <trkpt lat="43.97814" lon="7.2654">
        <ele>910.588</ele>
        <time>2011-09-11T07:28:28Z</time>
      </trkpt>
      <trkpt lat="43.97811" lon="7.26516">
        <ele>913.079</ele>
        <time>2011-09-11T07:28:34Z</time>
      </trkpt>
      <trkpt lat="43.97807" lon="7.26486">
        <ele>912.525</ele>
        <time>2011-09-11T07:28:41Z</time>
      </trkpt>
      <trkpt lat="43.97804" lon="7.26458">
        <ele>914.095</ele>
        <time>2011-09-11T07:28:48Z</time>
      </trkpt>
      <trkpt lat="43.97799" lon="7.26431">
        <ele>910.983</ele>
        <time>2011-09-11T07:28:55Z</time>
      </trkpt>
      <trkpt lat="43.97796" lon="7.26403">
        <ele>912.434</ele>
        <time>2011-09-11T07:29:02Z</time>
      </trkpt>
      <trkpt lat="43.97791" lon="7.26381">
        <ele>913.545</ele>
        <time>2011-09-11T07:29:08Z</time>
      </trkpt>
      <trkpt lat="43.9778" lon="7.26356">
        <ele>916.045</ele>
        <time>2011-09-11T07:29:15Z</time>
      </trkpt>
      <trkpt lat="43.97776" lon="7.26334">
        <ele>917.545</ele>
        <time>2011-09-11T07:29:21Z</time>
      </trkpt>
      <trkpt lat="43.97785" lon="7.26323">
        <ele>916.753</ele>
        <time>2011-09-11T07:29:26Z</time>
      </trkpt>
      <trkpt lat="43.97798" lon="7.26309">
        <ele>917.284</ele>
        <time>2011-09-11T07:29:33Z</time>
      </trkpt>
      <trkpt lat="43.97807" lon="7.26298">
        <ele>913.849</ele>
        <time>2011-09-11T07:29:39Z</time>
      </trkpt>
      <trkpt lat="43.97821" lon="7.26292">
        <ele>910.868</ele>
        <time>2011-09-11T07:29:46Z</time>
      </trkpt>
      <trkpt lat="43.9783" lon="7.26293">
        <ele>911.059</ele>
        <time>2011-09-11T07:29:52Z</time>
      </trkpt>
      <trkpt lat="43.97837" lon="7.26295">
        <ele>911.801</ele>
        <time>2011-09-11T07:29:57Z</time>
      </trkpt>
      <trkpt lat="43.97847" lon="7.26298">
        <ele>912.781</ele>
        <time>2011-09-11T07:30:05Z</time>
      </trkpt>
      <trkpt lat="43.97856" lon="7.26292">
        <ele>921.359</ele>
        <time>2011-09-11T07:30:12Z</time>
      </trkpt>
      <trkpt lat="43.97865" lon="7.26283">
        <ele>927.912</ele>
        <time>2011-09-11T07:30:19Z</time>
      </trkpt>
      <trkpt lat="43.97874" lon="7.26272">
        <ele>929.157</ele>
        <time>2011-09-11T07:30:26Z</time>
      </trkpt>
      <trkpt lat="43.97878" lon="7.26256">
        <ele>932.257</ele>
        <time>2011-09-11T07:30:33Z</time>
      </trkpt>
      <trkpt lat="43.97884" lon="7.26236">
        <ele>932.716</ele>
        <time>2011-09-11T07:30:42Z</time>
      </trkpt>
      <trkpt lat="43.97892" lon="7.26218">
        <ele>930.483</ele>
        <time>2011-09-11T07:30:51Z</time>
      </trkpt>
      <trkpt lat="43.97899" lon="7.26209">
        <ele>928.411</ele>
        <time>2011-09-11T07:30:56Z</time>
      </trkpt>
      <trkpt lat="43.97916" lon="7.26204">
        <ele>925.63</ele>
        <time>2011-09-11T07:31:06Z</time>
      </trkpt>
      <trkpt lat="43.97928" lon="7.26199">
        <ele>930.047</ele>
        <time>2011-09-11T07:31:14Z</time>
      </trkpt>
      <trkpt lat="43.97937" lon="7.26194">
        <ele>934.188</ele>
        <time>2011-09-11T07:31:21Z</time>
      </trkpt>
      <trkpt lat="43.97953" lon="7.26192">
        <ele>929.66</ele>
        <time>2011-09-11T07:31:29Z</time>
      </trkpt>
      <trkpt lat="43.97963" lon="7.26188">
        <ele>928.3</ele>
        <time>2011-09-11T07:31:35Z</time>
      </trkpt>
      <trkpt lat="43.97977" lon="7.2618">
        <ele>931.163</ele>
        <time>2011-09-11T07:31:44Z</time>
      </trkpt>
      <trkpt lat="43.97987" lon="7.26176">
        <ele>933.564</ele>
        <time>2011-09-11T07:31:51Z</time>
      </trkpt>
      <trkpt lat="43.97998" lon="7.26173">
        <ele>935.135</ele>
        <time>2011-09-11T07:31:58Z</time>
      </trkpt>
      <trkpt lat="43.98005" lon="7.26177">
        <ele>935.413</ele>
        <time>2011-09-11T07:32:02Z</time>
      </trkpt>
      <trkpt lat="43.98012" lon="7.26189">
        <ele>937.795</ele>
        <time>2011-09-11T07:32:08Z</time>
      </trkpt>
      <trkpt lat="43.98018" lon="7.26203">
        <ele>938.034</ele>
        <time>2011-09-11T07:32:14Z</time>
      </trkpt>
      <trkpt lat="43.98024" lon="7.26219">
        <ele>937.841</ele>
        <time>2011-09-11T07:32:19Z</time>
      </trkpt>
      <trkpt lat="43.98028" lon="7.26237">
        <ele>935.849</ele>
        <time>2011-09-11T07:32:24Z</time>
      </trkpt>
      <trkpt lat="43.98029" lon="7.26243">
        <ele>941.165</ele>
        <time>2011-09-11T07:32:27Z</time>
      </trkpt>
      <trkpt lat="43.98039" lon="7.26238">
        <ele>957.36</ele>
        <time>2011-09-11T07:32:32Z</time>
      </trkpt>
      <trkpt lat="43.98055" lon="7.26248">
        <ele>966.056</ele>
        <time>2011-09-11T07:32:39Z</time>
      </trkpt>
      <trkpt lat="43.98062" lon="7.26258">
        <ele>976.312</ele>
        <time>2011-09-11T07:32:43Z</time>
      </trkpt>
      <trkpt lat="43.98071" lon="7.26273">
        <ele>981.02</ele>
        <time>2011-09-11T07:32:49Z</time>
      </trkpt>
      <trkpt lat="43.98083" lon="7.26285">
        <ele>987.57</ele>
        <time>2011-09-11T07:32:54Z</time>
      </trkpt>
      <trkpt lat="43.98086" lon="7.26283">
        <ele>988.448</ele>
        <time>2011-09-11T07:32:55Z</time>
      </trkpt>
      <trkpt lat="43.98152" lon="7.2626">
        <ele>986.112</ele>
        <time>2011-09-11T07:33:16Z</time>
      </trkpt>
      <trkpt lat="43.98164" lon="7.26277">
        <ele>975.506</ele>
        <time>2011-09-11T07:33:20Z</time>
      </trkpt>
      <trkpt lat="43.98178" lon="7.26295">
        <ele>964.13</ele>
        <time>2011-09-11T07:33:25Z</time>
      </trkpt>
      <trkpt lat="43.9818" lon="7.26298">
        <ele>962.999</ele>
        <time>2011-09-11T07:33:26Z</time>
      </trkpt>
      <trkpt lat="43.98194" lon="7.26299">
        <ele>956.327</ele>
        <time>2011-09-11T07:33:31Z</time>
      </trkpt>
      <trkpt lat="43.98254" lon="7.26271">
        <ele>951.819</ele>
        <time>2011-09-11T07:33:49Z</time>
      </trkpt>
      <trkpt lat="43.98265" lon="7.26272">
        <ele>960.449</ele>
        <time>2011-09-11T07:33:54Z</time>
      </trkpt>
      <trkpt lat="43.98276" lon="7.26277">
        <ele>965.241</ele>
        <time>2011-09-11T07:33:58Z</time>
      </trkpt>
      <trkpt lat="43.98283" lon="7.26289">
        <ele>971.061</ele>
        <time>2011-09-11T07:34:02Z</time>
      </trkpt>
      <trkpt lat="43.98414" lon="7.26285">
        <ele>965.598</ele>
        <time>2011-09-11T07:34:56Z</time>
      </trkpt>
      <trkpt lat="43.9843" lon="7.26275">
        <ele>951.867</ele>
        <time>2011-09-11T07:35:02Z</time>
      </trkpt>
      <trkpt lat="43.98441" lon="7.26282">
        <ele>947.469</ele>
        <time>2011-09-11T07:35:06Z</time>
      </trkpt>
      <trkpt lat="43.9845" lon="7.2629">
        <ele>953.955</ele>
        <time>2011-09-11T07:35:11Z</time>
      </trkpt>
      <trkpt lat="43.98457" lon="7.26293">
        <ele>958.187</ele>
        <time>2011-09-11T07:35:15Z</time>
      </trkpt>
      <trkpt lat="43.98463" lon="7.26296">
        <ele>963.492</ele>
        <time>2011-09-11T07:35:19Z</time>
      </trkpt>
      <trkpt lat="43.98477" lon="7.26289">
        <ele>965.107</ele>
        <time>2011-09-11T07:35:26Z</time>
      </trkpt>
      <trkpt lat="43.98483" lon="7.26269">
        <ele>962.272</ele>
        <time>2011-09-11T07:35:33Z</time>
      </trkpt>
      <trkpt lat="43.9849" lon="7.26256">
        <ele>962.503</ele>
        <time>2011-09-11T07:35:38Z</time>
      </trkpt>
      <trkpt lat="43.98502" lon="7.26257">
        <ele>960.872</ele>
        <time>2011-09-11T07:35:43Z</time>
      </trkpt>
      <trkpt lat="43.98506" lon="7.26263">
        <ele>963.365</ele>
        <time>2011-09-11T07:35:47Z</time>
      </trkpt>
      <trkpt lat="43.9851" lon="7.26272">
        <ele>970.802</ele>
        <time>2011-09-11T07:35:52Z</time>
      </trkpt>
      <trkpt lat="43.98517" lon="7.26283">
        <ele>979.024</ele>
        <time>2011-09-11T07:35:58Z</time>
      </trkpt>
      <trkpt lat="43.98526" lon="7.26286">
        <ele>985.996</ele>
        <time>2011-09-11T07:36:04Z</time>
      </trkpt>
      <trkpt lat="43.98534" lon="7.26292">
        <ele>988.464</ele>
        <time>2011-09-11T07:36:08Z</time>
      </trkpt>
      <trkpt lat="43.98548" lon="7.26292">
        <ele>996.066</ele>
        <time>2011-09-11T07:36:15Z</time>
      </trkpt>
      <trkpt lat="43.98559" lon="7.26293">
        <ele>997.593</ele>
        <time>2011-09-11T07:36:20Z</time>
      </trkpt>
      <trkpt lat="43.98565" lon="7.26296">
        <ele>1005.378</ele>
        <time>2011-09-11T07:36:25Z</time>
      </trkpt>
      <trkpt lat="43.98573" lon="7.26294">
        <ele>1010.917</ele>
        <time>2011-09-11T07:36:30Z</time>
      </trkpt>
      <trkpt lat="43.98585" lon="7.26293">
        <ele>1014.056</ele>
        <time>2011-09-11T07:36:36Z</time>
      </trkpt>
      <trkpt lat="43.98592" lon="7.26293">
        <ele>1012.15</ele>
        <time>2011-09-11T07:36:39Z</time>
      </trkpt>
      <trkpt lat="43.98599" lon="7.26295">
        <ele>1007.962</ele>
        <time>2011-09-11T07:36:45Z</time>
      </trkpt>
      <trkpt lat="43.98604" lon="7.26308">
        <ele>991.27</ele>
        <time>2011-09-11T07:36:56Z</time>
      </trkpt>
      <trkpt lat="43.98607" lon="7.2631">
        <ele>982.058</ele>
        <time>2011-09-11T07:37:02Z</time>
      </trkpt>
      <trkpt lat="43.98607" lon="7.26309">
        <ele>982.419</ele>
        <time>2011-09-11T07:37:03Z</time>
      </trkpt>
      <trkpt lat="43.98608" lon="7.26307">
        <ele>978.749</ele>
        <time>2011-09-11T07:37:06Z</time>
      </trkpt>
      <trkpt lat="43.98604" lon="7.26295">
        <ele>976.973</ele>
        <time>2011-09-11T07:37:11Z</time>
      </trkpt>
      <trkpt lat="43.98598" lon="7.26288">
        <ele>976.484</ele>
        <time>2011-09-11T07:37:13Z</time>
      </trkpt>
      <trkpt lat="43.98585" lon="7.26264">
        <ele>977.96</ele>
        <time>2011-09-11T07:37:17Z</time>
      </trkpt>
      <trkpt lat="43.98581" lon="7.26235">
        <ele>978.031</ele>
        <time>2011-09-11T07:37:21Z</time>
      </trkpt>
      <trkpt lat="43.98582" lon="7.26229">
        <ele>978.232</ele>
        <time>2011-09-11T07:37:22Z</time>
      </trkpt>
      <trkpt lat="43.98587" lon="7.26201">
        <ele>975.681</ele>
        <time>2011-09-11T07:37:28Z</time>
      </trkpt>
      <trkpt lat="43.98584" lon="7.26178">
        <ele>977.584</ele>
        <time>2011-09-11T07:37:35Z</time>
      </trkpt>
      <trkpt lat="43.98578" lon="7.26163">
        <ele>983.039</ele>
        <time>2011-09-11T07:37:41Z</time>
      </trkpt>
      <trkpt lat="43.98572" lon="7.26152">
        <ele>987.773</ele>
        <time>2011-09-11T07:37:45Z</time>
      </trkpt>
      <trkpt lat="43.98576" lon="7.26139">
        <ele>985.307</ele>
        <time>2011-09-11T07:37:49Z</time>
      </trkpt>
      <trkpt lat="43.98597" lon="7.26122">
        <ele>978.462</ele>
        <time>2011-09-11T07:37:57Z</time>
      </trkpt>
      <trkpt lat="43.9862" lon="7.26112">
        <ele>969.935</ele>
        <time>2011-09-11T07:38:04Z</time>
      </trkpt>
      <trkpt lat="43.98632" lon="7.26113">
        <ele>967.785</ele>
        <time>2011-09-11T07:38:08Z</time>
      </trkpt>
      <trkpt lat="43.98637" lon="7.261">
        <ele>968.018</ele>
        <time>2011-09-11T07:38:12Z</time>
      </trkpt>
      <trkpt lat="43.98641" lon="7.26086">
        <ele>970.031</ele>
        <time>2011-09-11T07:38:15Z</time>
      </trkpt>
      <trkpt lat="43.98654" lon="7.26064">
        <ele>971.902</ele>
        <time>2011-09-11T07:38:20Z</time>
      </trkpt>
      <trkpt lat="43.98662" lon="7.26048">
        <ele>973.075</ele>
        <time>2011-09-11T07:38:23Z</time>
      </trkpt>
      <trkpt lat="43.98665" lon="7.26022">
        <ele>975.717</ele>
        <time>2011-09-11T07:38:27Z</time>
      </trkpt>
      <trkpt lat="43.98671" lon="7.25997">
        <ele>978.737</ele>
        <time>2011-09-11T07:38:31Z</time>
      </trkpt>
      <trkpt lat="43.98684" lon="7.25976">
        <ele>981.686</ele>
        <time>2011-09-11T07:38:37Z</time>
      </trkpt>
      <trkpt lat="43.98695" lon="7.25964">
        <ele>983.205</ele>
        <time>2011-09-11T07:38:44Z</time>
      </trkpt>
      <trkpt lat="43.98699" lon="7.25958">
        <ele>983.105</ele>
        <time>2011-09-11T07:38:47Z</time>
      </trkpt>
      <trkpt lat="43.98707" lon="7.25957">
        <ele>981.962</ele>
        <time>2011-09-11T07:38:52Z</time>
      </trkpt>
      <trkpt lat="43.98713" lon="7.25963">
        <ele>986.455</ele>
        <time>2011-09-11T07:38:57Z</time>
      </trkpt>
      <trkpt lat="43.98718" lon="7.25967">
        <ele>994.69</ele>
        <time>2011-09-11T07:39:02Z</time>
      </trkpt>
      <trkpt lat="43.9872" lon="7.25968">
        <ele>999.322</ele>
        <time>2011-09-11T07:39:04Z</time>
      </trkpt>
      <trkpt lat="43.98723" lon="7.25972">
        <ele>1007.387</ele>
        <time>2011-09-11T07:39:08Z</time>
      </trkpt>
      <trkpt lat="43.98737" lon="7.25982">
        <ele>1010.15</ele>
        <time>2011-09-11T07:39:18Z</time>
      </trkpt>
      <trkpt lat="43.98738" lon="7.25982">
        <ele>1009.369</ele>
        <time>2011-09-11T07:39:19Z</time>
      </trkpt>
      <trkpt lat="43.98743" lon="7.25986">
        <ele>1008.357</ele>
        <time>2011-09-11T07:39:22Z</time>
      </trkpt>
      <trkpt lat="43.9875" lon="7.2599">
        <ele>1017.814</ele>
        <time>2011-09-11T07:39:29Z</time>
      </trkpt>
      <trkpt lat="43.98756" lon="7.25997">
        <ele>1025.337</ele>
        <time>2011-09-11T07:39:35Z</time>
      </trkpt>
      <trkpt lat="43.98764" lon="7.26002">
        <ele>1031.898</ele>
        <time>2011-09-11T07:39:41Z</time>
      </trkpt>
      <trkpt lat="43.98789" lon="7.26026">
        <ele>1030.593</ele>
        <time>2011-09-11T07:39:59Z</time>
      </trkpt>
      <trkpt lat="43.98795" lon="7.26027">
        <ele>1027.42</ele>
        <time>2011-09-11T07:40:02Z</time>
      </trkpt>
      <trkpt lat="43.988" lon="7.26032">
        <ele>1026.108</ele>
        <time>2011-09-11T07:40:06Z</time>
      </trkpt>
      <trkpt lat="43.99033" lon="7.26056">
        <ele>1007.989</ele>
        <time>2011-09-11T07:42:39Z</time>
      </trkpt>
      <trkpt lat="43.99027" lon="7.26038">
        <ele>1022.272</ele>
        <time>2011-09-11T07:42:43Z</time>
      </trkpt>
      <trkpt lat="43.99016" lon="7.26014">
        <ele>1032.626</ele>
        <time>2011-09-11T07:42:50Z</time>
      </trkpt>
      <trkpt lat="43.99013" lon="7.25996">
        <ele>1032.134</ele>
        <time>2011-09-11T07:42:55Z</time>
      </trkpt>
      <trkpt lat="43.99018" lon="7.25978">
        <ele>1028.843</ele>
        <time>2011-09-11T07:43:01Z</time>
      </trkpt>
      <trkpt lat="43.99025" lon="7.25959">
        <ele>1026.672</ele>
        <time>2011-09-11T07:43:08Z</time>
      </trkpt>
      <trkpt lat="43.99029" lon="7.25936">
        <ele>1026.934</ele>
        <time>2011-09-11T07:43:16Z</time>
      </trkpt>
      <trkpt lat="43.99033" lon="7.25927">
        <ele>1027.875</ele>
        <time>2011-09-11T07:43:20Z</time>
      </trkpt>
      <trkpt lat="43.99034" lon="7.25917">
        <ele>1028.565</ele>
        <time>2011-09-11T07:43:24Z</time>
      </trkpt>
      <trkpt lat="43.99032" lon="7.25899">
        <ele>1031.106</ele>
        <time>2011-09-11T07:43:32Z</time>
      </trkpt>
      <trkpt lat="43.9903" lon="7.25888">
        <ele>1032.497</ele>
        <time>2011-09-11T07:43:38Z</time>
      </trkpt>
      <trkpt lat="43.99028" lon="7.25877">
        <ele>1035.807</ele>
        <time>2011-09-11T07:43:45Z</time>
      </trkpt>
      <trkpt lat="43.99029" lon="7.25862">
        <ele>1037.636</ele>
        <time>2011-09-11T07:43:53Z</time>
      </trkpt>
      <trkpt lat="43.9903" lon="7.25857">
        <ele>1037.855</ele>
        <time>2011-09-11T07:43:56Z</time>
      </trkpt>
      <trkpt lat="43.99035" lon="7.25844">
        <ele>1037.574</ele>
        <time>2011-09-11T07:44:04Z</time>
      </trkpt>
      <trkpt lat="43.99039" lon="7.25828">
        <ele>1037.773</ele>
        <time>2011-09-11T07:44:12Z</time>
      </trkpt>
      <trkpt lat="43.99037" lon="7.25823">
        <ele>1039.856</ele>
        <time>2011-09-11T07:44:15Z</time>
      </trkpt>
      <trkpt lat="43.99035" lon="7.25815">
        <ele>1040.515</ele>
        <time>2011-09-11T07:44:19Z</time>
      </trkpt>
      <trkpt lat="43.99031" lon="7.258">
        <ele>1043.405</ele>
        <time>2011-09-11T07:44:26Z</time>
      </trkpt>
      <trkpt lat="43.9903" lon="7.25793">
        <ele>1043.774</ele>
        <time>2011-09-11T07:44:29Z</time>
      </trkpt>
      <trkpt lat="43.9903" lon="7.25783">
        <ele>1044.093</ele>
        <time>2011-09-11T07:44:34Z</time>
      </trkpt>
      <trkpt lat="43.99031" lon="7.25776">
        <ele>1045.154</ele>
        <time>2011-09-11T07:44:39Z</time>
      </trkpt>
      <trkpt lat="43.99031" lon="7.25772">
        <ele>1045.224</ele>
        <time>2011-09-11T07:44:41Z</time>
      </trkpt>
      <trkpt lat="43.99031" lon="7.25763">
        <ele>1043.71</ele>
        <time>2011-09-11T07:44:45Z</time>
      </trkpt>
      <trkpt lat="43.99032" lon="7.25745">
        <ele>1044.453</ele>
        <time>2011-09-11T07:44:54Z</time>
      </trkpt>
      <trkpt lat="43.99031" lon="7.25736">
        <ele>1047.493</ele>
        <time>2011-09-11T07:44:59Z</time>
      </trkpt>
      <trkpt lat="43.99032" lon="7.25723">
        <ele>1048.873</ele>
        <time>2011-09-11T07:45:07Z</time>
      </trkpt>
      <trkpt lat="43.99033" lon="7.25709">
        <ele>1050.964</ele>
        <time>2011-09-11T07:45:14Z</time>
      </trkpt>
      <trkpt lat="43.99035" lon="7.25699">
        <ele>1051.283</ele>
        <time>2011-09-11T07:45:20Z</time>
      </trkpt>
      <trkpt lat="43.99039" lon="7.25686">
        <ele>1052.483</ele>
        <time>2011-09-11T07:45:27Z</time>
      </trkpt>
      <trkpt lat="43.99048" lon="7.25674">
        <ele>1049.811</ele>
        <time>2011-09-11T07:45:34Z</time>
      </trkpt>
      <trkpt lat="43.99058" lon="7.25662">
        <ele>1048.341</ele>
        <time>2011-09-11T07:45:41Z</time>
      </trkpt>
      <trkpt lat="43.99068" lon="7.25654">
        <ele>1045.989</ele>
        <time>2011-09-11T07:45:48Z</time>
      </trkpt>
      <trkpt lat="43.99079" lon="7.25653">
        <ele>1044.28</ele>
        <time>2011-09-11T07:45:55Z</time>
      </trkpt>
      <trkpt lat="43.99091" lon="7.2566">
        <ele>1048.194</ele>
        <time>2011-09-11T07:46:02Z</time>
      </trkpt>
      <trkpt lat="43.9914" lon="7.25667">
        <ele>1058.083</ele>
        <time>2011-09-11T07:46:25Z</time>
      </trkpt>
      <trkpt lat="43.9916" lon="7.25663">
        <ele>1062.958</ele>
        <time>2011-09-11T07:46:34Z</time>
      </trkpt>
      <trkpt lat="43.99163" lon="7.25664">
        <ele>1066.734</ele>
        <time>2011-09-11T07:46:36Z</time>
      </trkpt>
      <trkpt lat="43.99173" lon="7.25659">
        <ele>1070.985</ele>
        <time>2011-09-11T07:46:41Z</time>
      </trkpt>
      <trkpt lat="43.99186" lon="7.2565">
        <ele>1076.118</ele>
        <time>2011-09-11T07:46:48Z</time>
      </trkpt>
      <trkpt lat="43.99204" lon="7.25641">
        <ele>1071.24</ele>
        <time>2011-09-11T07:46:55Z</time>
      </trkpt>
      <trkpt lat="43.99223" lon="7.25631">
        <ele>1066.847</ele>
        <time>2011-09-11T07:47:02Z</time>
      </trkpt>
      <trkpt lat="43.99244" lon="7.25624">
        <ele>1058.953</ele>
        <time>2011-09-11T07:47:10Z</time>
      </trkpt>
      <trkpt lat="43.99252" lon="7.2562">
        <ele>1059.506</ele>
        <time>2011-09-11T07:47:15Z</time>
      </trkpt>
      <trkpt lat="43.99265" lon="7.25615">
        <ele>1060.448</ele>
        <time>2011-09-11T07:47:21Z</time>
      </trkpt>
      <trkpt lat="43.99274" lon="7.25611">
        <ele>1063.549</ele>
        <time>2011-09-11T07:47:25Z</time>
      </trkpt>
      <trkpt lat="43.9928" lon="7.25597">
        <ele>1066.363</ele>
        <time>2011-09-11T07:47:30Z</time>
      </trkpt>
      <trkpt lat="43.99281" lon="7.25594">
        <ele>1066.683</ele>
        <time>2011-09-11T07:47:31Z</time>
      </trkpt>
      <trkpt lat="43.99295" lon="7.25588">
        <ele>1063.59</ele>
        <time>2011-09-11T07:47:38Z</time>
      </trkpt>
      <trkpt lat="43.99299" lon="7.2559">
        <ele>1064.903</ele>
        <time>2011-09-11T07:47:46Z</time>
      </trkpt>
      <trkpt lat="43.99302" lon="7.25591">
        <ele>1067.045</ele>
        <time>2011-09-11T07:47:51Z</time>
      </trkpt>
      <trkpt lat="43.99305" lon="7.25592">
        <ele>1071.646</ele>
        <time>2011-09-11T07:47:56Z</time>
      </trkpt>
      <trkpt lat="43.99308" lon="7.25593">
        <ele>1073.836</ele>
        <time>2011-09-11T07:48:02Z</time>
      </trkpt>
      <trkpt lat="43.99309" lon="7.25588">
        <ele>1077.864</ele>
        <time>2011-09-11T07:48:08Z</time>
      </trkpt>
      <trkpt lat="43.99314" lon="7.2558">
        <ele>1077.862</ele>
        <time>2011-09-11T07:48:15Z</time>
      </trkpt>
      <trkpt lat="43.99317" lon="7.25565">
        <ele>1079.59</ele>
        <time>2011-09-11T07:48:30Z</time>
      </trkpt>
      <trkpt lat="43.99323" lon="7.25566">
        <ele>1078.579</ele>
        <time>2011-09-11T07:48:35Z</time>
      </trkpt>
      <trkpt lat="43.99328" lon="7.2556">
        <ele>1077.949</ele>
        <time>2011-09-11T07:48:41Z</time>
      </trkpt>
      <trkpt lat="43.99332" lon="7.25562">
        <ele>1090.237</ele>
        <time>2011-09-11T07:48:50Z</time>
      </trkpt>
      <trkpt lat="43.99337" lon="7.25552">
        <ele>1083.47</ele>
        <time>2011-09-11T07:48:55Z</time>
      </trkpt>
      <trkpt lat="43.99342" lon="7.2555">
        <ele>1085.962</ele>
        <time>2011-09-11T07:49:02Z</time>
      </trkpt>
      <trkpt lat="43.99344" lon="7.25549">
        <ele>1085.041</ele>
        <time>2011-09-11T07:49:04Z</time>
      </trkpt>
      <trkpt lat="43.99348" lon="7.25546">
        <ele>1088.243</ele>
        <time>2011-09-11T07:49:11Z</time>
      </trkpt>
      <trkpt lat="43.99351" lon="7.25544">
        <ele>1093.907</ele>
        <time>2011-09-11T07:49:17Z</time>
      </trkpt>
      <trkpt lat="43.99353" lon="7.25544">
        <ele>1095.467</ele>
        <time>2011-09-11T07:49:19Z</time>
      </trkpt>
      <trkpt lat="43.99358" lon="7.25546">
        <ele>1097.267</ele>
        <time>2011-09-11T07:49:24Z</time>
      </trkpt>
      <trkpt lat="43.99357" lon="7.25545">
        <ele>1101.528</ele>
        <time>2011-09-11T07:49:29Z</time>
      </trkpt>
      <trkpt lat="43.99356" lon="7.25542">
        <ele>1102.724</ele>
        <time>2011-09-11T07:49:37Z</time>
      </trkpt>
      <trkpt lat="43.99354" lon="7.25546">
        <ele>1101.573</ele>
        <time>2011-09-11T07:49:44Z</time>
      </trkpt>
      <trkpt lat="43.99357" lon="7.25551">
        <ele>1099.844</ele>
        <time>2011-09-11T07:49:49Z</time>
      </trkpt>
      <trkpt lat="43.99358" lon="7.25551">
        <ele>1101.754</ele>
        <time>2011-09-11T07:49:53Z</time>
      </trkpt>
      <trkpt lat="43.99359" lon="7.25556">
        <ele>1107.827</ele>
        <time>2011-09-11T07:49:59Z</time>
      </trkpt>
      <trkpt lat="43.99361" lon="7.25556">
        <ele>1111.656</ele>
        <time>2011-09-11T07:50:07Z</time>
      </trkpt>
      <trkpt lat="43.99365" lon="7.2556">
        <ele>1116.538</ele>
        <time>2011-09-11T07:50:15Z</time>
      </trkpt>
      <trkpt lat="43.99374" lon="7.25567">
        <ele>1125.183</ele>
        <time>2011-09-11T07:50:31Z</time>
      </trkpt>
      <trkpt lat="43.99382" lon="7.25569">
        <ele>1120.088</ele>
        <time>2011-09-11T07:50:40Z</time>
      </trkpt>
      <trkpt lat="43.99374" lon="7.2557">
        <ele>1132.928</ele>
        <time>2011-09-11T07:51:19Z</time>
      </trkpt>
      <trkpt lat="43.99369" lon="7.25569">
        <ele>1142.013</ele>
        <time>2011-09-11T07:51:26Z</time>
      </trkpt>
      <trkpt lat="43.99403" lon="7.25577">
        <ele>1094.731</ele>
        <time>2011-09-11T07:52:34Z</time>
      </trkpt>
      <trkpt lat="43.99382" lon="7.25562">
        <ele>1126.346</ele>
        <time>2011-09-11T07:54:42Z</time>
      </trkpt>
      <trkpt lat="43.99381" lon="7.25564">
        <ele>1122.848</ele>
        <time>2011-09-11T07:54:44Z</time>
      </trkpt>
      <trkpt lat="43.99376" lon="7.25572">
        <ele>1118.345</ele>
        <time>2011-09-11T07:54:51Z</time>
      </trkpt>
      <trkpt lat="43.99371" lon="7.25575">
        <ele>1119.338</ele>
        <time>2011-09-11T07:54:54Z</time>
      </trkpt>
      <trkpt lat="43.99363" lon="7.25587">
        <ele>1113.148</ele>
        <time>2011-09-11T07:55:00Z</time>
      </trkpt>
      <trkpt lat="43.99363" lon="7.25591">
        <ele>1112.728</ele>
        <time>2011-09-11T07:55:02Z</time>
      </trkpt>
      <trkpt lat="43.9936" lon="7.25606">
        <ele>1115.903</ele>
        <time>2011-09-11T07:55:08Z</time>
      </trkpt>
      <trkpt lat="43.99359" lon="7.25612">
        <ele>1112.512</ele>
        <time>2011-09-11T07:55:13Z</time>
      </trkpt>
      <trkpt lat="43.99359" lon="7.25617">
        <ele>1111.092</ele>
        <time>2011-09-11T07:55:17Z</time>
      </trkpt>
      <trkpt lat="43.99359" lon="7.25621">
        <ele>1110.953</ele>
        <time>2011-09-11T07:55:19Z</time>
      </trkpt>
      <trkpt lat="43.99349" lon="7.25628">
        <ele>1117.557</ele>
        <time>2011-09-11T07:55:25Z</time>
      </trkpt>
      <trkpt lat="43.99347" lon="7.25628">
        <ele>1118.528</ele>
        <time>2011-09-11T07:55:26Z</time>
      </trkpt>
      <trkpt lat="43.99335" lon="7.25634">
        <ele>1129.037</ele>
        <time>2011-09-11T07:55:33Z</time>
      </trkpt>
      <trkpt lat="43.99325" lon="7.25642">
        <ele>1128.47</ele>
        <time>2011-09-11T07:55:38Z</time>
      </trkpt>
      <trkpt lat="43.99312" lon="7.25651">
        <ele>1126.226</ele>
        <time>2011-09-11T07:55:43Z</time>
      </trkpt>
      <trkpt lat="43.9931" lon="7.25657">
        <ele>1125.858</ele>
        <time>2011-09-11T07:55:47Z</time>
      </trkpt>
      <trkpt lat="43.99308" lon="7.25663">
        <ele>1126.81</ele>
        <time>2011-09-11T07:55:50Z</time>
      </trkpt>
      <trkpt lat="43.99304" lon="7.25668">
        <ele>1128.43</ele>
        <time>2011-09-11T07:55:55Z</time>
      </trkpt>
      <trkpt lat="43.99298" lon="7.2568">
        <ele>1133.102</ele>
        <time>2011-09-11T07:56:02Z</time>
      </trkpt>
      <trkpt lat="43.99289" lon="7.25683">
        <ele>1136.22</ele>
        <time>2011-09-11T07:56:07Z</time>
      </trkpt>
      <trkpt lat="43.99272" lon="7.25681">
        <ele>1140.642</ele>
        <time>2011-09-11T07:56:13Z</time>
      </trkpt>
      <trkpt lat="43.99263" lon="7.25686">
        <ele>1143.102</ele>
        <time>2011-09-11T07:56:16Z</time>
      </trkpt>
      <trkpt lat="43.99247" lon="7.25699">
        <ele>1146.801</ele>
        <time>2011-09-11T07:56:20Z</time>
      </trkpt>
      <trkpt lat="43.99225" lon="7.25711">
        <ele>1133.409</ele>
        <time>2011-09-11T07:56:26Z</time>
      </trkpt>
      <trkpt lat="43.99213" lon="7.25718">
        <ele>1137.223</ele>
        <time>2011-09-11T07:56:29Z</time>
      </trkpt>
      <trkpt lat="43.99203" lon="7.25728">
        <ele>1140.808</ele>
        <time>2011-09-11T07:56:34Z</time>
      </trkpt>
      <trkpt lat="43.99192" lon="7.25736">
        <ele>1139.408</ele>
        <time>2011-09-11T07:56:40Z</time>
      </trkpt>
      <trkpt lat="43.99179" lon="7.25735">
        <ele>1135.531</ele>
        <time>2011-09-11T07:56:45Z</time>
      </trkpt>
      <trkpt lat="43.9917" lon="7.25735">
        <ele>1134.95</ele>
        <time>2011-09-11T07:56:49Z</time>
      </trkpt>
      <trkpt lat="43.99159" lon="7.25738">
        <ele>1129.787</ele>
        <time>2011-09-11T07:56:55Z</time>
      </trkpt>
      <trkpt lat="43.99147" lon="7.25737">
        <ele>1127.037</ele>
        <time>2011-09-11T07:57:01Z</time>
      </trkpt>
      <trkpt lat="43.9915" lon="7.25739">
        <ele>1106.298</ele>
        <time>2011-09-11T07:57:06Z</time>
      </trkpt>
      <trkpt lat="43.99147" lon="7.25742">
        <ele>1097.112</ele>
        <time>2011-09-11T07:57:14Z</time>
      </trkpt>
      <trkpt lat="43.99142" lon="7.25748">
        <ele>1097.29</ele>
        <time>2011-09-11T07:57:20Z</time>
      </trkpt>
      <trkpt lat="43.9914" lon="7.25749">
        <ele>1096.832</ele>
        <time>2011-09-11T07:57:27Z</time>
      </trkpt>
      <trkpt lat="43.99138" lon="7.2575">
        <ele>1101.655</ele>
        <time>2011-09-11T07:57:35Z</time>
      </trkpt>
      <trkpt lat="43.99136" lon="7.25751">
        <ele>1104.666</ele>
        <time>2011-09-11T07:57:39Z</time>
      </trkpt>
      <trkpt lat="43.99134" lon="7.25754">
        <ele>1105.793</ele>
        <time>2011-09-11T07:57:46Z</time>
      </trkpt>
      <trkpt lat="43.99131" lon="7.25765">
        <ele>1103.24</ele>
        <time>2011-09-11T07:58:23Z</time>
      </trkpt>
      <trkpt lat="43.99129" lon="7.2578">
        <ele>1100.077</ele>
        <time>2011-09-11T07:58:27Z</time>
      </trkpt>
      <trkpt lat="43.99133" lon="7.25799">
        <ele>1098.097</ele>
        <time>2011-09-11T07:58:33Z</time>
      </trkpt>
      <trkpt lat="43.99136" lon="7.25812">
        <ele>1099.529</ele>
        <time>2011-09-11T07:58:37Z</time>
      </trkpt>
      <trkpt lat="43.99138" lon="7.25829">
        <ele>1101.15</ele>
        <time>2011-09-11T07:58:43Z</time>
      </trkpt>
      <trkpt lat="43.99141" lon="7.25838">
        <ele>1102.943</ele>
        <time>2011-09-11T07:58:46Z</time>
      </trkpt>
      <trkpt lat="43.99143" lon="7.25859">
        <ele>1099.458</ele>
        <time>2011-09-11T07:58:53Z</time>
      </trkpt>
      <trkpt lat="43.99145" lon="7.2587">
        <ele>1100.84</ele>
        <time>2011-09-11T07:58:58Z</time>
      </trkpt>
      <trkpt lat="43.99144" lon="7.25872">
        <ele>1103.274</ele>
        <time>2011-09-11T07:59:01Z</time>
      </trkpt>
      <trkpt lat="43.99141" lon="7.25881">
        <ele>1107.518</ele>
        <time>2011-09-11T07:59:08Z</time>
      </trkpt>
      <trkpt lat="43.99139" lon="7.25886">
        <ele>1109.768</ele>
        <time>2011-09-11T07:59:13Z</time>
      </trkpt>
      <trkpt lat="43.99133" lon="7.25896">
        <ele>1111.506</ele>
        <time>2011-09-11T07:59:20Z</time>
      </trkpt>
      <trkpt lat="43.9913" lon="7.25912">
        <ele>1109.511</ele>
        <time>2011-09-11T07:59:26Z</time>
      </trkpt>
      <trkpt lat="43.99134" lon="7.25922">
        <ele>1108.531</ele>
        <time>2011-09-11T07:59:30Z</time>
      </trkpt>
      <trkpt lat="43.99137" lon="7.25932">
        <ele>1109.313</ele>
        <time>2011-09-11T07:59:36Z</time>
      </trkpt>
      <trkpt lat="43.99139" lon="7.25934">
        <ele>1101.821</ele>
        <time>2011-09-11T07:59:43Z</time>
      </trkpt>
      <trkpt lat="43.99142" lon="7.25951">
        <ele>1099.201</ele>
        <time>2011-09-11T07:59:50Z</time>
      </trkpt>
      <trkpt lat="43.9914" lon="7.25967">
        <ele>1099.386</ele>
        <time>2011-09-11T07:59:57Z</time>
      </trkpt>
      <trkpt lat="43.99141" lon="7.25969">
        <ele>1092.196</ele>
        <time>2011-09-11T08:00:02Z</time>
      </trkpt>
      <trkpt lat="43.99141" lon="7.25973">
        <ele>1089.702</ele>
        <time>2011-09-11T08:00:08Z</time>
      </trkpt>
      <trkpt lat="43.99142" lon="7.25977">
        <ele>1089.342</ele>
        <time>2011-09-11T08:00:10Z</time>
      </trkpt>
      <trkpt lat="43.99146" lon="7.25982">
        <ele>1090.924</ele>
        <time>2011-09-11T08:00:16Z</time>
      </trkpt>
      <trkpt lat="43.9915" lon="7.25987">
        <ele>1094.305</ele>
        <time>2011-09-11T08:00:22Z</time>
      </trkpt>
      <trkpt lat="43.99156" lon="7.2599">
        <ele>1095.284</ele>
        <time>2011-09-11T08:00:30Z</time>
      </trkpt>
      <trkpt lat="43.99165" lon="7.26">
        <ele>1104.678</ele>
        <time>2011-09-11T08:00:41Z</time>
      </trkpt>
      <trkpt lat="43.9917" lon="7.2601">
        <ele>1107.596</ele>
        <time>2011-09-11T08:00:48Z</time>
      </trkpt>
      <trkpt lat="43.99174" lon="7.26014">
        <ele>1116.19</ele>
        <time>2011-09-11T08:00:56Z</time>
      </trkpt>
      <trkpt lat="43.99175" lon="7.26017">
        <ele>1121.933</ele>
        <time>2011-09-11T08:01:00Z</time>
      </trkpt>
      <trkpt lat="43.99175" lon="7.26022">
        <ele>1125.529</ele>
        <time>2011-09-11T08:01:04Z</time>
      </trkpt>
      <trkpt lat="43.99177" lon="7.26016">
        <ele>1113.392</ele>
        <time>2011-09-11T08:01:11Z</time>
      </trkpt>
      <trkpt lat="43.99177" lon="7.2602">
        <ele>1112.373</ele>
        <time>2011-09-11T08:01:16Z</time>
      </trkpt>
      <trkpt lat="43.99176" lon="7.26026">
        <ele>1113.524</ele>
        <time>2011-09-11T08:01:20Z</time>
      </trkpt>
      <trkpt lat="43.99173" lon="7.26027">
        <ele>1113.404</ele>
        <time>2011-09-11T08:01:23Z</time>
      </trkpt>
      <trkpt lat="43.99176" lon="7.26034">
        <ele>1104.519</ele>
        <time>2011-09-11T08:01:28Z</time>
      </trkpt>
      <trkpt lat="43.99177" lon="7.26043">
        <ele>1107.931</ele>
        <time>2011-09-11T08:01:33Z</time>
      </trkpt>
      <trkpt lat="43.99177" lon="7.26052">
        <ele>1111.081</ele>
        <time>2011-09-11T08:01:38Z</time>
      </trkpt>
      <trkpt lat="43.9918" lon="7.26073">
        <ele>1122.273</ele>
        <time>2011-09-11T08:02:24Z</time>
      </trkpt>
      <trkpt lat="43.99183" lon="7.26078">
        <ele>1123.163</ele>
        <time>2011-09-11T08:02:30Z</time>
      </trkpt>
      <trkpt lat="43.99185" lon="7.26085">
        <ele>1124.754</ele>
        <time>2011-09-11T08:02:34Z</time>
      </trkpt>
      <trkpt lat="43.99185" lon="7.26093">
        <ele>1125.293</ele>
        <time>2011-09-11T08:02:42Z</time>
      </trkpt>
      <trkpt lat="43.99186" lon="7.26094">
        <ele>1125.193</ele>
        <time>2011-09-11T08:02:45Z</time>
      </trkpt>
      <trkpt lat="43.99189" lon="7.26108">
        <ele>1127.835</ele>
        <time>2011-09-11T08:02:52Z</time>
      </trkpt>
      <trkpt lat="43.99191" lon="7.26113">
        <ele>1128.114</ele>
        <time>2011-09-11T08:02:55Z</time>
      </trkpt>
      <trkpt lat="43.99201" lon="7.26123">
        <ele>1128.042</ele>
        <time>2011-09-11T08:03:00Z</time>
      </trkpt>
      <trkpt lat="43.99204" lon="7.26127">
        <ele>1128.543</ele>
        <time>2011-09-11T08:03:02Z</time>
      </trkpt>
      <trkpt lat="43.99207" lon="7.26135">
        <ele>1131.897</ele>
        <time>2011-09-11T08:03:08Z</time>
      </trkpt>
      <trkpt lat="43.99208" lon="7.26135">
        <ele>1132.317</ele>
        <time>2011-09-11T08:03:09Z</time>
      </trkpt>
      <trkpt lat="43.9921" lon="7.26139">
        <ele>1134.637</ele>
        <time>2011-09-11T08:03:15Z</time>
      </trkpt>
      <trkpt lat="43.99214" lon="7.26147">
        <ele>1137.287</ele>
        <time>2011-09-11T08:03:24Z</time>
      </trkpt>
      <trkpt lat="43.99218" lon="7.26153">
        <ele>1139.245</ele>
        <time>2011-09-11T08:03:31Z</time>
      </trkpt>
      <trkpt lat="43.99224" lon="7.26156">
        <ele>1141.993</ele>
        <time>2011-09-11T08:03:40Z</time>
      </trkpt>
      <trkpt lat="43.99228" lon="7.26159">
        <ele>1143.374</ele>
        <time>2011-09-11T08:03:46Z</time>
      </trkpt>
      <trkpt lat="43.99232" lon="7.26164">
        <ele>1143.374</ele>
        <time>2011-09-11T08:03:52Z</time>
      </trkpt>
      <trkpt lat="43.99233" lon="7.2617">
        <ele>1149.748</ele>
        <time>2011-09-11T08:03:58Z</time>
      </trkpt>
      <trkpt lat="43.99233" lon="7.26172">
        <ele>1150.618</ele>
        <time>2011-09-11T08:03:59Z</time>
      </trkpt>
      <trkpt lat="43.99242" lon="7.2618">
        <ele>1152.213</ele>
        <time>2011-09-11T08:04:05Z</time>
      </trkpt>
      <trkpt lat="43.99244" lon="7.26186">
        <ele>1158.257</ele>
        <time>2011-09-11T08:04:09Z</time>
      </trkpt>
      <trkpt lat="43.99245" lon="7.26188">
        <ele>1159.376</ele>
        <time>2011-09-11T08:04:11Z</time>
      </trkpt>
      <trkpt lat="43.99244" lon="7.26195">
        <ele>1166.259</ele>
        <time>2011-09-11T08:04:17Z</time>
      </trkpt>
      <trkpt lat="43.99244" lon="7.26198">
        <ele>1169.248</ele>
        <time>2011-09-11T08:04:23Z</time>
      </trkpt>
      <trkpt lat="43.99246" lon="7.262">
        <ele>1171.179</ele>
        <time>2011-09-11T08:04:26Z</time>
      </trkpt>
      <trkpt lat="43.9925" lon="7.26203">
        <ele>1167.833</ele>
        <time>2011-09-11T08:04:33Z</time>
      </trkpt>
      <trkpt lat="43.99252" lon="7.26203">
        <ele>1164.87</ele>
        <time>2011-09-11T08:04:59Z</time>
      </trkpt>
      <trkpt lat="43.99251" lon="7.26203">
        <ele>1164.202</ele>
        <time>2011-09-11T08:05:06Z</time>
      </trkpt>
      <trkpt lat="43.99246" lon="7.262">
        <ele>1164.202</ele>
        <time>2011-09-11T08:05:10Z</time>
      </trkpt>
      <trkpt lat="43.99241" lon="7.262">
        <ele>1164.403</ele>
        <time>2011-09-11T08:05:13Z</time>
      </trkpt>
      <trkpt lat="43.99238" lon="7.26197">
        <ele>1164.434</ele>
        <time>2011-09-11T08:05:17Z</time>
      </trkpt>
      <trkpt lat="43.99235" lon="7.26195">
        <ele>1165.135</ele>
        <time>2011-09-11T08:05:20Z</time>
      </trkpt>
      <trkpt lat="43.99224" lon="7.26204">
        <ele>1166.608</ele>
        <time>2011-09-11T08:05:26Z</time>
      </trkpt>
      <trkpt lat="43.99215" lon="7.2621">
        <ele>1167.366</ele>
        <time>2011-09-11T08:05:32Z</time>
      </trkpt>
      <trkpt lat="43.99209" lon="7.26216">
        <ele>1165.804</ele>
        <time>2011-09-11T08:05:36Z</time>
      </trkpt>
      <trkpt lat="43.99206" lon="7.26223">
        <ele>1163.552</ele>
        <time>2011-09-11T08:05:40Z</time>
      </trkpt>
      <trkpt lat="43.99202" lon="7.26229">
        <ele>1162.653</ele>
        <time>2011-09-11T08:05:46Z</time>
      </trkpt>
      <trkpt lat="43.99196" lon="7.26234">
        <ele>1162.305</ele>
        <time>2011-09-11T08:05:54Z</time>
      </trkpt>
      <trkpt lat="43.99195" lon="7.26235">
        <ele>1163.395</ele>
        <time>2011-09-11T08:06:02Z</time>
      </trkpt>
      <trkpt lat="43.99193" lon="7.26236">
        <ele>1164.135</ele>
        <time>2011-09-11T08:06:07Z</time>
      </trkpt>
      <trkpt lat="43.99192" lon="7.26236">
        <ele>1165.416</ele>
        <time>2011-09-11T08:06:13Z</time>
      </trkpt>
      <trkpt lat="43.99189" lon="7.26241">
        <ele>1166.666</ele>
        <time>2011-09-11T08:06:18Z</time>
      </trkpt>
      <trkpt lat="43.99181" lon="7.26254">
        <ele>1166.793</ele>
        <time>2011-09-11T08:06:28Z</time>
      </trkpt>
      <trkpt lat="43.99176" lon="7.26259">
        <ele>1166.522</ele>
        <time>2011-09-11T08:06:35Z</time>
      </trkpt>
      <trkpt lat="43.99172" lon="7.26266">
        <ele>1164.621</ele>
        <time>2011-09-11T08:06:44Z</time>
      </trkpt>
      <trkpt lat="43.99169" lon="7.26268">
        <ele>1164.901</ele>
        <time>2011-09-11T08:06:47Z</time>
      </trkpt>
      <trkpt lat="43.99163" lon="7.26269">
        <ele>1165.202</ele>
        <time>2011-09-11T08:06:54Z</time>
      </trkpt>
      <trkpt lat="43.99164" lon="7.26268">
        <ele>1167.203</ele>
        <time>2011-09-11T08:07:11Z</time>
      </trkpt>
      <trkpt lat="43.99155" lon="7.26273">
        <ele>1167.254</ele>
        <time>2011-09-11T08:07:17Z</time>
      </trkpt>
      <trkpt lat="43.99152" lon="7.26273">
        <ele>1169.166</ele>
        <time>2011-09-11T08:07:19Z</time>
      </trkpt>
      <trkpt lat="43.99144" lon="7.26267">
        <ele>1176.231</ele>
        <time>2011-09-11T08:07:26Z</time>
      </trkpt>
      <trkpt lat="43.99142" lon="7.26266">
        <ele>1176.55</ele>
        <time>2011-09-11T08:07:28Z</time>
      </trkpt>
      <trkpt lat="43.99135" lon="7.26269">
        <ele>1175.656</ele>
        <time>2011-09-11T08:07:34Z</time>
      </trkpt>
      <trkpt lat="43.99129" lon="7.26269">
        <ele>1178.125</ele>
        <time>2011-09-11T08:07:40Z</time>
      </trkpt>
      <trkpt lat="43.99128" lon="7.26269">
        <ele>1178.804</ele>
        <time>2011-09-11T08:07:41Z</time>
      </trkpt>
      <trkpt lat="43.99121" lon="7.26268">
        <ele>1180.865</ele>
        <time>2011-09-11T08:07:49Z</time>
      </trkpt>
      <trkpt lat="43.99117" lon="7.26266">
        <ele>1181.482</ele>
        <time>2011-09-11T08:07:57Z</time>
      </trkpt>
      <trkpt lat="43.99108" lon="7.26268">
        <ele>1182.225</ele>
        <time>2011-09-11T08:08:05Z</time>
      </trkpt>
      <trkpt lat="43.99105" lon="7.2627">
        <ele>1181.723</ele>
        <time>2011-09-11T08:08:09Z</time>
      </trkpt>
      <trkpt lat="43.99104" lon="7.2627">
        <ele>1181.713</ele>
        <time>2011-09-11T08:08:10Z</time>
      </trkpt>
      <trkpt lat="43.99097" lon="7.26279">
        <ele>1181.603</ele>
        <time>2011-09-11T08:08:19Z</time>
      </trkpt>
      <trkpt lat="43.99091" lon="7.2629">
        <ele>1182.684</ele>
        <time>2011-09-11T08:08:28Z</time>
      </trkpt>
      <trkpt lat="43.99089" lon="7.26296">
        <ele>1183.122</ele>
        <time>2011-09-11T08:08:35Z</time>
      </trkpt>
      <trkpt lat="43.99086" lon="7.26303">
        <ele>1183.742</ele>
        <time>2011-09-11T08:08:46Z</time>
      </trkpt>
      <trkpt lat="43.99082" lon="7.26313">
        <ele>1184.873</ele>
        <time>2011-09-11T08:08:52Z</time>
      </trkpt>
      <trkpt lat="43.99083" lon="7.26322">
        <ele>1186.164</ele>
        <time>2011-09-11T08:08:58Z</time>
      </trkpt>
      <trkpt lat="43.99083" lon="7.26323">
        <ele>1186.515</ele>
        <time>2011-09-11T08:08:59Z</time>
      </trkpt>
      <trkpt lat="43.99082" lon="7.26331">
        <ele>1188.053</ele>
        <time>2011-09-11T08:09:06Z</time>
      </trkpt>
      <trkpt lat="43.99083" lon="7.26335">
        <ele>1188.573</ele>
        <time>2011-09-11T08:09:09Z</time>
      </trkpt>
      <trkpt lat="43.9908" lon="7.26339">
        <ele>1188.651</ele>
        <time>2011-09-11T08:09:13Z</time>
      </trkpt>
      <trkpt lat="43.99077" lon="7.26342">
        <ele>1190.002</ele>
        <time>2011-09-11T08:09:21Z</time>
      </trkpt>
      <trkpt lat="43.99073" lon="7.26345">
        <ele>1191.375</ele>
        <time>2011-09-11T08:09:24Z</time>
      </trkpt>
      <trkpt lat="43.99069" lon="7.26345">
        <ele>1193.626</ele>
        <time>2011-09-11T08:09:29Z</time>
      </trkpt>
      <trkpt lat="43.99062" lon="7.26344">
        <ele>1194.854</ele>
        <time>2011-09-11T08:09:33Z</time>
      </trkpt>
      <trkpt lat="43.9905" lon="7.26344">
        <ele>1203.102</ele>
        <time>2011-09-11T08:09:40Z</time>
      </trkpt>
      <trkpt lat="43.99041" lon="7.26345">
        <ele>1203.564</ele>
        <time>2011-09-11T08:09:45Z</time>
      </trkpt>
      <trkpt lat="43.99034" lon="7.26348">
        <ele>1200.547</ele>
        <time>2011-09-11T08:09:51Z</time>
      </trkpt>
      <trkpt lat="43.9903" lon="7.26349">
        <ele>1201.175</ele>
        <time>2011-09-11T08:09:56Z</time>
      </trkpt>
      <trkpt lat="43.99028" lon="7.26355">
        <ele>1197.874</ele>
        <time>2011-09-11T08:10:03Z</time>
      </trkpt>
      <trkpt lat="43.99024" lon="7.26359">
        <ele>1196.221</ele>
        <time>2011-09-11T08:10:09Z</time>
      </trkpt>
      <trkpt lat="43.99022" lon="7.26362">
        <ele>1194.79</ele>
        <time>2011-09-11T08:10:14Z</time>
      </trkpt>
      <trkpt lat="43.99022" lon="7.26363">
        <ele>1192.932</ele>
        <time>2011-09-11T08:10:32Z</time>
      </trkpt>
      <trkpt lat="43.99024" lon="7.26368">
        <ele>1192.548</ele>
        <time>2011-09-11T08:10:36Z</time>
      </trkpt>
      <trkpt lat="43.99026" lon="7.26372">
        <ele>1192.45</ele>
        <time>2011-09-11T08:10:42Z</time>
      </trkpt>
      <trkpt lat="43.99027" lon="7.26372">
        <ele>1199.902</ele>
        <time>2011-09-11T08:11:51Z</time>
      </trkpt>
      <trkpt lat="43.99028" lon="7.2638">
        <ele>1201.146</ele>
        <time>2011-09-11T08:12:15Z</time>
      </trkpt>
      <trkpt lat="43.99039" lon="7.26398">
        <ele>1197.643</ele>
        <time>2011-09-11T08:12:20Z</time>
      </trkpt>
      <trkpt lat="43.99041" lon="7.26405">
        <ele>1196.836</ele>
        <time>2011-09-11T08:12:22Z</time>
      </trkpt>
      <trkpt lat="43.99046" lon="7.26412">
        <ele>1196.027</ele>
        <time>2011-09-11T08:12:25Z</time>
      </trkpt>
      <trkpt lat="43.99051" lon="7.26425">
        <ele>1193.516</ele>
        <time>2011-09-11T08:12:29Z</time>
      </trkpt>
      <trkpt lat="43.99052" lon="7.26432">
        <ele>1193.679</ele>
        <time>2011-09-11T08:12:33Z</time>
      </trkpt>
      <trkpt lat="43.99053" lon="7.26435">
        <ele>1193.889</ele>
        <time>2011-09-11T08:12:34Z</time>
      </trkpt>
      <trkpt lat="43.99064" lon="7.26445">
        <ele>1193.59</ele>
        <time>2011-09-11T08:12:40Z</time>
      </trkpt>
      <trkpt lat="43.99082" lon="7.26445">
        <ele>1188.327</ele>
        <time>2011-09-11T08:12:45Z</time>
      </trkpt>
      <trkpt lat="43.99085" lon="7.26444">
        <ele>1187.276</ele>
        <time>2011-09-11T08:12:46Z</time>
      </trkpt>
      <trkpt lat="43.99096" lon="7.26436">
        <ele>1184.086</ele>
        <time>2011-09-11T08:12:50Z</time>
      </trkpt>
      <trkpt lat="43.99111" lon="7.26429">
        <ele>1181.757</ele>
        <time>2011-09-11T08:12:55Z</time>
      </trkpt>
      <trkpt lat="43.99114" lon="7.26427">
        <ele>1181.116</ele>
        <time>2011-09-11T08:12:56Z</time>
      </trkpt>
      <trkpt lat="43.99128" lon="7.26425">
        <ele>1178.595</ele>
        <time>2011-09-11T08:13:02Z</time>
      </trkpt>
      <trkpt lat="43.9914" lon="7.26428">
        <ele>1175.614</ele>
        <time>2011-09-11T08:13:07Z</time>
      </trkpt>
      <trkpt lat="43.99146" lon="7.26439">
        <ele>1176.076</ele>
        <time>2011-09-11T08:13:12Z</time>
      </trkpt>
      <trkpt lat="43.9915" lon="7.26456">
        <ele>1180.269</ele>
        <time>2011-09-11T08:13:18Z</time>
      </trkpt>
      <trkpt lat="43.99157" lon="7.26466">
        <ele>1182.482</ele>
        <time>2011-09-11T08:13:23Z</time>
      </trkpt>
      <trkpt lat="43.99169" lon="7.26486">
        <ele>1185.261</ele>
        <time>2011-09-11T08:13:29Z</time>
      </trkpt>
      <trkpt lat="43.9918" lon="7.26503">
        <ele>1184.661</ele>
        <time>2011-09-11T08:13:33Z</time>
      </trkpt>
      <trkpt lat="43.99188" lon="7.26514">
        <ele>1184.672</ele>
        <time>2011-09-11T08:13:37Z</time>
      </trkpt>
      <trkpt lat="43.99192" lon="7.26521">
        <ele>1186.714</ele>
        <time>2011-09-11T08:13:41Z</time>
      </trkpt>
      <trkpt lat="43.99192" lon="7.26535">
        <ele>1187.822</ele>
        <time>2011-09-11T08:13:47Z</time>
      </trkpt>
      <trkpt lat="43.99187" lon="7.26547">
        <ele>1189.646</ele>
        <time>2011-09-11T08:13:51Z</time>
      </trkpt>
      <trkpt lat="43.99181" lon="7.26556">
        <ele>1195.775</ele>
        <time>2011-09-11T08:13:55Z</time>
      </trkpt>
      <trkpt lat="43.99171" lon="7.26563">
        <ele>1198.889</ele>
        <time>2011-09-11T08:14:01Z</time>
      </trkpt>
      <trkpt lat="43.99167" lon="7.26566">
        <ele>1191.355</ele>
        <time>2011-09-11T08:14:07Z</time>
      </trkpt>
      <trkpt lat="43.99166" lon="7.26567">
        <ele>1190.224</ele>
        <time>2011-09-11T08:14:08Z</time>
      </trkpt>
      <trkpt lat="43.99166" lon="7.2657">
        <ele>1187.614</ele>
        <time>2011-09-11T08:14:10Z</time>
      </trkpt>
      <trkpt lat="43.99162" lon="7.26576">
        <ele>1185.274</ele>
        <time>2011-09-11T08:14:13Z</time>
      </trkpt>
      <trkpt lat="43.99159" lon="7.26586">
        <ele>1182.414</ele>
        <time>2011-09-11T08:14:17Z</time>
      </trkpt>
      <trkpt lat="43.9916" lon="7.26606">
        <ele>1178.543</ele>
        <time>2011-09-11T08:14:23Z</time>
      </trkpt>
      <trkpt lat="43.99162" lon="7.26618">
        <ele>1178.246</ele>
        <time>2011-09-11T08:14:27Z</time>
      </trkpt>
      <trkpt lat="43.99165" lon="7.26635">
        <ele>1176.968</ele>
        <time>2011-09-11T08:14:32Z</time>
      </trkpt>
      <trkpt lat="43.99166" lon="7.2665">
        <ele>1180.265</ele>
        <time>2011-09-11T08:14:38Z</time>
      </trkpt>
      <trkpt lat="43.99166" lon="7.26651">
        <ele>1180.785</ele>
        <time>2011-09-11T08:14:39Z</time>
      </trkpt>
      <trkpt lat="43.99169" lon="7.26663">
        <ele>1181.272</ele>
        <time>2011-09-11T08:14:45Z</time>
      </trkpt>
      <trkpt lat="43.99173" lon="7.26674">
        <ele>1183.353</ele>
        <time>2011-09-11T08:14:50Z</time>
      </trkpt>
      <trkpt lat="43.99181" lon="7.26685">
        <ele>1185.185</ele>
        <time>2011-09-11T08:14:56Z</time>
      </trkpt>
      <trkpt lat="43.9919" lon="7.26692">
        <ele>1184.602</ele>
        <time>2011-09-11T08:15:00Z</time>
      </trkpt>
      <trkpt lat="43.99198" lon="7.26697">
        <ele>1182.358</ele>
        <time>2011-09-11T08:15:03Z</time>
      </trkpt>
      <trkpt lat="43.99205" lon="7.26719">
        <ele>1181.119</ele>
        <time>2011-09-11T08:15:09Z</time>
      </trkpt>
      <trkpt lat="43.99206" lon="7.26743">
        <ele>1180.74</ele>
        <time>2011-09-11T08:15:14Z</time>
      </trkpt>
      <trkpt lat="43.99206" lon="7.26756">
        <ele>1180.891</ele>
        <time>2011-09-11T08:15:17Z</time>
      </trkpt>
      <trkpt lat="43.99206" lon="7.26761">
        <ele>1181.942</ele>
        <time>2011-09-11T08:15:24Z</time>
      </trkpt>
      <trkpt lat="43.99206" lon="7.26762">
        <ele>1182.312</ele>
        <time>2011-09-11T08:15:27Z</time>
      </trkpt>
      <trkpt lat="43.99205" lon="7.26763">
        <ele>1182.973</ele>
        <time>2011-09-11T08:15:34Z</time>
      </trkpt>
      <trkpt lat="43.99205" lon="7.26765">
        <ele>1182.273</ele>
        <time>2011-09-11T08:15:40Z</time>
      </trkpt>
      <trkpt lat="43.9921" lon="7.2676">
        <ele>1182.144</ele>
        <time>2011-09-11T08:16:06Z</time>
      </trkpt>
      <trkpt lat="43.99208" lon="7.26763">
        <ele>1179.771</ele>
        <time>2011-09-11T08:16:28Z</time>
      </trkpt>
      <trkpt lat="43.99209" lon="7.2676">
        <ele>1178.664</ele>
        <time>2011-09-11T08:18:48Z</time>
      </trkpt>
      <trkpt lat="43.9921" lon="7.2676">
        <ele>1179.802</ele>
        <time>2011-09-11T08:19:01Z</time>
      </trkpt>
      <trkpt lat="43.99211" lon="7.2676">
        <ele>1179.602</ele>
        <time>2011-09-11T08:19:06Z</time>
      </trkpt>
      <trkpt lat="43.99212" lon="7.26758">
        <ele>1179.823</ele>
        <time>2011-09-11T08:19:20Z</time>
      </trkpt>
      <trkpt lat="43.99217" lon="7.26748">
        <ele>1181.397</ele>
        <time>2011-09-11T08:19:27Z</time>
      </trkpt>
      <trkpt lat="43.99221" lon="7.26742">
        <ele>1184.452</ele>
        <time>2011-09-11T08:19:32Z</time>
      </trkpt>
      <trkpt lat="43.99229" lon="7.26729">
        <ele>1189.232</ele>
        <time>2011-09-11T08:19:41Z</time>
      </trkpt>
      <trkpt lat="43.99231" lon="7.26726">
        <ele>1190.99</ele>
        <time>2011-09-11T08:19:45Z</time>
      </trkpt>
      <trkpt lat="43.99232" lon="7.26719">
        <ele>1192.907</ele>
        <time>2011-09-11T08:19:52Z</time>
      </trkpt>
      <trkpt lat="43.99232" lon="7.26719">
        <ele>1193.995</ele>
        <time>2011-09-11T08:19:56Z</time>
      </trkpt>
      <trkpt lat="43.99238" lon="7.26712">
        <ele>1194.635</ele>
        <time>2011-09-11T08:20:04Z</time>
      </trkpt>
      <trkpt lat="43.99241" lon="7.26709">
        <ele>1194.072</ele>
        <time>2011-09-11T08:20:10Z</time>
      </trkpt>
      <trkpt lat="43.99247" lon="7.267">
        <ele>1195.275</ele>
        <time>2011-09-11T08:20:19Z</time>
      </trkpt>
      <trkpt lat="43.99251" lon="7.26695">
        <ele>1193.292</ele>
        <time>2011-09-11T08:20:24Z</time>
      </trkpt>
      <trkpt lat="43.99254" lon="7.26693">
        <ele>1192.813</ele>
        <time>2011-09-11T08:20:28Z</time>
      </trkpt>
      <trkpt lat="43.99256" lon="7.26694">
        <ele>1196.138</ele>
        <time>2011-09-11T08:20:32Z</time>
      </trkpt>
      <trkpt lat="43.99259" lon="7.26692">
        <ele>1198.298</ele>
        <time>2011-09-11T08:20:38Z</time>
      </trkpt>
      <trkpt lat="43.99262" lon="7.26688">
        <ele>1199.858</ele>
        <time>2011-09-11T08:20:44Z</time>
      </trkpt>
      <trkpt lat="43.99266" lon="7.26687">
        <ele>1202.701</ele>
        <time>2011-09-11T08:20:51Z</time>
      </trkpt>
      <trkpt lat="43.99271" lon="7.26683">
        <ele>1208.145</ele>
        <time>2011-09-11T08:20:58Z</time>
      </trkpt>
      <trkpt lat="43.99274" lon="7.26678">
        <ele>1209</ele>
        <time>2011-09-11T08:21:04Z</time>
      </trkpt>
      <trkpt lat="43.99277" lon="7.26672">
        <ele>1210.496</ele>
        <time>2011-09-11T08:21:13Z</time>
      </trkpt>
      <trkpt lat="43.99278" lon="7.26669">
        <ele>1209.944</ele>
        <time>2011-09-11T08:21:14Z</time>
      </trkpt>
      <trkpt lat="43.99286" lon="7.26655">
        <ele>1204.697</ele>
        <time>2011-09-11T08:21:21Z</time>
      </trkpt>
      <trkpt lat="43.99291" lon="7.26645">
        <ele>1200.888</ele>
        <time>2011-09-11T08:21:26Z</time>
      </trkpt>
      <trkpt lat="43.99293" lon="7.26642">
        <ele>1200.159</ele>
        <time>2011-09-11T08:21:28Z</time>
      </trkpt>
      <trkpt lat="43.99301" lon="7.26634">
        <ele>1198.623</ele>
        <time>2011-09-11T08:21:35Z</time>
      </trkpt>
      <trkpt lat="43.99308" lon="7.26629">
        <ele>1198.064</ele>
        <time>2011-09-11T08:21:42Z</time>
      </trkpt>
      <trkpt lat="43.99316" lon="7.26623">
        <ele>1197.307</ele>
        <time>2011-09-11T08:21:49Z</time>
      </trkpt>
      <trkpt lat="43.9932" lon="7.26619">
        <ele>1197.294</ele>
        <time>2011-09-11T08:22:03Z</time>
      </trkpt>
      <trkpt lat="43.99325" lon="7.26613">
        <ele>1198.265</ele>
        <time>2011-09-11T08:22:09Z</time>
      </trkpt>
      <trkpt lat="43.99327" lon="7.2661">
        <ele>1198.976</ele>
        <time>2011-09-11T08:22:13Z</time>
      </trkpt>
      <trkpt lat="43.99334" lon="7.26607">
        <ele>1202.696</ele>
        <time>2011-09-11T08:22:39Z</time>
      </trkpt>
      <trkpt lat="43.99345" lon="7.26607">
        <ele>1205.647</ele>
        <time>2011-09-11T08:22:45Z</time>
      </trkpt>
      <trkpt lat="43.99357" lon="7.2661">
        <ele>1209.988</ele>
        <time>2011-09-11T08:22:53Z</time>
      </trkpt>
      <trkpt lat="43.99368" lon="7.2661">
        <ele>1212.247</ele>
        <time>2011-09-11T08:22:59Z</time>
      </trkpt>
      <trkpt lat="43.99379" lon="7.26612">
        <ele>1214.697</ele>
        <time>2011-09-11T08:23:06Z</time>
      </trkpt>
      <trkpt lat="43.9938" lon="7.2661">
        <ele>1218.066</ele>
        <time>2011-09-11T08:23:10Z</time>
      </trkpt>
      <trkpt lat="43.99378" lon="7.26596">
        <ele>1221.118</ele>
        <time>2011-09-11T08:23:17Z</time>
      </trkpt>
      <trkpt lat="43.99379" lon="7.26588">
        <ele>1223.479</ele>
        <time>2011-09-11T08:23:23Z</time>
      </trkpt>
      <trkpt lat="43.99378" lon="7.26581">
        <ele>1224.888</ele>
        <time>2011-09-11T08:23:29Z</time>
      </trkpt>
      <trkpt lat="43.9938" lon="7.26576">
        <ele>1226.745</ele>
        <time>2011-09-11T08:23:38Z</time>
      </trkpt>
      <trkpt lat="43.99383" lon="7.26569">
        <ele>1230.477</ele>
        <time>2011-09-11T08:23:45Z</time>
      </trkpt>
      <trkpt lat="43.99383" lon="7.26564">
        <ele>1231.836</ele>
        <time>2011-09-11T08:23:51Z</time>
      </trkpt>
      <trkpt lat="43.99383" lon="7.26556">
        <ele>1231.935</ele>
        <time>2011-09-11T08:23:58Z</time>
      </trkpt>
      <trkpt lat="43.99382" lon="7.26546">
        <ele>1231.554</ele>
        <time>2011-09-11T08:24:05Z</time>
      </trkpt>
      <trkpt lat="43.99378" lon="7.26537">
        <ele>1230.903</ele>
        <time>2011-09-11T08:24:14Z</time>
      </trkpt>
      <trkpt lat="43.99377" lon="7.26534">
        <ele>1231.333</ele>
        <time>2011-09-11T08:24:17Z</time>
      </trkpt>
      <trkpt lat="43.9938" lon="7.26531">
        <ele>1231.773</ele>
        <time>2011-09-11T08:24:23Z</time>
      </trkpt>
      <trkpt lat="43.99384" lon="7.26532">
        <ele>1233.674</ele>
        <time>2011-09-11T08:24:32Z</time>
      </trkpt>
      <trkpt lat="43.99387" lon="7.26537">
        <ele>1243.932</ele>
        <time>2011-09-11T08:24:43Z</time>
      </trkpt>
      <trkpt lat="43.99389" lon="7.26549">
        <ele>1244.388</ele>
        <time>2011-09-11T08:24:52Z</time>
      </trkpt>
      <trkpt lat="43.99396" lon="7.26541">
        <ele>1248.937</ele>
        <time>2011-09-11T08:25:16Z</time>
      </trkpt>
      <trkpt lat="43.99399" lon="7.26545">
        <ele>1264.237</ele>
        <time>2011-09-11T08:25:22Z</time>
      </trkpt>
      <trkpt lat="43.99389" lon="7.26532">
        <ele>1240.851</ele>
        <time>2011-09-11T08:25:37Z</time>
      </trkpt>
      <trkpt lat="43.99388" lon="7.26524">
        <ele>1235.463</ele>
        <time>2011-09-11T08:25:44Z</time>
      </trkpt>
      <trkpt lat="43.99391" lon="7.26516">
        <ele>1230.088</ele>
        <time>2011-09-11T08:25:49Z</time>
      </trkpt>
      <trkpt lat="43.99392" lon="7.26505">
        <ele>1220.459</ele>
        <time>2011-09-11T08:25:55Z</time>
      </trkpt>
      <trkpt lat="43.99393" lon="7.2649">
        <ele>1209.185</ele>
        <time>2011-09-11T08:25:59Z</time>
      </trkpt>
      <trkpt lat="43.99396" lon="7.26482">
        <ele>1204.717</ele>
        <time>2011-09-11T08:26:04Z</time>
      </trkpt>
      <trkpt lat="43.99396" lon="7.26477">
        <ele>1202.72</ele>
        <time>2011-09-11T08:26:10Z</time>
      </trkpt>
      <trkpt lat="43.99383" lon="7.2652">
        <ele>1232.757</ele>
        <time>2011-09-11T08:26:29Z</time>
      </trkpt>
      <trkpt lat="43.99387" lon="7.26522">
        <ele>1237.749</ele>
        <time>2011-09-11T08:26:35Z</time>
      </trkpt>
      <trkpt lat="43.99386" lon="7.26522">
        <ele>1238.023</ele>
        <time>2011-09-11T08:26:48Z</time>
      </trkpt>
      <trkpt lat="43.9939" lon="7.26524">
        <ele>1237.224</ele>
        <time>2011-09-11T08:26:58Z</time>
      </trkpt>
      <trkpt lat="43.99392" lon="7.26518">
        <ele>1227.586</ele>
        <time>2011-09-11T08:27:11Z</time>
      </trkpt>
      <trkpt lat="43.99393" lon="7.26515">
        <ele>1223.255</ele>
        <time>2011-09-11T08:27:17Z</time>
      </trkpt>
      <trkpt lat="43.99391" lon="7.26516">
        <ele>1223.567</ele>
        <time>2011-09-11T08:27:18Z</time>
      </trkpt>
      <trkpt lat="43.99375" lon="7.26522">
        <ele>1218.474</ele>
        <time>2011-09-11T08:27:24Z</time>
      </trkpt>
      <trkpt lat="43.99388" lon="7.26524">
        <ele>1247.536</ele>
        <time>2011-09-11T08:28:10Z</time>
      </trkpt>
      <trkpt lat="43.99381" lon="7.26519">
        <ele>1236.032</ele>
        <time>2011-09-11T08:28:21Z</time>
      </trkpt>
      <trkpt lat="43.99378" lon="7.26523">
        <ele>1231.505</ele>
        <time>2011-09-11T08:28:29Z</time>
      </trkpt>
      <trkpt lat="43.99379" lon="7.26539">
        <ele>1231.731</ele>
        <time>2011-09-11T08:28:35Z</time>
      </trkpt>
      <trkpt lat="43.9938" lon="7.26565">
        <ele>1230.779</ele>
        <time>2011-09-11T08:28:41Z</time>
      </trkpt>
      <trkpt lat="43.9938" lon="7.26597">
        <ele>1224.72</ele>
        <time>2011-09-11T08:28:47Z</time>
      </trkpt>
      <trkpt lat="43.9938" lon="7.26603">
        <ele>1223.872</ele>
        <time>2011-09-11T08:28:48Z</time>
      </trkpt>
      <trkpt lat="43.99372" lon="7.2661">
        <ele>1218.756</ele>
        <time>2011-09-11T08:28:52Z</time>
      </trkpt>
      <trkpt lat="43.99365" lon="7.2661">
        <ele>1216.874</ele>
        <time>2011-09-11T08:28:54Z</time>
      </trkpt>
      <trkpt lat="43.99354" lon="7.26609">
        <ele>1213.158</ele>
        <time>2011-09-11T08:28:57Z</time>
      </trkpt>
      <trkpt lat="43.99342" lon="7.26608">
        <ele>1209.911</ele>
        <time>2011-09-11T08:29:00Z</time>
      </trkpt>
      <trkpt lat="43.99327" lon="7.26611">
        <ele>1206.981</ele>
        <time>2011-09-11T08:29:05Z</time>
      </trkpt>
      <trkpt lat="43.99327" lon="7.26612">
        <ele>1207.354</ele>
        <time>2011-09-11T08:29:06Z</time>
      </trkpt>
      <trkpt lat="43.99306" lon="7.26629">
        <ele>1203.63</ele>
        <time>2011-09-11T08:29:12Z</time>
      </trkpt>
      <trkpt lat="43.99296" lon="7.26636">
        <ele>1200.463</ele>
        <time>2011-09-11T08:29:17Z</time>
      </trkpt>
      <trkpt lat="43.99287" lon="7.26646">
        <ele>1196.491</ele>
        <time>2011-09-11T08:29:21Z</time>
      </trkpt>
      <trkpt lat="43.99275" lon="7.26664">
        <ele>1194.06</ele>
        <time>2011-09-11T08:29:26Z</time>
      </trkpt>
      <trkpt lat="43.99268" lon="7.26672">
        <ele>1192.631</ele>
        <time>2011-09-11T08:29:29Z</time>
      </trkpt>
      <trkpt lat="43.99252" lon="7.26686">
        <ele>1191.613</ele>
        <time>2011-09-11T08:29:34Z</time>
      </trkpt>
      <trkpt lat="43.99243" lon="7.26698">
        <ele>1188.542</ele>
        <time>2011-09-11T08:29:38Z</time>
      </trkpt>
      <trkpt lat="43.99237" lon="7.26705">
        <ele>1189.253</ele>
        <time>2011-09-11T08:29:40Z</time>
      </trkpt>
      <trkpt lat="43.99229" lon="7.26722">
        <ele>1186.682</ele>
        <time>2011-09-11T08:29:44Z</time>
      </trkpt>
      <trkpt lat="43.99213" lon="7.26749">
        <ele>1181.385</ele>
        <time>2011-09-11T08:29:49Z</time>
      </trkpt>
      <trkpt lat="43.99208" lon="7.26761">
        <ele>1179.573</ele>
        <time>2011-09-11T08:29:52Z</time>
      </trkpt>
      <trkpt lat="43.99203" lon="7.26773">
        <ele>1180.011</ele>
        <time>2011-09-11T08:29:58Z</time>
      </trkpt>
      <trkpt lat="43.99203" lon="7.26773">
        <ele>1180.073</ele>
        <time>2011-09-11T08:30:01Z</time>
      </trkpt>
      <trkpt lat="43.99208" lon="7.26763">
        <ele>1179.233</ele>
        <time>2011-09-11T08:30:08Z</time>
      </trkpt>
      <trkpt lat="43.9921" lon="7.26758">
        <ele>1179.152</ele>
        <time>2011-09-11T08:30:15Z</time>
      </trkpt>
      <trkpt lat="43.99211" lon="7.26758">
        <ele>1179.123</ele>
        <time>2011-09-11T08:30:25Z</time>
      </trkpt>
      <trkpt lat="43.99219" lon="7.26754">
        <ele>1178.472</ele>
        <time>2011-09-11T08:30:30Z</time>
      </trkpt>
      <trkpt lat="43.99228" lon="7.26743">
        <ele>1178.502</ele>
        <time>2011-09-11T08:30:36Z</time>
      </trkpt>
      <trkpt lat="43.99236" lon="7.26736">
        <ele>1178.171</ele>
        <time>2011-09-11T08:30:40Z</time>
      </trkpt>
      <trkpt lat="43.99245" lon="7.26726">
        <ele>1178.252</ele>
        <time>2011-09-11T08:30:45Z</time>
      </trkpt>
      <trkpt lat="43.99248" lon="7.26724">
        <ele>1178.443</ele>
        <time>2011-09-11T08:30:46Z</time>
      </trkpt>
      <trkpt lat="43.99256" lon="7.26717">
        <ele>1177.591</ele>
        <time>2011-09-11T08:30:51Z</time>
      </trkpt>
      <trkpt lat="43.99257" lon="7.26717">
        <ele>1175.659</ele>
        <time>2011-09-11T08:30:54Z</time>
      </trkpt>
      <trkpt lat="43.99261" lon="7.26719">
        <ele>1174.993</ele>
        <time>2011-09-11T08:31:01Z</time>
      </trkpt>
      <trkpt lat="43.99267" lon="7.26716">
        <ele>1173.283</ele>
        <time>2011-09-11T08:31:06Z</time>
      </trkpt>
      <trkpt lat="43.99274" lon="7.26711">
        <ele>1172.513</ele>
        <time>2011-09-11T08:31:09Z</time>
      </trkpt>
      <trkpt lat="43.99287" lon="7.26708">
        <ele>1169.981</ele>
        <time>2011-09-11T08:31:13Z</time>
      </trkpt>
      <trkpt lat="43.99304" lon="7.26699">
        <ele>1170.563</ele>
        <time>2011-09-11T08:31:19Z</time>
      </trkpt>
      <trkpt lat="43.99308" lon="7.26697">
        <ele>1169.321</ele>
        <time>2011-09-11T08:31:23Z</time>
      </trkpt>
      <trkpt lat="43.99309" lon="7.26697">
        <ele>1169.332</ele>
        <time>2011-09-11T08:31:25Z</time>
      </trkpt>
      <trkpt lat="43.99323" lon="7.26695">
        <ele>1168.252</ele>
        <time>2011-09-11T08:31:31Z</time>
      </trkpt>
      <trkpt lat="43.99336" lon="7.2669">
        <ele>1165.038</ele>
        <time>2011-09-11T08:31:36Z</time>
      </trkpt>
      <trkpt lat="43.9934" lon="7.26692">
        <ele>1164.74</ele>
        <time>2011-09-11T08:31:39Z</time>
      </trkpt>
      <trkpt lat="43.99342" lon="7.26701">
        <ele>1164.595</ele>
        <time>2011-09-11T08:31:44Z</time>
      </trkpt>
      <trkpt lat="43.99343" lon="7.26707">
        <ele>1164.805</ele>
        <time>2011-09-11T08:31:46Z</time>
      </trkpt>
      <trkpt lat="43.9935" lon="7.26724">
        <ele>1169.347</ele>
        <time>2011-09-11T08:31:53Z</time>
      </trkpt>
      <trkpt lat="43.99362" lon="7.26734">
        <ele>1170.356</ele>
        <time>2011-09-11T08:31:58Z</time>
      </trkpt>
      <trkpt lat="43.99374" lon="7.26746">
        <ele>1171.315</ele>
        <time>2011-09-11T08:32:04Z</time>
      </trkpt>
      <trkpt lat="43.99388" lon="7.26757">
        <ele>1173.305</ele>
        <time>2011-09-11T08:32:11Z</time>
      </trkpt>
      <trkpt lat="43.99401" lon="7.26762">
        <ele>1173.344</ele>
        <time>2011-09-11T08:32:17Z</time>
      </trkpt>
      <trkpt lat="43.99413" lon="7.26761">
        <ele>1173.124</ele>
        <time>2011-09-11T08:32:22Z</time>
      </trkpt>
      <trkpt lat="43.99425" lon="7.26759">
        <ele>1173.675</ele>
        <time>2011-09-11T08:32:28Z</time>
      </trkpt>
      <trkpt lat="43.99434" lon="7.26751">
        <ele>1171.964</ele>
        <time>2011-09-11T08:32:33Z</time>
      </trkpt>
      <trkpt lat="43.99443" lon="7.26735">
        <ele>1169.613</ele>
        <time>2011-09-11T08:32:39Z</time>
      </trkpt>
      <trkpt lat="43.99446" lon="7.26723">
        <ele>1171.177</ele>
        <time>2011-09-11T08:32:44Z</time>
      </trkpt>
      <trkpt lat="43.99449" lon="7.26703">
        <ele>1170.413</ele>
        <time>2011-09-11T08:32:50Z</time>
      </trkpt>
      <trkpt lat="43.99453" lon="7.26685">
        <ele>1172.466</ele>
        <time>2011-09-11T08:32:55Z</time>
      </trkpt>
      <trkpt lat="43.99457" lon="7.2667">
        <ele>1172.925</ele>
        <time>2011-09-11T08:33:00Z</time>
      </trkpt>
      <trkpt lat="43.99457" lon="7.2665">
        <ele>1173.292</ele>
        <time>2011-09-11T08:33:06Z</time>
      </trkpt>
      <trkpt lat="43.99461" lon="7.26633">
        <ele>1181.766</ele>
        <time>2011-09-11T08:33:11Z</time>
      </trkpt>
      <trkpt lat="43.9946" lon="7.26616">
        <ele>1188.085</ele>
        <time>2011-09-11T08:33:16Z</time>
      </trkpt>
      <trkpt lat="43.99456" lon="7.26608">
        <ele>1189.401</ele>
        <time>2011-09-11T08:33:19Z</time>
      </trkpt>
      <trkpt lat="43.99456" lon="7.26597">
        <ele>1189.337</ele>
        <time>2011-09-11T08:33:24Z</time>
      </trkpt>
      <trkpt lat="43.99456" lon="7.26596">
        <ele>1189.117</ele>
        <time>2011-09-11T08:33:25Z</time>
      </trkpt>
      <trkpt lat="43.99454" lon="7.26586">
        <ele>1186.061</ele>
        <time>2011-09-11T08:33:30Z</time>
      </trkpt>
      <trkpt lat="43.99453" lon="7.26583">
        <ele>1186.403</ele>
        <time>2011-09-11T08:33:32Z</time>
      </trkpt>
      <trkpt lat="43.99454" lon="7.2658">
        <ele>1180.328</ele>
        <time>2011-09-11T08:33:38Z</time>
      </trkpt>
      <trkpt lat="43.99453" lon="7.26572">
        <ele>1176.377</ele>
        <time>2011-09-11T08:33:43Z</time>
      </trkpt>
      <trkpt lat="43.9946" lon="7.26565">
        <ele>1172.256</ele>
        <time>2011-09-11T08:33:47Z</time>
      </trkpt>
      <trkpt lat="43.99469" lon="7.26556">
        <ele>1166.956</ele>
        <time>2011-09-11T08:33:53Z</time>
      </trkpt>
      <trkpt lat="43.99482" lon="7.26549">
        <ele>1166.15</ele>
        <time>2011-09-11T08:34:00Z</time>
      </trkpt>
      <trkpt lat="43.99495" lon="7.2654">
        <ele>1168.232</ele>
        <time>2011-09-11T08:34:06Z</time>
      </trkpt>
      <trkpt lat="43.99504" lon="7.2653">
        <ele>1169.22</ele>
        <time>2011-09-11T08:34:10Z</time>
      </trkpt>
      <trkpt lat="43.99508" lon="7.26526">
        <ele>1169.73</ele>
        <time>2011-09-11T08:34:12Z</time>
      </trkpt>
      <trkpt lat="43.99519" lon="7.26506">
        <ele>1168.729</ele>
        <time>2011-09-11T08:34:19Z</time>
      </trkpt>
      <trkpt lat="43.99517" lon="7.2649">
        <ele>1164.503</ele>
        <time>2011-09-11T08:34:24Z</time>
      </trkpt>
      <trkpt lat="43.99513" lon="7.26481">
        <ele>1162.212</ele>
        <time>2011-09-11T08:34:28Z</time>
      </trkpt>
      <trkpt lat="43.99513" lon="7.26476">
        <ele>1163.458</ele>
        <time>2011-09-11T08:34:31Z</time>
      </trkpt>
      <trkpt lat="43.99513" lon="7.26469">
        <ele>1163.888</ele>
        <time>2011-09-11T08:34:34Z</time>
      </trkpt>
      <trkpt lat="43.99518" lon="7.26459">
        <ele>1163.389</ele>
        <time>2011-09-11T08:34:38Z</time>
      </trkpt>
      <trkpt lat="43.99522" lon="7.26457">
        <ele>1163.921</ele>
        <time>2011-09-11T08:34:40Z</time>
      </trkpt>
      <trkpt lat="43.99528" lon="7.2646">
        <ele>1166.625</ele>
        <time>2011-09-11T08:34:44Z</time>
      </trkpt>
      <trkpt lat="43.9954" lon="7.2646">
        <ele>1166.415</ele>
        <time>2011-09-11T08:34:48Z</time>
      </trkpt>
      <trkpt lat="43.99546" lon="7.2646">
        <ele>1166.225</ele>
        <time>2011-09-11T08:34:51Z</time>
      </trkpt>
      <trkpt lat="43.99561" lon="7.26453">
        <ele>1164.362</ele>
        <time>2011-09-11T08:34:57Z</time>
      </trkpt>
      <trkpt lat="43.99574" lon="7.26439">
        <ele>1160.837</ele>
        <time>2011-09-11T08:35:03Z</time>
      </trkpt>
      <trkpt lat="43.99581" lon="7.26431">
        <ele>1159.387</ele>
        <time>2011-09-11T08:35:08Z</time>
      </trkpt>
      <trkpt lat="43.99588" lon="7.26432">
        <ele>1169.396</ele>
        <time>2011-09-11T08:35:31Z</time>
      </trkpt>
      <trkpt lat="43.99589" lon="7.26434">
        <ele>1169.297</ele>
        <time>2011-09-11T08:35:33Z</time>
      </trkpt>
      <trkpt lat="43.99587" lon="7.26438">
        <ele>1169.266</ele>
        <time>2011-09-11T08:35:39Z</time>
      </trkpt>
      <trkpt lat="43.99582" lon="7.26452">
        <ele>1181.257</ele>
        <time>2011-09-11T08:35:56Z</time>
      </trkpt>
      <trkpt lat="43.99581" lon="7.26452">
        <ele>1176.248</ele>
        <time>2011-09-11T08:36:04Z</time>
      </trkpt>
      <trkpt lat="43.99587" lon="7.26454">
        <ele>1172.678</ele>
        <time>2011-09-11T08:36:11Z</time>
      </trkpt>
      <trkpt lat="43.99581" lon="7.26453">
        <ele>1167.181</ele>
        <time>2011-09-11T08:36:27Z</time>
      </trkpt>
      <trkpt lat="43.99581" lon="7.26454">
        <ele>1176.782</ele>
        <time>2011-09-11T08:38:51Z</time>
      </trkpt>
      <trkpt lat="43.99586" lon="7.26451">
        <ele>1179.983</ele>
        <time>2011-09-11T08:39:04Z</time>
      </trkpt>
      <trkpt lat="43.99596" lon="7.26438">
        <ele>1178.622</ele>
        <time>2011-09-11T08:39:10Z</time>
      </trkpt>
      <trkpt lat="43.99602" lon="7.26421">
        <ele>1171.802</ele>
        <time>2011-09-11T08:39:16Z</time>
      </trkpt>
      <trkpt lat="43.99604" lon="7.26418">
        <ele>1171.174</ele>
        <time>2011-09-11T08:39:19Z</time>
      </trkpt>
      <trkpt lat="43.99604" lon="7.26433">
        <ele>1176.547</ele>
        <time>2011-09-11T08:39:25Z</time>
      </trkpt>
      <trkpt lat="43.99608" lon="7.2645">
        <ele>1180.171</ele>
        <time>2011-09-11T08:39:31Z</time>
      </trkpt>
      <trkpt lat="43.99619" lon="7.2646">
        <ele>1180.688</ele>
        <time>2011-09-11T08:39:36Z</time>
      </trkpt>
      <trkpt lat="43.99635" lon="7.2646">
        <ele>1176.133</ele>
        <time>2011-09-11T08:39:42Z</time>
      </trkpt>
      <trkpt lat="43.99647" lon="7.2646">
        <ele>1174.452</ele>
        <time>2011-09-11T08:39:47Z</time>
      </trkpt>
      <trkpt lat="43.99661" lon="7.26462">
        <ele>1173.335</ele>
        <time>2011-09-11T08:39:52Z</time>
      </trkpt>
      <trkpt lat="43.99673" lon="7.26458">
        <ele>1171.344</ele>
        <time>2011-09-11T08:39:58Z</time>
      </trkpt>
      <trkpt lat="43.99687" lon="7.26455">
        <ele>1169.623</ele>
        <time>2011-09-11T08:40:04Z</time>
      </trkpt>
      <trkpt lat="43.997" lon="7.26451">
        <ele>1167.934</ele>
        <time>2011-09-11T08:40:10Z</time>
      </trkpt>
      <trkpt lat="43.99712" lon="7.26452">
        <ele>1167.975</ele>
        <time>2011-09-11T08:40:15Z</time>
      </trkpt>
      <trkpt lat="43.99728" lon="7.26451">
        <ele>1167.525</ele>
        <time>2011-09-11T08:40:21Z</time>
      </trkpt>
      <trkpt lat="43.99742" lon="7.26441">
        <ele>1167.115</ele>
        <time>2011-09-11T08:40:27Z</time>
      </trkpt>
      <trkpt lat="43.99744" lon="7.2644">
        <ele>1167.195</ele>
        <time>2011-09-11T08:40:28Z</time>
      </trkpt>
      <trkpt lat="43.99752" lon="7.2643">
        <ele>1167.583</ele>
        <time>2011-09-11T08:40:34Z</time>
      </trkpt>
      <trkpt lat="43.9976" lon="7.26421">
        <ele>1171.738</ele>
        <time>2011-09-11T08:40:41Z</time>
      </trkpt>
      <trkpt lat="43.99761" lon="7.2642">
        <ele>1172.459</ele>
        <time>2011-09-11T08:40:42Z</time>
      </trkpt>
      <trkpt lat="43.99766" lon="7.26406">
        <ele>1173.369</ele>
        <time>2011-09-11T08:40:48Z</time>
      </trkpt>
      <trkpt lat="43.99776" lon="7.26391">
        <ele>1175.891</ele>
        <time>2011-09-11T08:40:54Z</time>
      </trkpt>
      <trkpt lat="43.9978" lon="7.26389">
        <ele>1179.805</ele>
        <time>2011-09-11T08:40:57Z</time>
      </trkpt>
      <trkpt lat="43.99793" lon="7.26372">
        <ele>1184.281</ele>
        <time>2011-09-11T08:41:04Z</time>
      </trkpt>
      <trkpt lat="43.99803" lon="7.26358">
        <ele>1185.027</ele>
        <time>2011-09-11T08:41:09Z</time>
      </trkpt>
      <trkpt lat="43.99806" lon="7.26342">
        <ele>1184.621</ele>
        <time>2011-09-11T08:41:14Z</time>
      </trkpt>
      <trkpt lat="43.99807" lon="7.26335">
        <ele>1180.575</ele>
        <time>2011-09-11T08:41:19Z</time>
      </trkpt>
      <trkpt lat="43.99804" lon="7.26323">
        <ele>1175.092</ele>
        <time>2011-09-11T08:41:25Z</time>
      </trkpt>
      <trkpt lat="43.99804" lon="7.26322">
        <ele>1174.352</ele>
        <time>2011-09-11T08:41:26Z</time>
      </trkpt>
      <trkpt lat="43.99807" lon="7.26305">
        <ele>1165.437</ele>
        <time>2011-09-11T08:41:32Z</time>
      </trkpt>
      <trkpt lat="43.99811" lon="7.26292">
        <ele>1161.081</ele>
        <time>2011-09-11T08:41:38Z</time>
      </trkpt>
      <trkpt lat="43.99813" lon="7.26286">
        <ele>1162.012</ele>
        <time>2011-09-11T08:41:43Z</time>
      </trkpt>
      <trkpt lat="43.99815" lon="7.26279">
        <ele>1161.282</ele>
        <time>2011-09-11T08:41:49Z</time>
      </trkpt>
      <trkpt lat="43.9982" lon="7.26273">
        <ele>1159.224</ele>
        <time>2011-09-11T08:41:53Z</time>
      </trkpt>
      <trkpt lat="43.99824" lon="7.26255">
        <ele>1156.348</ele>
        <time>2011-09-11T08:42:00Z</time>
      </trkpt>
      <trkpt lat="43.99829" lon="7.26247">
        <ele>1156.709</ele>
        <time>2011-09-11T08:42:05Z</time>
      </trkpt>
      <trkpt lat="43.99837" lon="7.26246">
        <ele>1168.555</ele>
        <time>2011-09-11T08:42:19Z</time>
      </trkpt>
      <trkpt lat="43.99851" lon="7.26246">
        <ele>1171.963</ele>
        <time>2011-09-11T08:42:27Z</time>
      </trkpt>
      <trkpt lat="43.99866" lon="7.26248">
        <ele>1175.899</ele>
        <time>2011-09-11T08:42:39Z</time>
      </trkpt>
      <trkpt lat="43.9987" lon="7.2625">
        <ele>1178.511</ele>
        <time>2011-09-11T08:42:46Z</time>
      </trkpt>
      <trkpt lat="43.99882" lon="7.26249">
        <ele>1179.202</ele>
        <time>2011-09-11T08:42:53Z</time>
      </trkpt>
      <trkpt lat="43.99895" lon="7.26237">
        <ele>1177.869</ele>
        <time>2011-09-11T08:43:00Z</time>
      </trkpt>
      <trkpt lat="43.99908" lon="7.26226">
        <ele>1179.553</ele>
        <time>2011-09-11T08:43:07Z</time>
      </trkpt>
      <trkpt lat="43.99912" lon="7.26218">
        <ele>1176.929</ele>
        <time>2011-09-11T08:43:11Z</time>
      </trkpt>
      <trkpt lat="43.9992" lon="7.26205">
        <ele>1175.831</ele>
        <time>2011-09-11T08:43:19Z</time>
      </trkpt>
      <trkpt lat="43.9993" lon="7.26196">
        <ele>1171.866</ele>
        <time>2011-09-11T08:43:24Z</time>
      </trkpt>
      <trkpt lat="43.99936" lon="7.26187">
        <ele>1172.108</ele>
        <time>2011-09-11T08:43:28Z</time>
      </trkpt>
      <trkpt lat="43.99946" lon="7.26173">
        <ele>1169.147</ele>
        <time>2011-09-11T08:43:36Z</time>
      </trkpt>
      <trkpt lat="43.99947" lon="7.26169">
        <ele>1172.739</ele>
        <time>2011-09-11T08:43:39Z</time>
      </trkpt>
      <trkpt lat="43.99946" lon="7.2616">
        <ele>1177.942</ele>
        <time>2011-09-11T08:43:44Z</time>
      </trkpt>
      <trkpt lat="43.99943" lon="7.26153">
        <ele>1184.687</ele>
        <time>2011-09-11T08:43:49Z</time>
      </trkpt>
      <trkpt lat="43.99939" lon="7.26137">
        <ele>1198.618</ele>
        <time>2011-09-11T08:43:59Z</time>
      </trkpt>
      <trkpt lat="43.99939" lon="7.26134">
        <ele>1209.133</ele>
        <time>2011-09-11T08:44:07Z</time>
      </trkpt>
      <trkpt lat="44.00017" lon="7.26152">
        <ele>1213.725</ele>
        <time>2011-09-11T08:45:32Z</time>
      </trkpt>
      <trkpt lat="44.0002" lon="7.26159">
        <ele>1211.207</ele>
        <time>2011-09-11T08:45:47Z</time>
      </trkpt>
      <trkpt lat="44.00018" lon="7.26161">
        <ele>1214.953</ele>
        <time>2011-09-11T08:45:54Z</time>
      </trkpt>
      <trkpt lat="44.00021" lon="7.26163">
        <ele>1203.35</ele>
        <time>2011-09-11T08:46:24Z</time>
      </trkpt>
      <trkpt lat="44.00014" lon="7.26159">
        <ele>1203.984</ele>
        <time>2011-09-11T08:47:11Z</time>
      </trkpt>
      <trkpt lat="44.00013" lon="7.26159">
        <ele>1200.478</ele>
        <time>2011-09-11T08:47:36Z</time>
      </trkpt>
      <trkpt lat="44.00027" lon="7.26164">
        <ele>1199.121</ele>
        <time>2011-09-11T08:48:34Z</time>
      </trkpt>
      <trkpt lat="44.00025" lon="7.26164">
        <ele>1203.343</ele>
        <time>2011-09-11T08:48:48Z</time>
      </trkpt>
      <trkpt lat="44.00029" lon="7.2616">
        <ele>1208.389</ele>
        <time>2011-09-11T08:49:11Z</time>
      </trkpt>
      <trkpt lat="44.00025" lon="7.26157">
        <ele>1209.265</ele>
        <time>2011-09-11T08:49:20Z</time>
      </trkpt>
      <trkpt lat="44.00033" lon="7.26159">
        <ele>1214.005</ele>
        <time>2011-09-11T08:49:48Z</time>
      </trkpt>
      <trkpt lat="44.00029" lon="7.26154">
        <ele>1213.653</ele>
        <time>2011-09-11T08:50:11Z</time>
      </trkpt>
      <trkpt lat="44.00029" lon="7.26157">
        <ele>1215.063</ele>
        <time>2011-09-11T08:50:18Z</time>
      </trkpt>
      <trkpt lat="44.00015" lon="7.26143">
        <ele>1234.289</ele>
        <time>2011-09-11T08:50:45Z</time>
      </trkpt>
      <trkpt lat="44.00021" lon="7.26146">
        <ele>1224.116</ele>
        <time>2011-09-11T08:50:52Z</time>
      </trkpt>
      <trkpt lat="44.00024" lon="7.26146">
        <ele>1219.782</ele>
        <time>2011-09-11T08:50:57Z</time>
      </trkpt>
      <trkpt lat="44.0003" lon="7.2615">
        <ele>1212.039</ele>
        <time>2011-09-11T08:51:02Z</time>
      </trkpt>
      <trkpt lat="44.00033" lon="7.26149">
        <ele>1206.845</ele>
        <time>2011-09-11T08:51:10Z</time>
      </trkpt>
      <trkpt lat="44.00031" lon="7.26145">
        <ele>1210.706</ele>
        <time>2011-09-11T08:51:21Z</time>
      </trkpt>
      <trkpt lat="44.00029" lon="7.26141">
        <ele>1228.417</ele>
        <time>2011-09-11T08:51:47Z</time>
      </trkpt>
      <trkpt lat="44.00032" lon="7.26146">
        <ele>1222.007</ele>
        <time>2011-09-11T08:51:54Z</time>
      </trkpt>
      <trkpt lat="44.00035" lon="7.26155">
        <ele>1218.742</ele>
        <time>2011-09-11T08:52:39Z</time>
      </trkpt>
      <trkpt lat="44.00033" lon="7.26154">
        <ele>1202.872</ele>
        <time>2011-09-11T08:52:55Z</time>
      </trkpt>
      <trkpt lat="44.00037" lon="7.26154">
        <ele>1199.967</ele>
        <time>2011-09-11T08:53:02Z</time>
      </trkpt>
      <trkpt lat="44.00036" lon="7.26157">
        <ele>1226.051</ele>
        <time>2011-09-11T08:53:42Z</time>
      </trkpt>
      <trkpt lat="44.00013" lon="7.26143">
        <ele>1239.481</ele>
        <time>2011-09-11T08:53:58Z</time>
      </trkpt>
      <trkpt lat="44.00009" lon="7.2614">
        <ele>1247.825</ele>
        <time>2011-09-11T08:54:01Z</time>
      </trkpt>
      <trkpt lat="44.00003" lon="7.26139">
        <ele>1264.302</ele>
        <time>2011-09-11T08:54:07Z</time>
      </trkpt>
      <trkpt lat="44.00033" lon="7.26145">
        <ele>1258.629</ele>
        <time>2011-09-11T08:54:17Z</time>
      </trkpt>
      <trkpt lat="44.00036" lon="7.26153">
        <ele>1242.967</ele>
        <time>2011-09-11T08:54:24Z</time>
      </trkpt>
      <trkpt lat="44.00029" lon="7.26151">
        <ele>1225.563</ele>
        <time>2011-09-11T08:54:42Z</time>
      </trkpt>
      <trkpt lat="44.00039" lon="7.26183">
        <ele>1190.241</ele>
        <time>2011-09-11T08:55:12Z</time>
      </trkpt>
      <trkpt lat="44.00048" lon="7.26198">
        <ele>1183.896</ele>
        <time>2011-09-11T08:55:20Z</time>
      </trkpt>
      <trkpt lat="44.00056" lon="7.26205">
        <ele>1178.836</ele>
        <time>2011-09-11T08:55:25Z</time>
      </trkpt>
      <trkpt lat="44.00055" lon="7.2621">
        <ele>1175.587</ele>
        <time>2011-09-11T08:55:31Z</time>
      </trkpt>
      <trkpt lat="44.00051" lon="7.26218">
        <ele>1169.013</ele>
        <time>2011-09-11T08:55:37Z</time>
      </trkpt>
      <trkpt lat="44.0004" lon="7.2622">
        <ele>1168.567</ele>
        <time>2011-09-11T08:55:42Z</time>
      </trkpt>
      <trkpt lat="44.00036" lon="7.26222">
        <ele>1169.469</ele>
        <time>2011-09-11T08:55:47Z</time>
      </trkpt>
      <trkpt lat="44.00034" lon="7.26224">
        <ele>1173.016</ele>
        <time>2011-09-11T08:55:52Z</time>
      </trkpt>
      <trkpt lat="44.00022" lon="7.26227">
        <ele>1187.761</ele>
        <time>2011-09-11T08:55:59Z</time>
      </trkpt>
      <trkpt lat="44.00014" lon="7.26228">
        <ele>1195.394</ele>
        <time>2011-09-11T08:56:02Z</time>
      </trkpt>
      <trkpt lat="43.99993" lon="7.26233">
        <ele>1197.712</ele>
        <time>2011-09-11T08:56:10Z</time>
      </trkpt>
      <trkpt lat="43.99974" lon="7.26243">
        <ele>1202.542</ele>
        <time>2011-09-11T08:56:17Z</time>
      </trkpt>
      <trkpt lat="43.99965" lon="7.26248">
        <ele>1203.583</ele>
        <time>2011-09-11T08:56:20Z</time>
      </trkpt>
      <trkpt lat="43.99954" lon="7.26251">
        <ele>1203.312</ele>
        <time>2011-09-11T08:56:23Z</time>
      </trkpt>
      <trkpt lat="43.99937" lon="7.26257">
        <ele>1204.383</ele>
        <time>2011-09-11T08:56:27Z</time>
      </trkpt>
      <trkpt lat="43.99927" lon="7.26265">
        <ele>1205.809</ele>
        <time>2011-09-11T08:56:33Z</time>
      </trkpt>
      <trkpt lat="43.99906" lon="7.26266">
        <ele>1197</ele>
        <time>2011-09-11T08:56:47Z</time>
      </trkpt>
      <trkpt lat="43.99888" lon="7.26264">
        <ele>1193.911</ele>
        <time>2011-09-11T08:56:54Z</time>
      </trkpt>
      <trkpt lat="43.9989" lon="7.26269">
        <ele>1195.214</ele>
        <time>2011-09-11T08:56:59Z</time>
      </trkpt>
      <trkpt lat="43.99879" lon="7.26272">
        <ele>1196.575</ele>
        <time>2011-09-11T08:57:14Z</time>
      </trkpt>
      <trkpt lat="43.99876" lon="7.26276">
        <ele>1197.938</ele>
        <time>2011-09-11T08:57:19Z</time>
      </trkpt>
      <trkpt lat="43.99868" lon="7.26283">
        <ele>1199.809</ele>
        <time>2011-09-11T08:57:25Z</time>
      </trkpt>
      <trkpt lat="43.9986" lon="7.26291">
        <ele>1201.911</ele>
        <time>2011-09-11T08:57:30Z</time>
      </trkpt>
      <trkpt lat="43.99845" lon="7.26296">
        <ele>1201.958</ele>
        <time>2011-09-11T08:57:35Z</time>
      </trkpt>
      <trkpt lat="43.99833" lon="7.263">
        <ele>1200.978</ele>
        <time>2011-09-11T08:57:41Z</time>
      </trkpt>
      <trkpt lat="43.99832" lon="7.26302">
        <ele>1200.537</ele>
        <time>2011-09-11T08:57:42Z</time>
      </trkpt>
      <trkpt lat="43.99822" lon="7.2631">
        <ele>1198.116</ele>
        <time>2011-09-11T08:57:49Z</time>
      </trkpt>
      <trkpt lat="43.99811" lon="7.26322">
        <ele>1203.124</ele>
        <time>2011-09-11T08:57:54Z</time>
      </trkpt>
      <trkpt lat="43.99813" lon="7.26326">
        <ele>1203.945</ele>
        <time>2011-09-11T08:57:55Z</time>
      </trkpt>
      <trkpt lat="43.99807" lon="7.26333">
        <ele>1198.576</ele>
        <time>2011-09-11T08:58:01Z</time>
      </trkpt>
      <trkpt lat="43.99796" lon="7.26346">
        <ele>1194.816</ele>
        <time>2011-09-11T08:58:08Z</time>
      </trkpt>
      <trkpt lat="43.99795" lon="7.26352">
        <ele>1193.553</ele>
        <time>2011-09-11T08:58:10Z</time>
      </trkpt>
      <trkpt lat="43.99783" lon="7.26366">
        <ele>1192.756</ele>
        <time>2011-09-11T08:58:16Z</time>
      </trkpt>
      <trkpt lat="43.99781" lon="7.26373">
        <ele>1192.446</ele>
        <time>2011-09-11T08:58:19Z</time>
      </trkpt>
      <trkpt lat="43.99776" lon="7.26388">
        <ele>1189.995</ele>
        <time>2011-09-11T08:58:25Z</time>
      </trkpt>
      <trkpt lat="43.9977" lon="7.26398">
        <ele>1192.53</ele>
        <time>2011-09-11T08:58:29Z</time>
      </trkpt>
      <trkpt lat="43.99764" lon="7.26415">
        <ele>1192.95</ele>
        <time>2011-09-11T08:58:35Z</time>
      </trkpt>
      <trkpt lat="43.99763" lon="7.26427">
        <ele>1193.33</ele>
        <time>2011-09-11T08:58:40Z</time>
      </trkpt>
      <trkpt lat="43.99756" lon="7.26436">
        <ele>1193.722</ele>
        <time>2011-09-11T08:58:44Z</time>
      </trkpt>
      <trkpt lat="43.99742" lon="7.26453">
        <ele>1194.284</ele>
        <time>2011-09-11T08:58:51Z</time>
      </trkpt>
      <trkpt lat="43.99725" lon="7.2646">
        <ele>1188.306</ele>
        <time>2011-09-11T08:58:57Z</time>
      </trkpt>
      <trkpt lat="43.99713" lon="7.26462">
        <ele>1185.671</ele>
        <time>2011-09-11T08:59:03Z</time>
      </trkpt>
      <trkpt lat="43.99699" lon="7.26463">
        <ele>1184.277</ele>
        <time>2011-09-11T08:59:09Z</time>
      </trkpt>
      <trkpt lat="43.99686" lon="7.26465">
        <ele>1181.62</ele>
        <time>2011-09-11T08:59:15Z</time>
      </trkpt>
      <trkpt lat="43.9968" lon="7.26467">
        <ele>1181.406</ele>
        <time>2011-09-11T08:59:19Z</time>
      </trkpt>
      <trkpt lat="43.99667" lon="7.26469">
        <ele>1179.463</ele>
        <time>2011-09-11T08:59:26Z</time>
      </trkpt>
      <trkpt lat="43.99664" lon="7.2647">
        <ele>1180.897</ele>
        <time>2011-09-11T08:59:30Z</time>
      </trkpt>
      <trkpt lat="43.99653" lon="7.26472">
        <ele>1184.24</ele>
        <time>2011-09-11T08:59:36Z</time>
      </trkpt>
      <trkpt lat="43.99645" lon="7.26468">
        <ele>1182.772</ele>
        <time>2011-09-11T08:59:41Z</time>
      </trkpt>
      <trkpt lat="43.9963" lon="7.26459">
        <ele>1179.452</ele>
        <time>2011-09-11T08:59:47Z</time>
      </trkpt>
      <trkpt lat="43.99624" lon="7.26452">
        <ele>1177.323</ele>
        <time>2011-09-11T08:59:51Z</time>
      </trkpt>
      <trkpt lat="43.99614" lon="7.26435">
        <ele>1176.638</ele>
        <time>2011-09-11T08:59:58Z</time>
      </trkpt>
      <trkpt lat="43.99614" lon="7.26433">
        <ele>1177.049</ele>
        <time>2011-09-11T09:00:00Z</time>
      </trkpt>
      <trkpt lat="43.99599" lon="7.26436">
        <ele>1176.697</ele>
        <time>2011-09-11T09:00:06Z</time>
      </trkpt>
      <trkpt lat="43.99591" lon="7.26443">
        <ele>1176.895</ele>
        <time>2011-09-11T09:00:10Z</time>
      </trkpt>
      <trkpt lat="43.99579" lon="7.26455">
        <ele>1181.04</ele>
        <time>2011-09-11T09:00:16Z</time>
      </trkpt>
      <trkpt lat="43.99573" lon="7.26462">
        <ele>1184.403</ele>
        <time>2011-09-11T09:00:22Z</time>
      </trkpt>
      <trkpt lat="43.99563" lon="7.26459">
        <ele>1187.245</ele>
        <time>2011-09-11T09:00:28Z</time>
      </trkpt>
      <trkpt lat="43.99559" lon="7.26457">
        <ele>1188.396</ele>
        <time>2011-09-11T09:00:31Z</time>
      </trkpt>
      <trkpt lat="43.99549" lon="7.26458">
        <ele>1191.925</ele>
        <time>2011-09-11T09:00:36Z</time>
      </trkpt>
      <trkpt lat="43.99529" lon="7.26473">
        <ele>1198.368</ele>
        <time>2011-09-11T09:00:42Z</time>
      </trkpt>
      <trkpt lat="43.99521" lon="7.26485">
        <ele>1196.58</ele>
        <time>2011-09-11T09:00:47Z</time>
      </trkpt>
      <trkpt lat="43.99507" lon="7.26496">
        <ele>1192.917</ele>
        <time>2011-09-11T09:00:52Z</time>
      </trkpt>
      <trkpt lat="43.99501" lon="7.26513">
        <ele>1188.955</ele>
        <time>2011-09-11T09:00:57Z</time>
      </trkpt>
      <trkpt lat="43.99494" lon="7.26532">
        <ele>1187.127</ele>
        <time>2011-09-11T09:01:04Z</time>
      </trkpt>
      <trkpt lat="43.9949" lon="7.26545">
        <ele>1190.793</ele>
        <time>2011-09-11T09:01:10Z</time>
      </trkpt>
      <trkpt lat="43.99484" lon="7.26555">
        <ele>1195.829</ele>
        <time>2011-09-11T09:01:16Z</time>
      </trkpt>
      <trkpt lat="43.99485" lon="7.26559">
        <ele>1197.387</ele>
        <time>2011-09-11T09:01:17Z</time>
      </trkpt>
      <trkpt lat="43.99465" lon="7.26572">
        <ele>1199.864</ele>
        <time>2011-09-11T09:01:23Z</time>
      </trkpt>
      <trkpt lat="43.99464" lon="7.26575">
        <ele>1201.825</ele>
        <time>2011-09-11T09:01:26Z</time>
      </trkpt>
      <trkpt lat="43.99454" lon="7.26584">
        <ele>1203.463</ele>
        <time>2011-09-11T09:01:31Z</time>
      </trkpt>
      <trkpt lat="43.9945" lon="7.26592">
        <ele>1202.378</ele>
        <time>2011-09-11T09:01:35Z</time>
      </trkpt>
      <trkpt lat="43.99445" lon="7.26602">
        <ele>1200.465</ele>
        <time>2011-09-11T09:01:39Z</time>
      </trkpt>
      <trkpt lat="43.9945" lon="7.26616">
        <ele>1199.045</ele>
        <time>2011-09-11T09:01:44Z</time>
      </trkpt>
      <trkpt lat="43.9945" lon="7.26627">
        <ele>1198.774</ele>
        <time>2011-09-11T09:01:48Z</time>
      </trkpt>
      <trkpt lat="43.99452" lon="7.26634">
        <ele>1196.811</ele>
        <time>2011-09-11T09:01:51Z</time>
      </trkpt>
      <trkpt lat="43.99455" lon="7.26649">
        <ele>1190.715</ele>
        <time>2011-09-11T09:01:56Z</time>
      </trkpt>
      <trkpt lat="43.99451" lon="7.26674">
        <ele>1182.484</ele>
        <time>2011-09-11T09:02:02Z</time>
      </trkpt>
      <trkpt lat="43.99449" lon="7.2668">
        <ele>1178.34</ele>
        <time>2011-09-11T09:02:04Z</time>
      </trkpt>
      <trkpt lat="43.99448" lon="7.26709">
        <ele>1170.964</ele>
        <time>2011-09-11T09:02:11Z</time>
      </trkpt>
      <trkpt lat="43.99445" lon="7.2673">
        <ele>1171.032</ele>
        <time>2011-09-11T09:02:16Z</time>
      </trkpt>
      <trkpt lat="43.99443" lon="7.26736">
        <ele>1169.353</ele>
        <time>2011-09-11T09:02:18Z</time>
      </trkpt>
      <trkpt lat="43.99437" lon="7.26748">
        <ele>1170.998</ele>
        <time>2011-09-11T09:02:22Z</time>
      </trkpt>
      <trkpt lat="43.99427" lon="7.26759">
        <ele>1172.038</ele>
        <time>2011-09-11T09:02:29Z</time>
      </trkpt>
      <trkpt lat="43.99413" lon="7.26762">
        <ele>1171.116</ele>
        <time>2011-09-11T09:02:35Z</time>
      </trkpt>
      <trkpt lat="43.99401" lon="7.26758">
        <ele>1170.891</ele>
        <time>2011-09-11T09:02:40Z</time>
      </trkpt>
      <trkpt lat="43.9939" lon="7.2675">
        <ele>1170.702</ele>
        <time>2011-09-11T09:02:45Z</time>
      </trkpt>
      <trkpt lat="43.99376" lon="7.26739">
        <ele>1169.759</ele>
        <time>2011-09-11T09:02:51Z</time>
      </trkpt>
      <trkpt lat="43.99361" lon="7.26731">
        <ele>1169.683</ele>
        <time>2011-09-11T09:02:57Z</time>
      </trkpt>
      <trkpt lat="43.99353" lon="7.26718">
        <ele>1168.025</ele>
        <time>2011-09-11T09:03:01Z</time>
      </trkpt>
      <trkpt lat="43.99351" lon="7.26707">
        <ele>1166.912</ele>
        <time>2011-09-11T09:03:04Z</time>
      </trkpt>
      <trkpt lat="43.99342" lon="7.26703">
        <ele>1168.344</ele>
        <time>2011-09-11T09:03:08Z</time>
      </trkpt>
      <trkpt lat="43.99337" lon="7.26706">
        <ele>1169.375</ele>
        <time>2011-09-11T09:03:10Z</time>
      </trkpt>
      <trkpt lat="43.99327" lon="7.26714">
        <ele>1173.291</ele>
        <time>2011-09-11T09:03:16Z</time>
      </trkpt>
      <trkpt lat="43.99318" lon="7.26717">
        <ele>1175.08</ele>
        <time>2011-09-11T09:03:21Z</time>
      </trkpt>
      <trkpt lat="43.99317" lon="7.26721">
        <ele>1177.304</ele>
        <time>2011-09-11T09:03:26Z</time>
      </trkpt>
      <trkpt lat="43.99311" lon="7.26723">
        <ele>1175.281</ele>
        <time>2011-09-11T09:03:31Z</time>
      </trkpt>
      <trkpt lat="43.99303" lon="7.26725">
        <ele>1174.055</ele>
        <time>2011-09-11T09:03:36Z</time>
      </trkpt>
      <trkpt lat="43.9929" lon="7.26731">
        <ele>1172.541</ele>
        <time>2011-09-11T09:03:41Z</time>
      </trkpt>
      <trkpt lat="43.99275" lon="7.26734">
        <ele>1168.917</ele>
        <time>2011-09-11T09:03:47Z</time>
      </trkpt>
      <trkpt lat="43.99266" lon="7.26737">
        <ele>1170.484</ele>
        <time>2011-09-11T09:03:52Z</time>
      </trkpt>
      <trkpt lat="43.99264" lon="7.26741">
        <ele>1175.66</ele>
        <time>2011-09-11T09:03:58Z</time>
      </trkpt>
      <trkpt lat="43.99261" lon="7.26743">
        <ele>1176.027</ele>
        <time>2011-09-11T09:04:02Z</time>
      </trkpt>
      <trkpt lat="43.99258" lon="7.26748">
        <ele>1178.926</ele>
        <time>2011-09-11T09:04:09Z</time>
      </trkpt>
      <trkpt lat="43.99258" lon="7.26749">
        <ele>1179.056</ele>
        <time>2011-09-11T09:04:10Z</time>
      </trkpt>
      <trkpt lat="43.99248" lon="7.26758">
        <ele>1175.871</ele>
        <time>2011-09-11T09:04:16Z</time>
      </trkpt>
      <trkpt lat="43.9924" lon="7.26765">
        <ele>1175.251</ele>
        <time>2011-09-11T09:04:21Z</time>
      </trkpt>
      <trkpt lat="43.99233" lon="7.2678">
        <ele>1175.761</ele>
        <time>2011-09-11T09:04:26Z</time>
      </trkpt>
      <trkpt lat="43.99227" lon="7.26788">
        <ele>1173.348</ele>
        <time>2011-09-11T09:04:30Z</time>
      </trkpt>
      <trkpt lat="43.99225" lon="7.2679">
        <ele>1172.697</ele>
        <time>2011-09-11T09:04:31Z</time>
      </trkpt>
      <trkpt lat="43.99217" lon="7.26805">
        <ele>1170.54</ele>
        <time>2011-09-11T09:04:37Z</time>
      </trkpt>
      <trkpt lat="43.99205" lon="7.2682">
        <ele>1170.301</ele>
        <time>2011-09-11T09:04:43Z</time>
      </trkpt>
      <trkpt lat="43.99196" lon="7.26834">
        <ele>1171.641</ele>
        <time>2011-09-11T09:04:49Z</time>
      </trkpt>
      <trkpt lat="43.99193" lon="7.26853">
        <ele>1174.456</ele>
        <time>2011-09-11T09:04:55Z</time>
      </trkpt>
      <trkpt lat="43.99195" lon="7.2686">
        <ele>1176.495</ele>
        <time>2011-09-11T09:05:00Z</time>
      </trkpt>
      <trkpt lat="43.99203" lon="7.26865">
        <ele>1171.265</ele>
        <time>2011-09-11T09:05:09Z</time>
      </trkpt>
      <trkpt lat="43.99219" lon="7.26872">
        <ele>1180.465</ele>
        <time>2011-09-11T09:05:16Z</time>
      </trkpt>
      <trkpt lat="43.99217" lon="7.2687">
        <ele>1181.895</ele>
        <time>2011-09-11T09:05:27Z</time>
      </trkpt>
      <trkpt lat="43.9922" lon="7.26868">
        <ele>1189.814</ele>
        <time>2011-09-11T09:06:01Z</time>
      </trkpt>
      <trkpt lat="43.9922" lon="7.26858">
        <ele>1185.862</ele>
        <time>2011-09-11T09:06:07Z</time>
      </trkpt>
      <trkpt lat="43.99219" lon="7.26848">
        <ele>1182.932</ele>
        <time>2011-09-11T09:06:13Z</time>
      </trkpt>
      <trkpt lat="43.99222" lon="7.26833">
        <ele>1181.243</ele>
        <time>2011-09-11T09:06:18Z</time>
      </trkpt>
      <trkpt lat="43.99228" lon="7.26815">
        <ele>1175.978</ele>
        <time>2011-09-11T09:06:24Z</time>
      </trkpt>
      <trkpt lat="43.99235" lon="7.26795">
        <ele>1171.135</ele>
        <time>2011-09-11T09:06:30Z</time>
      </trkpt>
      <trkpt lat="43.99238" lon="7.26792">
        <ele>1171.587</ele>
        <time>2011-09-11T09:06:31Z</time>
      </trkpt>
      <trkpt lat="43.99245" lon="7.26782">
        <ele>1174.322</ele>
        <time>2011-09-11T09:06:36Z</time>
      </trkpt>
      <trkpt lat="43.99251" lon="7.26773">
        <ele>1176.825</ele>
        <time>2011-09-11T09:06:41Z</time>
      </trkpt>
      <trkpt lat="43.99251" lon="7.26771">
        <ele>1176.714</ele>
        <time>2011-09-11T09:06:42Z</time>
      </trkpt>
      <trkpt lat="43.99257" lon="7.26758">
        <ele>1176.354</ele>
        <time>2011-09-11T09:06:48Z</time>
      </trkpt>
      <trkpt lat="43.99258" lon="7.26756">
        <ele>1178.878</ele>
        <time>2011-09-11T09:06:52Z</time>
      </trkpt>
      <trkpt lat="43.9926" lon="7.26754">
        <ele>1179.877</ele>
        <time>2011-09-11T09:06:57Z</time>
      </trkpt>
      <trkpt lat="43.99262" lon="7.26749">
        <ele>1180.797</ele>
        <time>2011-09-11T09:07:03Z</time>
      </trkpt>
      <trkpt lat="43.99267" lon="7.26749">
        <ele>1181.645</ele>
        <time>2011-09-11T09:07:09Z</time>
      </trkpt>
      <trkpt lat="43.99277" lon="7.26749">
        <ele>1181.475</ele>
        <time>2011-09-11T09:07:16Z</time>
      </trkpt>
      <trkpt lat="43.99291" lon="7.26744">
        <ele>1181.335</ele>
        <time>2011-09-11T09:07:22Z</time>
      </trkpt>
      <trkpt lat="43.99293" lon="7.26742">
        <ele>1181.217</ele>
        <time>2011-09-11T09:07:23Z</time>
      </trkpt>
      <trkpt lat="43.99304" lon="7.26735">
        <ele>1178.651</ele>
        <time>2011-09-11T09:07:29Z</time>
      </trkpt>
      <trkpt lat="43.99306" lon="7.26732">
        <ele>1177.511</ele>
        <time>2011-09-11T09:07:35Z</time>
      </trkpt>
      <trkpt lat="43.99309" lon="7.26728">
        <ele>1176.533</ele>
        <time>2011-09-11T09:07:42Z</time>
      </trkpt>
      <trkpt lat="43.99314" lon="7.26723">
        <ele>1174.542</ele>
        <time>2011-09-11T09:07:48Z</time>
      </trkpt>
      <trkpt lat="43.99316" lon="7.26723">
        <ele>1174.512</ele>
        <time>2011-09-11T09:07:49Z</time>
      </trkpt>
      <trkpt lat="43.99331" lon="7.26715">
        <ele>1172.473</ele>
        <time>2011-09-11T09:07:59Z</time>
      </trkpt>
      <trkpt lat="43.99336" lon="7.26708">
        <ele>1171.694</ele>
        <time>2011-09-11T09:08:05Z</time>
      </trkpt>
      <trkpt lat="43.99335" lon="7.26707">
        <ele>1172.945</ele>
        <time>2011-09-11T09:08:14Z</time>
      </trkpt>
      <trkpt lat="43.99337" lon="7.26705">
        <ele>1173.487</ele>
        <time>2011-09-11T09:08:20Z</time>
      </trkpt>
      <trkpt lat="43.99335" lon="7.26701">
        <ele>1175.04</ele>
        <time>2011-09-11T09:08:28Z</time>
      </trkpt>
      <trkpt lat="43.99329" lon="7.26701">
        <ele>1177.661</ele>
        <time>2011-09-11T09:08:35Z</time>
      </trkpt>
      <trkpt lat="43.99329" lon="7.26701">
        <ele>1176.951</ele>
        <time>2011-09-11T09:08:39Z</time>
      </trkpt>
      <trkpt lat="43.99328" lon="7.26703">
        <ele>1177.714</ele>
        <time>2011-09-11T09:08:45Z</time>
      </trkpt>
      <trkpt lat="43.99322" lon="7.26702">
        <ele>1180.345</ele>
        <time>2011-09-11T09:08:54Z</time>
      </trkpt>
      <trkpt lat="43.99317" lon="7.26701">
        <ele>1179.066</ele>
        <time>2011-09-11T09:09:00Z</time>
      </trkpt>
      <trkpt lat="43.99316" lon="7.26702">
        <ele>1179.355</ele>
        <time>2011-09-11T09:09:01Z</time>
      </trkpt>
      <trkpt lat="43.99308" lon="7.26706">
        <ele>1180.166</ele>
        <time>2011-09-11T09:09:07Z</time>
      </trkpt>
      <trkpt lat="43.993" lon="7.26711">
        <ele>1179.885</ele>
        <time>2011-09-11T09:09:12Z</time>
      </trkpt>
      <trkpt lat="43.99289" lon="7.26712">
        <ele>1179.282</ele>
        <time>2011-09-11T09:09:20Z</time>
      </trkpt>
      <trkpt lat="43.99277" lon="7.26717">
        <ele>1180.326</ele>
        <time>2011-09-11T09:09:26Z</time>
      </trkpt>
      <trkpt lat="43.99272" lon="7.2672">
        <ele>1183.148</ele>
        <time>2011-09-11T09:09:33Z</time>
      </trkpt>
      <trkpt lat="43.99268" lon="7.2672">
        <ele>1184.186</ele>
        <time>2011-09-11T09:09:43Z</time>
      </trkpt>
      <trkpt lat="43.99265" lon="7.26719">
        <ele>1183.222</ele>
        <time>2011-09-11T09:09:50Z</time>
      </trkpt>
      <trkpt lat="43.99253" lon="7.26724">
        <ele>1183.552</ele>
        <time>2011-09-11T09:09:55Z</time>
      </trkpt>
      <trkpt lat="43.99242" lon="7.26733">
        <ele>1185.551</ele>
        <time>2011-09-11T09:09:59Z</time>
      </trkpt>
      <trkpt lat="43.99232" lon="7.26744">
        <ele>1191.797</ele>
        <time>2011-09-11T09:10:06Z</time>
      </trkpt>
      <trkpt lat="43.99222" lon="7.26757">
        <ele>1192.45</ele>
        <time>2011-09-11T09:10:12Z</time>
      </trkpt>
      <trkpt lat="43.99218" lon="7.26756">
        <ele>1190.375</ele>
        <time>2011-09-11T09:10:16Z</time>
      </trkpt>
      <trkpt lat="43.99218" lon="7.26756">
        <ele>1189.907</ele>
        <time>2011-09-11T09:10:17Z</time>
      </trkpt>
      <trkpt lat="43.99213" lon="7.26757">
        <ele>1189.452</ele>
        <time>2011-09-11T09:10:24Z</time>
      </trkpt>
      <trkpt lat="43.99212" lon="7.26759">
        <ele>1188.835</ele>
        <time>2011-09-11T09:10:27Z</time>
      </trkpt>
      <trkpt lat="43.99208" lon="7.26759">
        <ele>1185.212</ele>
        <time>2011-09-11T09:10:33Z</time>
      </trkpt>
      <trkpt lat="43.99214" lon="7.26761">
        <ele>1173.047</ele>
        <time>2011-09-11T09:16:23Z</time>
      </trkpt>
      <trkpt lat="43.99213" lon="7.26746">
        <ele>1184.016</ele>
        <time>2011-09-11T09:16:32Z</time>
      </trkpt>
      <trkpt lat="43.99214" lon="7.26739">
        <ele>1188.276</ele>
        <time>2011-09-11T09:16:39Z</time>
      </trkpt>
      <trkpt lat="43.99218" lon="7.26732">
        <ele>1191.512</ele>
        <time>2011-09-11T09:16:45Z</time>
      </trkpt>
      <trkpt lat="43.99225" lon="7.26726">
        <ele>1190.846</ele>
        <time>2011-09-11T09:16:54Z</time>
      </trkpt>
      <trkpt lat="43.9923" lon="7.26719">
        <ele>1190.686</ele>
        <time>2011-09-11T09:17:02Z</time>
      </trkpt>
      <trkpt lat="43.99235" lon="7.26714">
        <ele>1192.306</ele>
        <time>2011-09-11T09:17:09Z</time>
      </trkpt>
      <trkpt lat="43.99238" lon="7.26712">
        <ele>1192.586</ele>
        <time>2011-09-11T09:17:12Z</time>
      </trkpt>
      <trkpt lat="43.99243" lon="7.26707">
        <ele>1191.183</ele>
        <time>2011-09-11T09:17:18Z</time>
      </trkpt>
      <trkpt lat="43.99247" lon="7.26709">
        <ele>1195.578</ele>
        <time>2011-09-11T09:17:25Z</time>
      </trkpt>
      <trkpt lat="43.99251" lon="7.26705">
        <ele>1195.476</ele>
        <time>2011-09-11T09:17:30Z</time>
      </trkpt>
      <trkpt lat="43.99257" lon="7.26695">
        <ele>1190.952</ele>
        <time>2011-09-11T09:17:39Z</time>
      </trkpt>
      <trkpt lat="43.99261" lon="7.26695">
        <ele>1192.854</ele>
        <time>2011-09-11T09:17:45Z</time>
      </trkpt>
      <trkpt lat="43.99266" lon="7.26691">
        <ele>1197.555</ele>
        <time>2011-09-11T09:17:53Z</time>
      </trkpt>
      <trkpt lat="43.99271" lon="7.26688">
        <ele>1200.261</ele>
        <time>2011-09-11T09:18:00Z</time>
      </trkpt>
      <trkpt lat="43.99279" lon="7.26682">
        <ele>1204.258</ele>
        <time>2011-09-11T09:18:08Z</time>
      </trkpt>
      <trkpt lat="43.99283" lon="7.26679">
        <ele>1205.937</ele>
        <time>2011-09-11T09:18:13Z</time>
      </trkpt>
      <trkpt lat="43.99287" lon="7.2667">
        <ele>1210.147</ele>
        <time>2011-09-11T09:18:21Z</time>
      </trkpt>
      <trkpt lat="43.99291" lon="7.26664">
        <ele>1210.213</ele>
        <time>2011-09-11T09:18:27Z</time>
      </trkpt>
      <trkpt lat="43.993" lon="7.26655">
        <ele>1210.618</ele>
        <time>2011-09-11T09:18:35Z</time>
      </trkpt>
      <trkpt lat="43.99311" lon="7.26654">
        <ele>1216.521</ele>
        <time>2011-09-11T09:18:44Z</time>
      </trkpt>
      <trkpt lat="43.99321" lon="7.26647">
        <ele>1219.61</ele>
        <time>2011-09-11T09:18:54Z</time>
      </trkpt>
      <trkpt lat="43.99329" lon="7.26635">
        <ele>1218.224</ele>
        <time>2011-09-11T09:19:03Z</time>
      </trkpt>
      <trkpt lat="43.99332" lon="7.26629">
        <ele>1217.094</ele>
        <time>2011-09-11T09:19:09Z</time>
      </trkpt>
      <trkpt lat="43.99341" lon="7.2663">
        <ele>1220.999</ele>
        <time>2011-09-11T09:19:18Z</time>
      </trkpt>
      <trkpt lat="43.99349" lon="7.26627">
        <ele>1221.005</ele>
        <time>2011-09-11T09:19:26Z</time>
      </trkpt>
      <trkpt lat="43.9936" lon="7.26625">
        <ele>1220.136</ele>
        <time>2011-09-11T09:19:36Z</time>
      </trkpt>
      <trkpt lat="43.9937" lon="7.26623">
        <ele>1221.146</ele>
        <time>2011-09-11T09:19:46Z</time>
      </trkpt>
      <trkpt lat="43.99381" lon="7.26623">
        <ele>1220.525</ele>
        <time>2011-09-11T09:19:57Z</time>
      </trkpt>
      <trkpt lat="43.99382" lon="7.26623">
        <ele>1220.565</ele>
        <time>2011-09-11T09:19:58Z</time>
      </trkpt>
      <trkpt lat="43.99384" lon="7.26617">
        <ele>1220.821</ele>
        <time>2011-09-11T09:20:03Z</time>
      </trkpt>
      <trkpt lat="43.99386" lon="7.26609">
        <ele>1223.098</ele>
        <time>2011-09-11T09:20:10Z</time>
      </trkpt>
      <trkpt lat="43.99389" lon="7.26604">
        <ele>1223.946</ele>
        <time>2011-09-11T09:20:15Z</time>
      </trkpt>
      <trkpt lat="43.99392" lon="7.266">
        <ele>1225.275</ele>
        <time>2011-09-11T09:20:20Z</time>
      </trkpt>
      <trkpt lat="43.99394" lon="7.26592">
        <ele>1224.053</ele>
        <time>2011-09-11T09:20:26Z</time>
      </trkpt>
      <trkpt lat="43.99391" lon="7.26587">
        <ele>1227.947</ele>
        <time>2011-09-11T09:20:30Z</time>
      </trkpt>
      <trkpt lat="43.99388" lon="7.26555">
        <ele>1230.416</ele>
        <time>2011-09-11T09:20:56Z</time>
      </trkpt>
      <trkpt lat="43.99395" lon="7.2654">
        <ele>1242.375</ele>
        <time>2011-09-11T09:21:15Z</time>
      </trkpt>
      <trkpt lat="43.994" lon="7.26538">
        <ele>1243.798</ele>
        <time>2011-09-11T09:21:18Z</time>
      </trkpt>
      <trkpt lat="43.99399" lon="7.26528">
        <ele>1245.666</ele>
        <time>2011-09-11T09:21:25Z</time>
      </trkpt>
      <trkpt lat="43.99396" lon="7.26523">
        <ele>1244.525</ele>
        <time>2011-09-11T09:21:30Z</time>
      </trkpt>
      <trkpt lat="43.99398" lon="7.26517">
        <ele>1242.693</ele>
        <time>2011-09-11T09:21:35Z</time>
      </trkpt>
      <trkpt lat="43.994" lon="7.26511">
        <ele>1244.608</ele>
        <time>2011-09-11T09:21:41Z</time>
      </trkpt>
      <trkpt lat="43.99402" lon="7.26507">
        <ele>1245.858</ele>
        <time>2011-09-11T09:21:45Z</time>
      </trkpt>
      <trkpt lat="43.99408" lon="7.26502">
        <ele>1249.568</ele>
        <time>2011-09-11T09:22:01Z</time>
      </trkpt>
      <trkpt lat="43.9941" lon="7.26493">
        <ele>1250.436</ele>
        <time>2011-09-11T09:22:07Z</time>
      </trkpt>
      <trkpt lat="43.99416" lon="7.26485">
        <ele>1250.445</ele>
        <time>2011-09-11T09:22:13Z</time>
      </trkpt>
      <trkpt lat="43.99419" lon="7.26481">
        <ele>1250.825</ele>
        <time>2011-09-11T09:22:18Z</time>
      </trkpt>
      <trkpt lat="43.99423" lon="7.26482">
        <ele>1253.769</ele>
        <time>2011-09-11T09:22:21Z</time>
      </trkpt>
      <trkpt lat="43.9943" lon="7.26478">
        <ele>1254.046</ele>
        <time>2011-09-11T09:22:28Z</time>
      </trkpt>
      <trkpt lat="43.99435" lon="7.26469">
        <ele>1252.394</ele>
        <time>2011-09-11T09:22:34Z</time>
      </trkpt>
      <trkpt lat="43.99441" lon="7.26461">
        <ele>1251.624</ele>
        <time>2011-09-11T09:22:41Z</time>
      </trkpt>
      <trkpt lat="43.99445" lon="7.26456">
        <ele>1252.803</ele>
        <time>2011-09-11T09:22:46Z</time>
      </trkpt>
      <trkpt lat="43.99446" lon="7.26448">
        <ele>1250.75</ele>
        <time>2011-09-11T09:22:50Z</time>
      </trkpt>
      <trkpt lat="43.99454" lon="7.26443">
        <ele>1254.894</ele>
        <time>2011-09-11T09:22:56Z</time>
      </trkpt>
      <trkpt lat="43.99453" lon="7.2643">
        <ele>1252.181</ele>
        <time>2011-09-11T09:23:05Z</time>
      </trkpt>
      <trkpt lat="43.99452" lon="7.26429">
        <ele>1250.98</ele>
        <time>2011-09-11T09:23:06Z</time>
      </trkpt>
      <trkpt lat="43.99449" lon="7.26428">
        <ele>1251.905</ele>
        <time>2011-09-11T09:23:12Z</time>
      </trkpt>
      <trkpt lat="43.99443" lon="7.26429">
        <ele>1256.237</ele>
        <time>2011-09-11T09:23:24Z</time>
      </trkpt>
      <trkpt lat="43.99441" lon="7.26434">
        <ele>1257.988</ele>
        <time>2011-09-11T09:23:28Z</time>
      </trkpt>
      <trkpt lat="43.99425" lon="7.2644">
        <ele>1262.651</ele>
        <time>2011-09-11T09:23:36Z</time>
      </trkpt>
      <trkpt lat="43.99422" lon="7.26441">
        <ele>1263.315</ele>
        <time>2011-09-11T09:23:40Z</time>
      </trkpt>
      <trkpt lat="43.99414" lon="7.26443">
        <ele>1261.562</ele>
        <time>2011-09-11T09:23:45Z</time>
      </trkpt>
      <trkpt lat="43.99405" lon="7.26451">
        <ele>1265.63</ele>
        <time>2011-09-11T09:23:53Z</time>
      </trkpt>
      <trkpt lat="43.99395" lon="7.26458">
        <ele>1270.201</ele>
        <time>2011-09-11T09:23:59Z</time>
      </trkpt>
      <trkpt lat="43.99394" lon="7.26461">
        <ele>1268.651</ele>
        <time>2011-09-11T09:24:05Z</time>
      </trkpt>
      <trkpt lat="43.99395" lon="7.26459">
        <ele>1270.28</ele>
        <time>2011-09-11T09:24:14Z</time>
      </trkpt>
      <trkpt lat="43.99398" lon="7.26459">
        <ele>1271.456</ele>
        <time>2011-09-11T09:24:16Z</time>
      </trkpt>
      <trkpt lat="43.99401" lon="7.26457">
        <ele>1271.415</ele>
        <time>2011-09-11T09:24:18Z</time>
      </trkpt>
      <trkpt lat="43.99403" lon="7.26449">
        <ele>1272.775</ele>
        <time>2011-09-11T09:24:24Z</time>
      </trkpt>
      <trkpt lat="43.9941" lon="7.2644">
        <ele>1269.721</ele>
        <time>2011-09-11T09:24:32Z</time>
      </trkpt>
      <trkpt lat="43.99419" lon="7.26431">
        <ele>1269.353</ele>
        <time>2011-09-11T09:24:40Z</time>
      </trkpt>
      <trkpt lat="43.99423" lon="7.26422">
        <ele>1267.651</ele>
        <time>2011-09-11T09:24:45Z</time>
      </trkpt>
      <trkpt lat="43.99428" lon="7.26409">
        <ele>1267.852</ele>
        <time>2011-09-11T09:24:52Z</time>
      </trkpt>
      <trkpt lat="43.99427" lon="7.26405">
        <ele>1267.251</ele>
        <time>2011-09-11T09:24:56Z</time>
      </trkpt>
      <trkpt lat="43.99421" lon="7.26413">
        <ele>1269.846</ele>
        <time>2011-09-11T09:25:03Z</time>
      </trkpt>
      <trkpt lat="43.99413" lon="7.26415">
        <ele>1272.431</ele>
        <time>2011-09-11T09:25:08Z</time>
      </trkpt>
      <trkpt lat="43.99403" lon="7.26419">
        <ele>1277.39</ele>
        <time>2011-09-11T09:25:15Z</time>
      </trkpt>
      <trkpt lat="43.99391" lon="7.26423">
        <ele>1278.251</ele>
        <time>2011-09-11T09:25:21Z</time>
      </trkpt>
      <trkpt lat="43.99388" lon="7.26421">
        <ele>1276.414</ele>
        <time>2011-09-11T09:25:26Z</time>
      </trkpt>
      <trkpt lat="43.99392" lon="7.26417">
        <ele>1276.685</ele>
        <time>2011-09-11T09:25:32Z</time>
      </trkpt>
      <trkpt lat="43.994" lon="7.26409">
        <ele>1275.114</ele>
        <time>2011-09-11T09:25:40Z</time>
      </trkpt>
      <trkpt lat="43.99405" lon="7.26406">
        <ele>1276.116</ele>
        <time>2011-09-11T09:25:45Z</time>
      </trkpt>
      <trkpt lat="43.99413" lon="7.26393">
        <ele>1277.955</ele>
        <time>2011-09-11T09:25:53Z</time>
      </trkpt>
      <trkpt lat="43.99419" lon="7.26377">
        <ele>1276.18</ele>
        <time>2011-09-11T09:25:57Z</time>
      </trkpt>
      <trkpt lat="43.99431" lon="7.26357">
        <ele>1274.491</ele>
        <time>2011-09-11T09:26:03Z</time>
      </trkpt>
      <trkpt lat="43.99436" lon="7.26349">
        <ele>1276.125</ele>
        <time>2011-09-11T09:26:10Z</time>
      </trkpt>
      <trkpt lat="43.9944" lon="7.26337">
        <ele>1280.206</ele>
        <time>2011-09-11T09:26:17Z</time>
      </trkpt>
      <trkpt lat="43.99441" lon="7.26331">
        <ele>1282.161</ele>
        <time>2011-09-11T09:26:20Z</time>
      </trkpt>
      <trkpt lat="43.99447" lon="7.2632">
        <ele>1284.768</ele>
        <time>2011-09-11T09:26:27Z</time>
      </trkpt>
      <trkpt lat="43.9945" lon="7.26315">
        <ele>1286.878</ele>
        <time>2011-09-11T09:26:31Z</time>
      </trkpt>
      <trkpt lat="43.9946" lon="7.26308">
        <ele>1292.44</ele>
        <time>2011-09-11T09:26:39Z</time>
      </trkpt>
      <trkpt lat="43.99463" lon="7.26305">
        <ele>1292.834</ele>
        <time>2011-09-11T09:26:44Z</time>
      </trkpt>
      <trkpt lat="43.99462" lon="7.263">
        <ele>1289.131</ele>
        <time>2011-09-11T09:27:00Z</time>
      </trkpt>
      <trkpt lat="43.99463" lon="7.26298">
        <ele>1288.575</ele>
        <time>2011-09-11T09:27:23Z</time>
      </trkpt>
      <trkpt lat="43.99467" lon="7.2631">
        <ele>1299.057</ele>
        <time>2011-09-11T09:27:46Z</time>
      </trkpt>
      <trkpt lat="43.99471" lon="7.26309">
        <ele>1301.108</ele>
        <time>2011-09-11T09:27:50Z</time>
      </trkpt>
      <trkpt lat="43.99475" lon="7.26304">
        <ele>1302.409</ele>
        <time>2011-09-11T09:27:57Z</time>
      </trkpt>
      <trkpt lat="43.99477" lon="7.26303">
        <ele>1303.76</ele>
        <time>2011-09-11T09:28:00Z</time>
      </trkpt>
      <trkpt lat="43.99482" lon="7.26293">
        <ele>1301.777</ele>
        <time>2011-09-11T09:28:07Z</time>
      </trkpt>
      <trkpt lat="43.99485" lon="7.26291">
        <ele>1303.309</ele>
        <time>2011-09-11T09:28:10Z</time>
      </trkpt>
      <trkpt lat="43.99486" lon="7.26289">
        <ele>1304.041</ele>
        <time>2011-09-11T09:28:12Z</time>
      </trkpt>
      <trkpt lat="43.9949" lon="7.26284">
        <ele>1304.448</ele>
        <time>2011-09-11T09:28:17Z</time>
      </trkpt>
      <trkpt lat="43.99495" lon="7.26274">
        <ele>1300.805</ele>
        <time>2011-09-11T09:28:23Z</time>
      </trkpt>
      <trkpt lat="43.99497" lon="7.26271">
        <ele>1300.523</ele>
        <time>2011-09-11T09:28:24Z</time>
      </trkpt>
      <trkpt lat="43.99514" lon="7.26267">
        <ele>1303.497</ele>
        <time>2011-09-11T09:28:30Z</time>
      </trkpt>
      <trkpt lat="43.99522" lon="7.26267">
        <ele>1306.621</ele>
        <time>2011-09-11T09:28:33Z</time>
      </trkpt>
      <trkpt lat="43.99527" lon="7.26256">
        <ele>1301.474</ele>
        <time>2011-09-11T09:28:39Z</time>
      </trkpt>
      <trkpt lat="43.99533" lon="7.26247">
        <ele>1302.406</ele>
        <time>2011-09-11T09:28:44Z</time>
      </trkpt>
      <trkpt lat="43.99545" lon="7.26234">
        <ele>1297.952</ele>
        <time>2011-09-11T09:28:53Z</time>
      </trkpt>
      <trkpt lat="43.99551" lon="7.26227">
        <ele>1296.252</ele>
        <time>2011-09-11T09:28:57Z</time>
      </trkpt>
      <trkpt lat="43.99561" lon="7.26217">
        <ele>1297.226</ele>
        <time>2011-09-11T09:29:05Z</time>
      </trkpt>
      <trkpt lat="43.99564" lon="7.26216">
        <ele>1298.415</ele>
        <time>2011-09-11T09:29:10Z</time>
      </trkpt>
      <trkpt lat="43.99565" lon="7.26214">
        <ele>1298.153</ele>
        <time>2011-09-11T09:29:20Z</time>
      </trkpt>
      <trkpt lat="43.99568" lon="7.26212">
        <ele>1299.015</ele>
        <time>2011-09-11T09:29:29Z</time>
      </trkpt>
      <trkpt lat="43.9957" lon="7.2621">
        <ele>1299.504</ele>
        <time>2011-09-11T09:29:36Z</time>
      </trkpt>
      <trkpt lat="43.99576" lon="7.26207">
        <ele>1299.203</ele>
        <time>2011-09-11T09:29:42Z</time>
      </trkpt>
      <trkpt lat="43.99588" lon="7.26206">
        <ele>1300.565</ele>
        <time>2011-09-11T09:29:49Z</time>
      </trkpt>
      <trkpt lat="43.996" lon="7.26201">
        <ele>1302.616</ele>
        <time>2011-09-11T09:29:56Z</time>
      </trkpt>
      <trkpt lat="43.99612" lon="7.26201">
        <ele>1304.826</ele>
        <time>2011-09-11T09:30:03Z</time>
      </trkpt>
      <trkpt lat="43.99622" lon="7.26198">
        <ele>1306.747</ele>
        <time>2011-09-11T09:30:09Z</time>
      </trkpt>
      <trkpt lat="43.99627" lon="7.26198">
        <ele>1307.275</ele>
        <time>2011-09-11T09:30:14Z</time>
      </trkpt>
      <trkpt lat="43.99631" lon="7.26199">
        <ele>1308.554</ele>
        <time>2011-09-11T09:30:22Z</time>
      </trkpt>
      <trkpt lat="43.99636" lon="7.262">
        <ele>1308.894</ele>
        <time>2011-09-11T09:30:28Z</time>
      </trkpt>
      <trkpt lat="43.99644" lon="7.26199">
        <ele>1310.457</ele>
        <time>2011-09-11T09:30:38Z</time>
      </trkpt>
      <trkpt lat="43.9965" lon="7.26199">
        <ele>1313.178</ele>
        <time>2011-09-11T09:30:46Z</time>
      </trkpt>
      <trkpt lat="43.99654" lon="7.26197">
        <ele>1315.616</ele>
        <time>2011-09-11T09:30:53Z</time>
      </trkpt>
      <trkpt lat="43.99667" lon="7.26189">
        <ele>1317.519</ele>
        <time>2011-09-11T09:31:55Z</time>
      </trkpt>
      <trkpt lat="43.99667" lon="7.26179">
        <ele>1328.688</ele>
        <time>2011-09-11T09:32:11Z</time>
      </trkpt>
      <trkpt lat="43.99667" lon="7.26168">
        <ele>1329.355</ele>
        <time>2011-09-11T09:32:23Z</time>
      </trkpt>
      <trkpt lat="43.99667" lon="7.26164">
        <ele>1329.255</ele>
        <time>2011-09-11T09:32:29Z</time>
      </trkpt>
      <trkpt lat="43.99669" lon="7.26159">
        <ele>1331.899</ele>
        <time>2011-09-11T09:32:35Z</time>
      </trkpt>
      <trkpt lat="43.99671" lon="7.26155">
        <ele>1332.68</ele>
        <time>2011-09-11T09:32:39Z</time>
      </trkpt>
      <trkpt lat="43.99674" lon="7.26152">
        <ele>1332.909</ele>
        <time>2011-09-11T09:32:43Z</time>
      </trkpt>
      <trkpt lat="43.99678" lon="7.26145">
        <ele>1334.819</ele>
        <time>2011-09-11T09:32:51Z</time>
      </trkpt>
      <trkpt lat="43.9968" lon="7.26143">
        <ele>1336.96</ele>
        <time>2011-09-11T09:32:56Z</time>
      </trkpt>
      <trkpt lat="43.99683" lon="7.26137">
        <ele>1337.587</ele>
        <time>2011-09-11T09:33:02Z</time>
      </trkpt>
      <trkpt lat="43.99689" lon="7.26131">
        <ele>1339.047</ele>
        <time>2011-09-11T09:33:11Z</time>
      </trkpt>
      <trkpt lat="43.99693" lon="7.26124">
        <ele>1336.874</ele>
        <time>2011-09-11T09:33:18Z</time>
      </trkpt>
      <trkpt lat="43.99698" lon="7.26117">
        <ele>1335.194</ele>
        <time>2011-09-11T09:33:25Z</time>
      </trkpt>
      <trkpt lat="43.99701" lon="7.26114">
        <ele>1335.165</ele>
        <time>2011-09-11T09:33:29Z</time>
      </trkpt>
      <trkpt lat="43.99704" lon="7.26112">
        <ele>1338.698</ele>
        <time>2011-09-11T09:33:36Z</time>
      </trkpt>
      <trkpt lat="43.99717" lon="7.26103">
        <ele>1354.958</ele>
        <time>2011-09-11T09:34:00Z</time>
      </trkpt>
      <trkpt lat="43.9972" lon="7.26096">
        <ele>1356.526</ele>
        <time>2011-09-11T09:34:07Z</time>
      </trkpt>
      <trkpt lat="43.99718" lon="7.26087">
        <ele>1349.089</ele>
        <time>2011-09-11T09:34:13Z</time>
      </trkpt>
      <trkpt lat="43.99721" lon="7.26077">
        <ele>1348.213</ele>
        <time>2011-09-11T09:34:19Z</time>
      </trkpt>
      <trkpt lat="43.99725" lon="7.26069">
        <ele>1346.873</ele>
        <time>2011-09-11T09:34:25Z</time>
      </trkpt>
      <trkpt lat="43.99726" lon="7.26063">
        <ele>1348.314</ele>
        <time>2011-09-11T09:34:31Z</time>
      </trkpt>
      <trkpt lat="43.99731" lon="7.26057">
        <ele>1351.857</ele>
        <time>2011-09-11T09:34:37Z</time>
      </trkpt>
      <trkpt lat="43.99735" lon="7.26054">
        <ele>1354.008</ele>
        <time>2011-09-11T09:34:42Z</time>
      </trkpt>
      <trkpt lat="43.99739" lon="7.2605">
        <ele>1356.138</ele>
        <time>2011-09-11T09:34:46Z</time>
      </trkpt>
      <trkpt lat="43.99744" lon="7.26045">
        <ele>1356.036</ele>
        <time>2011-09-11T09:34:52Z</time>
      </trkpt>
      <trkpt lat="43.99749" lon="7.26043">
        <ele>1359.087</ele>
        <time>2011-09-11T09:34:58Z</time>
      </trkpt>
      <trkpt lat="43.99754" lon="7.26038">
        <ele>1360.687</ele>
        <time>2011-09-11T09:35:04Z</time>
      </trkpt>
      <trkpt lat="43.99761" lon="7.26032">
        <ele>1361.148</ele>
        <time>2011-09-11T09:35:13Z</time>
      </trkpt>
      <trkpt lat="43.99766" lon="7.26028">
        <ele>1363.26</ele>
        <time>2011-09-11T09:35:21Z</time>
      </trkpt>
      <trkpt lat="43.99767" lon="7.26023">
        <ele>1362.109</ele>
        <time>2011-09-11T09:35:26Z</time>
      </trkpt>
      <trkpt lat="43.99769" lon="7.26016">
        <ele>1362.409</ele>
        <time>2011-09-11T09:35:33Z</time>
      </trkpt>
      <trkpt lat="43.99772" lon="7.26012">
        <ele>1363.226</ele>
        <time>2011-09-11T09:35:38Z</time>
      </trkpt>
      <trkpt lat="43.99776" lon="7.26009">
        <ele>1363.655</ele>
        <time>2011-09-11T09:35:46Z</time>
      </trkpt>
      <trkpt lat="43.99772" lon="7.26002">
        <ele>1357.609</ele>
        <time>2011-09-11T09:36:01Z</time>
      </trkpt>
      <trkpt lat="43.99785" lon="7.25999">
        <ele>1358.014</ele>
        <time>2011-09-11T09:36:08Z</time>
      </trkpt>
      <trkpt lat="43.99787" lon="7.25998">
        <ele>1358.645</ele>
        <time>2011-09-11T09:36:09Z</time>
      </trkpt>
      <trkpt lat="43.99803" lon="7.25998">
        <ele>1359.393</ele>
        <time>2011-09-11T09:36:16Z</time>
      </trkpt>
      <trkpt lat="43.99809" lon="7.25994">
        <ele>1358.592</ele>
        <time>2011-09-11T09:36:20Z</time>
      </trkpt>
      <trkpt lat="43.99813" lon="7.2599">
        <ele>1358.252</ele>
        <time>2011-09-11T09:36:23Z</time>
      </trkpt>
      <trkpt lat="43.99816" lon="7.25982">
        <ele>1354.983</ele>
        <time>2011-09-11T09:36:28Z</time>
      </trkpt>
      <trkpt lat="43.99821" lon="7.25971">
        <ele>1360.542</ele>
        <time>2011-09-11T09:36:41Z</time>
      </trkpt>
      <trkpt lat="43.99824" lon="7.25967">
        <ele>1362.547</ele>
        <time>2011-09-11T09:36:46Z</time>
      </trkpt>
      <trkpt lat="43.99824" lon="7.25959">
        <ele>1362.612</ele>
        <time>2011-09-11T09:36:51Z</time>
      </trkpt>
      <trkpt lat="43.99826" lon="7.25954">
        <ele>1366.408</ele>
        <time>2011-09-11T09:36:58Z</time>
      </trkpt>
      <trkpt lat="43.99821" lon="7.2595">
        <ele>1376.228</ele>
        <time>2011-09-11T09:37:15Z</time>
      </trkpt>
      <trkpt lat="43.99821" lon="7.2595">
        <ele>1376.577</ele>
        <time>2011-09-11T09:37:16Z</time>
      </trkpt>
      <trkpt lat="43.99814" lon="7.2595">
        <ele>1374.963</ele>
        <time>2011-09-11T09:37:24Z</time>
      </trkpt>
      <trkpt lat="43.99808" lon="7.25952">
        <ele>1367.882</ele>
        <time>2011-09-11T09:37:49Z</time>
      </trkpt>
      <trkpt lat="43.99805" lon="7.25957">
        <ele>1368.817</ele>
        <time>2011-09-11T09:37:56Z</time>
      </trkpt>
      <trkpt lat="43.99805" lon="7.25956">
        <ele>1369.898</ele>
        <time>2011-09-11T09:37:59Z</time>
      </trkpt>
      <trkpt lat="43.99808" lon="7.25949">
        <ele>1371.016</ele>
        <time>2011-09-11T09:38:05Z</time>
      </trkpt>
      <trkpt lat="43.99813" lon="7.25939">
        <ele>1372.594</ele>
        <time>2011-09-11T09:38:13Z</time>
      </trkpt>
      <trkpt lat="43.99813" lon="7.25938">
        <ele>1372.813</ele>
        <time>2011-09-11T09:38:14Z</time>
      </trkpt>
      <trkpt lat="43.99816" lon="7.2593">
        <ele>1376.186</ele>
        <time>2011-09-11T09:38:23Z</time>
      </trkpt>
      <trkpt lat="43.99818" lon="7.25926">
        <ele>1379.485</ele>
        <time>2011-09-11T09:38:30Z</time>
      </trkpt>
      <trkpt lat="43.99821" lon="7.2592">
        <ele>1383.478</ele>
        <time>2011-09-11T09:38:40Z</time>
      </trkpt>
      <trkpt lat="43.99825" lon="7.25912">
        <ele>1385.885</ele>
        <time>2011-09-11T09:38:49Z</time>
      </trkpt>
      <trkpt lat="43.99827" lon="7.25905">
        <ele>1382.491</ele>
        <time>2011-09-11T09:38:55Z</time>
      </trkpt>
      <trkpt lat="43.99827" lon="7.25899">
        <ele>1382.803</ele>
        <time>2011-09-11T09:39:02Z</time>
      </trkpt>
      <trkpt lat="43.99829" lon="7.25895">
        <ele>1385.203</ele>
        <time>2011-09-11T09:39:10Z</time>
      </trkpt>
      <trkpt lat="43.99833" lon="7.25892">
        <ele>1386.633</ele>
        <time>2011-09-11T09:39:16Z</time>
      </trkpt>
      <trkpt lat="43.99831" lon="7.25892">
        <ele>1388.702</ele>
        <time>2011-09-11T09:39:21Z</time>
      </trkpt>
      <trkpt lat="43.99827" lon="7.25893">
        <ele>1390.693</ele>
        <time>2011-09-11T09:39:28Z</time>
      </trkpt>
      <trkpt lat="43.99822" lon="7.25894">
        <ele>1391.833</ele>
        <time>2011-09-11T09:39:35Z</time>
      </trkpt>
      <trkpt lat="43.99818" lon="7.25896">
        <ele>1393.274</ele>
        <time>2011-09-11T09:39:41Z</time>
      </trkpt>
      <trkpt lat="43.99823" lon="7.25889">
        <ele>1397.855</ele>
        <time>2011-09-11T09:39:54Z</time>
      </trkpt>
      <trkpt lat="43.99827" lon="7.25886">
        <ele>1400.174</ele>
        <time>2011-09-11T09:40:01Z</time>
      </trkpt>
      <trkpt lat="43.9983" lon="7.25883">
        <ele>1400.724</ele>
        <time>2011-09-11T09:40:06Z</time>
      </trkpt>
      <trkpt lat="43.99834" lon="7.25879">
        <ele>1401.235</ele>
        <time>2011-09-11T09:40:13Z</time>
      </trkpt>
      <trkpt lat="43.99837" lon="7.25874">
        <ele>1400.594</ele>
        <time>2011-09-11T09:40:20Z</time>
      </trkpt>
      <trkpt lat="43.99842" lon="7.25868">
        <ele>1399.803</ele>
        <time>2011-09-11T09:40:29Z</time>
      </trkpt>
      <trkpt lat="43.99846" lon="7.25862">
        <ele>1399.924</ele>
        <time>2011-09-11T09:40:37Z</time>
      </trkpt>
      <trkpt lat="43.99849" lon="7.25857">
        <ele>1401.525</ele>
        <time>2011-09-11T09:40:45Z</time>
      </trkpt>
      <trkpt lat="43.99853" lon="7.25856">
        <ele>1404.065</ele>
        <time>2011-09-11T09:40:53Z</time>
      </trkpt>
      <trkpt lat="43.99856" lon="7.25853">
        <ele>1405.765</ele>
        <time>2011-09-11T09:40:59Z</time>
      </trkpt>
      <trkpt lat="43.99863" lon="7.25852">
        <ele>1409.415</ele>
        <time>2011-09-11T09:41:10Z</time>
      </trkpt>
      <trkpt lat="43.99866" lon="7.25854">
        <ele>1410.183</ele>
        <time>2011-09-11T09:41:17Z</time>
      </trkpt>
      <trkpt lat="43.99867" lon="7.25854">
        <ele>1409.732</ele>
        <time>2011-09-11T09:41:25Z</time>
      </trkpt>
      <trkpt lat="43.99865" lon="7.25848">
        <ele>1410.595</ele>
        <time>2011-09-11T09:41:31Z</time>
      </trkpt>
      <trkpt lat="43.99865" lon="7.25844">
        <ele>1411.177</ele>
        <time>2011-09-11T09:41:35Z</time>
      </trkpt>
      <trkpt lat="43.99867" lon="7.25833">
        <ele>1408.877</ele>
        <time>2011-09-11T09:41:43Z</time>
      </trkpt>
      <trkpt lat="43.99868" lon="7.25827">
        <ele>1410.93</ele>
        <time>2011-09-11T09:41:48Z</time>
      </trkpt>
      <trkpt lat="43.99871" lon="7.25828">
        <ele>1416.048</ele>
        <time>2011-09-11T09:41:55Z</time>
      </trkpt>
      <trkpt lat="43.99872" lon="7.2583">
        <ele>1420.587</ele>
        <time>2011-09-11T09:42:01Z</time>
      </trkpt>
      <trkpt lat="43.9987" lon="7.25828">
        <ele>1423.384</ele>
        <time>2011-09-11T09:42:49Z</time>
      </trkpt>
      <trkpt lat="43.99872" lon="7.25825">
        <ele>1422.785</ele>
        <time>2011-09-11T09:42:51Z</time>
      </trkpt>
      <trkpt lat="43.9988" lon="7.25811">
        <ele>1421.424</ele>
        <time>2011-09-11T09:42:58Z</time>
      </trkpt>
      <trkpt lat="43.99882" lon="7.25809">
        <ele>1421.243</ele>
        <time>2011-09-11T09:42:59Z</time>
      </trkpt>
      <trkpt lat="43.99888" lon="7.25798">
        <ele>1420.514</ele>
        <time>2011-09-11T09:43:04Z</time>
      </trkpt>
      <trkpt lat="43.999" lon="7.25778">
        <ele>1419.514</ele>
        <time>2011-09-11T09:43:09Z</time>
      </trkpt>
      <trkpt lat="43.99907" lon="7.2577">
        <ele>1418.292</ele>
        <time>2011-09-11T09:43:13Z</time>
      </trkpt>
      <trkpt lat="43.9992" lon="7.25762">
        <ele>1418.483</ele>
        <time>2011-09-11T09:43:19Z</time>
      </trkpt>
      <trkpt lat="43.99935" lon="7.25759">
        <ele>1418.041</ele>
        <time>2011-09-11T09:43:25Z</time>
      </trkpt>
      <trkpt lat="43.99946" lon="7.25757">
        <ele>1419.144</ele>
        <time>2011-09-11T09:43:31Z</time>
      </trkpt>
      <trkpt lat="43.99957" lon="7.25756">
        <ele>1419.964</ele>
        <time>2011-09-11T09:43:38Z</time>
      </trkpt>
      <trkpt lat="43.99965" lon="7.25755">
        <ele>1421.995</ele>
        <time>2011-09-11T09:43:43Z</time>
      </trkpt>
      <trkpt lat="43.9997" lon="7.25754">
        <ele>1423.666</ele>
        <time>2011-09-11T09:43:46Z</time>
      </trkpt>
      <trkpt lat="43.99979" lon="7.2575">
        <ele>1424.183</ele>
        <time>2011-09-11T09:43:54Z</time>
      </trkpt>
      <trkpt lat="43.99986" lon="7.25747">
        <ele>1421.371</ele>
        <time>2011-09-11T09:44:00Z</time>
      </trkpt>
      <trkpt lat="43.9999" lon="7.25745">
        <ele>1421.312</ele>
        <time>2011-09-11T09:44:05Z</time>
      </trkpt>
      <trkpt lat="43.99992" lon="7.25745">
        <ele>1421.935</ele>
        <time>2011-09-11T09:44:11Z</time>
      </trkpt>
      <trkpt lat="43.99997" lon="7.25742">
        <ele>1423.272</ele>
        <time>2011-09-11T09:44:19Z</time>
      </trkpt>
      <trkpt lat="44.00002" lon="7.25739">
        <ele>1423.671</ele>
        <time>2011-09-11T09:44:25Z</time>
      </trkpt>
      <trkpt lat="44.00004" lon="7.25733">
        <ele>1423.083</ele>
        <time>2011-09-11T09:44:32Z</time>
      </trkpt>
      <trkpt lat="44.00007" lon="7.25727">
        <ele>1423.887</ele>
        <time>2011-09-11T09:44:40Z</time>
      </trkpt>
      <trkpt lat="44.00011" lon="7.25714">
        <ele>1424.351</ele>
        <time>2011-09-11T09:44:47Z</time>
      </trkpt>
      <trkpt lat="44.00013" lon="7.25706">
        <ele>1425.372</ele>
        <time>2011-09-11T09:44:51Z</time>
      </trkpt>
      <trkpt lat="44.00014" lon="7.25689">
        <ele>1424.422</ele>
        <time>2011-09-11T09:44:58Z</time>
      </trkpt>
      <trkpt lat="44.00016" lon="7.25678">
        <ele>1424.104</ele>
        <time>2011-09-11T09:45:03Z</time>
      </trkpt>
      <trkpt lat="44.00018" lon="7.25673">
        <ele>1424.444</ele>
        <time>2011-09-11T09:45:06Z</time>
      </trkpt>
      <trkpt lat="44.00018" lon="7.25663">
        <ele>1422.223</ele>
        <time>2011-09-11T09:45:13Z</time>
      </trkpt>
      <trkpt lat="44.00022" lon="7.25655">
        <ele>1427.235</ele>
        <time>2011-09-11T09:45:22Z</time>
      </trkpt>
      <trkpt lat="44.00029" lon="7.25652">
        <ele>1435.861</ele>
        <time>2011-09-11T09:45:33Z</time>
      </trkpt>
      <trkpt lat="44.0003" lon="7.25651">
        <ele>1437.959</ele>
        <time>2011-09-11T09:45:35Z</time>
      </trkpt>
      <trkpt lat="44.00032" lon="7.25645">
        <ele>1433.952</ele>
        <time>2011-09-11T09:45:42Z</time>
      </trkpt>
      <trkpt lat="44.00033" lon="7.25643">
        <ele>1433.462</ele>
        <time>2011-09-11T09:45:50Z</time>
      </trkpt>
      <trkpt lat="44.00041" lon="7.25638">
        <ele>1436.046</ele>
        <time>2011-09-11T09:45:56Z</time>
      </trkpt>
      <trkpt lat="44.00043" lon="7.25637">
        <ele>1436.507</ele>
        <time>2011-09-11T09:45:57Z</time>
      </trkpt>
      <trkpt lat="44.00051" lon="7.25633">
        <ele>1438.558</ele>
        <time>2011-09-11T09:46:03Z</time>
      </trkpt>
      <trkpt lat="44.00058" lon="7.25627">
        <ele>1440.235</ele>
        <time>2011-09-11T09:46:08Z</time>
      </trkpt>
      <trkpt lat="44.00068" lon="7.25622">
        <ele>1441.856</ele>
        <time>2011-09-11T09:46:15Z</time>
      </trkpt>
      <trkpt lat="44.00077" lon="7.25619">
        <ele>1443.025</ele>
        <time>2011-09-11T09:46:22Z</time>
      </trkpt>
      <trkpt lat="44.00085" lon="7.25617">
        <ele>1446.458</ele>
        <time>2011-09-11T09:46:29Z</time>
      </trkpt>
      <trkpt lat="44.00089" lon="7.25615">
        <ele>1444.514</ele>
        <time>2011-09-11T09:46:34Z</time>
      </trkpt>
      <trkpt lat="44.00092" lon="7.25608">
        <ele>1437.718</ele>
        <time>2011-09-11T09:46:55Z</time>
      </trkpt>
      <trkpt lat="44.00098" lon="7.25607">
        <ele>1440.283</ele>
        <time>2011-09-11T09:47:03Z</time>
      </trkpt>
      <trkpt lat="44.00103" lon="7.25605">
        <ele>1443.776</ele>
        <time>2011-09-11T09:47:10Z</time>
      </trkpt>
      <trkpt lat="44.00103" lon="7.25602">
        <ele>1444.678</ele>
        <time>2011-09-11T09:47:16Z</time>
      </trkpt>
      <trkpt lat="44.00106" lon="7.25601">
        <ele>1448.896</ele>
        <time>2011-09-11T09:47:22Z</time>
      </trkpt>
      <trkpt lat="44.00108" lon="7.256">
        <ele>1449.865</ele>
        <time>2011-09-11T09:47:28Z</time>
      </trkpt>
      <trkpt lat="44.00109" lon="7.25598">
        <ele>1449.085</ele>
        <time>2011-09-11T09:47:34Z</time>
      </trkpt>
      <trkpt lat="44.00115" lon="7.25596">
        <ele>1452.122</ele>
        <time>2011-09-11T09:47:42Z</time>
      </trkpt>
      <trkpt lat="44.0012" lon="7.25597">
        <ele>1455.146</ele>
        <time>2011-09-11T09:47:48Z</time>
      </trkpt>
      <trkpt lat="44.00124" lon="7.25598">
        <ele>1457.053</ele>
        <time>2011-09-11T09:47:54Z</time>
      </trkpt>
      <trkpt lat="44.00129" lon="7.25593">
        <ele>1458.88</ele>
        <time>2011-09-11T09:48:01Z</time>
      </trkpt>
      <trkpt lat="44.00135" lon="7.25586">
        <ele>1458.855</ele>
        <time>2011-09-11T09:48:10Z</time>
      </trkpt>
      <trkpt lat="44.0014" lon="7.25582">
        <ele>1457.973</ele>
        <time>2011-09-11T09:48:27Z</time>
      </trkpt>
      <trkpt lat="44.00148" lon="7.25583">
        <ele>1456.43</ele>
        <time>2011-09-11T09:48:36Z</time>
      </trkpt>
      <trkpt lat="44.00151" lon="7.25584">
        <ele>1457.342</ele>
        <time>2011-09-11T09:48:40Z</time>
      </trkpt>
      <trkpt lat="44.00156" lon="7.25587">
        <ele>1457.381</ele>
        <time>2011-09-11T09:48:46Z</time>
      </trkpt>
      <trkpt lat="44.0016" lon="7.25587">
        <ele>1455.71</ele>
        <time>2011-09-11T09:48:52Z</time>
      </trkpt>
      <trkpt lat="44.00162" lon="7.25584">
        <ele>1454.61</ele>
        <time>2011-09-11T09:48:59Z</time>
      </trkpt>
      <trkpt lat="44.00166" lon="7.25584">
        <ele>1455.035</ele>
        <time>2011-09-11T09:49:08Z</time>
      </trkpt>
      <trkpt lat="44.0017" lon="7.25585">
        <ele>1457.655</ele>
        <time>2011-09-11T09:49:15Z</time>
      </trkpt>
      <trkpt lat="44.00168" lon="7.25583">
        <ele>1457.358</ele>
        <time>2011-09-11T09:49:20Z</time>
      </trkpt>
      <trkpt lat="44.00169" lon="7.25581">
        <ele>1461.22</ele>
        <time>2011-09-11T09:49:27Z</time>
      </trkpt>
      <trkpt lat="44.00169" lon="7.25577">
        <ele>1460.942</ele>
        <time>2011-09-11T09:49:37Z</time>
      </trkpt>
      <trkpt lat="44.00168" lon="7.25573">
        <ele>1463.968</ele>
        <time>2011-09-11T09:49:52Z</time>
      </trkpt>
      <trkpt lat="44.00168" lon="7.2557">
        <ele>1464.844</ele>
        <time>2011-09-11T09:49:57Z</time>
      </trkpt>
      <trkpt lat="44.00171" lon="7.25569">
        <ele>1467.214</ele>
        <time>2011-09-11T09:50:02Z</time>
      </trkpt>
      <trkpt lat="44.00177" lon="7.25566">
        <ele>1469.636</ele>
        <time>2011-09-11T09:50:10Z</time>
      </trkpt>
      <trkpt lat="44.00181" lon="7.25561">
        <ele>1471.364</ele>
        <time>2011-09-11T09:50:18Z</time>
      </trkpt>
      <trkpt lat="44.00184" lon="7.25556">
        <ele>1471.541</ele>
        <time>2011-09-11T09:50:23Z</time>
      </trkpt>
      <trkpt lat="44.00188" lon="7.25554">
        <ele>1472.592</ele>
        <time>2011-09-11T09:50:29Z</time>
      </trkpt>
      <trkpt lat="44.00191" lon="7.2555">
        <ele>1474.192</ele>
        <time>2011-09-11T09:50:36Z</time>
      </trkpt>
      <trkpt lat="44.00195" lon="7.25549">
        <ele>1475.162</ele>
        <time>2011-09-11T09:50:41Z</time>
      </trkpt>
      <trkpt lat="44.00201" lon="7.25545">
        <ele>1476.186</ele>
        <time>2011-09-11T09:50:49Z</time>
      </trkpt>
      <trkpt lat="44.00205" lon="7.25544">
        <ele>1477.093</ele>
        <time>2011-09-11T09:50:54Z</time>
      </trkpt>
      <trkpt lat="44.00211" lon="7.25537">
        <ele>1473.986</ele>
        <time>2011-09-11T09:51:01Z</time>
      </trkpt>
      <trkpt lat="44.00212" lon="7.25537">
        <ele>1471.83</ele>
        <time>2011-09-11T09:51:07Z</time>
      </trkpt>
      <trkpt lat="44.00217" lon="7.25533">
        <ele>1470.214</ele>
        <time>2011-09-11T09:51:16Z</time>
      </trkpt>
      <trkpt lat="44.00225" lon="7.25523">
        <ele>1475.135</ele>
        <time>2011-09-11T09:51:24Z</time>
      </trkpt>
      <trkpt lat="44.00228" lon="7.25518">
        <ele>1478.346</ele>
        <time>2011-09-11T09:51:29Z</time>
      </trkpt>
      <trkpt lat="44.00235" lon="7.25503">
        <ele>1476.469</ele>
        <time>2011-09-11T09:51:35Z</time>
      </trkpt>
      <trkpt lat="44.00237" lon="7.25499">
        <ele>1476.508</ele>
        <time>2011-09-11T09:51:37Z</time>
      </trkpt>
      <trkpt lat="44.00242" lon="7.25485">
        <ele>1479.517</ele>
        <time>2011-09-11T09:51:45Z</time>
      </trkpt>
      <trkpt lat="44.00246" lon="7.2548">
        <ele>1480.87</ele>
        <time>2011-09-11T09:51:49Z</time>
      </trkpt>
      <trkpt lat="44.00252" lon="7.25476">
        <ele>1486.876</ele>
        <time>2011-09-11T09:51:55Z</time>
      </trkpt>
      <trkpt lat="44.00254" lon="7.25471">
        <ele>1487.667</ele>
        <time>2011-09-11T09:52:00Z</time>
      </trkpt>
      <trkpt lat="44.00257" lon="7.25467">
        <ele>1488.363</ele>
        <time>2011-09-11T09:52:08Z</time>
      </trkpt>
      <trkpt lat="44.0026" lon="7.25467">
        <ele>1490.023</ele>
        <time>2011-09-11T09:52:13Z</time>
      </trkpt>
      <trkpt lat="44.00264" lon="7.25462">
        <ele>1492.008</ele>
        <time>2011-09-11T09:52:19Z</time>
      </trkpt>
      <trkpt lat="44.00268" lon="7.25455">
        <ele>1490.944</ele>
        <time>2011-09-11T09:52:25Z</time>
      </trkpt>
      <trkpt lat="44.0027" lon="7.25452">
        <ele>1491.176</ele>
        <time>2011-09-11T09:52:29Z</time>
      </trkpt>
      <trkpt lat="44.00275" lon="7.25447">
        <ele>1492.515</ele>
        <time>2011-09-11T09:52:36Z</time>
      </trkpt>
      <trkpt lat="44.00278" lon="7.25443">
        <ele>1491.366</ele>
        <time>2011-09-11T09:52:44Z</time>
      </trkpt>
      <trkpt lat="44.0028" lon="7.2544">
        <ele>1494.194</ele>
        <time>2011-09-11T09:52:49Z</time>
      </trkpt>
      <trkpt lat="44.00283" lon="7.25431">
        <ele>1492.604</ele>
        <time>2011-09-11T09:52:56Z</time>
      </trkpt>
      <trkpt lat="44.00285" lon="7.2542">
        <ele>1495.014</ele>
        <time>2011-09-11T09:53:04Z</time>
      </trkpt>
      <trkpt lat="44.00287" lon="7.25416">
        <ele>1497.033</ele>
        <time>2011-09-11T09:53:10Z</time>
      </trkpt>
      <trkpt lat="44.0029" lon="7.25415">
        <ele>1498.762</ele>
        <time>2011-09-11T09:53:24Z</time>
      </trkpt>
      <trkpt lat="44.00291" lon="7.2541">
        <ele>1497.6</ele>
        <time>2011-09-11T09:53:28Z</time>
      </trkpt>
      <trkpt lat="44.00293" lon="7.25401">
        <ele>1496.48</ele>
        <time>2011-09-11T09:53:34Z</time>
      </trkpt>
      <trkpt lat="44.00293" lon="7.25399">
        <ele>1495.549</ele>
        <time>2011-09-11T09:53:35Z</time>
      </trkpt>
      <trkpt lat="44.00295" lon="7.25392">
        <ele>1496.11</ele>
        <time>2011-09-11T09:53:41Z</time>
      </trkpt>
      <trkpt lat="44.00295" lon="7.25386">
        <ele>1496.84</ele>
        <time>2011-09-11T09:53:47Z</time>
      </trkpt>
      <trkpt lat="44.00298" lon="7.2538">
        <ele>1498.352</ele>
        <time>2011-09-11T09:53:55Z</time>
      </trkpt>
      <trkpt lat="44.00301" lon="7.25375">
        <ele>1501.052</ele>
        <time>2011-09-11T09:54:02Z</time>
      </trkpt>
      <trkpt lat="44.00304" lon="7.25373">
        <ele>1505.744</ele>
        <time>2011-09-11T09:54:10Z</time>
      </trkpt>
      <trkpt lat="44.00307" lon="7.25371">
        <ele>1508.594</ele>
        <time>2011-09-11T09:54:17Z</time>
      </trkpt>
      <trkpt lat="44.0031" lon="7.25367">
        <ele>1506.921</ele>
        <time>2011-09-11T09:54:23Z</time>
      </trkpt>
      <trkpt lat="44.00313" lon="7.25368">
        <ele>1505.722</ele>
        <time>2011-09-11T09:54:28Z</time>
      </trkpt>
      <trkpt lat="44.00315" lon="7.25365">
        <ele>1505.861</ele>
        <time>2011-09-11T09:54:33Z</time>
      </trkpt>
      <trkpt lat="44.00307" lon="7.25361">
        <ele>1506.42</ele>
        <time>2011-09-11T09:54:41Z</time>
      </trkpt>
      <trkpt lat="44.00308" lon="7.25355">
        <ele>1503.52</ele>
        <time>2011-09-11T09:54:48Z</time>
      </trkpt>
      <trkpt lat="44.00311" lon="7.25354">
        <ele>1505.971</ele>
        <time>2011-09-11T09:54:54Z</time>
      </trkpt>
      <trkpt lat="44.0032" lon="7.25351">
        <ele>1508.773</ele>
        <time>2011-09-11T09:55:03Z</time>
      </trkpt>
      <trkpt lat="44.00326" lon="7.25347">
        <ele>1508.943</ele>
        <time>2011-09-11T09:55:11Z</time>
      </trkpt>
      <trkpt lat="44.00331" lon="7.25343">
        <ele>1510.823</ele>
        <time>2011-09-11T09:55:20Z</time>
      </trkpt>
      <trkpt lat="44.00335" lon="7.25339">
        <ele>1514.263</ele>
        <time>2011-09-11T09:55:27Z</time>
      </trkpt>
      <trkpt lat="44.00342" lon="7.25336">
        <ele>1516.062</ele>
        <time>2011-09-11T09:55:35Z</time>
      </trkpt>
      <trkpt lat="44.00348" lon="7.25333">
        <ele>1516.332</ele>
        <time>2011-09-11T09:55:43Z</time>
      </trkpt>
      <trkpt lat="44.00354" lon="7.25329">
        <ele>1518.763</ele>
        <time>2011-09-11T09:55:51Z</time>
      </trkpt>
      <trkpt lat="44.0036" lon="7.25326">
        <ele>1519.723</ele>
        <time>2011-09-11T09:55:59Z</time>
      </trkpt>
      <trkpt lat="44.00363" lon="7.25322">
        <ele>1521.564</ele>
        <time>2011-09-11T09:56:05Z</time>
      </trkpt>
      <trkpt lat="44.00365" lon="7.2532">
        <ele>1521.333</ele>
        <time>2011-09-11T09:56:07Z</time>
      </trkpt>
      <trkpt lat="44.00367" lon="7.25318">
        <ele>1521.002</ele>
        <time>2011-09-11T09:56:10Z</time>
      </trkpt>
      <trkpt lat="44.00372" lon="7.25311">
        <ele>1520.39</ele>
        <time>2011-09-11T09:56:18Z</time>
      </trkpt>
      <trkpt lat="44.00376" lon="7.25304">
        <ele>1518.339</ele>
        <time>2011-09-11T09:56:26Z</time>
      </trkpt>
      <trkpt lat="44.00377" lon="7.25301">
        <ele>1518.77</ele>
        <time>2011-09-11T09:56:28Z</time>
      </trkpt>
      <trkpt lat="44.0038" lon="7.25296">
        <ele>1518.981</ele>
        <time>2011-09-11T09:56:34Z</time>
      </trkpt>
      <trkpt lat="44.00384" lon="7.2529">
        <ele>1517.25</ele>
        <time>2011-09-11T09:56:41Z</time>
      </trkpt>
      <trkpt lat="44.00384" lon="7.25287">
        <ele>1519.692</ele>
        <time>2011-09-11T09:56:48Z</time>
      </trkpt>
      <trkpt lat="44.00388" lon="7.25284">
        <ele>1534.875</ele>
        <time>2011-09-11T09:57:43Z</time>
      </trkpt>
      <trkpt lat="44.00389" lon="7.2528">
        <ele>1533.352</ele>
        <time>2011-09-11T09:57:50Z</time>
      </trkpt>
      <trkpt lat="44.0039" lon="7.25277">
        <ele>1531.622</ele>
        <time>2011-09-11T09:57:55Z</time>
      </trkpt>
      <trkpt lat="44.00393" lon="7.25275">
        <ele>1530.451</ele>
        <time>2011-09-11T09:57:59Z</time>
      </trkpt>
      <trkpt lat="44.00398" lon="7.25271">
        <ele>1527.34</ele>
        <time>2011-09-11T09:58:07Z</time>
      </trkpt>
      <trkpt lat="44.00404" lon="7.25271">
        <ele>1530.565</ele>
        <time>2011-09-11T09:58:13Z</time>
      </trkpt>
      <trkpt lat="44.00412" lon="7.25269">
        <ele>1533.116</ele>
        <time>2011-09-11T09:58:18Z</time>
      </trkpt>
      <trkpt lat="44.00423" lon="7.25268">
        <ele>1535.406</ele>
        <time>2011-09-11T09:58:25Z</time>
      </trkpt>
      <trkpt lat="44.00431" lon="7.25268">
        <ele>1538.408</ele>
        <time>2011-09-11T09:58:31Z</time>
      </trkpt>
      <trkpt lat="44.00437" lon="7.25268">
        <ele>1538.976</ele>
        <time>2011-09-11T09:58:37Z</time>
      </trkpt>
      <trkpt lat="44.00443" lon="7.25266">
        <ele>1539.133</ele>
        <time>2011-09-11T09:58:45Z</time>
      </trkpt>
      <trkpt lat="44.00447" lon="7.25266">
        <ele>1537.101</ele>
        <time>2011-09-11T09:58:51Z</time>
      </trkpt>
      <trkpt lat="44.00455" lon="7.25265">
        <ele>1537.012</ele>
        <time>2011-09-11T09:59:00Z</time>
      </trkpt>
      <trkpt lat="44.00458" lon="7.25265">
        <ele>1538.292</ele>
        <time>2011-09-11T09:59:05Z</time>
      </trkpt>
      <trkpt lat="44.00468" lon="7.25264">
        <ele>1541.435</ele>
        <time>2011-09-11T09:59:14Z</time>
      </trkpt>
      <trkpt lat="44.00469" lon="7.25264">
        <ele>1542.015</ele>
        <time>2011-09-11T09:59:15Z</time>
      </trkpt>
      <trkpt lat="44.00475" lon="7.25262">
        <ele>1543.834</ele>
        <time>2011-09-11T09:59:22Z</time>
      </trkpt>
      <trkpt lat="44.00482" lon="7.25259">
        <ele>1547.184</ele>
        <time>2011-09-11T09:59:30Z</time>
      </trkpt>
      <trkpt lat="44.00483" lon="7.25258">
        <ele>1548.124</ele>
        <time>2011-09-11T09:59:32Z</time>
      </trkpt>
      <trkpt lat="44.00487" lon="7.25259">
        <ele>1549.775</ele>
        <time>2011-09-11T09:59:35Z</time>
      </trkpt>
      <trkpt lat="44.00491" lon="7.25257">
        <ele>1551.966</ele>
        <time>2011-09-11T09:59:40Z</time>
      </trkpt>
      <trkpt lat="44.00502" lon="7.25254">
        <ele>1553.137</ele>
        <time>2011-09-11T09:59:49Z</time>
      </trkpt>
      <trkpt lat="44.00507" lon="7.25253">
        <ele>1555.275</ele>
        <time>2011-09-11T09:59:55Z</time>
      </trkpt>
      <trkpt lat="44.00513" lon="7.25251">
        <ele>1555.323</ele>
        <time>2011-09-11T10:00:00Z</time>
      </trkpt>
      <trkpt lat="44.00523" lon="7.25246">
        <ele>1556.284</ele>
        <time>2011-09-11T10:00:09Z</time>
      </trkpt>
      <trkpt lat="44.00529" lon="7.25243">
        <ele>1554.822</ele>
        <time>2011-09-11T10:00:13Z</time>
      </trkpt>
      <trkpt lat="44.0054" lon="7.25238">
        <ele>1553.331</ele>
        <time>2011-09-11T10:00:22Z</time>
      </trkpt>
      <trkpt lat="44.00549" lon="7.25234">
        <ele>1558.907</ele>
        <time>2011-09-11T10:00:30Z</time>
      </trkpt>
      <trkpt lat="44.00556" lon="7.25232">
        <ele>1564.897</ele>
        <time>2011-09-11T10:00:38Z</time>
      </trkpt>
      <trkpt lat="44.00562" lon="7.25226">
        <ele>1565.876</ele>
        <time>2011-09-11T10:00:46Z</time>
      </trkpt>
      <trkpt lat="44.00567" lon="7.25223">
        <ele>1570.099</ele>
        <time>2011-09-11T10:00:53Z</time>
      </trkpt>
      <trkpt lat="44.00568" lon="7.25224">
        <ele>1574.35</ele>
        <time>2011-09-11T10:00:58Z</time>
      </trkpt>
      <trkpt lat="44.00572" lon="7.25224">
        <ele>1572.246</ele>
        <time>2011-09-11T10:01:04Z</time>
      </trkpt>
      <trkpt lat="44.00577" lon="7.25227">
        <ele>1570.822</ele>
        <time>2011-09-11T10:01:10Z</time>
      </trkpt>
      <trkpt lat="44.00579" lon="7.25228">
        <ele>1569.402</ele>
        <time>2011-09-11T10:01:12Z</time>
      </trkpt>
      <trkpt lat="44.00586" lon="7.25228">
        <ele>1568.354</ele>
        <time>2011-09-11T10:01:18Z</time>
      </trkpt>
      <trkpt lat="44.00589" lon="7.25228">
        <ele>1568.094</ele>
        <time>2011-09-11T10:01:21Z</time>
      </trkpt>
      <trkpt lat="44.00595" lon="7.25236">
        <ele>1569.346</ele>
        <time>2011-09-11T10:01:30Z</time>
      </trkpt>
      <trkpt lat="44.00601" lon="7.25241">
        <ele>1576.289</ele>
        <time>2011-09-11T10:01:38Z</time>
      </trkpt>
      <trkpt lat="44.00605" lon="7.25243">
        <ele>1577.729</ele>
        <time>2011-09-11T10:01:44Z</time>
      </trkpt>
      <trkpt lat="44.00606" lon="7.25244">
        <ele>1577.566</ele>
        <time>2011-09-11T10:01:45Z</time>
      </trkpt>
      <trkpt lat="44.0061" lon="7.25249">
        <ele>1579.571</ele>
        <time>2011-09-11T10:01:49Z</time>
      </trkpt>
      <trkpt lat="44.00618" lon="7.25255">
        <ele>1575.483</ele>
        <time>2011-09-11T10:01:57Z</time>
      </trkpt>
      <trkpt lat="44.0062" lon="7.25258">
        <ele>1575.425</ele>
        <time>2011-09-11T10:02:00Z</time>
      </trkpt>
      <trkpt lat="44.00629" lon="7.25259">
        <ele>1575.525</ele>
        <time>2011-09-11T10:02:08Z</time>
      </trkpt>
      <trkpt lat="44.00639" lon="7.25257">
        <ele>1567.034</ele>
        <time>2011-09-11T10:02:31Z</time>
      </trkpt>
      <trkpt lat="44.00649" lon="7.25252">
        <ele>1568.474</ele>
        <time>2011-09-11T10:02:37Z</time>
      </trkpt>
      <trkpt lat="44.00662" lon="7.25247">
        <ele>1568.415</ele>
        <time>2011-09-11T10:02:44Z</time>
      </trkpt>
      <trkpt lat="44.00674" lon="7.2525">
        <ele>1572.188</ele>
        <time>2011-09-11T10:02:50Z</time>
      </trkpt>
      <trkpt lat="44.00686" lon="7.25248">
        <ele>1573.106</ele>
        <time>2011-09-11T10:02:55Z</time>
      </trkpt>
      <trkpt lat="44.00688" lon="7.25248">
        <ele>1573.266</ele>
        <time>2011-09-11T10:02:56Z</time>
      </trkpt>
      <trkpt lat="44.00699" lon="7.2525">
        <ele>1570.572</ele>
        <time>2011-09-11T10:03:02Z</time>
      </trkpt>
      <trkpt lat="44.0071" lon="7.25258">
        <ele>1575.956</ele>
        <time>2011-09-11T10:03:09Z</time>
      </trkpt>
      <trkpt lat="44.00721" lon="7.25262">
        <ele>1577.076</ele>
        <time>2011-09-11T10:03:15Z</time>
      </trkpt>
      <trkpt lat="44.00729" lon="7.25265">
        <ele>1576.673</ele>
        <time>2011-09-11T10:03:21Z</time>
      </trkpt>
      <trkpt lat="44.00732" lon="7.25265">
        <ele>1574.272</ele>
        <time>2011-09-11T10:03:27Z</time>
      </trkpt>
      <trkpt lat="44.00739" lon="7.25262">
        <ele>1564.139</ele>
        <time>2011-09-11T10:03:37Z</time>
      </trkpt>
      <trkpt lat="44.00743" lon="7.25261">
        <ele>1561.689</ele>
        <time>2011-09-11T10:03:43Z</time>
      </trkpt>
      <trkpt lat="44.00747" lon="7.25264">
        <ele>1562.791</ele>
        <time>2011-09-11T10:03:48Z</time>
      </trkpt>
      <trkpt lat="44.00752" lon="7.25266">
        <ele>1564.852</ele>
        <time>2011-09-11T10:03:56Z</time>
      </trkpt>
      <trkpt lat="44.00755" lon="7.25272">
        <ele>1568.917</ele>
        <time>2011-09-11T10:04:03Z</time>
      </trkpt>
      <trkpt lat="44.00757" lon="7.25274">
        <ele>1575.429</ele>
        <time>2011-09-11T10:04:08Z</time>
      </trkpt>
      <trkpt lat="44.00762" lon="7.2528">
        <ele>1585.945</ele>
        <time>2011-09-11T10:04:17Z</time>
      </trkpt>
      <trkpt lat="44.00766" lon="7.25281">
        <ele>1582.907</ele>
        <time>2011-09-11T10:04:22Z</time>
      </trkpt>
      <trkpt lat="44.00774" lon="7.25283">
        <ele>1583.024</ele>
        <time>2011-09-11T10:04:30Z</time>
      </trkpt>
      <trkpt lat="44.00782" lon="7.25285">
        <ele>1580.643</ele>
        <time>2011-09-11T10:04:38Z</time>
      </trkpt>
      <trkpt lat="44.00788" lon="7.25287">
        <ele>1581.726</ele>
        <time>2011-09-11T10:04:44Z</time>
      </trkpt>
      <trkpt lat="44.00798" lon="7.25291">
        <ele>1589.929</ele>
        <time>2011-09-11T10:04:52Z</time>
      </trkpt>
      <trkpt lat="44.00803" lon="7.25292">
        <ele>1593.588</ele>
        <time>2011-09-11T10:04:58Z</time>
      </trkpt>
      <trkpt lat="44.0081" lon="7.25291">
        <ele>1590.713</ele>
        <time>2011-09-11T10:05:05Z</time>
      </trkpt>
      <trkpt lat="44.00818" lon="7.25291">
        <ele>1590.123</ele>
        <time>2011-09-11T10:05:12Z</time>
      </trkpt>
      <trkpt lat="44.00821" lon="7.2529">
        <ele>1589.307</ele>
        <time>2011-09-11T10:05:15Z</time>
      </trkpt>
      <trkpt lat="44.00826" lon="7.25293">
        <ele>1587.32</ele>
        <time>2011-09-11T10:05:22Z</time>
      </trkpt>
      <trkpt lat="44.00834" lon="7.25293">
        <ele>1588.833</ele>
        <time>2011-09-11T10:05:30Z</time>
      </trkpt>
      <trkpt lat="44.00835" lon="7.25293">
        <ele>1589.424</ele>
        <time>2011-09-11T10:05:31Z</time>
      </trkpt>
      <trkpt lat="44.00839" lon="7.25289">
        <ele>1593.205</ele>
        <time>2011-09-11T10:05:36Z</time>
      </trkpt>
      <trkpt lat="44.00845" lon="7.25292">
        <ele>1597.907</ele>
        <time>2011-09-11T10:05:43Z</time>
      </trkpt>
      <trkpt lat="44.0085" lon="7.25292">
        <ele>1597.06</ele>
        <time>2011-09-11T10:05:50Z</time>
      </trkpt>
      <trkpt lat="44.0085" lon="7.25294">
        <ele>1603.453</ele>
        <time>2011-09-11T10:06:01Z</time>
      </trkpt>
      <trkpt lat="44.00851" lon="7.25295">
        <ele>1603.678</ele>
        <time>2011-09-11T10:06:02Z</time>
      </trkpt>
      <trkpt lat="44.00857" lon="7.253">
        <ele>1600.402</ele>
        <time>2011-09-11T10:06:08Z</time>
      </trkpt>
      <trkpt lat="44.00858" lon="7.253">
        <ele>1598.887</ele>
        <time>2011-09-11T10:06:09Z</time>
      </trkpt>
      <trkpt lat="44.00862" lon="7.25304">
        <ele>1600.013</ele>
        <time>2011-09-11T10:06:16Z</time>
      </trkpt>
      <trkpt lat="44.00864" lon="7.25312">
        <ele>1607.9</ele>
        <time>2011-09-11T10:06:22Z</time>
      </trkpt>
      <trkpt lat="44.0087" lon="7.25321">
        <ele>1608.47</ele>
        <time>2011-09-11T10:06:28Z</time>
      </trkpt>
      <trkpt lat="44.00877" lon="7.25324">
        <ele>1606.868</ele>
        <time>2011-09-11T10:06:34Z</time>
      </trkpt>
      <trkpt lat="44.00877" lon="7.25325">
        <ele>1608.183</ele>
        <time>2011-09-11T10:06:35Z</time>
      </trkpt>
      <trkpt lat="44.00883" lon="7.25331">
        <ele>1604.092</ele>
        <time>2011-09-11T10:06:42Z</time>
      </trkpt>
      <trkpt lat="44.00884" lon="7.25333">
        <ele>1598.277</ele>
        <time>2011-09-11T10:06:45Z</time>
      </trkpt>
      <trkpt lat="44.00888" lon="7.25338">
        <ele>1593.981</ele>
        <time>2011-09-11T10:06:53Z</time>
      </trkpt>
      <trkpt lat="44.00889" lon="7.25342">
        <ele>1593.601</ele>
        <time>2011-09-11T10:07:01Z</time>
      </trkpt>
      <trkpt lat="44.00893" lon="7.25352">
        <ele>1593.421</ele>
        <time>2011-09-11T10:07:09Z</time>
      </trkpt>
      <trkpt lat="44.00899" lon="7.25358">
        <ele>1597.054</ele>
        <time>2011-09-11T10:07:16Z</time>
      </trkpt>
      <trkpt lat="44.00901" lon="7.2536">
        <ele>1597.512</ele>
        <time>2011-09-11T10:07:26Z</time>
      </trkpt>
      <trkpt lat="44.00905" lon="7.25357">
        <ele>1597.772</ele>
        <time>2011-09-11T10:08:25Z</time>
      </trkpt>
      <trkpt lat="44.00904" lon="7.25356">
        <ele>1603.402</ele>
        <time>2011-09-11T10:09:28Z</time>
      </trkpt>
      <trkpt lat="44.00905" lon="7.25339">
        <ele>1604.182</ele>
        <time>2011-09-11T10:09:35Z</time>
      </trkpt>
      <trkpt lat="44.00905" lon="7.25322">
        <ele>1604.533</ele>
        <time>2011-09-11T10:09:42Z</time>
      </trkpt>
      <trkpt lat="44.00903" lon="7.25313">
        <ele>1603.351</ele>
        <time>2011-09-11T10:09:46Z</time>
      </trkpt>
      <trkpt lat="44.00894" lon="7.25304">
        <ele>1609.876</ele>
        <time>2011-09-11T10:09:52Z</time>
      </trkpt>
      <trkpt lat="44.0089" lon="7.253">
        <ele>1610.587</ele>
        <time>2011-09-11T10:09:55Z</time>
      </trkpt>
      <trkpt lat="44.00888" lon="7.25292">
        <ele>1611.546</ele>
        <time>2011-09-11T10:09:59Z</time>
      </trkpt>
      <trkpt lat="44.00881" lon="7.25281">
        <ele>1619.79</ele>
        <time>2011-09-11T10:10:05Z</time>
      </trkpt>
      <trkpt lat="44.00875" lon="7.25274">
        <ele>1626.743</ele>
        <time>2011-09-11T10:10:10Z</time>
      </trkpt>
      <trkpt lat="44.00872" lon="7.25268">
        <ele>1629.393</ele>
        <time>2011-09-11T10:10:16Z</time>
      </trkpt>
      <trkpt lat="44.00872" lon="7.25264">
        <ele>1628.206</ele>
        <time>2011-09-11T10:10:22Z</time>
      </trkpt>
      <trkpt lat="44.00871" lon="7.25259">
        <ele>1629.314</ele>
        <time>2011-09-11T10:10:28Z</time>
      </trkpt>
      <trkpt lat="44.0087" lon="7.25255">
        <ele>1630.193</ele>
        <time>2011-09-11T10:10:34Z</time>
      </trkpt>
      <trkpt lat="44.00865" lon="7.25249">
        <ele>1629.252</ele>
        <time>2011-09-11T10:10:41Z</time>
      </trkpt>
      <trkpt lat="44.00863" lon="7.25241">
        <ele>1626.752</ele>
        <time>2011-09-11T10:10:48Z</time>
      </trkpt>
      <trkpt lat="44.00858" lon="7.25236">
        <ele>1629.352</ele>
        <time>2011-09-11T10:10:56Z</time>
      </trkpt>
      <trkpt lat="44.00853" lon="7.25232">
        <ele>1626.652</ele>
        <time>2011-09-11T10:11:04Z</time>
      </trkpt>
      <trkpt lat="44.00851" lon="7.25226">
        <ele>1627.291</ele>
        <time>2011-09-11T10:11:10Z</time>
      </trkpt>
      <trkpt lat="44.00847" lon="7.25224">
        <ele>1632.084</ele>
        <time>2011-09-11T10:11:17Z</time>
      </trkpt>
      <trkpt lat="44.00845" lon="7.25223">
        <ele>1630.771</ele>
        <time>2011-09-11T10:11:21Z</time>
      </trkpt>
      <trkpt lat="44.00843" lon="7.25221">
        <ele>1631.362</ele>
        <time>2011-09-11T10:11:27Z</time>
      </trkpt>
      <trkpt lat="44.00841" lon="7.25219">
        <ele>1632.043</ele>
        <time>2011-09-11T10:11:32Z</time>
      </trkpt>
      <trkpt lat="44.00835" lon="7.25217">
        <ele>1636.375</ele>
        <time>2011-09-11T10:11:41Z</time>
      </trkpt>
      <trkpt lat="44.00831" lon="7.25217">
        <ele>1639.727</ele>
        <time>2011-09-11T10:11:46Z</time>
      </trkpt>
      <trkpt lat="44.00823" lon="7.25212">
        <ele>1637.15</ele>
        <time>2011-09-11T10:11:53Z</time>
      </trkpt>
      <trkpt lat="44.00819" lon="7.25208">
        <ele>1641.814</ele>
        <time>2011-09-11T10:12:03Z</time>
      </trkpt>
      <trkpt lat="44.00817" lon="7.25204">
        <ele>1639.682</ele>
        <time>2011-09-11T10:12:06Z</time>
      </trkpt>
      <trkpt lat="44.00808" lon="7.25197">
        <ele>1635.771</ele>
        <time>2011-09-11T10:12:14Z</time>
      </trkpt>
      <trkpt lat="44.00797" lon="7.25188">
        <ele>1634.43</ele>
        <time>2011-09-11T10:12:23Z</time>
      </trkpt>
      <trkpt lat="44.00791" lon="7.25185">
        <ele>1634.121</ele>
        <time>2011-09-11T10:12:28Z</time>
      </trkpt>
      <trkpt lat="44.00785" lon="7.25177">
        <ele>1635.433</ele>
        <time>2011-09-11T10:12:34Z</time>
      </trkpt>
      <trkpt lat="44.00777" lon="7.25168">
        <ele>1638.606</ele>
        <time>2011-09-11T10:12:41Z</time>
      </trkpt>
      <trkpt lat="44.00772" lon="7.25157">
        <ele>1641.137</ele>
        <time>2011-09-11T10:12:47Z</time>
      </trkpt>
      <trkpt lat="44.00762" lon="7.25147">
        <ele>1642.274</ele>
        <time>2011-09-11T10:12:54Z</time>
      </trkpt>
      <trkpt lat="44.00756" lon="7.25139">
        <ele>1642.101</ele>
        <time>2011-09-11T10:13:00Z</time>
      </trkpt>
      <trkpt lat="44.00747" lon="7.2513">
        <ele>1645.143</ele>
        <time>2011-09-11T10:13:08Z</time>
      </trkpt>
      <trkpt lat="44.00738" lon="7.25121">
        <ele>1645.502</ele>
        <time>2011-09-11T10:13:15Z</time>
      </trkpt>
      <trkpt lat="44.00729" lon="7.25114">
        <ele>1643.251</ele>
        <time>2011-09-11T10:13:22Z</time>
      </trkpt>
      <trkpt lat="44.00724" lon="7.25108">
        <ele>1644.433</ele>
        <time>2011-09-11T10:13:28Z</time>
      </trkpt>
      <trkpt lat="44.00718" lon="7.251">
        <ele>1648.465</ele>
        <time>2011-09-11T10:13:35Z</time>
      </trkpt>
      <trkpt lat="44.00712" lon="7.25091">
        <ele>1650.886</ele>
        <time>2011-09-11T10:13:42Z</time>
      </trkpt>
      <trkpt lat="44.00704" lon="7.25082">
        <ele>1649.783</ele>
        <time>2011-09-11T10:13:49Z</time>
      </trkpt>
      <trkpt lat="44.00699" lon="7.25078">
        <ele>1653.024</ele>
        <time>2011-09-11T10:13:54Z</time>
      </trkpt>
      <trkpt lat="44.00696" lon="7.25078">
        <ele>1655.145</ele>
        <time>2011-09-11T10:13:57Z</time>
      </trkpt>
      <trkpt lat="44.00689" lon="7.25073">
        <ele>1653.662</ele>
        <time>2011-09-11T10:14:03Z</time>
      </trkpt>
      <trkpt lat="44.00684" lon="7.25064">
        <ele>1654.063</ele>
        <time>2011-09-11T10:14:11Z</time>
      </trkpt>
      <trkpt lat="44.00683" lon="7.25062">
        <ele>1654.353</ele>
        <time>2011-09-11T10:14:12Z</time>
      </trkpt>
      <trkpt lat="44.00679" lon="7.25056">
        <ele>1656.032</ele>
        <time>2011-09-11T10:14:16Z</time>
      </trkpt>
      <trkpt lat="44.00674" lon="7.25038">
        <ele>1645.844</ele>
        <time>2011-09-11T10:14:25Z</time>
      </trkpt>
      <trkpt lat="44.00669" lon="7.25027">
        <ele>1647.929</ele>
        <time>2011-09-11T10:14:32Z</time>
      </trkpt>
      <trkpt lat="44.00666" lon="7.2502">
        <ele>1648.951</ele>
        <time>2011-09-11T10:14:35Z</time>
      </trkpt>
      <trkpt lat="44.00663" lon="7.25016">
        <ele>1652.292</ele>
        <time>2011-09-11T10:14:41Z</time>
      </trkpt>
      <trkpt lat="44.0066" lon="7.25012">
        <ele>1655.716</ele>
        <time>2011-09-11T10:14:56Z</time>
      </trkpt>
      <trkpt lat="44.00661" lon="7.25005">
        <ele>1655.753</ele>
        <time>2011-09-11T10:15:03Z</time>
      </trkpt>
      <trkpt lat="44.00661" lon="7.24999">
        <ele>1656.353</ele>
        <time>2011-09-11T10:15:07Z</time>
      </trkpt>
      <trkpt lat="44.00663" lon="7.2499">
        <ele>1658.067</ele>
        <time>2011-09-11T10:15:15Z</time>
      </trkpt>
      <trkpt lat="44.00665" lon="7.24989">
        <ele>1656.361</ele>
        <time>2011-09-11T10:15:20Z</time>
      </trkpt>
      <trkpt lat="44.00667" lon="7.24988">
        <ele>1656.265</ele>
        <time>2011-09-11T10:15:22Z</time>
      </trkpt>
      <trkpt lat="44.00669" lon="7.24984">
        <ele>1657.734</ele>
        <time>2011-09-11T10:15:26Z</time>
      </trkpt>
      <trkpt lat="44.00678" lon="7.24976">
        <ele>1662.571</ele>
        <time>2011-09-11T10:15:34Z</time>
      </trkpt>
      <trkpt lat="44.00683" lon="7.2497">
        <ele>1667.812</ele>
        <time>2011-09-11T10:15:40Z</time>
      </trkpt>
      <trkpt lat="44.00695" lon="7.24959">
        <ele>1672.069</ele>
        <time>2011-09-11T10:15:48Z</time>
      </trkpt>
      <trkpt lat="44.00705" lon="7.24952">
        <ele>1676.397</ele>
        <time>2011-09-11T10:15:54Z</time>
      </trkpt>
      <trkpt lat="44.00716" lon="7.24946">
        <ele>1679.764</ele>
        <time>2011-09-11T10:16:02Z</time>
      </trkpt>
      <trkpt lat="44.00719" lon="7.24943">
        <ele>1681.674</ele>
        <time>2011-09-11T10:16:08Z</time>
      </trkpt>
      <trkpt lat="44.0072" lon="7.24939">
        <ele>1683.103</ele>
        <time>2011-09-11T10:16:10Z</time>
      </trkpt>
      <trkpt lat="44.00728" lon="7.24928">
        <ele>1685.002</ele>
        <time>2011-09-11T10:16:18Z</time>
      </trkpt>
      <trkpt lat="44.00733" lon="7.24924">
        <ele>1686.32</ele>
        <time>2011-09-11T10:16:23Z</time>
      </trkpt>
      <trkpt lat="44.00741" lon="7.24922">
        <ele>1687.075</ele>
        <time>2011-09-11T10:16:30Z</time>
      </trkpt>
      <trkpt lat="44.00753" lon="7.24919">
        <ele>1686.41</ele>
        <time>2011-09-11T10:16:39Z</time>
      </trkpt>
      <trkpt lat="44.00761" lon="7.24918">
        <ele>1687.801</ele>
        <time>2011-09-11T10:16:47Z</time>
      </trkpt>
      <trkpt lat="44.00769" lon="7.2492">
        <ele>1689.62</ele>
        <time>2011-09-11T10:16:53Z</time>
      </trkpt>
      <trkpt lat="44.00783" lon="7.24921">
        <ele>1689.493</ele>
        <time>2011-09-11T10:17:01Z</time>
      </trkpt>
      <trkpt lat="44.00799" lon="7.24921">
        <ele>1689.176</ele>
        <time>2011-09-11T10:17:10Z</time>
      </trkpt>
      <trkpt lat="44.00812" lon="7.24923">
        <ele>1689.173</ele>
        <time>2011-09-11T10:17:18Z</time>
      </trkpt>
      <trkpt lat="44.00825" lon="7.24926">
        <ele>1691.886</ele>
        <time>2011-09-11T10:17:26Z</time>
      </trkpt>
      <trkpt lat="44.00836" lon="7.24925">
        <ele>1692.951</ele>
        <time>2011-09-11T10:17:33Z</time>
      </trkpt>
      <trkpt lat="44.00846" lon="7.24926">
        <ele>1694.259</ele>
        <time>2011-09-11T10:17:40Z</time>
      </trkpt>
      <trkpt lat="44.00855" lon="7.24929">
        <ele>1698.761</ele>
        <time>2011-09-11T10:17:47Z</time>
      </trkpt>
      <trkpt lat="44.0086" lon="7.24931">
        <ele>1713.805</ele>
        <time>2011-09-11T10:17:54Z</time>
      </trkpt>
      <trkpt lat="44.00861" lon="7.2493">
        <ele>1714.743</ele>
        <time>2011-09-11T10:17:55Z</time>
      </trkpt>
      <trkpt lat="44.00865" lon="7.2493">
        <ele>1717.402</ele>
        <time>2011-09-11T10:17:59Z</time>
      </trkpt>
      <trkpt lat="44.00871" lon="7.24929">
        <ele>1718.08</ele>
        <time>2011-09-11T10:18:04Z</time>
      </trkpt>
      <trkpt lat="44.00878" lon="7.24929">
        <ele>1715.666</ele>
        <time>2011-09-11T10:18:09Z</time>
      </trkpt>
      <trkpt lat="44.00887" lon="7.2493">
        <ele>1713.024</ele>
        <time>2011-09-11T10:18:14Z</time>
      </trkpt>
      <trkpt lat="44.00896" lon="7.24939">
        <ele>1710.654</ele>
        <time>2011-09-11T10:18:22Z</time>
      </trkpt>
      <trkpt lat="44.009" lon="7.24946">
        <ele>1706.13</ele>
        <time>2011-09-11T10:18:29Z</time>
      </trkpt>
      <trkpt lat="44.00896" lon="7.24947">
        <ele>1705.003</ele>
        <time>2011-09-11T10:20:45Z</time>
      </trkpt>
      <trkpt lat="44.00896" lon="7.24946">
        <ele>1704.852</ele>
        <time>2011-09-11T10:20:47Z</time>
      </trkpt>
      <trkpt lat="44.00897" lon="7.24933">
        <ele>1704.682</ele>
        <time>2011-09-11T10:20:54Z</time>
      </trkpt>
      <trkpt lat="44.00898" lon="7.24925">
        <ele>1702.25</ele>
        <time>2011-09-11T10:20:57Z</time>
      </trkpt>
      <trkpt lat="44.00901" lon="7.24903">
        <ele>1697.756</ele>
        <time>2011-09-11T10:21:03Z</time>
      </trkpt>
      <trkpt lat="44.00905" lon="7.24871">
        <ele>1692.175</ele>
        <time>2011-09-11T10:21:10Z</time>
      </trkpt>
      <trkpt lat="44.00907" lon="7.24843">
        <ele>1692.129</ele>
        <time>2011-09-11T10:21:16Z</time>
      </trkpt>
      <trkpt lat="44.0091" lon="7.2481">
        <ele>1693.73</ele>
        <time>2011-09-11T10:21:24Z</time>
      </trkpt>
      <trkpt lat="44.00915" lon="7.24787">
        <ele>1692.167</ele>
        <time>2011-09-11T10:21:30Z</time>
      </trkpt>
      <trkpt lat="44.00924" lon="7.24753">
        <ele>1692.747</ele>
        <time>2011-09-11T10:21:36Z</time>
      </trkpt>
      <trkpt lat="44.00926" lon="7.24733">
        <ele>1696.532</ele>
        <time>2011-09-11T10:21:39Z</time>
      </trkpt>
      <trkpt lat="44.00928" lon="7.2471">
        <ele>1693.479</ele>
        <time>2011-09-11T10:21:42Z</time>
      </trkpt>
      <trkpt lat="44.00929" lon="7.24694">
        <ele>1690.215</ele>
        <time>2011-09-11T10:21:44Z</time>
      </trkpt>
      <trkpt lat="44.00919" lon="7.24637">
        <ele>1683.029</ele>
        <time>2011-09-11T10:21:51Z</time>
      </trkpt>
      <trkpt lat="44.00913" lon="7.24596">
        <ele>1679.768</ele>
        <time>2011-09-11T10:21:56Z</time>
      </trkpt>
      <trkpt lat="44.0091" lon="7.24564">
        <ele>1674.935</ele>
        <time>2011-09-11T10:22:00Z</time>
      </trkpt>
      <trkpt lat="44.00905" lon="7.24528">
        <ele>1673.466</ele>
        <time>2011-09-11T10:22:05Z</time>
      </trkpt>
      <trkpt lat="44.00902" lon="7.2449">
        <ele>1670.828</ele>
        <time>2011-09-11T10:22:11Z</time>
      </trkpt>
      <trkpt lat="44.00903" lon="7.24462">
        <ele>1672.223</ele>
        <time>2011-09-11T10:22:16Z</time>
      </trkpt>
      <trkpt lat="44.00903" lon="7.24439">
        <ele>1672.764</ele>
        <time>2011-09-11T10:22:20Z</time>
      </trkpt>
      <trkpt lat="44.00905" lon="7.24414">
        <ele>1675.658</ele>
        <time>2011-09-11T10:22:24Z</time>
      </trkpt>
      <trkpt lat="44.00912" lon="7.24376">
        <ele>1675.628</ele>
        <time>2011-09-11T10:22:29Z</time>
      </trkpt>
      <trkpt lat="44.00914" lon="7.24369">
        <ele>1675.738</ele>
        <time>2011-09-11T10:22:30Z</time>
      </trkpt>
      <trkpt lat="44.0092" lon="7.24334">
        <ele>1685.555</ele>
        <time>2011-09-11T10:22:36Z</time>
      </trkpt>
      <trkpt lat="44.00931" lon="7.24283">
        <ele>1691.606</ele>
        <time>2011-09-11T10:22:44Z</time>
      </trkpt>
      <trkpt lat="44.00936" lon="7.24258">
        <ele>1694.674</ele>
        <time>2011-09-11T10:22:48Z</time>
      </trkpt>
      <trkpt lat="44.00938" lon="7.24244">
        <ele>1695.174</ele>
        <time>2011-09-11T10:22:50Z</time>
      </trkpt>
      <trkpt lat="44.00947" lon="7.24205">
        <ele>1696.722</ele>
        <time>2011-09-11T10:22:56Z</time>
      </trkpt>
      <trkpt lat="44.00963" lon="7.2416">
        <ele>1692.414</ele>
        <time>2011-09-11T10:23:02Z</time>
      </trkpt>
      <trkpt lat="44.00982" lon="7.24113">
        <ele>1687.062</ele>
        <time>2011-09-11T10:23:08Z</time>
      </trkpt>
      <trkpt lat="44.01001" lon="7.24063">
        <ele>1677.766</ele>
        <time>2011-09-11T10:23:14Z</time>
      </trkpt>
      <trkpt lat="44.01009" lon="7.24044">
        <ele>1674.885</ele>
        <time>2011-09-11T10:23:17Z</time>
      </trkpt>
      <trkpt lat="44.0101" lon="7.24027">
        <ele>1677.592</ele>
        <time>2011-09-11T10:23:22Z</time>
      </trkpt>
      <trkpt lat="44.01012" lon="7.24018">
        <ele>1677.271</ele>
        <time>2011-09-11T10:23:27Z</time>
      </trkpt>
      <trkpt lat="44.01011" lon="7.2402">
        <ele>1676.904</ele>
        <time>2011-09-11T10:23:30Z</time>
      </trkpt>
      <trkpt lat="44.01012" lon="7.24026">
        <ele>1674.583</ele>
        <time>2011-09-11T10:23:36Z</time>
      </trkpt>
      <trkpt lat="44.00998" lon="7.2403">
        <ele>1688.001</ele>
        <time>2011-09-11T10:54:11Z</time>
      </trkpt>
      <trkpt lat="44.00996" lon="7.24048">
        <ele>1704.356</ele>
        <time>2011-09-11T11:01:40Z</time>
      </trkpt>
      <trkpt lat="44.00988" lon="7.24057">
        <ele>1721.618</ele>
        <time>2011-09-11T11:01:45Z</time>
      </trkpt>
      <trkpt lat="44.00986" lon="7.24052">
        <ele>1720.644</ele>
        <time>2011-09-11T11:01:53Z</time>
      </trkpt>
      <trkpt lat="44.00994" lon="7.24038">
        <ele>1700.675</ele>
        <time>2011-09-11T11:02:12Z</time>
      </trkpt>
      <trkpt lat="44.00994" lon="7.24034">
        <ele>1698.465</ele>
        <time>2011-09-11T11:02:17Z</time>
      </trkpt>
      <trkpt lat="44.00984" lon="7.24045">
        <ele>1719.587</ele>
        <time>2011-09-11T11:03:21Z</time>
      </trkpt>
      <trkpt lat="44.0098" lon="7.24055">
        <ele>1731.373</ele>
        <time>2011-09-11T11:03:29Z</time>
      </trkpt>
      <trkpt lat="44.00979" lon="7.24058">
        <ele>1728.486</ele>
        <time>2011-09-11T11:03:39Z</time>
      </trkpt>
      <trkpt lat="44.00981" lon="7.24048">
        <ele>1714.771</ele>
        <time>2011-09-11T11:03:57Z</time>
      </trkpt>
      <trkpt lat="44.00981" lon="7.24052">
        <ele>1721.395</ele>
        <time>2011-09-11T11:05:35Z</time>
      </trkpt>
      <trkpt lat="44.00984" lon="7.2405">
        <ele>1715.713</ele>
        <time>2011-09-11T11:06:29Z</time>
      </trkpt>
      <trkpt lat="44.00985" lon="7.24046">
        <ele>1712.424</ele>
        <time>2011-09-11T11:06:35Z</time>
      </trkpt>
      <trkpt lat="44.00981" lon="7.2404">
        <ele>1713.94</ele>
        <time>2011-09-11T11:06:42Z</time>
      </trkpt>
      <trkpt lat="44.00985" lon="7.24037">
        <ele>1705.028</ele>
        <time>2011-09-11T11:07:10Z</time>
      </trkpt>
      <trkpt lat="44.00992" lon="7.24032">
        <ele>1703.518</ele>
        <time>2011-09-11T11:07:21Z</time>
      </trkpt>
      <trkpt lat="44.00985" lon="7.24035">
        <ele>1707.131</ele>
        <time>2011-09-11T11:07:29Z</time>
      </trkpt>
      <trkpt lat="44.00994" lon="7.24036">
        <ele>1699.799</ele>
        <time>2011-09-11T11:08:04Z</time>
      </trkpt>
      <trkpt lat="44.00993" lon="7.24028">
        <ele>1698.52</ele>
        <time>2011-09-11T11:08:10Z</time>
      </trkpt>
      <trkpt lat="44.00994" lon="7.24011">
        <ele>1697.667</ele>
        <time>2011-09-11T11:08:16Z</time>
      </trkpt>
      <trkpt lat="44.01001" lon="7.23987">
        <ele>1689.035</ele>
        <time>2011-09-11T11:08:22Z</time>
      </trkpt>
      <trkpt lat="44.01008" lon="7.23959">
        <ele>1682.173</ele>
        <time>2011-09-11T11:08:28Z</time>
      </trkpt>
      <trkpt lat="44.01008" lon="7.23927">
        <ele>1677.564</ele>
        <time>2011-09-11T11:08:34Z</time>
      </trkpt>
      <trkpt lat="44.0101" lon="7.23897">
        <ele>1676.385</ele>
        <time>2011-09-11T11:08:40Z</time>
      </trkpt>
      <trkpt lat="44.01011" lon="7.23873">
        <ele>1682.607</ele>
        <time>2011-09-11T11:08:45Z</time>
      </trkpt>
      <trkpt lat="44.01007" lon="7.23854">
        <ele>1685.592</ele>
        <time>2011-09-11T11:08:49Z</time>
      </trkpt>
      <trkpt lat="44.01002" lon="7.23819">
        <ele>1687.618</ele>
        <time>2011-09-11T11:08:55Z</time>
      </trkpt>
      <trkpt lat="44.00996" lon="7.23794">
        <ele>1694.241</ele>
        <time>2011-09-11T11:09:01Z</time>
      </trkpt>
      <trkpt lat="44.00985" lon="7.23771">
        <ele>1704.062</ele>
        <time>2011-09-11T11:09:07Z</time>
      </trkpt>
      <trkpt lat="44.0097" lon="7.23757">
        <ele>1706.697</ele>
        <time>2011-09-11T11:09:12Z</time>
      </trkpt>
      <trkpt lat="44.00954" lon="7.23743">
        <ele>1701.116</ele>
        <time>2011-09-11T11:09:17Z</time>
      </trkpt>
      <trkpt lat="44.00934" lon="7.23723">
        <ele>1704.98</ele>
        <time>2011-09-11T11:09:24Z</time>
      </trkpt>
      <trkpt lat="44.00913" lon="7.23701">
        <ele>1711.22</ele>
        <time>2011-09-11T11:09:30Z</time>
      </trkpt>
      <trkpt lat="44.00889" lon="7.23676">
        <ele>1714.996</ele>
        <time>2011-09-11T11:09:36Z</time>
      </trkpt>
      <trkpt lat="44.00879" lon="7.23668">
        <ele>1714.502</ele>
        <time>2011-09-11T11:09:38Z</time>
      </trkpt>
      <trkpt lat="44.00851" lon="7.23659">
        <ele>1708.098</ele>
        <time>2011-09-11T11:09:42Z</time>
      </trkpt>
      <trkpt lat="44.00802" lon="7.23661">
        <ele>1699.876</ele>
        <time>2011-09-11T11:09:49Z</time>
      </trkpt>
      <trkpt lat="44.00789" lon="7.23662">
        <ele>1698.836</ele>
        <time>2011-09-11T11:09:51Z</time>
      </trkpt>
      <trkpt lat="44.00769" lon="7.23669">
        <ele>1698.154</ele>
        <time>2011-09-11T11:09:54Z</time>
      </trkpt>
      <trkpt lat="44.00747" lon="7.23674">
        <ele>1699.873</ele>
        <time>2011-09-11T11:09:57Z</time>
      </trkpt>
      <trkpt lat="44.00701" lon="7.23672">
        <ele>1696.718</ele>
        <time>2011-09-11T11:10:04Z</time>
      </trkpt>
      <trkpt lat="44.00659" lon="7.23668">
        <ele>1695.177</ele>
        <time>2011-09-11T11:10:10Z</time>
      </trkpt>
      <trkpt lat="44.00624" lon="7.2366">
        <ele>1693.425</ele>
        <time>2011-09-11T11:10:16Z</time>
      </trkpt>
      <trkpt lat="44.00598" lon="7.23658">
        <ele>1700.66</ele>
        <time>2011-09-11T11:10:21Z</time>
      </trkpt>
      <trkpt lat="44.00592" lon="7.23657">
        <ele>1701.745</ele>
        <time>2011-09-11T11:10:22Z</time>
      </trkpt>
      <trkpt lat="44.00557" lon="7.23656">
        <ele>1704.443</ele>
        <time>2011-09-11T11:10:29Z</time>
      </trkpt>
      <trkpt lat="44.00536" lon="7.23651">
        <ele>1704.707</ele>
        <time>2011-09-11T11:10:34Z</time>
      </trkpt>
      <trkpt lat="44.00518" lon="7.23634">
        <ele>1702.665</ele>
        <time>2011-09-11T11:10:39Z</time>
      </trkpt>
      <trkpt lat="44.00515" lon="7.23629">
        <ele>1703.077</ele>
        <time>2011-09-11T11:10:40Z</time>
      </trkpt>
      <trkpt lat="44.00495" lon="7.23588">
        <ele>1694.369</ele>
        <time>2011-09-11T11:10:47Z</time>
      </trkpt>
      <trkpt lat="44.00494" lon="7.23583">
        <ele>1693.81</ele>
        <time>2011-09-11T11:10:48Z</time>
      </trkpt>
      <trkpt lat="44.0047" lon="7.23568">
        <ele>1701.726</ele>
        <time>2011-09-11T11:10:54Z</time>
      </trkpt>
      <trkpt lat="44.00444" lon="7.23553">
        <ele>1700.447</ele>
        <time>2011-09-11T11:11:02Z</time>
      </trkpt>
      <trkpt lat="44.00435" lon="7.23552">
        <ele>1700.628</ele>
        <time>2011-09-11T11:11:04Z</time>
      </trkpt>
      <trkpt lat="44.00411" lon="7.23548">
        <ele>1700.909</ele>
        <time>2011-09-11T11:11:09Z</time>
      </trkpt>
      <trkpt lat="44.00389" lon="7.23546">
        <ele>1705.382</ele>
        <time>2011-09-11T11:11:14Z</time>
      </trkpt>
      <trkpt lat="44.0036" lon="7.23544">
        <ele>1704.399</ele>
        <time>2011-09-11T11:11:21Z</time>
      </trkpt>
      <trkpt lat="44.00347" lon="7.23543">
        <ele>1704.439</ele>
        <time>2011-09-11T11:11:24Z</time>
      </trkpt>
      <trkpt lat="44.00318" lon="7.2354">
        <ele>1703.048</ele>
        <time>2011-09-11T11:11:31Z</time>
      </trkpt>
      <trkpt lat="44.00286" lon="7.23539">
        <ele>1707.853</ele>
        <time>2011-09-11T11:11:38Z</time>
      </trkpt>
      <trkpt lat="44.00253" lon="7.23545">
        <ele>1707.49</ele>
        <time>2011-09-11T11:11:45Z</time>
      </trkpt>
      <trkpt lat="44.00241" lon="7.23549">
        <ele>1709.45</ele>
        <time>2011-09-11T11:11:48Z</time>
      </trkpt>
      <trkpt lat="44.00222" lon="7.2355">
        <ele>1707.993</ele>
        <time>2011-09-11T11:11:54Z</time>
      </trkpt>
      <trkpt lat="44.00201" lon="7.23555">
        <ele>1713.632</ele>
        <time>2011-09-11T11:12:00Z</time>
      </trkpt>
      <trkpt lat="44.00184" lon="7.23559">
        <ele>1716.809</ele>
        <time>2011-09-11T11:12:07Z</time>
      </trkpt>
      <trkpt lat="44.00172" lon="7.2357">
        <ele>1717.75</ele>
        <time>2011-09-11T11:12:12Z</time>
      </trkpt>
      <trkpt lat="44.0016" lon="7.23579">
        <ele>1710.421</ele>
        <time>2011-09-11T11:12:18Z</time>
      </trkpt>
      <trkpt lat="44.00143" lon="7.2359">
        <ele>1707.991</ele>
        <time>2011-09-11T11:12:24Z</time>
      </trkpt>
      <trkpt lat="44.00127" lon="7.23597">
        <ele>1702.348</ele>
        <time>2011-09-11T11:12:30Z</time>
      </trkpt>
      <trkpt lat="44.0011" lon="7.23598">
        <ele>1695.414</ele>
        <time>2011-09-11T11:12:36Z</time>
      </trkpt>
      <trkpt lat="44.00093" lon="7.23608">
        <ele>1696.84</ele>
        <time>2011-09-11T11:12:42Z</time>
      </trkpt>
      <trkpt lat="44.00088" lon="7.23612">
        <ele>1699.094</ele>
        <time>2011-09-11T11:12:44Z</time>
      </trkpt>
      <trkpt lat="44.00078" lon="7.23633">
        <ele>1703.52</ele>
        <time>2011-09-11T11:12:51Z</time>
      </trkpt>
      <trkpt lat="44.00078" lon="7.23635">
        <ele>1705.042</ele>
        <time>2011-09-11T11:12:52Z</time>
      </trkpt>
      <trkpt lat="44.00071" lon="7.23648">
        <ele>1706.801</ele>
        <time>2011-09-11T11:12:58Z</time>
      </trkpt>
      <trkpt lat="44.00062" lon="7.23659">
        <ele>1704.289</ele>
        <time>2011-09-11T11:13:04Z</time>
      </trkpt>
      <trkpt lat="44.00052" lon="7.23667">
        <ele>1707.252</ele>
        <time>2011-09-11T11:13:11Z</time>
      </trkpt>
      <trkpt lat="44.00045" lon="7.23675">
        <ele>1712.654</ele>
        <time>2011-09-11T11:13:16Z</time>
      </trkpt>
      <trkpt lat="44.00039" lon="7.23692">
        <ele>1712.69</ele>
        <time>2011-09-11T11:13:23Z</time>
      </trkpt>
      <trkpt lat="44.00026" lon="7.23701">
        <ele>1714.254</ele>
        <time>2011-09-11T11:13:29Z</time>
      </trkpt>
      <trkpt lat="44.00012" lon="7.23695">
        <ele>1715.075</ele>
        <time>2011-09-11T11:13:35Z</time>
      </trkpt>
      <trkpt lat="43.99992" lon="7.23687">
        <ele>1718.526</ele>
        <time>2011-09-11T11:13:43Z</time>
      </trkpt>
      <trkpt lat="43.99978" lon="7.23684">
        <ele>1720.986</ele>
        <time>2011-09-11T11:13:49Z</time>
      </trkpt>
      <trkpt lat="43.99957" lon="7.2368">
        <ele>1727.047</ele>
        <time>2011-09-11T11:13:57Z</time>
      </trkpt>
      <trkpt lat="43.99946" lon="7.23672">
        <ele>1723.359</ele>
        <time>2011-09-11T11:14:03Z</time>
      </trkpt>
      <trkpt lat="43.99938" lon="7.23671">
        <ele>1721.945</ele>
        <time>2011-09-11T11:14:08Z</time>
      </trkpt>
      <trkpt lat="43.99924" lon="7.23668">
        <ele>1720.516</ele>
        <time>2011-09-11T11:14:15Z</time>
      </trkpt>
      <trkpt lat="43.99906" lon="7.23654">
        <ele>1722.078</ele>
        <time>2011-09-11T11:14:23Z</time>
      </trkpt>
      <trkpt lat="43.99894" lon="7.23645">
        <ele>1722.359</ele>
        <time>2011-09-11T11:14:28Z</time>
      </trkpt>
      <trkpt lat="43.99879" lon="7.23645">
        <ele>1721.428</ele>
        <time>2011-09-11T11:14:33Z</time>
      </trkpt>
      <trkpt lat="43.99876" lon="7.23646">
        <ele>1721.908</ele>
        <time>2011-09-11T11:14:34Z</time>
      </trkpt>
      <trkpt lat="43.99865" lon="7.23641">
        <ele>1715.444</ele>
        <time>2011-09-11T11:14:38Z</time>
      </trkpt>
      <trkpt lat="43.9985" lon="7.2363">
        <ele>1710.912</ele>
        <time>2011-09-11T11:14:44Z</time>
      </trkpt>
      <trkpt lat="43.99842" lon="7.23623">
        <ele>1711.926</ele>
        <time>2011-09-11T11:14:50Z</time>
      </trkpt>
      <trkpt lat="43.99841" lon="7.23623">
        <ele>1711.185</ele>
        <time>2011-09-11T11:14:51Z</time>
      </trkpt>
      <trkpt lat="43.99837" lon="7.23624">
        <ele>1710.186</ele>
        <time>2011-09-11T11:14:53Z</time>
      </trkpt>
      <trkpt lat="43.99831" lon="7.23619">
        <ele>1708.064</ele>
        <time>2011-09-11T11:14:57Z</time>
      </trkpt>
      <trkpt lat="43.99831" lon="7.2361">
        <ele>1700.338</ele>
        <time>2011-09-11T11:15:02Z</time>
      </trkpt>
      <trkpt lat="43.99831" lon="7.23609">
        <ele>1698.978</ele>
        <time>2011-09-11T11:15:03Z</time>
      </trkpt>
      <trkpt lat="43.99827" lon="7.23607">
        <ele>1697.161</ele>
        <time>2011-09-11T11:15:06Z</time>
      </trkpt>
      <trkpt lat="43.99822" lon="7.23598">
        <ele>1688.763</ele>
        <time>2011-09-11T11:15:11Z</time>
      </trkpt>
      <trkpt lat="43.99815" lon="7.23585">
        <ele>1683.693</ele>
        <time>2011-09-11T11:15:16Z</time>
      </trkpt>
      <trkpt lat="43.99813" lon="7.23583">
        <ele>1681.182</ele>
        <time>2011-09-11T11:15:19Z</time>
      </trkpt>
      <trkpt lat="43.99803" lon="7.23582">
        <ele>1679.979</ele>
        <time>2011-09-11T11:15:24Z</time>
      </trkpt>
      <trkpt lat="43.99795" lon="7.23584">
        <ele>1675.779</ele>
        <time>2011-09-11T11:15:29Z</time>
      </trkpt>
      <trkpt lat="43.99785" lon="7.23588">
        <ele>1674.791</ele>
        <time>2011-09-11T11:15:33Z</time>
      </trkpt>
      <trkpt lat="43.99772" lon="7.23596">
        <ele>1668.74</ele>
        <time>2011-09-11T11:15:39Z</time>
      </trkpt>
      <trkpt lat="43.99764" lon="7.23593">
        <ele>1669.655</ele>
        <time>2011-09-11T11:15:44Z</time>
      </trkpt>
      <trkpt lat="43.99766" lon="7.23581">
        <ele>1670.125</ele>
        <time>2011-09-11T11:15:49Z</time>
      </trkpt>
      <trkpt lat="43.99765" lon="7.23571">
        <ele>1668.515</ele>
        <time>2011-09-11T11:15:55Z</time>
      </trkpt>
      <trkpt lat="43.99763" lon="7.23568">
        <ele>1664.662</ele>
        <time>2011-09-11T11:15:59Z</time>
      </trkpt>
      <trkpt lat="43.99754" lon="7.23565">
        <ele>1669.029</ele>
        <time>2011-09-11T11:16:05Z</time>
      </trkpt>
      <trkpt lat="43.99739" lon="7.23557">
        <ele>1671.752</ele>
        <time>2011-09-11T11:16:11Z</time>
      </trkpt>
      <trkpt lat="43.99733" lon="7.23556">
        <ele>1670.818</ele>
        <time>2011-09-11T11:16:14Z</time>
      </trkpt>
      <trkpt lat="43.99731" lon="7.23549">
        <ele>1665.981</ele>
        <time>2011-09-11T11:16:21Z</time>
      </trkpt>
      <trkpt lat="43.99728" lon="7.23543">
        <ele>1665.744</ele>
        <time>2011-09-11T11:16:26Z</time>
      </trkpt>
      <trkpt lat="43.99726" lon="7.23539">
        <ele>1665.686</ele>
        <time>2011-09-11T11:16:30Z</time>
      </trkpt>
      <trkpt lat="43.99718" lon="7.23537">
        <ele>1663.322</ele>
        <time>2011-09-11T11:16:35Z</time>
      </trkpt>
      <trkpt lat="43.99714" lon="7.23525">
        <ele>1661.463</ele>
        <time>2011-09-11T11:16:40Z</time>
      </trkpt>
      <trkpt lat="43.99715" lon="7.23512">
        <ele>1660.403</ele>
        <time>2011-09-11T11:16:45Z</time>
      </trkpt>
      <trkpt lat="43.99714" lon="7.23513">
        <ele>1658.14</ele>
        <time>2011-09-11T11:16:47Z</time>
      </trkpt>
      <trkpt lat="43.99704" lon="7.23517">
        <ele>1651.005</ele>
        <time>2011-09-11T11:16:52Z</time>
      </trkpt>
      <trkpt lat="43.99695" lon="7.23515">
        <ele>1648.617</ele>
        <time>2011-09-11T11:16:56Z</time>
      </trkpt>
      <trkpt lat="43.99695" lon="7.23514">
        <ele>1647.516</ele>
        <time>2011-09-11T11:16:57Z</time>
      </trkpt>
      <trkpt lat="43.99696" lon="7.23509">
        <ele>1646.267</ele>
        <time>2011-09-11T11:16:59Z</time>
      </trkpt>
      <trkpt lat="43.99689" lon="7.23499">
        <ele>1643.845</ele>
        <time>2011-09-11T11:17:04Z</time>
      </trkpt>
      <trkpt lat="43.99677" lon="7.235">
        <ele>1642.731</ele>
        <time>2011-09-11T11:17:08Z</time>
      </trkpt>
      <trkpt lat="43.99671" lon="7.23506">
        <ele>1639.22</ele>
        <time>2011-09-11T11:17:11Z</time>
      </trkpt>
      <trkpt lat="43.99668" lon="7.23504">
        <ele>1638.09</ele>
        <time>2011-09-11T11:17:15Z</time>
      </trkpt>
      <trkpt lat="43.99663" lon="7.23494">
        <ele>1635.138</ele>
        <time>2011-09-11T11:17:20Z</time>
      </trkpt>
      <trkpt lat="43.99658" lon="7.23486">
        <ele>1636.173</ele>
        <time>2011-09-11T11:17:25Z</time>
      </trkpt>
      <trkpt lat="43.99658" lon="7.2348">
        <ele>1631.398</ele>
        <time>2011-09-11T11:17:29Z</time>
      </trkpt>
      <trkpt lat="43.99637" lon="7.23486">
        <ele>1630.493</ele>
        <time>2011-09-11T11:17:36Z</time>
      </trkpt>
      <trkpt lat="43.99622" lon="7.23492">
        <ele>1626.6</ele>
        <time>2011-09-11T11:17:41Z</time>
      </trkpt>
      <trkpt lat="43.9962" lon="7.2349">
        <ele>1624.17</ele>
        <time>2011-09-11T11:17:44Z</time>
      </trkpt>
      <trkpt lat="43.99623" lon="7.23475">
        <ele>1618.976</ele>
        <time>2011-09-11T11:17:50Z</time>
      </trkpt>
      <trkpt lat="43.99621" lon="7.23475">
        <ele>1616.886</ele>
        <time>2011-09-11T11:17:51Z</time>
      </trkpt>
      <trkpt lat="43.9961" lon="7.23474">
        <ele>1615.528</ele>
        <time>2011-09-11T11:17:57Z</time>
      </trkpt>
      <trkpt lat="43.99603" lon="7.23456">
        <ele>1612.227</ele>
        <time>2011-09-11T11:18:02Z</time>
      </trkpt>
      <trkpt lat="43.99598" lon="7.23448">
        <ele>1605.293</ele>
        <time>2011-09-11T11:18:06Z</time>
      </trkpt>
      <trkpt lat="43.99587" lon="7.23444">
        <ele>1598.071</ele>
        <time>2011-09-11T11:18:11Z</time>
      </trkpt>
      <trkpt lat="43.99575" lon="7.23443">
        <ele>1595.603</ele>
        <time>2011-09-11T11:18:14Z</time>
      </trkpt>
      <trkpt lat="43.99556" lon="7.23444">
        <ele>1592.376</ele>
        <time>2011-09-11T11:18:18Z</time>
      </trkpt>
      <trkpt lat="43.99533" lon="7.23449">
        <ele>1588.774</ele>
        <time>2011-09-11T11:18:22Z</time>
      </trkpt>
      <trkpt lat="43.99529" lon="7.2345">
        <ele>1587.864</ele>
        <time>2011-09-11T11:18:23Z</time>
      </trkpt>
      <trkpt lat="43.99524" lon="7.23448">
        <ele>1586.247</ele>
        <time>2011-09-11T11:18:27Z</time>
      </trkpt>
      <trkpt lat="43.99528" lon="7.23444">
        <ele>1600.465</ele>
        <time>2011-09-11T11:19:29Z</time>
      </trkpt>
      <trkpt lat="43.99526" lon="7.23444">
        <ele>1596.363</ele>
        <time>2011-09-11T11:19:35Z</time>
      </trkpt>
      <trkpt lat="43.99531" lon="7.23435">
        <ele>1594.684</ele>
        <time>2011-09-11T11:19:40Z</time>
      </trkpt>
      <trkpt lat="43.99534" lon="7.23424">
        <ele>1593.745</ele>
        <time>2011-09-11T11:19:43Z</time>
      </trkpt>
      <trkpt lat="43.99524" lon="7.23408">
        <ele>1593.337</ele>
        <time>2011-09-11T11:19:48Z</time>
      </trkpt>
      <trkpt lat="43.99512" lon="7.23401">
        <ele>1595.1</ele>
        <time>2011-09-11T11:19:52Z</time>
      </trkpt>
      <trkpt lat="43.99497" lon="7.23394">
        <ele>1595.67</ele>
        <time>2011-09-11T11:19:56Z</time>
      </trkpt>
      <trkpt lat="43.99477" lon="7.23383">
        <ele>1595.998</ele>
        <time>2011-09-11T11:20:00Z</time>
      </trkpt>
      <trkpt lat="43.99462" lon="7.2337">
        <ele>1596.408</ele>
        <time>2011-09-11T11:20:04Z</time>
      </trkpt>
      <trkpt lat="43.99457" lon="7.23362">
        <ele>1594.216</ele>
        <time>2011-09-11T11:20:08Z</time>
      </trkpt>
      <trkpt lat="43.99447" lon="7.23354">
        <ele>1595.37</ele>
        <time>2011-09-11T11:20:13Z</time>
      </trkpt>
      <trkpt lat="43.9944" lon="7.23349">
        <ele>1592.906</ele>
        <time>2011-09-11T11:20:17Z</time>
      </trkpt>
      <trkpt lat="43.99423" lon="7.23346">
        <ele>1592.428</ele>
        <time>2011-09-11T11:20:22Z</time>
      </trkpt>
      <trkpt lat="43.99407" lon="7.23332">
        <ele>1588.585</ele>
        <time>2011-09-11T11:20:28Z</time>
      </trkpt>
      <trkpt lat="43.99393" lon="7.23325">
        <ele>1588.729</ele>
        <time>2011-09-11T11:20:32Z</time>
      </trkpt>
      <trkpt lat="43.9938" lon="7.23318">
        <ele>1587.346</ele>
        <time>2011-09-11T11:20:37Z</time>
      </trkpt>
      <trkpt lat="43.99374" lon="7.23311">
        <ele>1577.796</ele>
        <time>2011-09-11T11:20:43Z</time>
      </trkpt>
      <trkpt lat="43.99367" lon="7.23296">
        <ele>1572.898</ele>
        <time>2011-09-11T11:20:48Z</time>
      </trkpt>
      <trkpt lat="43.99351" lon="7.23284">
        <ele>1568.34</ele>
        <time>2011-09-11T11:20:54Z</time>
      </trkpt>
      <trkpt lat="43.99334" lon="7.23268">
        <ele>1564.791</ele>
        <time>2011-09-11T11:20:59Z</time>
      </trkpt>
      <trkpt lat="43.99326" lon="7.23256">
        <ele>1559.869</ele>
        <time>2011-09-11T11:21:03Z</time>
      </trkpt>
      <trkpt lat="43.99316" lon="7.23242">
        <ele>1557.418</ele>
        <time>2011-09-11T11:21:08Z</time>
      </trkpt>
      <trkpt lat="43.99312" lon="7.23241">
        <ele>1555.45</ele>
        <time>2011-09-11T11:21:11Z</time>
      </trkpt>
      <trkpt lat="43.99305" lon="7.23232">
        <ele>1550.201</ele>
        <time>2011-09-11T11:21:18Z</time>
      </trkpt>
      <trkpt lat="43.99301" lon="7.23227">
        <ele>1547.712</ele>
        <time>2011-09-11T11:21:25Z</time>
      </trkpt>
      <trkpt lat="43.99293" lon="7.23221">
        <ele>1551.289</ele>
        <time>2011-09-11T11:21:36Z</time>
      </trkpt>
      <trkpt lat="43.99283" lon="7.23217">
        <ele>1552.92</ele>
        <time>2011-09-11T11:21:43Z</time>
      </trkpt>
      <trkpt lat="43.99279" lon="7.23215">
        <ele>1551.309</ele>
        <time>2011-09-11T11:21:46Z</time>
      </trkpt>
      <trkpt lat="43.99268" lon="7.23208">
        <ele>1545.382</ele>
        <time>2011-09-11T11:21:52Z</time>
      </trkpt>
      <trkpt lat="43.99267" lon="7.23207">
        <ele>1543.629</ele>
        <time>2011-09-11T11:21:53Z</time>
      </trkpt>
      <trkpt lat="43.99264" lon="7.23207">
        <ele>1537.624</ele>
        <time>2011-09-11T11:21:56Z</time>
      </trkpt>
      <trkpt lat="43.99262" lon="7.23207">
        <ele>1534.573</ele>
        <time>2011-09-11T11:21:58Z</time>
      </trkpt>
      <trkpt lat="43.99248" lon="7.23198">
        <ele>1526.166</ele>
        <time>2011-09-11T11:22:04Z</time>
      </trkpt>
      <trkpt lat="43.99233" lon="7.23189">
        <ele>1518.846</ele>
        <time>2011-09-11T11:22:09Z</time>
      </trkpt>
      <trkpt lat="43.99224" lon="7.23186">
        <ele>1517.195</ele>
        <time>2011-09-11T11:22:11Z</time>
      </trkpt>
      <trkpt lat="43.99211" lon="7.23171">
        <ele>1511.603</ele>
        <time>2011-09-11T11:22:16Z</time>
      </trkpt>
      <trkpt lat="43.99211" lon="7.23173">
        <ele>1509.73</ele>
        <time>2011-09-11T11:22:17Z</time>
      </trkpt>
      <trkpt lat="43.99207" lon="7.23181">
        <ele>1508.509</ele>
        <time>2011-09-11T11:22:24Z</time>
      </trkpt>
      <trkpt lat="43.99209" lon="7.23181">
        <ele>1502.667</ele>
        <time>2011-09-11T11:22:30Z</time>
      </trkpt>
      <trkpt lat="43.99206" lon="7.2318">
        <ele>1488.593</ele>
        <time>2011-09-11T11:23:04Z</time>
      </trkpt>
      <trkpt lat="43.99202" lon="7.23179">
        <ele>1489.536</ele>
        <time>2011-09-11T11:23:11Z</time>
      </trkpt>
      <trkpt lat="43.99207" lon="7.23178">
        <ele>1488.087</ele>
        <time>2011-09-11T11:23:31Z</time>
      </trkpt>
      <trkpt lat="43.99204" lon="7.23178">
        <ele>1491.872</ele>
        <time>2011-09-11T11:23:33Z</time>
      </trkpt>
      <trkpt lat="43.99204" lon="7.23184">
        <ele>1493.13</ele>
        <time>2011-09-11T11:23:39Z</time>
      </trkpt>
      <trkpt lat="43.99209" lon="7.23181">
        <ele>1497.02</ele>
        <time>2011-09-11T11:23:52Z</time>
      </trkpt>
      <trkpt lat="43.99209" lon="7.23178">
        <ele>1498.291</ele>
        <time>2011-09-11T11:24:00Z</time>
      </trkpt>
      <trkpt lat="43.99209" lon="7.23173">
        <ele>1498.432</ele>
        <time>2011-09-11T11:24:05Z</time>
      </trkpt>
      <trkpt lat="43.99207" lon="7.23169">
        <ele>1500.555</ele>
        <time>2011-09-11T11:24:08Z</time>
      </trkpt>
      <trkpt lat="43.99197" lon="7.23164">
        <ele>1503.636</ele>
        <time>2011-09-11T11:24:13Z</time>
      </trkpt>
      <trkpt lat="43.99196" lon="7.23164">
        <ele>1503.922</ele>
        <time>2011-09-11T11:24:16Z</time>
      </trkpt>
      <trkpt lat="43.99188" lon="7.23164">
        <ele>1503.446</ele>
        <time>2011-09-11T11:24:21Z</time>
      </trkpt>
      <trkpt lat="43.99187" lon="7.23165">
        <ele>1501.984</ele>
        <time>2011-09-11T11:24:22Z</time>
      </trkpt>
      <trkpt lat="43.99184" lon="7.23172">
        <ele>1497.429</ele>
        <time>2011-09-11T11:24:25Z</time>
      </trkpt>
      <trkpt lat="43.99173" lon="7.23169">
        <ele>1489.854</ele>
        <time>2011-09-11T11:24:30Z</time>
      </trkpt>
      <trkpt lat="43.99165" lon="7.23169">
        <ele>1488.297</ele>
        <time>2011-09-11T11:24:33Z</time>
      </trkpt>
      <trkpt lat="43.99141" lon="7.2317">
        <ele>1487.103</ele>
        <time>2011-09-11T11:24:39Z</time>
      </trkpt>
      <trkpt lat="43.99127" lon="7.23174">
        <ele>1483.211</ele>
        <time>2011-09-11T11:24:43Z</time>
      </trkpt>
      <trkpt lat="43.99121" lon="7.23175">
        <ele>1482.682</ele>
        <time>2011-09-11T11:24:45Z</time>
      </trkpt>
      <trkpt lat="43.99103" lon="7.23178">
        <ele>1481.294</ele>
        <time>2011-09-11T11:24:51Z</time>
      </trkpt>
      <trkpt lat="43.99082" lon="7.23186">
        <ele>1477.23</ele>
        <time>2011-09-11T11:24:56Z</time>
      </trkpt>
      <trkpt lat="43.99058" lon="7.2319">
        <ele>1474.802</ele>
        <time>2011-09-11T11:25:01Z</time>
      </trkpt>
      <trkpt lat="43.99042" lon="7.23178">
        <ele>1469.287</ele>
        <time>2011-09-11T11:25:07Z</time>
      </trkpt>
      <trkpt lat="43.99038" lon="7.23176">
        <ele>1466.677</ele>
        <time>2011-09-11T11:25:10Z</time>
      </trkpt>
      <trkpt lat="43.99044" lon="7.23162">
        <ele>1463.395</ele>
        <time>2011-09-11T11:25:15Z</time>
      </trkpt>
      <trkpt lat="43.99044" lon="7.23154">
        <ele>1461.914</ele>
        <time>2011-09-11T11:25:17Z</time>
      </trkpt>
      <trkpt lat="43.99037" lon="7.23158">
        <ele>1458.945</ele>
        <time>2011-09-11T11:25:21Z</time>
      </trkpt>
      <trkpt lat="43.99032" lon="7.23161">
        <ele>1457.877</ele>
        <time>2011-09-11T11:25:24Z</time>
      </trkpt>
      <trkpt lat="43.99028" lon="7.23152">
        <ele>1455.097</ele>
        <time>2011-09-11T11:25:29Z</time>
      </trkpt>
      <trkpt lat="43.99017" lon="7.2315">
        <ele>1455.14</ele>
        <time>2011-09-11T11:25:35Z</time>
      </trkpt>
      <trkpt lat="43.99017" lon="7.23148">
        <ele>1453.566</ele>
        <time>2011-09-11T11:25:37Z</time>
      </trkpt>
      <trkpt lat="43.99021" lon="7.23134">
        <ele>1450.217</ele>
        <time>2011-09-11T11:25:43Z</time>
      </trkpt>
      <trkpt lat="43.99014" lon="7.23134">
        <ele>1447.865</ele>
        <time>2011-09-11T11:25:47Z</time>
      </trkpt>
      <trkpt lat="43.99011" lon="7.23134">
        <ele>1447.189</ele>
        <time>2011-09-11T11:25:48Z</time>
      </trkpt>
      <trkpt lat="43.99002" lon="7.23135">
        <ele>1443.938</ele>
        <time>2011-09-11T11:25:51Z</time>
      </trkpt>
      <trkpt lat="43.98984" lon="7.23129">
        <ele>1437.424</ele>
        <time>2011-09-11T11:25:58Z</time>
      </trkpt>
      <trkpt lat="43.98976" lon="7.23132">
        <ele>1435.845</ele>
        <time>2011-09-11T11:26:00Z</time>
      </trkpt>
      <trkpt lat="43.98964" lon="7.23141">
        <ele>1434.529</ele>
        <time>2011-09-11T11:26:06Z</time>
      </trkpt>
      <trkpt lat="43.9896" lon="7.23132">
        <ele>1441.875</ele>
        <time>2011-09-11T11:26:20Z</time>
      </trkpt>
      <trkpt lat="43.98953" lon="7.23141">
        <ele>1437.159</ele>
        <time>2011-09-11T11:26:42Z</time>
      </trkpt>
      <trkpt lat="43.98947" lon="7.23147">
        <ele>1432.045</ele>
        <time>2011-09-11T11:26:47Z</time>
      </trkpt>
      <trkpt lat="43.98935" lon="7.23151">
        <ele>1430.74</ele>
        <time>2011-09-11T11:26:53Z</time>
      </trkpt>
      <trkpt lat="43.98921" lon="7.2316">
        <ele>1429.21</ele>
        <time>2011-09-11T11:26:58Z</time>
      </trkpt>
      <trkpt lat="43.98907" lon="7.23161">
        <ele>1425.587</ele>
        <time>2011-09-11T11:27:02Z</time>
      </trkpt>
      <trkpt lat="43.98899" lon="7.23161">
        <ele>1423.577</ele>
        <time>2011-09-11T11:27:04Z</time>
      </trkpt>
      <trkpt lat="43.98886" lon="7.23153">
        <ele>1423.95</ele>
        <time>2011-09-11T11:27:08Z</time>
      </trkpt>
      <trkpt lat="43.98869" lon="7.23158">
        <ele>1419.788</ele>
        <time>2011-09-11T11:27:13Z</time>
      </trkpt>
      <trkpt lat="43.98863" lon="7.23159">
        <ele>1417.528</ele>
        <time>2011-09-11T11:27:15Z</time>
      </trkpt>
      <trkpt lat="43.98859" lon="7.23161">
        <ele>1414.774</ele>
        <time>2011-09-11T11:27:17Z</time>
      </trkpt>
      <trkpt lat="43.98854" lon="7.23158">
        <ele>1410.584</ele>
        <time>2011-09-11T11:27:21Z</time>
      </trkpt>
      <trkpt lat="43.98855" lon="7.23154">
        <ele>1409.102</ele>
        <time>2011-09-11T11:27:23Z</time>
      </trkpt>
      <trkpt lat="43.98848" lon="7.23148">
        <ele>1404.402</ele>
        <time>2011-09-11T11:27:29Z</time>
      </trkpt>
      <trkpt lat="43.98834" lon="7.23157">
        <ele>1403.6</ele>
        <time>2011-09-11T11:27:34Z</time>
      </trkpt>
      <trkpt lat="43.98819" lon="7.23166">
        <ele>1403.262</ele>
        <time>2011-09-11T11:27:39Z</time>
      </trkpt>
      <trkpt lat="43.98815" lon="7.23166">
        <ele>1402.131</ele>
        <time>2011-09-11T11:27:41Z</time>
      </trkpt>
      <trkpt lat="43.98815" lon="7.23162">
        <ele>1397.65</ele>
        <time>2011-09-11T11:27:47Z</time>
      </trkpt>
      <trkpt lat="43.98814" lon="7.23161">
        <ele>1393.169</ele>
        <time>2011-09-11T11:27:54Z</time>
      </trkpt>
      <trkpt lat="43.9881" lon="7.23162">
        <ele>1393.324</ele>
        <time>2011-09-11T11:28:10Z</time>
      </trkpt>
      <trkpt lat="43.98801" lon="7.23158">
        <ele>1392.873</ele>
        <time>2011-09-11T11:28:16Z</time>
      </trkpt>
      <trkpt lat="43.98796" lon="7.23156">
        <ele>1391.042</ele>
        <time>2011-09-11T11:28:20Z</time>
      </trkpt>
      <trkpt lat="43.98796" lon="7.23153">
        <ele>1390.074</ele>
        <time>2011-09-11T11:28:32Z</time>
      </trkpt>
      <trkpt lat="43.98797" lon="7.23143">
        <ele>1390.471</ele>
        <time>2011-09-11T11:28:38Z</time>
      </trkpt>
      <trkpt lat="43.98799" lon="7.23145">
        <ele>1392.325</ele>
        <time>2011-09-11T11:28:45Z</time>
      </trkpt>
      <trkpt lat="43.98796" lon="7.23146">
        <ele>1391.783</ele>
        <time>2011-09-11T11:28:49Z</time>
      </trkpt>
      <trkpt lat="43.98792" lon="7.23146">
        <ele>1386.272</ele>
        <time>2011-09-11T11:29:05Z</time>
      </trkpt>
      <trkpt lat="43.9879" lon="7.23145">
        <ele>1386.095</ele>
        <time>2011-09-11T11:29:11Z</time>
      </trkpt>
      <trkpt lat="43.98789" lon="7.23144">
        <ele>1386.743</ele>
        <time>2011-09-11T11:29:17Z</time>
      </trkpt>
      <trkpt lat="43.98793" lon="7.23134">
        <ele>1386.371</ele>
        <time>2011-09-11T11:29:23Z</time>
      </trkpt>
      <trkpt lat="43.98796" lon="7.23133">
        <ele>1384.3</ele>
        <time>2011-09-11T11:29:30Z</time>
      </trkpt>
      <trkpt lat="43.98795" lon="7.23132">
        <ele>1382.39</ele>
        <time>2011-09-11T11:29:35Z</time>
      </trkpt>
      <trkpt lat="43.98787" lon="7.23134">
        <ele>1382.122</ele>
        <time>2011-09-11T11:29:40Z</time>
      </trkpt>
      <trkpt lat="43.98776" lon="7.23141">
        <ele>1377.294</ele>
        <time>2011-09-11T11:29:46Z</time>
      </trkpt>
      <trkpt lat="43.98762" lon="7.2315">
        <ele>1372</ele>
        <time>2011-09-11T11:29:52Z</time>
      </trkpt>
      <trkpt lat="43.98745" lon="7.23165">
        <ele>1368.932</ele>
        <time>2011-09-11T11:29:56Z</time>
      </trkpt>
      <trkpt lat="43.98731" lon="7.23177">
        <ele>1365.081</ele>
        <time>2011-09-11T11:30:00Z</time>
      </trkpt>
      <trkpt lat="43.98728" lon="7.23178">
        <ele>1364.292</ele>
        <time>2011-09-11T11:30:01Z</time>
      </trkpt>
      <trkpt lat="43.98718" lon="7.23186">
        <ele>1362.975</ele>
        <time>2011-09-11T11:30:05Z</time>
      </trkpt>
      <trkpt lat="43.9871" lon="7.23197">
        <ele>1360.775</ele>
        <time>2011-09-11T11:30:09Z</time>
      </trkpt>
      <trkpt lat="43.987" lon="7.232">
        <ele>1358.777</ele>
        <time>2011-09-11T11:30:12Z</time>
      </trkpt>
      <trkpt lat="43.98679" lon="7.23206">
        <ele>1356.848</ele>
        <time>2011-09-11T11:30:17Z</time>
      </trkpt>
      <trkpt lat="43.98658" lon="7.23214">
        <ele>1357.863</ele>
        <time>2011-09-11T11:30:22Z</time>
      </trkpt>
      <trkpt lat="43.98643" lon="7.2322">
        <ele>1357.562</ele>
        <time>2011-09-11T11:30:26Z</time>
      </trkpt>
      <trkpt lat="43.98625" lon="7.23226">
        <ele>1357.824</ele>
        <time>2011-09-11T11:30:30Z</time>
      </trkpt>
      <trkpt lat="43.98602" lon="7.23236">
        <ele>1354.932</ele>
        <time>2011-09-11T11:30:35Z</time>
      </trkpt>
      <trkpt lat="43.98598" lon="7.23238">
        <ele>1354.051</ele>
        <time>2011-09-11T11:30:36Z</time>
      </trkpt>
      <trkpt lat="43.98592" lon="7.23242">
        <ele>1352.872</ele>
        <time>2011-09-11T11:30:41Z</time>
      </trkpt>
      <trkpt lat="43.98592" lon="7.23242">
        <ele>1352.843</ele>
        <time>2011-09-11T11:30:42Z</time>
      </trkpt>
      <trkpt lat="43.98583" lon="7.23246">
        <ele>1349.575</ele>
        <time>2011-09-11T11:30:46Z</time>
      </trkpt>
      <trkpt lat="43.98575" lon="7.23256">
        <ele>1348.917</ele>
        <time>2011-09-11T11:30:49Z</time>
      </trkpt>
      <trkpt lat="43.98574" lon="7.23257">
        <ele>1349.081</ele>
        <time>2011-09-11T11:30:50Z</time>
      </trkpt>
      <trkpt lat="43.98572" lon="7.2326">
        <ele>1350.025</ele>
        <time>2011-09-11T11:30:56Z</time>
      </trkpt>
      <trkpt lat="43.98569" lon="7.23262">
        <ele>1346.104</ele>
        <time>2011-09-11T11:31:25Z</time>
      </trkpt>
      <trkpt lat="43.98568" lon="7.23259">
        <ele>1342.14</ele>
        <time>2011-09-11T11:31:37Z</time>
      </trkpt>
      <trkpt lat="43.98575" lon="7.23267">
        <ele>1363.751</ele>
        <time>2011-09-11T11:32:25Z</time>
      </trkpt>
      <trkpt lat="43.98577" lon="7.23259">
        <ele>1349.356</ele>
        <time>2011-09-11T11:34:30Z</time>
      </trkpt>
      <trkpt lat="43.98567" lon="7.23271">
        <ele>1356.115</ele>
        <time>2011-09-11T11:34:35Z</time>
      </trkpt>
      <trkpt lat="43.98554" lon="7.23289">
        <ele>1362.587</ele>
        <time>2011-09-11T11:34:40Z</time>
      </trkpt>
      <trkpt lat="43.98545" lon="7.23302">
        <ele>1363.972</ele>
        <time>2011-09-11T11:34:45Z</time>
      </trkpt>
      <trkpt lat="43.98538" lon="7.23317">
        <ele>1363.459</ele>
        <time>2011-09-11T11:34:50Z</time>
      </trkpt>
      <trkpt lat="43.98531" lon="7.23327">
        <ele>1358.321</ele>
        <time>2011-09-11T11:34:54Z</time>
      </trkpt>
      <trkpt lat="43.98517" lon="7.23338">
        <ele>1354.459</ele>
        <time>2011-09-11T11:34:58Z</time>
      </trkpt>
      <trkpt lat="43.98503" lon="7.23346">
        <ele>1351.769</ele>
        <time>2011-09-11T11:35:03Z</time>
      </trkpt>
      <trkpt lat="43.98494" lon="7.23352">
        <ele>1350.39</ele>
        <time>2011-09-11T11:35:07Z</time>
      </trkpt>
      <trkpt lat="43.98479" lon="7.23362">
        <ele>1350.052</ele>
        <time>2011-09-11T11:35:12Z</time>
      </trkpt>
      <trkpt lat="43.9848" lon="7.23367">
        <ele>1357.992</ele>
        <time>2011-09-11T11:35:16Z</time>
      </trkpt>
      <trkpt lat="43.98473" lon="7.23371">
        <ele>1358.912</ele>
        <time>2011-09-11T11:35:19Z</time>
      </trkpt>
      <trkpt lat="43.98469" lon="7.23383">
        <ele>1362.784</ele>
        <time>2011-09-11T11:35:26Z</time>
      </trkpt>
      <trkpt lat="43.98464" lon="7.2339">
        <ele>1371.592</ele>
        <time>2011-09-11T11:35:33Z</time>
      </trkpt>
      <trkpt lat="43.98452" lon="7.23398">
        <ele>1371.671</ele>
        <time>2011-09-11T11:35:41Z</time>
      </trkpt>
      <trkpt lat="43.9845" lon="7.23406">
        <ele>1375.143</ele>
        <time>2011-09-11T11:35:46Z</time>
      </trkpt>
      <trkpt lat="43.98453" lon="7.23412">
        <ele>1383.788</ele>
        <time>2011-09-11T11:35:52Z</time>
      </trkpt>
      <trkpt lat="43.9845" lon="7.2342">
        <ele>1388.188</ele>
        <time>2011-09-11T11:35:57Z</time>
      </trkpt>
      <trkpt lat="43.98443" lon="7.23425">
        <ele>1387.345</ele>
        <time>2011-09-11T11:36:01Z</time>
      </trkpt>
      <trkpt lat="43.98442" lon="7.2343">
        <ele>1388.092</ele>
        <time>2011-09-11T11:36:03Z</time>
      </trkpt>
      <trkpt lat="43.98438" lon="7.2344">
        <ele>1391.924</ele>
        <time>2011-09-11T11:36:09Z</time>
      </trkpt>
      <trkpt lat="43.98438" lon="7.23451">
        <ele>1400.078</ele>
        <time>2011-09-11T11:36:16Z</time>
      </trkpt>
      <trkpt lat="43.98433" lon="7.2346">
        <ele>1400.764</ele>
        <time>2011-09-11T11:36:21Z</time>
      </trkpt>
      <trkpt lat="43.98431" lon="7.23461">
        <ele>1399.033</ele>
        <time>2011-09-11T11:36:22Z</time>
      </trkpt>
      <trkpt lat="43.98427" lon="7.23468">
        <ele>1397.169</ele>
        <time>2011-09-11T11:36:28Z</time>
      </trkpt>
      <trkpt lat="43.98406" lon="7.23474">
        <ele>1378.546</ele>
        <time>2011-09-11T11:36:37Z</time>
      </trkpt>
      <trkpt lat="43.98386" lon="7.23481">
        <ele>1366.669</ele>
        <time>2011-09-11T11:36:43Z</time>
      </trkpt>
      <trkpt lat="43.98377" lon="7.23487">
        <ele>1365.914</ele>
        <time>2011-09-11T11:36:47Z</time>
      </trkpt>
      <trkpt lat="43.98368" lon="7.23494">
        <ele>1364.076</ele>
        <time>2011-09-11T11:36:52Z</time>
      </trkpt>
      <trkpt lat="43.98355" lon="7.235">
        <ele>1359.905</ele>
        <time>2011-09-11T11:36:56Z</time>
      </trkpt>
      <trkpt lat="43.98349" lon="7.23508">
        <ele>1362.855</ele>
        <time>2011-09-11T11:37:01Z</time>
      </trkpt>
      <trkpt lat="43.98343" lon="7.2351">
        <ele>1364.777</ele>
        <time>2011-09-11T11:37:04Z</time>
      </trkpt>
      <trkpt lat="43.98332" lon="7.23518">
        <ele>1362.802</ele>
        <time>2011-09-11T11:37:10Z</time>
      </trkpt>
      <trkpt lat="43.98324" lon="7.23527">
        <ele>1362.913</ele>
        <time>2011-09-11T11:37:15Z</time>
      </trkpt>
      <trkpt lat="43.98312" lon="7.23533">
        <ele>1361.083</ele>
        <time>2011-09-11T11:37:20Z</time>
      </trkpt>
      <trkpt lat="43.98299" lon="7.23539">
        <ele>1358.352</ele>
        <time>2011-09-11T11:37:25Z</time>
      </trkpt>
      <trkpt lat="43.98283" lon="7.23545">
        <ele>1356.382</ele>
        <time>2011-09-11T11:37:31Z</time>
      </trkpt>
      <trkpt lat="43.98267" lon="7.23552">
        <ele>1355.902</ele>
        <time>2011-09-11T11:37:36Z</time>
      </trkpt>
      <trkpt lat="43.98262" lon="7.23555">
        <ele>1356.153</ele>
        <time>2011-09-11T11:37:38Z</time>
      </trkpt>
      <trkpt lat="43.98256" lon="7.23562">
        <ele>1359.898</ele>
        <time>2011-09-11T11:37:42Z</time>
      </trkpt>
      <trkpt lat="43.98243" lon="7.23575">
        <ele>1363.791</ele>
        <time>2011-09-11T11:37:47Z</time>
      </trkpt>
      <trkpt lat="43.9823" lon="7.23581">
        <ele>1364.058</ele>
        <time>2011-09-11T11:37:52Z</time>
      </trkpt>
      <trkpt lat="43.98216" lon="7.23589">
        <ele>1365.639</ele>
        <time>2011-09-11T11:37:57Z</time>
      </trkpt>
      <trkpt lat="43.98203" lon="7.23594">
        <ele>1367.31</ele>
        <time>2011-09-11T11:38:03Z</time>
      </trkpt>
      <trkpt lat="43.98192" lon="7.23596">
        <ele>1370.844</ele>
        <time>2011-09-11T11:38:09Z</time>
      </trkpt>
      <trkpt lat="43.98184" lon="7.23594">
        <ele>1377.866</ele>
        <time>2011-09-11T11:38:15Z</time>
      </trkpt>
      <trkpt lat="43.9817" lon="7.23582">
        <ele>1380.394</ele>
        <time>2011-09-11T11:38:21Z</time>
      </trkpt>
      <trkpt lat="43.98156" lon="7.23568">
        <ele>1382.284</ele>
        <time>2011-09-11T11:38:27Z</time>
      </trkpt>
      <trkpt lat="43.98142" lon="7.23562">
        <ele>1382.599</ele>
        <time>2011-09-11T11:38:32Z</time>
      </trkpt>
      <trkpt lat="43.98127" lon="7.23558">
        <ele>1386.432</ele>
        <time>2011-09-11T11:38:38Z</time>
      </trkpt>
      <trkpt lat="43.98114" lon="7.23549">
        <ele>1385.568</ele>
        <time>2011-09-11T11:38:43Z</time>
      </trkpt>
      <trkpt lat="43.981" lon="7.23543">
        <ele>1384.957</ele>
        <time>2011-09-11T11:38:48Z</time>
      </trkpt>
      <trkpt lat="43.98086" lon="7.23535">
        <ele>1385.448</ele>
        <time>2011-09-11T11:38:53Z</time>
      </trkpt>
      <trkpt lat="43.98073" lon="7.23522">
        <ele>1384.197</ele>
        <time>2011-09-11T11:38:58Z</time>
      </trkpt>
      <trkpt lat="43.98062" lon="7.23503">
        <ele>1382.836</ele>
        <time>2011-09-11T11:39:03Z</time>
      </trkpt>
      <trkpt lat="43.98052" lon="7.2349">
        <ele>1383.186</ele>
        <time>2011-09-11T11:39:08Z</time>
      </trkpt>
      <trkpt lat="43.98037" lon="7.23481">
        <ele>1383.445</ele>
        <time>2011-09-11T11:39:13Z</time>
      </trkpt>
      <trkpt lat="43.98023" lon="7.23472">
        <ele>1382.325</ele>
        <time>2011-09-11T11:39:18Z</time>
      </trkpt>
      <trkpt lat="43.98011" lon="7.23462">
        <ele>1386.25</ele>
        <time>2011-09-11T11:39:24Z</time>
      </trkpt>
      <trkpt lat="43.98003" lon="7.23453">
        <ele>1389.762</ele>
        <time>2011-09-11T11:39:29Z</time>
      </trkpt>
      <trkpt lat="43.97986" lon="7.23445">
        <ele>1393.493</ele>
        <time>2011-09-11T11:39:34Z</time>
      </trkpt>
      <trkpt lat="43.97976" lon="7.23431">
        <ele>1395.12</ele>
        <time>2011-09-11T11:39:40Z</time>
      </trkpt>
      <trkpt lat="43.97967" lon="7.23425">
        <ele>1396.59</ele>
        <time>2011-09-11T11:39:45Z</time>
      </trkpt>
      <trkpt lat="43.97957" lon="7.23421">
        <ele>1400.293</ele>
        <time>2011-09-11T11:39:50Z</time>
      </trkpt>
      <trkpt lat="43.97941" lon="7.2342">
        <ele>1398.698</ele>
        <time>2011-09-11T11:39:55Z</time>
      </trkpt>
      <trkpt lat="43.97936" lon="7.2342">
        <ele>1399.719</ele>
        <time>2011-09-11T11:39:57Z</time>
      </trkpt>
      <trkpt lat="43.97924" lon="7.23421">
        <ele>1398.884</ele>
        <time>2011-09-11T11:40:02Z</time>
      </trkpt>
      <trkpt lat="43.97915" lon="7.23424">
        <ele>1396.851</ele>
        <time>2011-09-11T11:40:05Z</time>
      </trkpt>
      <trkpt lat="43.97895" lon="7.23426">
        <ele>1391.888</ele>
        <time>2011-09-11T11:40:12Z</time>
      </trkpt>
      <trkpt lat="43.97883" lon="7.23433">
        <ele>1393.644</ele>
        <time>2011-09-11T11:40:17Z</time>
      </trkpt>
      <trkpt lat="43.97868" lon="7.23441">
        <ele>1389.099</ele>
        <time>2011-09-11T11:40:22Z</time>
      </trkpt>
      <trkpt lat="43.97856" lon="7.23446">
        <ele>1385.207</ele>
        <time>2011-09-11T11:40:27Z</time>
      </trkpt>
      <trkpt lat="43.97854" lon="7.23447">
        <ele>1386.8</ele>
        <time>2011-09-11T11:40:29Z</time>
      </trkpt>
      <trkpt lat="43.97844" lon="7.23453">
        <ele>1388.334</ele>
        <time>2011-09-11T11:40:34Z</time>
      </trkpt>
      <trkpt lat="43.97832" lon="7.23461">
        <ele>1386.592</ele>
        <time>2011-09-11T11:40:38Z</time>
      </trkpt>
      <trkpt lat="43.97822" lon="7.23469">
        <ele>1389.615</ele>
        <time>2011-09-11T11:40:42Z</time>
      </trkpt>
      <trkpt lat="43.97799" lon="7.23481">
        <ele>1386.152</ele>
        <time>2011-09-11T11:40:48Z</time>
      </trkpt>
      <trkpt lat="43.97786" lon="7.23487">
        <ele>1384.251</ele>
        <time>2011-09-11T11:40:52Z</time>
      </trkpt>
      <trkpt lat="43.97763" lon="7.23499">
        <ele>1379.297</ele>
        <time>2011-09-11T11:40:57Z</time>
      </trkpt>
      <trkpt lat="43.97754" lon="7.23507">
        <ele>1382.323</ele>
        <time>2011-09-11T11:41:01Z</time>
      </trkpt>
      <trkpt lat="43.97744" lon="7.23518">
        <ele>1386.979</ele>
        <time>2011-09-11T11:41:05Z</time>
      </trkpt>
      <trkpt lat="43.97742" lon="7.2352">
        <ele>1387.69</ele>
        <time>2011-09-11T11:41:06Z</time>
      </trkpt>
      <trkpt lat="43.9774" lon="7.23537">
        <ele>1400.77</ele>
        <time>2011-09-11T11:41:12Z</time>
      </trkpt>
      <trkpt lat="43.97736" lon="7.23553">
        <ele>1409.124</ele>
        <time>2011-09-11T11:41:17Z</time>
      </trkpt>
      <trkpt lat="43.97728" lon="7.23572">
        <ele>1411.519</ele>
        <time>2011-09-11T11:41:24Z</time>
      </trkpt>
      <trkpt lat="43.97726" lon="7.23576">
        <ele>1413.151</ele>
        <time>2011-09-11T11:41:26Z</time>
      </trkpt>
      <trkpt lat="43.97726" lon="7.23591">
        <ele>1420.521</ele>
        <time>2011-09-11T11:41:33Z</time>
      </trkpt>
      <trkpt lat="43.97725" lon="7.23594">
        <ele>1421.109</ele>
        <time>2011-09-11T11:41:36Z</time>
      </trkpt>
      <trkpt lat="43.97723" lon="7.23609">
        <ele>1425.059</ele>
        <time>2011-09-11T11:41:43Z</time>
      </trkpt>
      <trkpt lat="43.97722" lon="7.23615">
        <ele>1428.498</ele>
        <time>2011-09-11T11:41:47Z</time>
      </trkpt>
      <trkpt lat="43.9772" lon="7.23621">
        <ele>1430.777</ele>
        <time>2011-09-11T11:41:53Z</time>
      </trkpt>
      <trkpt lat="43.97706" lon="7.23631">
        <ele>1423.066</ele>
        <time>2011-09-11T11:42:01Z</time>
      </trkpt>
      <trkpt lat="43.97698" lon="7.2364">
        <ele>1424.539</ele>
        <time>2011-09-11T11:42:07Z</time>
      </trkpt>
      <trkpt lat="43.97692" lon="7.23646">
        <ele>1422.167</ele>
        <time>2011-09-11T11:42:12Z</time>
      </trkpt>
      <trkpt lat="43.97689" lon="7.23653">
        <ele>1426.502</ele>
        <time>2011-09-11T11:42:18Z</time>
      </trkpt>
      <trkpt lat="43.9769" lon="7.23654">
        <ele>1429.334</ele>
        <time>2011-09-11T11:42:19Z</time>
      </trkpt>
      <trkpt lat="43.97687" lon="7.23661">
        <ele>1431.885</ele>
        <time>2011-09-11T11:42:25Z</time>
      </trkpt>
      <trkpt lat="43.97678" lon="7.23669">
        <ele>1427.428</ele>
        <time>2011-09-11T11:42:32Z</time>
      </trkpt>
      <trkpt lat="43.97667" lon="7.2367">
        <ele>1419.566</ele>
        <time>2011-09-11T11:42:35Z</time>
      </trkpt>
      <trkpt lat="43.97659" lon="7.23674">
        <ele>1417.659</ele>
        <time>2011-09-11T11:42:42Z</time>
      </trkpt>
      <trkpt lat="43.97647" lon="7.23674">
        <ele>1416.909</ele>
        <time>2011-09-11T11:42:50Z</time>
      </trkpt>
      <trkpt lat="43.97643" lon="7.23674">
        <ele>1417.96</ele>
        <time>2011-09-11T11:42:54Z</time>
      </trkpt>
      <trkpt lat="43.97629" lon="7.23665">
        <ele>1415.555</ele>
        <time>2011-09-11T11:43:01Z</time>
      </trkpt>
      <trkpt lat="43.97623" lon="7.23661">
        <ele>1416.167</ele>
        <time>2011-09-11T11:43:04Z</time>
      </trkpt>
      <trkpt lat="43.97611" lon="7.23657">
        <ele>1417.177</ele>
        <time>2011-09-11T11:43:10Z</time>
      </trkpt>
      <trkpt lat="43.97597" lon="7.23653">
        <ele>1416.394</ele>
        <time>2011-09-11T11:43:15Z</time>
      </trkpt>
      <trkpt lat="43.97587" lon="7.23657">
        <ele>1414.33</ele>
        <time>2011-09-11T11:43:18Z</time>
      </trkpt>
      <trkpt lat="43.97572" lon="7.23665">
        <ele>1409.626</ele>
        <time>2011-09-11T11:43:22Z</time>
      </trkpt>
      <trkpt lat="43.97554" lon="7.23667">
        <ele>1406.596</ele>
        <time>2011-09-11T11:43:27Z</time>
      </trkpt>
      <trkpt lat="43.97532" lon="7.2367">
        <ele>1407.12</ele>
        <time>2011-09-11T11:43:33Z</time>
      </trkpt>
      <trkpt lat="43.97508" lon="7.23679">
        <ele>1410.308</ele>
        <time>2011-09-11T11:43:39Z</time>
      </trkpt>
      <trkpt lat="43.97492" lon="7.23685">
        <ele>1406.41</ele>
        <time>2011-09-11T11:43:43Z</time>
      </trkpt>
      <trkpt lat="43.97465" lon="7.23692">
        <ele>1402.918</ele>
        <time>2011-09-11T11:43:49Z</time>
      </trkpt>
      <trkpt lat="43.97449" lon="7.23696">
        <ele>1400.929</ele>
        <time>2011-09-11T11:43:52Z</time>
      </trkpt>
      <trkpt lat="43.97427" lon="7.23703">
        <ele>1399.619</ele>
        <time>2011-09-11T11:43:57Z</time>
      </trkpt>
      <trkpt lat="43.97406" lon="7.23713">
        <ele>1399.35</ele>
        <time>2011-09-11T11:44:02Z</time>
      </trkpt>
      <trkpt lat="43.97393" lon="7.23713">
        <ele>1398.429</ele>
        <time>2011-09-11T11:44:05Z</time>
      </trkpt>
      <trkpt lat="43.97379" lon="7.23714">
        <ele>1398.319</ele>
        <time>2011-09-11T11:44:08Z</time>
      </trkpt>
      <trkpt lat="43.97358" lon="7.23712">
        <ele>1397.32</ele>
        <time>2011-09-11T11:44:13Z</time>
      </trkpt>
      <trkpt lat="43.97356" lon="7.23718">
        <ele>1403.446</ele>
        <time>2011-09-11T11:44:17Z</time>
      </trkpt>
      <trkpt lat="43.9735" lon="7.23721">
        <ele>1407.53</ele>
        <time>2011-09-11T11:44:23Z</time>
      </trkpt>
      <trkpt lat="43.97345" lon="7.23728">
        <ele>1411.782</ele>
        <time>2011-09-11T11:44:27Z</time>
      </trkpt>
      <trkpt lat="43.97338" lon="7.23738">
        <ele>1417.181</ele>
        <time>2011-09-11T11:44:34Z</time>
      </trkpt>
      <trkpt lat="43.97328" lon="7.23739">
        <ele>1415.116</ele>
        <time>2011-09-11T11:44:40Z</time>
      </trkpt>
      <trkpt lat="43.97323" lon="7.23739">
        <ele>1412.282</ele>
        <time>2011-09-11T11:44:43Z</time>
      </trkpt>
      <trkpt lat="43.97319" lon="7.23744">
        <ele>1413.774</ele>
        <time>2011-09-11T11:44:47Z</time>
      </trkpt>
      <trkpt lat="43.97315" lon="7.23747">
        <ele>1414.026</ele>
        <time>2011-09-11T11:44:50Z</time>
      </trkpt>
      <trkpt lat="43.97303" lon="7.23753">
        <ele>1412.024</ele>
        <time>2011-09-11T11:44:56Z</time>
      </trkpt>
      <trkpt lat="43.97301" lon="7.2377">
        <ele>1413.685</ele>
        <time>2011-09-11T11:45:01Z</time>
      </trkpt>
      <trkpt lat="43.97297" lon="7.23794">
        <ele>1412.602</ele>
        <time>2011-09-11T11:45:05Z</time>
      </trkpt>
      <trkpt lat="43.97289" lon="7.23821">
        <ele>1410.149</ele>
        <time>2011-09-11T11:45:08Z</time>
      </trkpt>
      <trkpt lat="43.97272" lon="7.23848">
        <ele>1406.017</ele>
        <time>2011-09-11T11:45:12Z</time>
      </trkpt>
      <trkpt lat="43.97257" lon="7.23861">
        <ele>1401.955</ele>
        <time>2011-09-11T11:45:15Z</time>
      </trkpt>
      <trkpt lat="43.97246" lon="7.23869">
        <ele>1399.995</ele>
        <time>2011-09-11T11:45:17Z</time>
      </trkpt>
      <trkpt lat="43.97235" lon="7.23877">
        <ele>1399.625</ele>
        <time>2011-09-11T11:45:19Z</time>
      </trkpt>
      <trkpt lat="43.97216" lon="7.23893">
        <ele>1398.457</ele>
        <time>2011-09-11T11:45:24Z</time>
      </trkpt>
      <trkpt lat="43.97194" lon="7.23912">
        <ele>1398.661</ele>
        <time>2011-09-11T11:45:30Z</time>
      </trkpt>
      <trkpt lat="43.97188" lon="7.23917">
        <ele>1399.224</ele>
        <time>2011-09-11T11:45:32Z</time>
      </trkpt>
      <trkpt lat="43.97167" lon="7.23928">
        <ele>1399.295</ele>
        <time>2011-09-11T11:45:37Z</time>
      </trkpt>
      <trkpt lat="43.97141" lon="7.23935">
        <ele>1399.198</ele>
        <time>2011-09-11T11:45:43Z</time>
      </trkpt>
      <trkpt lat="43.97131" lon="7.23935">
        <ele>1399.409</ele>
        <time>2011-09-11T11:45:47Z</time>
      </trkpt>
      <trkpt lat="43.97121" lon="7.23937">
        <ele>1400.518</ele>
        <time>2011-09-11T11:45:52Z</time>
      </trkpt>
      <trkpt lat="43.97111" lon="7.23933">
        <ele>1401.123</ele>
        <time>2011-09-11T11:45:58Z</time>
      </trkpt>
      <trkpt lat="43.97109" lon="7.23931">
        <ele>1400.552</ele>
        <time>2011-09-11T11:45:59Z</time>
      </trkpt>
      <trkpt lat="43.971" lon="7.23919">
        <ele>1400.132</ele>
        <time>2011-09-11T11:46:04Z</time>
      </trkpt>
      <trkpt lat="43.97099" lon="7.23917">
        <ele>1400.113</ele>
        <time>2011-09-11T11:46:05Z</time>
      </trkpt>
      <trkpt lat="43.97098" lon="7.2391">
        <ele>1399.03</ele>
        <time>2011-09-11T11:46:09Z</time>
      </trkpt>
      <trkpt lat="43.97092" lon="7.23894">
        <ele>1397.08</ele>
        <time>2011-09-11T11:46:15Z</time>
      </trkpt>
      <trkpt lat="43.97083" lon="7.23884">
        <ele>1396.13</ele>
        <time>2011-09-11T11:46:19Z</time>
      </trkpt>
      <trkpt lat="43.97077" lon="7.23875">
        <ele>1395.693</ele>
        <time>2011-09-11T11:46:23Z</time>
      </trkpt>
      <trkpt lat="43.97069" lon="7.23862">
        <ele>1394.191</ele>
        <time>2011-09-11T11:46:28Z</time>
      </trkpt>
      <trkpt lat="43.97064" lon="7.23849">
        <ele>1394.315</ele>
        <time>2011-09-11T11:46:32Z</time>
      </trkpt>
      <trkpt lat="43.97058" lon="7.23838">
        <ele>1394.797</ele>
        <time>2011-09-11T11:46:38Z</time>
      </trkpt>
      <trkpt lat="43.97057" lon="7.23836">
        <ele>1394.886</ele>
        <time>2011-09-11T11:46:39Z</time>
      </trkpt>
      <trkpt lat="43.9705" lon="7.23835">
        <ele>1395.254</ele>
        <time>2011-09-11T11:46:43Z</time>
      </trkpt>
      <trkpt lat="43.97047" lon="7.23836">
        <ele>1395.003</ele>
        <time>2011-09-11T11:46:44Z</time>
      </trkpt>
      <trkpt lat="43.97034" lon="7.23833">
        <ele>1393.762</ele>
        <time>2011-09-11T11:46:49Z</time>
      </trkpt>
      <trkpt lat="43.97014" lon="7.23821">
        <ele>1392.113</ele>
        <time>2011-09-11T11:46:56Z</time>
      </trkpt>
      <trkpt lat="43.97003" lon="7.23812">
        <ele>1392.676</ele>
        <time>2011-09-11T11:47:01Z</time>
      </trkpt>
      <trkpt lat="43.96999" lon="7.23805">
        <ele>1392.906</ele>
        <time>2011-09-11T11:47:04Z</time>
      </trkpt>
      <trkpt lat="43.96991" lon="7.23795">
        <ele>1394.247</ele>
        <time>2011-09-11T11:47:10Z</time>
      </trkpt>
      <trkpt lat="43.96982" lon="7.23784">
        <ele>1394.846</ele>
        <time>2011-09-11T11:47:16Z</time>
      </trkpt>
      <trkpt lat="43.96979" lon="7.2378">
        <ele>1394.355</ele>
        <time>2011-09-11T11:47:18Z</time>
      </trkpt>
      <trkpt lat="43.96968" lon="7.23774">
        <ele>1393.733</ele>
        <time>2011-09-11T11:47:23Z</time>
      </trkpt>
      <trkpt lat="43.96966" lon="7.23772">
        <ele>1393.883</ele>
        <time>2011-09-11T11:47:24Z</time>
      </trkpt>
      <trkpt lat="43.96955" lon="7.23765">
        <ele>1394.054</ele>
        <time>2011-09-11T11:47:30Z</time>
      </trkpt>
      <trkpt lat="43.96946" lon="7.23756">
        <ele>1395.998</ele>
        <time>2011-09-11T11:47:36Z</time>
      </trkpt>
      <trkpt lat="43.96933" lon="7.23752">
        <ele>1396.306</ele>
        <time>2011-09-11T11:47:42Z</time>
      </trkpt>
      <trkpt lat="43.96919" lon="7.23751">
        <ele>1397.047</ele>
        <time>2011-09-11T11:47:46Z</time>
      </trkpt>
      <trkpt lat="43.96907" lon="7.2375">
        <ele>1395.925</ele>
        <time>2011-09-11T11:47:51Z</time>
      </trkpt>
      <trkpt lat="43.96891" lon="7.23749">
        <ele>1397.898</ele>
        <time>2011-09-11T11:47:58Z</time>
      </trkpt>
      <trkpt lat="43.96879" lon="7.23748">
        <ele>1400.76</ele>
        <time>2011-09-11T11:48:04Z</time>
      </trkpt>
      <trkpt lat="43.9687" lon="7.23748">
        <ele>1404.401</ele>
        <time>2011-09-11T11:48:11Z</time>
      </trkpt>
      <trkpt lat="43.96855" lon="7.23747">
        <ele>1406.219</ele>
        <time>2011-09-11T11:48:20Z</time>
      </trkpt>
      <trkpt lat="43.96846" lon="7.23746">
        <ele>1407.107</ele>
        <time>2011-09-11T11:48:26Z</time>
      </trkpt>
      <trkpt lat="43.96836" lon="7.23744">
        <ele>1409.069</ele>
        <time>2011-09-11T11:48:33Z</time>
      </trkpt>
      <trkpt lat="43.96824" lon="7.23746">
        <ele>1412.521</ele>
        <time>2011-09-11T11:48:41Z</time>
      </trkpt>
      <trkpt lat="43.9681" lon="7.23747">
        <ele>1412.71</ele>
        <time>2011-09-11T11:48:48Z</time>
      </trkpt>
      <trkpt lat="43.96801" lon="7.23749">
        <ele>1414.701</ele>
        <time>2011-09-11T11:48:54Z</time>
      </trkpt>
      <trkpt lat="43.96789" lon="7.23753">
        <ele>1418.764</ele>
        <time>2011-09-11T11:49:01Z</time>
      </trkpt>
      <trkpt lat="43.96775" lon="7.23757">
        <ele>1420.001</ele>
        <time>2011-09-11T11:49:08Z</time>
      </trkpt>
      <trkpt lat="43.96758" lon="7.2376">
        <ele>1418.096</ele>
        <time>2011-09-11T11:49:14Z</time>
      </trkpt>
      <trkpt lat="43.96745" lon="7.2376">
        <ele>1415.784</ele>
        <time>2011-09-11T11:49:19Z</time>
      </trkpt>
      <trkpt lat="43.9673" lon="7.23765">
        <ele>1414.542</ele>
        <time>2011-09-11T11:49:24Z</time>
      </trkpt>
      <trkpt lat="43.96726" lon="7.23766">
        <ele>1414.052</ele>
        <time>2011-09-11T11:49:25Z</time>
      </trkpt>
      <trkpt lat="43.96694" lon="7.23763">
        <ele>1407.244</ele>
        <time>2011-09-11T11:49:31Z</time>
      </trkpt>
      <trkpt lat="43.96671" lon="7.23764">
        <ele>1405.808</ele>
        <time>2011-09-11T11:49:36Z</time>
      </trkpt>
      <trkpt lat="43.96669" lon="7.23764">
        <ele>1406.401</ele>
        <time>2011-09-11T11:49:39Z</time>
      </trkpt>
      <trkpt lat="43.96667" lon="7.23762">
        <ele>1406.223</ele>
        <time>2011-09-11T11:49:46Z</time>
      </trkpt>
      <trkpt lat="43.96663" lon="7.23761">
        <ele>1407.334</ele>
        <time>2011-09-11T11:50:26Z</time>
      </trkpt>
      <trkpt lat="43.96668" lon="7.23761">
        <ele>1417.153</ele>
        <time>2011-09-11T11:52:22Z</time>
      </trkpt>
      <trkpt lat="43.9667" lon="7.23762">
        <ele>1405.221</ele>
        <time>2011-09-11T11:53:22Z</time>
      </trkpt>
      <trkpt lat="43.96663" lon="7.23769">
        <ele>1407.797</ele>
        <time>2011-09-11T11:53:28Z</time>
      </trkpt>
      <trkpt lat="43.96655" lon="7.23772">
        <ele>1409.567</ele>
        <time>2011-09-11T11:53:32Z</time>
      </trkpt>
      <trkpt lat="43.96641" lon="7.23774">
        <ele>1410.818</ele>
        <time>2011-09-11T11:53:39Z</time>
      </trkpt>
      <trkpt lat="43.9663" lon="7.23773">
        <ele>1412.327</ele>
        <time>2011-09-11T11:53:45Z</time>
      </trkpt>
      <trkpt lat="43.96616" lon="7.23776">
        <ele>1413.356</ele>
        <time>2011-09-11T11:53:52Z</time>
      </trkpt>
      <trkpt lat="43.96606" lon="7.23778">
        <ele>1416.719</ele>
        <time>2011-09-11T11:53:59Z</time>
      </trkpt>
      <trkpt lat="43.96596" lon="7.23778">
        <ele>1419.458</ele>
        <time>2011-09-11T11:54:05Z</time>
      </trkpt>
      <trkpt lat="43.96584" lon="7.23778">
        <ele>1422.268</ele>
        <time>2011-09-11T11:54:13Z</time>
      </trkpt>
      <trkpt lat="43.96573" lon="7.23781">
        <ele>1423.478</ele>
        <time>2011-09-11T11:54:20Z</time>
      </trkpt>
      <trkpt lat="43.96572" lon="7.23782">
        <ele>1422.435</ele>
        <time>2011-09-11T11:54:23Z</time>
      </trkpt>
      <trkpt lat="43.96563" lon="7.23783">
        <ele>1423.297</ele>
        <time>2011-09-11T11:54:29Z</time>
      </trkpt>
      <trkpt lat="43.96559" lon="7.23784">
        <ele>1425.405</ele>
        <time>2011-09-11T11:54:31Z</time>
      </trkpt>
      <trkpt lat="43.96542" lon="7.23793">
        <ele>1424.044</ele>
        <time>2011-09-11T11:54:39Z</time>
      </trkpt>
      <trkpt lat="43.96525" lon="7.23801">
        <ele>1422.335</ele>
        <time>2011-09-11T11:54:46Z</time>
      </trkpt>
      <trkpt lat="43.96516" lon="7.23807">
        <ele>1423.125</ele>
        <time>2011-09-11T11:54:51Z</time>
      </trkpt>
      <trkpt lat="43.96501" lon="7.23817">
        <ele>1424.467</ele>
        <time>2011-09-11T11:54:59Z</time>
      </trkpt>
      <trkpt lat="43.96491" lon="7.23827">
        <ele>1425.428</ele>
        <time>2011-09-11T11:55:05Z</time>
      </trkpt>
      <trkpt lat="43.96474" lon="7.23846">
        <ele>1424.835</ele>
        <time>2011-09-11T11:55:10Z</time>
      </trkpt>
      <trkpt lat="43.9645" lon="7.23863">
        <ele>1423.202</ele>
        <time>2011-09-11T11:55:15Z</time>
      </trkpt>
      <trkpt lat="43.96439" lon="7.23873">
        <ele>1421.179</ele>
        <time>2011-09-11T11:55:18Z</time>
      </trkpt>
      <trkpt lat="43.96422" lon="7.23882">
        <ele>1416.355</ele>
        <time>2011-09-11T11:55:22Z</time>
      </trkpt>
      <trkpt lat="43.96404" lon="7.23889">
        <ele>1412.354</ele>
        <time>2011-09-11T11:55:26Z</time>
      </trkpt>
      <trkpt lat="43.96374" lon="7.23908">
        <ele>1406.853</ele>
        <time>2011-09-11T11:55:32Z</time>
      </trkpt>
      <trkpt lat="43.96356" lon="7.23916">
        <ele>1403.191</ele>
        <time>2011-09-11T11:55:35Z</time>
      </trkpt>
      <trkpt lat="43.9634" lon="7.23923">
        <ele>1401.221</ele>
        <time>2011-09-11T11:55:38Z</time>
      </trkpt>
      <trkpt lat="43.96309" lon="7.23938">
        <ele>1399.656</ele>
        <time>2011-09-11T11:55:44Z</time>
      </trkpt>
      <trkpt lat="43.96297" lon="7.23951">
        <ele>1401.82</ele>
        <time>2011-09-11T11:55:48Z</time>
      </trkpt>
      <trkpt lat="43.96278" lon="7.23974">
        <ele>1406.198</ele>
        <time>2011-09-11T11:55:53Z</time>
      </trkpt>
      <trkpt lat="43.9627" lon="7.2398">
        <ele>1408.261</ele>
        <time>2011-09-11T11:55:55Z</time>
      </trkpt>
      <trkpt lat="43.96242" lon="7.24008">
        <ele>1407.272</ele>
        <time>2011-09-11T11:56:01Z</time>
      </trkpt>
      <trkpt lat="43.96226" lon="7.2402">
        <ele>1408.935</ele>
        <time>2011-09-11T11:56:04Z</time>
      </trkpt>
      <trkpt lat="43.96208" lon="7.24038">
        <ele>1403.844</ele>
        <time>2011-09-11T11:56:08Z</time>
      </trkpt>
      <trkpt lat="43.96191" lon="7.24055">
        <ele>1399.884</ele>
        <time>2011-09-11T11:56:11Z</time>
      </trkpt>
      <trkpt lat="43.96181" lon="7.2406">
        <ele>1399.568</ele>
        <time>2011-09-11T11:56:14Z</time>
      </trkpt>
      <trkpt lat="43.96181" lon="7.24059">
        <ele>1398.572</ele>
        <time>2011-09-11T11:56:20Z</time>
      </trkpt>
      <trkpt lat="43.96183" lon="7.2406">
        <ele>1398.823</ele>
        <time>2011-09-11T11:56:24Z</time>
      </trkpt>
      <trkpt lat="43.96178" lon="7.24061">
        <ele>1400.234</ele>
        <time>2011-09-11T11:56:30Z</time>
      </trkpt>
      <trkpt lat="43.96172" lon="7.24052">
        <ele>1396.113</ele>
        <time>2011-09-11T11:57:12Z</time>
      </trkpt>
      <trkpt lat="43.96173" lon="7.24051">
        <ele>1391.633</ele>
        <time>2011-09-11T11:57:33Z</time>
      </trkpt>
      <trkpt lat="43.96175" lon="7.24051">
        <ele>1392.685</ele>
        <time>2011-09-11T11:57:46Z</time>
      </trkpt>
      <trkpt lat="43.96174" lon="7.24053">
        <ele>1395.306</ele>
        <time>2011-09-11T11:57:53Z</time>
      </trkpt>
      <trkpt lat="43.96165" lon="7.2406">
        <ele>1395.636</ele>
        <time>2011-09-11T11:57:58Z</time>
      </trkpt>
      <trkpt lat="43.96152" lon="7.24071">
        <ele>1396.586</ele>
        <time>2011-09-11T11:58:03Z</time>
      </trkpt>
      <trkpt lat="43.96136" lon="7.24081">
        <ele>1400.172</ele>
        <time>2011-09-11T11:58:09Z</time>
      </trkpt>
      <trkpt lat="43.96134" lon="7.24085">
        <ele>1400.721</ele>
        <time>2011-09-11T11:58:10Z</time>
      </trkpt>
      <trkpt lat="43.9612" lon="7.24104">
        <ele>1406.275</ele>
        <time>2011-09-11T11:58:15Z</time>
      </trkpt>
      <trkpt lat="43.9611" lon="7.24112">
        <ele>1409.576</ele>
        <time>2011-09-11T11:58:18Z</time>
      </trkpt>
      <trkpt lat="43.96095" lon="7.24129">
        <ele>1409.63</ele>
        <time>2011-09-11T11:58:22Z</time>
      </trkpt>
      <trkpt lat="43.96074" lon="7.24155">
        <ele>1409.448</ele>
        <time>2011-09-11T11:58:28Z</time>
      </trkpt>
      <trkpt lat="43.96063" lon="7.24175">
        <ele>1408.696</ele>
        <time>2011-09-11T11:58:33Z</time>
      </trkpt>
      <trkpt lat="43.96055" lon="7.24188">
        <ele>1407.744</ele>
        <time>2011-09-11T11:58:36Z</time>
      </trkpt>
      <trkpt lat="43.96042" lon="7.24214">
        <ele>1408.606</ele>
        <time>2011-09-11T11:58:40Z</time>
      </trkpt>
      <trkpt lat="43.96026" lon="7.24231">
        <ele>1408.966</ele>
        <time>2011-09-11T11:58:44Z</time>
      </trkpt>
      <trkpt lat="43.96006" lon="7.24249">
        <ele>1406.754</ele>
        <time>2011-09-11T11:58:50Z</time>
      </trkpt>
      <trkpt lat="43.95994" lon="7.24265">
        <ele>1406.205</ele>
        <time>2011-09-11T11:58:54Z</time>
      </trkpt>
      <trkpt lat="43.95978" lon="7.2428">
        <ele>1404.843</ele>
        <time>2011-09-11T11:58:58Z</time>
      </trkpt>
      <trkpt lat="43.95957" lon="7.24287">
        <ele>1402.916</ele>
        <time>2011-09-11T11:59:03Z</time>
      </trkpt>
      <trkpt lat="43.95937" lon="7.24294">
        <ele>1399.171</ele>
        <time>2011-09-11T11:59:07Z</time>
      </trkpt>
      <trkpt lat="43.95927" lon="7.24298">
        <ele>1398.893</ele>
        <time>2011-09-11T11:59:11Z</time>
      </trkpt>
      <trkpt lat="43.9592" lon="7.243">
        <ele>1402.148</ele>
        <time>2011-09-11T11:59:16Z</time>
      </trkpt>
      <trkpt lat="43.95911" lon="7.24301">
        <ele>1404.24</ele>
        <time>2011-09-11T11:59:22Z</time>
      </trkpt>
      <trkpt lat="43.95901" lon="7.24305">
        <ele>1406.882</ele>
        <time>2011-09-11T11:59:27Z</time>
      </trkpt>
      <trkpt lat="43.95895" lon="7.24307">
        <ele>1408.512</ele>
        <time>2011-09-11T11:59:31Z</time>
      </trkpt>
      <trkpt lat="43.95891" lon="7.24309">
        <ele>1409.902</ele>
        <time>2011-09-11T11:59:34Z</time>
      </trkpt>
      <trkpt lat="43.95884" lon="7.24312">
        <ele>1411.441</ele>
        <time>2011-09-11T11:59:39Z</time>
      </trkpt>
      <trkpt lat="43.9588" lon="7.24312">
        <ele>1411.018</ele>
        <time>2011-09-11T11:59:42Z</time>
      </trkpt>
      <trkpt lat="43.95869" lon="7.24313">
        <ele>1407.922</ele>
        <time>2011-09-11T11:59:48Z</time>
      </trkpt>
      <trkpt lat="43.95858" lon="7.24314">
        <ele>1405.923</ele>
        <time>2011-09-11T11:59:55Z</time>
      </trkpt>
      <trkpt lat="43.95847" lon="7.24317">
        <ele>1405.884</ele>
        <time>2011-09-11T12:00:01Z</time>
      </trkpt>
      <trkpt lat="43.95844" lon="7.24317">
        <ele>1407.046</ele>
        <time>2011-09-11T12:00:03Z</time>
      </trkpt>
      <trkpt lat="43.95827" lon="7.24314">
        <ele>1407.409</ele>
        <time>2011-09-11T12:00:11Z</time>
      </trkpt>
      <trkpt lat="43.95814" lon="7.24315">
        <ele>1409.179</ele>
        <time>2011-09-11T12:00:17Z</time>
      </trkpt>
      <trkpt lat="43.95801" lon="7.24313">
        <ele>1411.429</ele>
        <time>2011-09-11T12:00:24Z</time>
      </trkpt>
      <trkpt lat="43.95787" lon="7.2431">
        <ele>1413.318</ele>
        <time>2011-09-11T12:00:31Z</time>
      </trkpt>
      <trkpt lat="43.9578" lon="7.24309">
        <ele>1414.189</ele>
        <time>2011-09-11T12:00:35Z</time>
      </trkpt>
      <trkpt lat="43.95766" lon="7.24297">
        <ele>1406.639</ele>
        <time>2011-09-11T12:00:40Z</time>
      </trkpt>
      <trkpt lat="43.95755" lon="7.24295">
        <ele>1410.178</ele>
        <time>2011-09-11T12:00:45Z</time>
      </trkpt>
      <trkpt lat="43.95751" lon="7.24292">
        <ele>1411.599</ele>
        <time>2011-09-11T12:00:47Z</time>
      </trkpt>
      <trkpt lat="43.95749" lon="7.2429">
        <ele>1413.131</ele>
        <time>2011-09-11T12:00:49Z</time>
      </trkpt>
      <trkpt lat="43.95733" lon="7.24287">
        <ele>1412.195</ele>
        <time>2011-09-11T12:00:55Z</time>
      </trkpt>
      <trkpt lat="43.95719" lon="7.24286">
        <ele>1412.546</ele>
        <time>2011-09-11T12:01:00Z</time>
      </trkpt>
      <trkpt lat="43.95706" lon="7.2428">
        <ele>1411.735</ele>
        <time>2011-09-11T12:01:06Z</time>
      </trkpt>
      <trkpt lat="43.95705" lon="7.24279">
        <ele>1411.936</ele>
        <time>2011-09-11T12:01:07Z</time>
      </trkpt>
      <trkpt lat="43.95691" lon="7.24275">
        <ele>1413.167</ele>
        <time>2011-09-11T12:01:13Z</time>
      </trkpt>
      <trkpt lat="43.95675" lon="7.24266">
        <ele>1412.916</ele>
        <time>2011-09-11T12:01:20Z</time>
      </trkpt>
      <trkpt lat="43.95672" lon="7.24264">
        <ele>1412.616</ele>
        <time>2011-09-11T12:01:21Z</time>
      </trkpt>
      <trkpt lat="43.95664" lon="7.24256">
        <ele>1413.068</ele>
        <time>2011-09-11T12:01:27Z</time>
      </trkpt>
      <trkpt lat="43.95658" lon="7.24251">
        <ele>1413.948</ele>
        <time>2011-09-11T12:01:31Z</time>
      </trkpt>
      <trkpt lat="43.95643" lon="7.2424">
        <ele>1416.349</ele>
        <time>2011-09-11T12:01:40Z</time>
      </trkpt>
      <trkpt lat="43.95632" lon="7.24234">
        <ele>1420.499</ele>
        <time>2011-09-11T12:01:48Z</time>
      </trkpt>
      <trkpt lat="43.95621" lon="7.24228">
        <ele>1418.136</ele>
        <time>2011-09-11T12:01:54Z</time>
      </trkpt>
      <trkpt lat="43.95619" lon="7.24227">
        <ele>1418.807</ele>
        <time>2011-09-11T12:01:56Z</time>
      </trkpt>
      <trkpt lat="43.95615" lon="7.24222">
        <ele>1419.687</ele>
        <time>2011-09-11T12:02:00Z</time>
      </trkpt>
      <trkpt lat="43.95606" lon="7.24211">
        <ele>1420.798</ele>
        <time>2011-09-11T12:02:07Z</time>
      </trkpt>
      <trkpt lat="43.95602" lon="7.24207">
        <ele>1422.808</ele>
        <time>2011-09-11T12:02:11Z</time>
      </trkpt>
      <trkpt lat="43.95598" lon="7.24205">
        <ele>1425.118</ele>
        <time>2011-09-11T12:02:16Z</time>
      </trkpt>
      <trkpt lat="43.95597" lon="7.24205">
        <ele>1425.136</ele>
        <time>2011-09-11T12:02:17Z</time>
      </trkpt>
      <trkpt lat="43.95593" lon="7.24204">
        <ele>1424.643</ele>
        <time>2011-09-11T12:02:24Z</time>
      </trkpt>
      <trkpt lat="43.95592" lon="7.24204">
        <ele>1424.715</ele>
        <time>2011-09-11T12:02:26Z</time>
      </trkpt>
      <trkpt lat="43.95581" lon="7.242">
        <ele>1426.368</ele>
        <time>2011-09-11T12:02:33Z</time>
      </trkpt>
      <trkpt lat="43.95566" lon="7.24196">
        <ele>1427.578</ele>
        <time>2011-09-11T12:02:41Z</time>
      </trkpt>
      <trkpt lat="43.95557" lon="7.24193">
        <ele>1428.496</ele>
        <time>2011-09-11T12:02:48Z</time>
      </trkpt>
      <trkpt lat="43.95551" lon="7.2419">
        <ele>1429.837</ele>
        <time>2011-09-11T12:02:53Z</time>
      </trkpt>
      <trkpt lat="43.95537" lon="7.24186">
        <ele>1429.887</ele>
        <time>2011-09-11T12:03:01Z</time>
      </trkpt>
      <trkpt lat="43.95531" lon="7.24185">
        <ele>1432.917</ele>
        <time>2011-09-11T12:03:07Z</time>
      </trkpt>
      <trkpt lat="43.95522" lon="7.24183">
        <ele>1438.441</ele>
        <time>2011-09-11T12:03:14Z</time>
      </trkpt>
      <trkpt lat="43.9552" lon="7.24184">
        <ele>1441.451</ele>
        <time>2011-09-11T12:03:19Z</time>
      </trkpt>
      <trkpt lat="43.95516" lon="7.24184">
        <ele>1442.12</ele>
        <time>2011-09-11T12:03:22Z</time>
      </trkpt>
      <trkpt lat="43.95508" lon="7.2419">
        <ele>1449.397</ele>
        <time>2011-09-11T12:03:31Z</time>
      </trkpt>
      <trkpt lat="43.95506" lon="7.24192">
        <ele>1454.105</ele>
        <time>2011-09-11T12:03:36Z</time>
      </trkpt>
      <trkpt lat="43.95504" lon="7.24192">
        <ele>1455.996</ele>
        <time>2011-09-11T12:03:38Z</time>
      </trkpt>
      <trkpt lat="43.95503" lon="7.2419">
        <ele>1458.225</ele>
        <time>2011-09-11T12:03:40Z</time>
      </trkpt>
      <trkpt lat="43.955" lon="7.24187">
        <ele>1462.106</ele>
        <time>2011-09-11T12:03:43Z</time>
      </trkpt>
      <trkpt lat="43.95499" lon="7.24186">
        <ele>1459.51</ele>
        <time>2011-09-11T12:04:00Z</time>
      </trkpt>
      <trkpt lat="43.95487" lon="7.2419">
        <ele>1452.806</ele>
        <time>2011-09-11T12:04:07Z</time>
      </trkpt>
      <trkpt lat="43.95481" lon="7.24188">
        <ele>1452.72</ele>
        <time>2011-09-11T12:04:13Z</time>
      </trkpt>
      <trkpt lat="43.95485" lon="7.24185">
        <ele>1456.204</ele>
        <time>2011-09-11T12:04:20Z</time>
      </trkpt>
      <trkpt lat="43.95481" lon="7.24182">
        <ele>1471.893</ele>
        <time>2011-09-11T12:04:38Z</time>
      </trkpt>
      <trkpt lat="43.95474" lon="7.24188">
        <ele>1468.585</ele>
        <time>2011-09-11T12:04:45Z</time>
      </trkpt>
      <trkpt lat="43.95452" lon="7.24195">
        <ele>1477.065</ele>
        <time>2011-09-11T12:05:30Z</time>
      </trkpt>
      <trkpt lat="43.95445" lon="7.242">
        <ele>1478.137</ele>
        <time>2011-09-11T12:05:37Z</time>
      </trkpt>
      <trkpt lat="43.95445" lon="7.24203">
        <ele>1496.659</ele>
        <time>2011-09-11T12:05:49Z</time>
      </trkpt>
      <trkpt lat="43.95444" lon="7.24209">
        <ele>1483.672</ele>
        <time>2011-09-11T12:06:08Z</time>
      </trkpt>
      <trkpt lat="43.95438" lon="7.24212">
        <ele>1477.388</ele>
        <time>2011-09-11T12:06:21Z</time>
      </trkpt>
      <trkpt lat="43.95434" lon="7.24216">
        <ele>1475.16</ele>
        <time>2011-09-11T12:06:26Z</time>
      </trkpt>
      <trkpt lat="43.95436" lon="7.24222">
        <ele>1474.183</ele>
        <time>2011-09-11T12:06:32Z</time>
      </trkpt>
      <trkpt lat="43.95436" lon="7.24224">
        <ele>1473.542</ele>
        <time>2011-09-11T12:06:38Z</time>
      </trkpt>
      <trkpt lat="43.95434" lon="7.24226">
        <ele>1474.173</ele>
        <time>2011-09-11T12:06:43Z</time>
      </trkpt>
      <trkpt lat="43.95431" lon="7.24229">
        <ele>1475.894</ele>
        <time>2011-09-11T12:06:50Z</time>
      </trkpt>
      <trkpt lat="43.95425" lon="7.24228">
        <ele>1473.211</ele>
        <time>2011-09-11T12:06:58Z</time>
      </trkpt>
      <trkpt lat="43.95422" lon="7.24233">
        <ele>1476.014</ele>
        <time>2011-09-11T12:07:04Z</time>
      </trkpt>
      <trkpt lat="43.95424" lon="7.24238">
        <ele>1475.805</ele>
        <time>2011-09-11T12:07:10Z</time>
      </trkpt>
      <trkpt lat="43.95424" lon="7.24245">
        <ele>1475.254</ele>
        <time>2011-09-11T12:07:18Z</time>
      </trkpt>
      <trkpt lat="43.95418" lon="7.24245">
        <ele>1475.803</ele>
        <time>2011-09-11T12:07:25Z</time>
      </trkpt>
      <trkpt lat="43.95412" lon="7.24244">
        <ele>1478.044</ele>
        <time>2011-09-11T12:07:32Z</time>
      </trkpt>
      <trkpt lat="43.95411" lon="7.24245">
        <ele>1478.054</ele>
        <time>2011-09-11T12:07:34Z</time>
      </trkpt>
      <trkpt lat="43.95407" lon="7.24255">
        <ele>1478.605</ele>
        <time>2011-09-11T12:07:44Z</time>
      </trkpt>
      <trkpt lat="43.95405" lon="7.2426">
        <ele>1478.642</ele>
        <time>2011-09-11T12:07:50Z</time>
      </trkpt>
      <trkpt lat="43.95401" lon="7.24259">
        <ele>1478.553</ele>
        <time>2011-09-11T12:07:57Z</time>
      </trkpt>
      <trkpt lat="43.95389" lon="7.2426">
        <ele>1478.942</ele>
        <time>2011-09-11T12:08:03Z</time>
      </trkpt>
      <trkpt lat="43.95374" lon="7.24261">
        <ele>1480.263</ele>
        <time>2011-09-11T12:08:09Z</time>
      </trkpt>
      <trkpt lat="43.95352" lon="7.24265">
        <ele>1478.57</ele>
        <time>2011-09-11T12:08:15Z</time>
      </trkpt>
      <trkpt lat="43.95339" lon="7.24265">
        <ele>1478.322</ele>
        <time>2011-09-11T12:08:19Z</time>
      </trkpt>
      <trkpt lat="43.95336" lon="7.24265">
        <ele>1479.133</ele>
        <time>2011-09-11T12:08:21Z</time>
      </trkpt>
      <trkpt lat="43.95334" lon="7.24266">
        <ele>1482.108</ele>
        <time>2011-09-11T12:08:26Z</time>
      </trkpt>
      <trkpt lat="43.95331" lon="7.24267">
        <ele>1484.994</ele>
        <time>2011-09-11T12:08:35Z</time>
      </trkpt>
      <trkpt lat="43.95335" lon="7.24268">
        <ele>1485.952</ele>
        <time>2011-09-11T12:08:45Z</time>
      </trkpt>
      <trkpt lat="43.95319" lon="7.24269">
        <ele>1482.673</ele>
        <time>2011-09-11T12:09:12Z</time>
      </trkpt>
      <trkpt lat="43.95315" lon="7.24269">
        <ele>1483.847</ele>
        <time>2011-09-11T12:09:18Z</time>
      </trkpt>
      <trkpt lat="43.95313" lon="7.24267">
        <ele>1485.919</ele>
        <time>2011-09-11T12:09:25Z</time>
      </trkpt>
      <trkpt lat="43.95306" lon="7.24268">
        <ele>1488.467</ele>
        <time>2011-09-11T12:09:31Z</time>
      </trkpt>
      <trkpt lat="43.95299" lon="7.24271">
        <ele>1489.456</ele>
        <time>2011-09-11T12:09:37Z</time>
      </trkpt>
      <trkpt lat="43.95292" lon="7.24273">
        <ele>1490.786</ele>
        <time>2011-09-11T12:09:44Z</time>
      </trkpt>
      <trkpt lat="43.95287" lon="7.24272">
        <ele>1490.876</ele>
        <time>2011-09-11T12:09:51Z</time>
      </trkpt>
      <trkpt lat="43.95285" lon="7.2427">
        <ele>1492.156</ele>
        <time>2011-09-11T12:09:56Z</time>
      </trkpt>
      <trkpt lat="43.95282" lon="7.24266">
        <ele>1492.905</ele>
        <time>2011-09-11T12:10:03Z</time>
      </trkpt>
      <trkpt lat="43.95278" lon="7.24267">
        <ele>1494.787</ele>
        <time>2011-09-11T12:10:08Z</time>
      </trkpt>
      <trkpt lat="43.95273" lon="7.2427">
        <ele>1495.023</ele>
        <time>2011-09-11T12:10:14Z</time>
      </trkpt>
      <trkpt lat="43.95273" lon="7.2427">
        <ele>1494.632</ele>
        <time>2011-09-11T12:10:15Z</time>
      </trkpt>
      <trkpt lat="43.95268" lon="7.2427">
        <ele>1494.181</ele>
        <time>2011-09-11T12:10:21Z</time>
      </trkpt>
      <trkpt lat="43.95263" lon="7.24274">
        <ele>1494.252</ele>
        <time>2011-09-11T12:10:26Z</time>
      </trkpt>
      <trkpt lat="43.95253" lon="7.24284">
        <ele>1493.933</ele>
        <time>2011-09-11T12:10:31Z</time>
      </trkpt>
      <trkpt lat="43.95244" lon="7.24293">
        <ele>1493.161</ele>
        <time>2011-09-11T12:10:35Z</time>
      </trkpt>
      <trkpt lat="43.9523" lon="7.24295">
        <ele>1490.688</ele>
        <time>2011-09-11T12:10:39Z</time>
      </trkpt>
      <trkpt lat="43.95224" lon="7.24295">
        <ele>1489.428</ele>
        <time>2011-09-11T12:10:43Z</time>
      </trkpt>
      <trkpt lat="43.95219" lon="7.24293">
        <ele>1486.58</ele>
        <time>2011-09-11T12:10:54Z</time>
      </trkpt>
      <trkpt lat="43.95215" lon="7.24297">
        <ele>1492.317</ele>
        <time>2011-09-11T12:11:17Z</time>
      </trkpt>
      <trkpt lat="43.9521" lon="7.24301">
        <ele>1496.196</ele>
        <time>2011-09-11T12:11:24Z</time>
      </trkpt>
      <trkpt lat="43.95205" lon="7.24299">
        <ele>1494.615</ele>
        <time>2011-09-11T12:11:30Z</time>
      </trkpt>
      <trkpt lat="43.95202" lon="7.24296">
        <ele>1494.725</ele>
        <time>2011-09-11T12:11:36Z</time>
      </trkpt>
      <trkpt lat="43.95197" lon="7.24287">
        <ele>1496.276</ele>
        <time>2011-09-11T12:11:45Z</time>
      </trkpt>
      <trkpt lat="43.95191" lon="7.24287">
        <ele>1498.237</ele>
        <time>2011-09-11T12:11:54Z</time>
      </trkpt>
      <trkpt lat="43.95191" lon="7.24288">
        <ele>1498.818</ele>
        <time>2011-09-11T12:11:56Z</time>
      </trkpt>
      <trkpt lat="43.95192" lon="7.24292">
        <ele>1499.617</ele>
        <time>2011-09-11T12:12:01Z</time>
      </trkpt>
      <trkpt lat="43.95194" lon="7.24293">
        <ele>1499.896</ele>
        <time>2011-09-11T12:12:03Z</time>
      </trkpt>
      <trkpt lat="43.952" lon="7.24297">
        <ele>1503.119</ele>
        <time>2011-09-11T12:12:12Z</time>
      </trkpt>
      <trkpt lat="43.95197" lon="7.24296">
        <ele>1503.335</ele>
        <time>2011-09-11T12:12:18Z</time>
      </trkpt>
      <trkpt lat="43.95196" lon="7.24298">
        <ele>1504.827</ele>
        <time>2011-09-11T12:12:23Z</time>
      </trkpt>
      <trkpt lat="43.95199" lon="7.243">
        <ele>1506.316</ele>
        <time>2011-09-11T12:12:28Z</time>
      </trkpt>
      <trkpt lat="43.95196" lon="7.24303">
        <ele>1504.014</ele>
        <time>2011-09-11T12:12:36Z</time>
      </trkpt>
      <trkpt lat="43.95192" lon="7.24306">
        <ele>1503.954</ele>
        <time>2011-09-11T12:12:44Z</time>
      </trkpt>
      <trkpt lat="43.95188" lon="7.24307">
        <ele>1504.185</ele>
        <time>2011-09-11T12:12:51Z</time>
      </trkpt>
      <trkpt lat="43.95183" lon="7.24308">
        <ele>1504.454</ele>
        <time>2011-09-11T12:12:58Z</time>
      </trkpt>
      <trkpt lat="43.95178" lon="7.24308">
        <ele>1504.774</ele>
        <time>2011-09-11T12:13:04Z</time>
      </trkpt>
      <trkpt lat="43.95174" lon="7.24312">
        <ele>1505.855</ele>
        <time>2011-09-11T12:13:13Z</time>
      </trkpt>
      <trkpt lat="43.95172" lon="7.24314">
        <ele>1506.455</ele>
        <time>2011-09-11T12:13:18Z</time>
      </trkpt>
      <trkpt lat="43.95171" lon="7.24317">
        <ele>1506.764</ele>
        <time>2011-09-11T12:13:23Z</time>
      </trkpt>
      <trkpt lat="43.95169" lon="7.2432">
        <ele>1507.794</ele>
        <time>2011-09-11T12:13:31Z</time>
      </trkpt>
      <trkpt lat="43.95169" lon="7.24316">
        <ele>1508.764</ele>
        <time>2011-09-11T12:13:37Z</time>
      </trkpt>
      <trkpt lat="43.9517" lon="7.24312">
        <ele>1511.022</ele>
        <time>2011-09-11T12:13:44Z</time>
      </trkpt>
      <trkpt lat="43.95168" lon="7.24309">
        <ele>1511.995</ele>
        <time>2011-09-11T12:13:49Z</time>
      </trkpt>
      <trkpt lat="43.95166" lon="7.24311">
        <ele>1512.804</ele>
        <time>2011-09-11T12:13:55Z</time>
      </trkpt>
      <trkpt lat="43.95165" lon="7.24314">
        <ele>1513.445</ele>
        <time>2011-09-11T12:14:01Z</time>
      </trkpt>
      <trkpt lat="43.95164" lon="7.24316">
        <ele>1514.004</ele>
        <time>2011-09-11T12:14:07Z</time>
      </trkpt>
      <trkpt lat="43.95162" lon="7.24317">
        <ele>1514.414</ele>
        <time>2011-09-11T12:14:14Z</time>
      </trkpt>
      <trkpt lat="43.9516" lon="7.2432">
        <ele>1515.045</ele>
        <time>2011-09-11T12:14:20Z</time>
      </trkpt>
      <trkpt lat="43.95157" lon="7.24321">
        <ele>1516.245</ele>
        <time>2011-09-11T12:14:27Z</time>
      </trkpt>
      <trkpt lat="43.95156" lon="7.24324">
        <ele>1517.005</ele>
        <time>2011-09-11T12:14:33Z</time>
      </trkpt>
      <trkpt lat="43.95157" lon="7.24327">
        <ele>1518.005</ele>
        <time>2011-09-11T12:14:38Z</time>
      </trkpt>
      <trkpt lat="43.95155" lon="7.24328">
        <ele>1519.505</ele>
        <time>2011-09-11T12:14:44Z</time>
      </trkpt>
      <trkpt lat="43.95155" lon="7.24332">
        <ele>1520.425</ele>
        <time>2011-09-11T12:14:50Z</time>
      </trkpt>
      <trkpt lat="43.95156" lon="7.24338">
        <ele>1520.504</ele>
        <time>2011-09-11T12:14:57Z</time>
      </trkpt>
      <trkpt lat="43.95156" lon="7.24342">
        <ele>1521.155</ele>
        <time>2011-09-11T12:15:03Z</time>
      </trkpt>
      <trkpt lat="43.95155" lon="7.24345">
        <ele>1521.995</ele>
        <time>2011-09-11T12:15:09Z</time>
      </trkpt>
      <trkpt lat="43.95153" lon="7.2435">
        <ele>1523.145</ele>
        <time>2011-09-11T12:15:16Z</time>
      </trkpt>
      <trkpt lat="43.95151" lon="7.24353">
        <ele>1524.105</ele>
        <time>2011-09-11T12:15:21Z</time>
      </trkpt>
      <trkpt lat="43.95149" lon="7.24355">
        <ele>1526.064</ele>
        <time>2011-09-11T12:15:27Z</time>
      </trkpt>
      <trkpt lat="43.95148" lon="7.24355">
        <ele>1526.192</ele>
        <time>2011-09-11T12:15:34Z</time>
      </trkpt>
      <trkpt lat="43.95141" lon="7.24357">
        <ele>1531.704</ele>
        <time>2011-09-11T12:18:39Z</time>
      </trkpt>
      <trkpt lat="43.95137" lon="7.2436">
        <ele>1533.404</ele>
        <time>2011-09-11T12:18:50Z</time>
      </trkpt>
      <trkpt lat="43.95137" lon="7.2436">
        <ele>1534.014</ele>
        <time>2011-09-11T12:18:51Z</time>
      </trkpt>
      <trkpt lat="43.95133" lon="7.24366">
        <ele>1536.345</ele>
        <time>2011-09-11T12:18:59Z</time>
      </trkpt>
      <trkpt lat="43.95129" lon="7.24367">
        <ele>1535.933</ele>
        <time>2011-09-11T12:19:03Z</time>
      </trkpt>
      <trkpt lat="43.95124" lon="7.24363">
        <ele>1535.562</ele>
        <time>2011-09-11T12:19:08Z</time>
      </trkpt>
      <trkpt lat="43.9512" lon="7.24359">
        <ele>1534.672</ele>
        <time>2011-09-11T12:19:13Z</time>
      </trkpt>
      <trkpt lat="43.95115" lon="7.2436">
        <ele>1534.192</ele>
        <time>2011-09-11T12:19:20Z</time>
      </trkpt>
      <trkpt lat="43.95114" lon="7.24362">
        <ele>1535.264</ele>
        <time>2011-09-11T12:19:23Z</time>
      </trkpt>
      <trkpt lat="43.95104" lon="7.24369">
        <ele>1535.734</ele>
        <time>2011-09-11T12:19:32Z</time>
      </trkpt>
      <trkpt lat="43.95098" lon="7.2437">
        <ele>1535.573</ele>
        <time>2011-09-11T12:19:39Z</time>
      </trkpt>
      <trkpt lat="43.95097" lon="7.24369">
        <ele>1534.892</ele>
        <time>2011-09-11T12:19:40Z</time>
      </trkpt>
      <trkpt lat="43.95091" lon="7.24364">
        <ele>1532.891</ele>
        <time>2011-09-11T12:19:47Z</time>
      </trkpt>
      <trkpt lat="43.95084" lon="7.24361">
        <ele>1534.143</ele>
        <time>2011-09-11T12:19:55Z</time>
      </trkpt>
      <trkpt lat="43.95083" lon="7.2436">
        <ele>1533.882</ele>
        <time>2011-09-11T12:19:57Z</time>
      </trkpt>
      <trkpt lat="43.9508" lon="7.24352">
        <ele>1535.204</ele>
        <time>2011-09-11T12:20:04Z</time>
      </trkpt>
      <trkpt lat="43.95076" lon="7.24349">
        <ele>1536.443</ele>
        <time>2011-09-11T12:20:10Z</time>
      </trkpt>
      <trkpt lat="43.95069" lon="7.24345">
        <ele>1532.592</ele>
        <time>2011-09-11T12:32:20Z</time>
      </trkpt>
      <trkpt lat="43.95063" lon="7.24331">
        <ele>1531.881</ele>
        <time>2011-09-11T12:32:25Z</time>
      </trkpt>
      <trkpt lat="43.95057" lon="7.24315">
        <ele>1529.79</ele>
        <time>2011-09-11T12:32:32Z</time>
      </trkpt>
      <trkpt lat="43.95054" lon="7.24306">
        <ele>1530.793</ele>
        <time>2011-09-11T12:32:36Z</time>
      </trkpt>
      <trkpt lat="43.95045" lon="7.24309">
        <ele>1532.573</ele>
        <time>2011-09-11T12:32:42Z</time>
      </trkpt>
      <trkpt lat="43.95034" lon="7.24319">
        <ele>1531.932</ele>
        <time>2011-09-11T12:32:48Z</time>
      </trkpt>
      <trkpt lat="43.95025" lon="7.24324">
        <ele>1531.702</ele>
        <time>2011-09-11T12:32:52Z</time>
      </trkpt>
      <trkpt lat="43.95019" lon="7.24327">
        <ele>1531.451</ele>
        <time>2011-09-11T12:32:54Z</time>
      </trkpt>
      <trkpt lat="43.95008" lon="7.2434">
        <ele>1530.32</ele>
        <time>2011-09-11T12:33:00Z</time>
      </trkpt>
      <trkpt lat="43.95002" lon="7.24346">
        <ele>1530.001</ele>
        <time>2011-09-11T12:33:04Z</time>
      </trkpt>
      <trkpt lat="43.9499" lon="7.24353">
        <ele>1529.181</ele>
        <time>2011-09-11T12:33:10Z</time>
      </trkpt>
      <trkpt lat="43.94987" lon="7.24354">
        <ele>1529.021</ele>
        <time>2011-09-11T12:33:11Z</time>
      </trkpt>
      <trkpt lat="43.94951" lon="7.24341">
        <ele>1527.501</ele>
        <time>2011-09-11T12:33:28Z</time>
      </trkpt>
      <trkpt lat="43.94941" lon="7.24332">
        <ele>1527.681</ele>
        <time>2011-09-11T12:33:33Z</time>
      </trkpt>
      <trkpt lat="43.94936" lon="7.24332">
        <ele>1527.591</ele>
        <time>2011-09-11T12:33:37Z</time>
      </trkpt>
      <trkpt lat="43.94926" lon="7.24334">
        <ele>1567.642</ele>
        <time>2011-09-11T12:35:06Z</time>
      </trkpt>
      <trkpt lat="43.94924" lon="7.24335">
        <ele>1567.382</ele>
        <time>2011-09-11T12:35:08Z</time>
      </trkpt>
      <trkpt lat="43.9492" lon="7.2434">
        <ele>1566.162</ele>
        <time>2011-09-11T12:35:15Z</time>
      </trkpt>
      <trkpt lat="43.94916" lon="7.24346">
        <ele>1563.761</ele>
        <time>2011-09-11T12:35:24Z</time>
      </trkpt>
      <trkpt lat="43.94907" lon="7.24359">
        <ele>1560.671</ele>
        <time>2011-09-11T12:35:28Z</time>
      </trkpt>
      <trkpt lat="43.949" lon="7.24372">
        <ele>1557.75</ele>
        <time>2011-09-11T12:35:32Z</time>
      </trkpt>
      <trkpt lat="43.9489" lon="7.24385">
        <ele>1554.8</ele>
        <time>2011-09-11T12:35:37Z</time>
      </trkpt>
      <trkpt lat="43.94886" lon="7.24392">
        <ele>1552.569</ele>
        <time>2011-09-11T12:35:40Z</time>
      </trkpt>
      <trkpt lat="43.94859" lon="7.24397">
        <ele>1545.87</ele>
        <time>2011-09-11T12:35:53Z</time>
      </trkpt>
      <trkpt lat="43.94864" lon="7.24389">
        <ele>1543.69</ele>
        <time>2011-09-11T12:35:57Z</time>
      </trkpt>
      <trkpt lat="43.94866" lon="7.24384">
        <ele>1542.471</ele>
        <time>2011-09-11T12:35:59Z</time>
      </trkpt>
      <trkpt lat="43.94868" lon="7.24379">
        <ele>1543.251</ele>
        <time>2011-09-11T12:36:04Z</time>
      </trkpt>
      <trkpt lat="43.94868" lon="7.24379">
        <ele>1543.131</ele>
        <time>2011-09-11T12:36:05Z</time>
      </trkpt>
      <trkpt lat="43.94866" lon="7.24381">
        <ele>1538.35</ele>
        <time>2011-09-11T12:36:11Z</time>
      </trkpt>
      <trkpt lat="43.94867" lon="7.24378">
        <ele>1534.68</ele>
        <time>2011-09-11T12:36:16Z</time>
      </trkpt>
      <trkpt lat="43.94871" lon="7.24377">
        <ele>1527.929</ele>
        <time>2011-09-11T12:36:22Z</time>
      </trkpt>
      <trkpt lat="43.94877" lon="7.24369">
        <ele>1524.469</ele>
        <time>2011-09-11T12:36:27Z</time>
      </trkpt>
      <trkpt lat="43.94878" lon="7.24361">
        <ele>1524.259</ele>
        <time>2011-09-11T12:36:29Z</time>
      </trkpt>
      <trkpt lat="43.9488" lon="7.24346">
        <ele>1524.28</ele>
        <time>2011-09-11T12:36:34Z</time>
      </trkpt>
      <trkpt lat="43.9488" lon="7.24335">
        <ele>1524.981</ele>
        <time>2011-09-11T12:36:40Z</time>
      </trkpt>
      <trkpt lat="43.94879" lon="7.24336">
        <ele>1524.561</ele>
        <time>2011-09-11T12:36:42Z</time>
      </trkpt>
      <trkpt lat="43.94873" lon="7.24346">
        <ele>1523.591</ele>
        <time>2011-09-11T12:36:47Z</time>
      </trkpt>
      <trkpt lat="43.9487" lon="7.24346">
        <ele>1522.851</ele>
        <time>2011-09-11T12:36:51Z</time>
      </trkpt>
      <trkpt lat="43.94869" lon="7.24337">
        <ele>1523.521</ele>
        <time>2011-09-11T12:36:55Z</time>
      </trkpt>
      <trkpt lat="43.94867" lon="7.24332">
        <ele>1524.171</ele>
        <time>2011-09-11T12:37:00Z</time>
      </trkpt>
      <trkpt lat="43.94867" lon="7.24332">
        <ele>1523.291</ele>
        <time>2011-09-11T12:37:03Z</time>
      </trkpt>
      <trkpt lat="43.94859" lon="7.24342">
        <ele>1519.73</ele>
        <time>2011-09-11T12:37:10Z</time>
      </trkpt>
      <trkpt lat="43.94852" lon="7.24354">
        <ele>1517.48</ele>
        <time>2011-09-11T12:37:15Z</time>
      </trkpt>
      <trkpt lat="43.94842" lon="7.24368">
        <ele>1514.78</ele>
        <time>2011-09-11T12:37:21Z</time>
      </trkpt>
      <trkpt lat="43.94827" lon="7.24384">
        <ele>1510.94</ele>
        <time>2011-09-11T12:37:27Z</time>
      </trkpt>
      <trkpt lat="43.94815" lon="7.24396">
        <ele>1508.75</ele>
        <time>2011-09-11T12:37:32Z</time>
      </trkpt>
      <trkpt lat="43.94801" lon="7.24409">
        <ele>1508.281</ele>
        <time>2011-09-11T12:37:38Z</time>
      </trkpt>
      <trkpt lat="43.94792" lon="7.24413">
        <ele>1507.3</ele>
        <time>2011-09-11T12:37:42Z</time>
      </trkpt>
      <trkpt lat="43.94782" lon="7.24416">
        <ele>1506.321</ele>
        <time>2011-09-11T12:37:47Z</time>
      </trkpt>
      <trkpt lat="43.94775" lon="7.24421">
        <ele>1504.371</ele>
        <time>2011-09-11T12:37:52Z</time>
      </trkpt>
      <trkpt lat="43.94776" lon="7.24418">
        <ele>1504.537</ele>
        <time>2011-09-11T12:37:54Z</time>
      </trkpt>
      <trkpt lat="43.94779" lon="7.24406">
        <ele>1503.17</ele>
        <time>2011-09-11T12:38:01Z</time>
      </trkpt>
      <trkpt lat="43.94782" lon="7.244">
        <ele>1504.3</ele>
        <time>2011-09-11T12:38:05Z</time>
      </trkpt>
      <trkpt lat="43.94779" lon="7.24393">
        <ele>1505.81</ele>
        <time>2011-09-11T12:38:10Z</time>
      </trkpt>
      <trkpt lat="43.94777" lon="7.24394">
        <ele>1506.331</ele>
        <time>2011-09-11T12:38:11Z</time>
      </trkpt>
      <trkpt lat="43.94765" lon="7.24399">
        <ele>1504.411</ele>
        <time>2011-09-11T12:38:17Z</time>
      </trkpt>
      <trkpt lat="43.94758" lon="7.24401">
        <ele>1505.121</ele>
        <time>2011-09-11T12:38:22Z</time>
      </trkpt>
      <trkpt lat="43.9476" lon="7.24394">
        <ele>1504.661</ele>
        <time>2011-09-11T12:38:25Z</time>
      </trkpt>
      <trkpt lat="43.94766" lon="7.24374">
        <ele>1504.711</ele>
        <time>2011-09-11T12:38:32Z</time>
      </trkpt>
      <trkpt lat="43.9476" lon="7.24367">
        <ele>1503.501</ele>
        <time>2011-09-11T12:38:37Z</time>
      </trkpt>
      <trkpt lat="43.94754" lon="7.24369">
        <ele>1502.731</ele>
        <time>2011-09-11T12:38:39Z</time>
      </trkpt>
      <trkpt lat="43.94748" lon="7.2437">
        <ele>1499.32</ele>
        <time>2011-09-11T12:38:42Z</time>
      </trkpt>
      <trkpt lat="43.94739" lon="7.24372">
        <ele>1496.28</ele>
        <time>2011-09-11T12:38:47Z</time>
      </trkpt>
      <trkpt lat="43.94736" lon="7.24369">
        <ele>1494.61</ele>
        <time>2011-09-11T12:38:50Z</time>
      </trkpt>
      <trkpt lat="43.94736" lon="7.24364">
        <ele>1493.93</ele>
        <time>2011-09-11T12:38:52Z</time>
      </trkpt>
      <trkpt lat="43.94737" lon="7.24352">
        <ele>1493.64</ele>
        <time>2011-09-11T12:38:58Z</time>
      </trkpt>
      <trkpt lat="43.9473" lon="7.24351">
        <ele>1491.62</ele>
        <time>2011-09-11T12:39:01Z</time>
      </trkpt>
      <trkpt lat="43.94728" lon="7.24351">
        <ele>1490.83</ele>
        <time>2011-09-11T12:39:02Z</time>
      </trkpt>
      <trkpt lat="43.94719" lon="7.24356">
        <ele>1487.409</ele>
        <time>2011-09-11T12:39:07Z</time>
      </trkpt>
      <trkpt lat="43.94717" lon="7.24359">
        <ele>1486.479</ele>
        <time>2011-09-11T12:39:08Z</time>
      </trkpt>
      <trkpt lat="43.94711" lon="7.24356">
        <ele>1485.11</ele>
        <time>2011-09-11T12:39:12Z</time>
      </trkpt>
      <trkpt lat="43.94705" lon="7.24352">
        <ele>1484.871</ele>
        <time>2011-09-11T12:39:16Z</time>
      </trkpt>
      <trkpt lat="43.94703" lon="7.24358">
        <ele>1484.301</ele>
        <time>2011-09-11T12:39:19Z</time>
      </trkpt>
      <trkpt lat="43.94698" lon="7.24351">
        <ele>1483.071</ele>
        <time>2011-09-11T12:39:23Z</time>
      </trkpt>
      <trkpt lat="43.94697" lon="7.24351">
        <ele>1482.811</ele>
        <time>2011-09-11T12:39:24Z</time>
      </trkpt>
      <trkpt lat="43.94695" lon="7.24354">
        <ele>1482.15</ele>
        <time>2011-09-11T12:39:26Z</time>
      </trkpt>
      <trkpt lat="43.94694" lon="7.24355">
        <ele>1480.88</ele>
        <time>2011-09-11T12:39:28Z</time>
      </trkpt>
      <trkpt lat="43.94694" lon="7.24351">
        <ele>1480.22</ele>
        <time>2011-09-11T12:39:31Z</time>
      </trkpt>
      <trkpt lat="43.94688" lon="7.24348">
        <ele>1479.541</ele>
        <time>2011-09-11T12:39:35Z</time>
      </trkpt>
      <trkpt lat="43.94689" lon="7.2434">
        <ele>1478.821</ele>
        <time>2011-09-11T12:39:39Z</time>
      </trkpt>
      <trkpt lat="43.94689" lon="7.24339">
        <ele>1478.781</ele>
        <time>2011-09-11T12:39:40Z</time>
      </trkpt>
      <trkpt lat="43.94685" lon="7.24345">
        <ele>1476.88</ele>
        <time>2011-09-11T12:39:44Z</time>
      </trkpt>
      <trkpt lat="43.9468" lon="7.24341">
        <ele>1475.59</ele>
        <time>2011-09-11T12:39:48Z</time>
      </trkpt>
      <trkpt lat="43.94678" lon="7.24337">
        <ele>1475.331</ele>
        <time>2011-09-11T12:39:55Z</time>
      </trkpt>
      <trkpt lat="43.94679" lon="7.24341">
        <ele>1479.991</ele>
        <time>2011-09-11T12:40:33Z</time>
      </trkpt>
      <trkpt lat="43.94674" lon="7.24342">
        <ele>1477.97</ele>
        <time>2011-09-11T12:40:37Z</time>
      </trkpt>
      <trkpt lat="43.94674" lon="7.24339">
        <ele>1477.81</ele>
        <time>2011-09-11T12:40:38Z</time>
      </trkpt>
      <trkpt lat="43.94674" lon="7.24322">
        <ele>1472.42</ele>
        <time>2011-09-11T12:40:45Z</time>
      </trkpt>
      <trkpt lat="43.94667" lon="7.2432">
        <ele>1461.199</ele>
        <time>2011-09-11T12:40:49Z</time>
      </trkpt>
      <trkpt lat="43.94669" lon="7.2432">
        <ele>1439.446</ele>
        <time>2011-09-11T12:40:52Z</time>
      </trkpt>
      <trkpt lat="43.94666" lon="7.2431">
        <ele>1416.227</ele>
        <time>2011-09-11T12:40:57Z</time>
      </trkpt>
      <trkpt lat="43.94667" lon="7.24311">
        <ele>1411.826</ele>
        <time>2011-09-11T12:40:58Z</time>
      </trkpt>
      <trkpt lat="43.94671" lon="7.24308">
        <ele>1404.661</ele>
        <time>2011-09-11T12:41:02Z</time>
      </trkpt>
      <trkpt lat="43.94671" lon="7.24297">
        <ele>1399.015</ele>
        <time>2011-09-11T12:41:07Z</time>
      </trkpt>
      <trkpt lat="43.94667" lon="7.24288">
        <ele>1394.94</ele>
        <time>2011-09-11T12:41:11Z</time>
      </trkpt>
      <trkpt lat="43.94652" lon="7.24283">
        <ele>1391.864</ele>
        <time>2011-09-11T12:41:16Z</time>
      </trkpt>
      <trkpt lat="43.94647" lon="7.2428">
        <ele>1388.552</ele>
        <time>2011-09-11T12:41:18Z</time>
      </trkpt>
      <trkpt lat="43.94633" lon="7.24266">
        <ele>1381.492</ele>
        <time>2011-09-11T12:41:23Z</time>
      </trkpt>
      <trkpt lat="43.94631" lon="7.24267">
        <ele>1377.791</ele>
        <time>2011-09-11T12:41:26Z</time>
      </trkpt>
      <trkpt lat="43.94642" lon="7.24264">
        <ele>1358.94</ele>
        <time>2011-09-11T12:45:32Z</time>
      </trkpt>
      <trkpt lat="43.94641" lon="7.24263">
        <ele>1361.951</ele>
        <time>2011-09-11T12:45:39Z</time>
      </trkpt>
      <trkpt lat="43.94635" lon="7.24264">
        <ele>1376.654</ele>
        <time>2011-09-11T12:45:58Z</time>
      </trkpt>
      <trkpt lat="43.94633" lon="7.24262">
        <ele>1376.321</ele>
        <time>2011-09-11T12:46:08Z</time>
      </trkpt>
      <trkpt lat="43.94633" lon="7.24259">
        <ele>1370.181</ele>
        <time>2011-09-11T12:47:04Z</time>
      </trkpt>
      <trkpt lat="43.9463" lon="7.24254">
        <ele>1370.122</ele>
        <time>2011-09-11T12:47:08Z</time>
      </trkpt>
      <trkpt lat="43.94623" lon="7.24239">
        <ele>1370.693</ele>
        <time>2011-09-11T12:47:14Z</time>
      </trkpt>
      <trkpt lat="43.9462" lon="7.24231">
        <ele>1371.795</ele>
        <time>2011-09-11T12:47:17Z</time>
      </trkpt>
      <trkpt lat="43.94611" lon="7.24214">
        <ele>1373.686</ele>
        <time>2011-09-11T12:47:23Z</time>
      </trkpt>
      <trkpt lat="43.94603" lon="7.24202">
        <ele>1375.127</ele>
        <time>2011-09-11T12:47:27Z</time>
      </trkpt>
      <trkpt lat="43.94593" lon="7.24182">
        <ele>1375.384</ele>
        <time>2011-09-11T12:47:33Z</time>
      </trkpt>
      <trkpt lat="43.94583" lon="7.2416">
        <ele>1377.006</ele>
        <time>2011-09-11T12:47:39Z</time>
      </trkpt>
      <trkpt lat="43.9458" lon="7.24155">
        <ele>1376.524</ele>
        <time>2011-09-11T12:47:40Z</time>
      </trkpt>
      <trkpt lat="43.94563" lon="7.24128">
        <ele>1378.568</ele>
        <time>2011-09-11T12:47:46Z</time>
      </trkpt>
      <trkpt lat="43.94559" lon="7.24116">
        <ele>1380.481</ele>
        <time>2011-09-11T12:47:51Z</time>
      </trkpt>
      <trkpt lat="43.94558" lon="7.24099">
        <ele>1382.99</ele>
        <time>2011-09-11T12:47:57Z</time>
      </trkpt>
      <trkpt lat="43.94556" lon="7.24081">
        <ele>1385.99</ele>
        <time>2011-09-11T12:48:03Z</time>
      </trkpt>
      <trkpt lat="43.94555" lon="7.24062">
        <ele>1383.854</ele>
        <time>2011-09-11T12:48:09Z</time>
      </trkpt>
      <trkpt lat="43.94553" lon="7.24043">
        <ele>1383.992</ele>
        <time>2011-09-11T12:48:14Z</time>
      </trkpt>
      <trkpt lat="43.94552" lon="7.2404">
        <ele>1383.231</ele>
        <time>2011-09-11T12:48:15Z</time>
      </trkpt>
      <trkpt lat="43.94553" lon="7.2401">
        <ele>1385.095</ele>
        <time>2011-09-11T12:48:21Z</time>
      </trkpt>
      <trkpt lat="43.9455" lon="7.23999">
        <ele>1385.457</ele>
        <time>2011-09-11T12:48:23Z</time>
      </trkpt>
      <trkpt lat="43.94544" lon="7.23978">
        <ele>1382.885</ele>
        <time>2011-09-11T12:48:29Z</time>
      </trkpt>
      <trkpt lat="43.94542" lon="7.23973">
        <ele>1382.735</ele>
        <time>2011-09-11T12:48:32Z</time>
      </trkpt>
      <trkpt lat="43.94539" lon="7.2397">
        <ele>1380.192</ele>
        <time>2011-09-11T12:48:37Z</time>
      </trkpt>
      <trkpt lat="43.9453" lon="7.23974">
        <ele>1377.168</ele>
        <time>2011-09-11T12:48:41Z</time>
      </trkpt>
      <trkpt lat="43.94514" lon="7.23983">
        <ele>1373.096</ele>
        <time>2011-09-11T12:48:46Z</time>
      </trkpt>
      <trkpt lat="43.94506" lon="7.23987">
        <ele>1371.605</ele>
        <time>2011-09-11T12:48:48Z</time>
      </trkpt>
      <trkpt lat="43.94484" lon="7.23999">
        <ele>1368.315</ele>
        <time>2011-09-11T12:48:53Z</time>
      </trkpt>
      <trkpt lat="43.94479" lon="7.24002">
        <ele>1367.985</ele>
        <time>2011-09-11T12:48:54Z</time>
      </trkpt>
      <trkpt lat="43.94445" lon="7.24007">
        <ele>1364.835</ele>
        <time>2011-09-11T12:49:00Z</time>
      </trkpt>
      <trkpt lat="43.94437" lon="7.24008">
        <ele>1363.947</ele>
        <time>2011-09-11T12:49:03Z</time>
      </trkpt>
      <trkpt lat="43.94424" lon="7.24004">
        <ele>1363.931</ele>
        <time>2011-09-11T12:49:09Z</time>
      </trkpt>
      <trkpt lat="43.94413" lon="7.24001">
        <ele>1363.702</ele>
        <time>2011-09-11T12:49:13Z</time>
      </trkpt>
      <trkpt lat="43.94388" lon="7.24003">
        <ele>1362.101</ele>
        <time>2011-09-11T12:49:18Z</time>
      </trkpt>
      <trkpt lat="43.94352" lon="7.24">
        <ele>1360.339</ele>
        <time>2011-09-11T12:49:24Z</time>
      </trkpt>
      <trkpt lat="43.94335" lon="7.24">
        <ele>1360.551</ele>
        <time>2011-09-11T12:49:27Z</time>
      </trkpt>
      <trkpt lat="43.94305" lon="7.23993">
        <ele>1358.409</ele>
        <time>2011-09-11T12:49:32Z</time>
      </trkpt>
      <trkpt lat="43.94277" lon="7.2398">
        <ele>1357.608</ele>
        <time>2011-09-11T12:49:37Z</time>
      </trkpt>
      <trkpt lat="43.94271" lon="7.2398">
        <ele>1356.446</ele>
        <time>2011-09-11T12:49:38Z</time>
      </trkpt>
      <trkpt lat="43.94236" lon="7.23963">
        <ele>1355.497</ele>
        <time>2011-09-11T12:49:44Z</time>
      </trkpt>
      <trkpt lat="43.94221" lon="7.2393">
        <ele>1357.991</ele>
        <time>2011-09-11T12:49:48Z</time>
      </trkpt>
      <trkpt lat="43.94218" lon="7.23902">
        <ele>1359.192</ele>
        <time>2011-09-11T12:49:51Z</time>
      </trkpt>
      <trkpt lat="43.94225" lon="7.23869">
        <ele>1358.091</ele>
        <time>2011-09-11T12:49:55Z</time>
      </trkpt>
      <trkpt lat="43.94238" lon="7.23832">
        <ele>1354.664</ele>
        <time>2011-09-11T12:50:00Z</time>
      </trkpt>
      <trkpt lat="43.94249" lon="7.23782">
        <ele>1349.76</ele>
        <time>2011-09-11T12:50:05Z</time>
      </trkpt>
      <trkpt lat="43.94255" lon="7.23763">
        <ele>1347.208</ele>
        <time>2011-09-11T12:50:07Z</time>
      </trkpt>
      <trkpt lat="43.94273" lon="7.2372">
        <ele>1343.791</ele>
        <time>2011-09-11T12:50:12Z</time>
      </trkpt>
      <trkpt lat="43.9427" lon="7.23706">
        <ele>1341.432</ele>
        <time>2011-09-11T12:50:15Z</time>
      </trkpt>
      <trkpt lat="43.94256" lon="7.23715">
        <ele>1338.511</ele>
        <time>2011-09-11T12:50:18Z</time>
      </trkpt>
      <trkpt lat="43.94247" lon="7.23742">
        <ele>1335.088</ele>
        <time>2011-09-11T12:50:21Z</time>
      </trkpt>
      <trkpt lat="43.94231" lon="7.23774">
        <ele>1330.746</ele>
        <time>2011-09-11T12:50:25Z</time>
      </trkpt>
      <trkpt lat="43.94228" lon="7.23782">
        <ele>1329.596</ele>
        <time>2011-09-11T12:50:26Z</time>
      </trkpt>
      <trkpt lat="43.94221" lon="7.238">
        <ele>1327.537</ele>
        <time>2011-09-11T12:50:28Z</time>
      </trkpt>
      <trkpt lat="43.94212" lon="7.23832">
        <ele>1322.635</ele>
        <time>2011-09-11T12:50:32Z</time>
      </trkpt>
      <trkpt lat="43.94207" lon="7.2384">
        <ele>1321.716</ele>
        <time>2011-09-11T12:50:33Z</time>
      </trkpt>
      <trkpt lat="43.94198" lon="7.23854">
        <ele>1319.256</ele>
        <time>2011-09-11T12:50:35Z</time>
      </trkpt>
      <trkpt lat="43.9417" lon="7.2386">
        <ele>1312.666</ele>
        <time>2011-09-11T12:50:39Z</time>
      </trkpt>
      <trkpt lat="43.94152" lon="7.23863">
        <ele>1309.597</ele>
        <time>2011-09-11T12:50:42Z</time>
      </trkpt>
      <trkpt lat="43.94106" lon="7.23845">
        <ele>1303.813</ele>
        <time>2011-09-11T12:50:49Z</time>
      </trkpt>
      <trkpt lat="43.94093" lon="7.23837">
        <ele>1301.587</ele>
        <time>2011-09-11T12:50:51Z</time>
      </trkpt>
      <trkpt lat="43.94078" lon="7.23839">
        <ele>1298.688</ele>
        <time>2011-09-11T12:50:54Z</time>
      </trkpt>
      <trkpt lat="43.94073" lon="7.23857">
        <ele>1297.369</ele>
        <time>2011-09-11T12:50:57Z</time>
      </trkpt>
      <trkpt lat="43.94074" lon="7.23888">
        <ele>1294.657</ele>
        <time>2011-09-11T12:51:01Z</time>
      </trkpt>
      <trkpt lat="43.9407" lon="7.23908">
        <ele>1291.187</ele>
        <time>2011-09-11T12:51:04Z</time>
      </trkpt>
      <trkpt lat="43.94057" lon="7.2392">
        <ele>1288.827</ele>
        <time>2011-09-11T12:51:07Z</time>
      </trkpt>
      <trkpt lat="43.94052" lon="7.23925">
        <ele>1288.207</ele>
        <time>2011-09-11T12:51:08Z</time>
      </trkpt>
      <trkpt lat="43.94042" lon="7.23935">
        <ele>1286.337</ele>
        <time>2011-09-11T12:51:10Z</time>
      </trkpt>
      <trkpt lat="43.94026" lon="7.23948">
        <ele>1283.307</ele>
        <time>2011-09-11T12:51:14Z</time>
      </trkpt>
      <trkpt lat="43.94022" lon="7.23947">
        <ele>1282.668</ele>
        <time>2011-09-11T12:51:15Z</time>
      </trkpt>
      <trkpt lat="43.94006" lon="7.23943">
        <ele>1279.276</ele>
        <time>2011-09-11T12:51:18Z</time>
      </trkpt>
      <trkpt lat="43.93984" lon="7.2394">
        <ele>1276.019</ele>
        <time>2011-09-11T12:51:22Z</time>
      </trkpt>
      <trkpt lat="43.93965" lon="7.23952">
        <ele>1274.545</ele>
        <time>2011-09-11T12:51:27Z</time>
      </trkpt>
      <trkpt lat="43.93961" lon="7.23954">
        <ele>1274.165</ele>
        <time>2011-09-11T12:51:28Z</time>
      </trkpt>
      <trkpt lat="43.93946" lon="7.23961">
        <ele>1273.708</ele>
        <time>2011-09-11T12:51:31Z</time>
      </trkpt>
      <trkpt lat="43.93913" lon="7.23976">
        <ele>1271.818</ele>
        <time>2011-09-11T12:51:36Z</time>
      </trkpt>
      <trkpt lat="43.93894" lon="7.2399">
        <ele>1270.448</ele>
        <time>2011-09-11T12:51:40Z</time>
      </trkpt>
      <trkpt lat="43.93882" lon="7.23992">
        <ele>1269.597</ele>
        <time>2011-09-11T12:51:43Z</time>
      </trkpt>
      <trkpt lat="43.93868" lon="7.23994">
        <ele>1269.559</ele>
        <time>2011-09-11T12:51:47Z</time>
      </trkpt>
      <trkpt lat="43.93865" lon="7.23992">
        <ele>1269.498</ele>
        <time>2011-09-11T12:51:48Z</time>
      </trkpt>
      <trkpt lat="43.93851" lon="7.23978">
        <ele>1268.907</ele>
        <time>2011-09-11T12:51:51Z</time>
      </trkpt>
      <trkpt lat="43.9384" lon="7.2398">
        <ele>1267.467</ele>
        <time>2011-09-11T12:51:54Z</time>
      </trkpt>
      <trkpt lat="43.93835" lon="7.23984">
        <ele>1267.046</ele>
        <time>2011-09-11T12:51:55Z</time>
      </trkpt>
      <trkpt lat="43.9382" lon="7.23981">
        <ele>1265.215</ele>
        <time>2011-09-11T12:51:59Z</time>
      </trkpt>
      <trkpt lat="43.938" lon="7.23977">
        <ele>1263.735</ele>
        <time>2011-09-11T12:52:04Z</time>
      </trkpt>
      <trkpt lat="43.93791" lon="7.23993">
        <ele>1260.95</ele>
        <time>2011-09-11T12:52:07Z</time>
      </trkpt>
      <trkpt lat="43.93788" lon="7.2402">
        <ele>1257.66</ele>
        <time>2011-09-11T12:52:12Z</time>
      </trkpt>
      <trkpt lat="43.93783" lon="7.24038">
        <ele>1255.388</ele>
        <time>2011-09-11T12:52:15Z</time>
      </trkpt>
      <trkpt lat="43.9378" lon="7.24053">
        <ele>1254.001</ele>
        <time>2011-09-11T12:52:18Z</time>
      </trkpt>
      <trkpt lat="43.93783" lon="7.24058">
        <ele>1253.652</ele>
        <time>2011-09-11T12:52:19Z</time>
      </trkpt>
      <trkpt lat="43.93794" lon="7.24075">
        <ele>1252.343</ele>
        <time>2011-09-11T12:52:23Z</time>
      </trkpt>
      <trkpt lat="43.93795" lon="7.24097">
        <ele>1252.295</ele>
        <time>2011-09-11T12:52:27Z</time>
      </trkpt>
      <trkpt lat="43.93797" lon="7.24122">
        <ele>1253.225</ele>
        <time>2011-09-11T12:52:31Z</time>
      </trkpt>
      <trkpt lat="43.93797" lon="7.2414">
        <ele>1250.764</ele>
        <time>2011-09-11T12:52:36Z</time>
      </trkpt>
      <trkpt lat="43.93792" lon="7.24152">
        <ele>1248.533</ele>
        <time>2011-09-11T12:52:39Z</time>
      </trkpt>
      <trkpt lat="43.93786" lon="7.24161">
        <ele>1247.202</ele>
        <time>2011-09-11T12:52:41Z</time>
      </trkpt>
      <trkpt lat="43.9378" lon="7.2418">
        <ele>1245.152</ele>
        <time>2011-09-11T12:52:45Z</time>
      </trkpt>
      <trkpt lat="43.93766" lon="7.24214">
        <ele>1242.253</ele>
        <time>2011-09-11T12:52:51Z</time>
      </trkpt>
      <trkpt lat="43.93743" lon="7.24233">
        <ele>1240.263</ele>
        <time>2011-09-11T12:52:56Z</time>
      </trkpt>
      <trkpt lat="43.93738" lon="7.24233">
        <ele>1239.683</ele>
        <time>2011-09-11T12:52:57Z</time>
      </trkpt>
      <trkpt lat="43.93711" lon="7.24245">
        <ele>1236.812</ele>
        <time>2011-09-11T12:53:02Z</time>
      </trkpt>
      <trkpt lat="43.93702" lon="7.24271">
        <ele>1235.135</ele>
        <time>2011-09-11T12:53:06Z</time>
      </trkpt>
      <trkpt lat="43.93688" lon="7.24283">
        <ele>1233.413</ele>
        <time>2011-09-11T12:53:09Z</time>
      </trkpt>
      <trkpt lat="43.93667" lon="7.24304">
        <ele>1231.175</ele>
        <time>2011-09-11T12:53:14Z</time>
      </trkpt>
      <trkpt lat="43.93652" lon="7.24322">
        <ele>1229.455</ele>
        <time>2011-09-11T12:53:18Z</time>
      </trkpt>
      <trkpt lat="43.93635" lon="7.24328">
        <ele>1227.073</ele>
        <time>2011-09-11T12:53:21Z</time>
      </trkpt>
      <trkpt lat="43.9362" lon="7.24334">
        <ele>1224.495</ele>
        <time>2011-09-11T12:53:25Z</time>
      </trkpt>
      <trkpt lat="43.93596" lon="7.24326">
        <ele>1223.016</ele>
        <time>2011-09-11T12:53:30Z</time>
      </trkpt>
      <trkpt lat="43.93574" lon="7.24333">
        <ele>1221.858</ele>
        <time>2011-09-11T12:53:35Z</time>
      </trkpt>
      <trkpt lat="43.93554" lon="7.24347">
        <ele>1221.369</ele>
        <time>2011-09-11T12:53:40Z</time>
      </trkpt>
      <trkpt lat="43.93543" lon="7.24346">
        <ele>1220.888</ele>
        <time>2011-09-11T12:53:42Z</time>
      </trkpt>
      <trkpt lat="43.93532" lon="7.24343">
        <ele>1220.95</ele>
        <time>2011-09-11T12:53:44Z</time>
      </trkpt>
      <trkpt lat="43.93514" lon="7.24343">
        <ele>1221.01</ele>
        <time>2011-09-11T12:53:48Z</time>
      </trkpt>
      <trkpt lat="43.93504" lon="7.2434">
        <ele>1221.371</ele>
        <time>2011-09-11T12:53:50Z</time>
      </trkpt>
      <trkpt lat="43.93473" lon="7.2432">
        <ele>1221.53</ele>
        <time>2011-09-11T12:53:56Z</time>
      </trkpt>
      <trkpt lat="43.9345" lon="7.24305">
        <ele>1220.359</ele>
        <time>2011-09-11T12:54:00Z</time>
      </trkpt>
      <trkpt lat="43.93429" lon="7.24296">
        <ele>1219.529</ele>
        <time>2011-09-11T12:54:04Z</time>
      </trkpt>
      <trkpt lat="43.93414" lon="7.243">
        <ele>1219.522</ele>
        <time>2011-09-11T12:54:08Z</time>
      </trkpt>
      <trkpt lat="43.93414" lon="7.24302">
        <ele>1218.04</ele>
        <time>2011-09-11T12:54:14Z</time>
      </trkpt>
      <trkpt lat="43.93419" lon="7.24304">
        <ele>1219.42</ele>
        <time>2011-09-11T12:57:14Z</time>
      </trkpt>
      <trkpt lat="43.93421" lon="7.24303">
        <ele>1219.579</ele>
        <time>2011-09-11T12:57:19Z</time>
      </trkpt>
      <trkpt lat="43.93423" lon="7.24302">
        <ele>1218.958</ele>
        <time>2011-09-11T12:57:25Z</time>
      </trkpt>
      <trkpt lat="43.93424" lon="7.24303">
        <ele>1218.507</ele>
        <time>2011-09-11T12:57:27Z</time>
      </trkpt>
      <trkpt lat="43.9342" lon="7.24309">
        <ele>1218.14</ele>
        <time>2011-09-11T12:57:35Z</time>
      </trkpt>
      <trkpt lat="43.93419" lon="7.24309">
        <ele>1218.781</ele>
        <time>2011-09-11T12:57:45Z</time>
      </trkpt>
      <trkpt lat="43.93419" lon="7.24308">
        <ele>1220.151</ele>
        <time>2011-09-11T12:58:18Z</time>
      </trkpt>
      <trkpt lat="43.93418" lon="7.24307">
        <ele>1220.671</ele>
        <time>2011-09-11T12:58:25Z</time>
      </trkpt>
      <trkpt lat="43.93418" lon="7.2431">
        <ele>1220.28</ele>
        <time>2011-09-11T13:00:40Z</time>
      </trkpt>
      <trkpt lat="43.93418" lon="7.24309">
        <ele>1220.651</ele>
        <time>2011-09-11T13:00:46Z</time>
      </trkpt>
      <trkpt lat="43.93408" lon="7.24316">
        <ele>1220.227</ele>
        <time>2011-09-11T13:00:50Z</time>
      </trkpt>
      <trkpt lat="43.93382" lon="7.24336">
        <ele>1216.862</ele>
        <time>2011-09-11T13:00:55Z</time>
      </trkpt>
      <trkpt lat="43.93376" lon="7.2434">
        <ele>1216.423</ele>
        <time>2011-09-11T13:00:56Z</time>
      </trkpt>
      <trkpt lat="43.93368" lon="7.24348">
        <ele>1215.143</ele>
        <time>2011-09-11T13:00:58Z</time>
      </trkpt>
      <trkpt lat="43.93356" lon="7.24359">
        <ele>1212.371</ele>
        <time>2011-09-11T13:01:02Z</time>
      </trkpt>
      <trkpt lat="43.93343" lon="7.24366">
        <ele>1209.862</ele>
        <time>2011-09-11T13:01:06Z</time>
      </trkpt>
      <trkpt lat="43.93332" lon="7.24365">
        <ele>1207.494</ele>
        <time>2011-09-11T13:01:10Z</time>
      </trkpt>
      <trkpt lat="43.93316" lon="7.24376">
        <ele>1202.62</ele>
        <time>2011-09-11T13:01:15Z</time>
      </trkpt>
      <trkpt lat="43.93309" lon="7.24382">
        <ele>1200.339</ele>
        <time>2011-09-11T13:01:18Z</time>
      </trkpt>
      <trkpt lat="43.93305" lon="7.24384">
        <ele>1199.06</ele>
        <time>2011-09-11T13:01:20Z</time>
      </trkpt>
      <trkpt lat="43.93292" lon="7.24387">
        <ele>1194.829</ele>
        <time>2011-09-11T13:01:25Z</time>
      </trkpt>
      <trkpt lat="43.9328" lon="7.2439">
        <ele>1191.769</ele>
        <time>2011-09-11T13:01:29Z</time>
      </trkpt>
      <trkpt lat="43.93271" lon="7.24396">
        <ele>1189.209</ele>
        <time>2011-09-11T13:01:33Z</time>
      </trkpt>
      <trkpt lat="43.93261" lon="7.24407">
        <ele>1185.057</ele>
        <time>2011-09-11T13:01:37Z</time>
      </trkpt>
      <trkpt lat="43.93247" lon="7.24418">
        <ele>1180.388</ele>
        <time>2011-09-11T13:01:43Z</time>
      </trkpt>
      <trkpt lat="43.93238" lon="7.24429">
        <ele>1176.468</ele>
        <time>2011-09-11T13:01:47Z</time>
      </trkpt>
      <trkpt lat="43.93223" lon="7.24441">
        <ele>1173.657</ele>
        <time>2011-09-11T13:01:51Z</time>
      </trkpt>
      <trkpt lat="43.9321" lon="7.24453">
        <ele>1169.628</ele>
        <time>2011-09-11T13:01:55Z</time>
      </trkpt>
      <trkpt lat="43.93197" lon="7.24476">
        <ele>1168.331</ele>
        <time>2011-09-11T13:01:59Z</time>
      </trkpt>
      <trkpt lat="43.93184" lon="7.24497">
        <ele>1164.94</ele>
        <time>2011-09-11T13:02:03Z</time>
      </trkpt>
      <trkpt lat="43.93178" lon="7.2451">
        <ele>1161.48</ele>
        <time>2011-09-11T13:02:07Z</time>
      </trkpt>
      <trkpt lat="43.93172" lon="7.24518">
        <ele>1159.456</ele>
        <time>2011-09-11T13:02:09Z</time>
      </trkpt>
      <trkpt lat="43.93158" lon="7.24531">
        <ele>1156.87</ele>
        <time>2011-09-11T13:02:13Z</time>
      </trkpt>
      <trkpt lat="43.93151" lon="7.24537">
        <ele>1153.277</ele>
        <time>2011-09-11T13:02:17Z</time>
      </trkpt>
      <trkpt lat="43.93139" lon="7.24536">
        <ele>1149.859</ele>
        <time>2011-09-11T13:02:21Z</time>
      </trkpt>
      <trkpt lat="43.93134" lon="7.24532">
        <ele>1147.527</ele>
        <time>2011-09-11T13:02:24Z</time>
      </trkpt>
      <trkpt lat="43.93134" lon="7.24531">
        <ele>1147.484</ele>
        <time>2011-09-11T13:02:26Z</time>
      </trkpt>
      <trkpt lat="43.93127" lon="7.24525">
        <ele>1144.585</ele>
        <time>2011-09-11T13:02:34Z</time>
      </trkpt>
      <trkpt lat="43.93117" lon="7.24518">
        <ele>1142.275</ele>
        <time>2011-09-11T13:02:40Z</time>
      </trkpt>
      <trkpt lat="43.93115" lon="7.24517">
        <ele>1142.115</ele>
        <time>2011-09-11T13:02:41Z</time>
      </trkpt>
      <trkpt lat="43.931" lon="7.24522">
        <ele>1138.403</ele>
        <time>2011-09-11T13:02:48Z</time>
      </trkpt>
      <trkpt lat="43.93083" lon="7.24529">
        <ele>1136.946</ele>
        <time>2011-09-11T13:02:53Z</time>
      </trkpt>
      <trkpt lat="43.93072" lon="7.24529">
        <ele>1135.847</ele>
        <time>2011-09-11T13:02:57Z</time>
      </trkpt>
      <trkpt lat="43.93065" lon="7.24521">
        <ele>1135.036</ele>
        <time>2011-09-11T13:03:01Z</time>
      </trkpt>
      <trkpt lat="43.93054" lon="7.24502">
        <ele>1132.083</ele>
        <time>2011-09-11T13:03:06Z</time>
      </trkpt>
      <trkpt lat="43.93043" lon="7.24495">
        <ele>1130.531</ele>
        <time>2011-09-11T13:03:09Z</time>
      </trkpt>
      <trkpt lat="43.93027" lon="7.24489">
        <ele>1126.209</ele>
        <time>2011-09-11T13:03:13Z</time>
      </trkpt>
      <trkpt lat="43.93007" lon="7.24503">
        <ele>1122.96</ele>
        <time>2011-09-11T13:03:18Z</time>
      </trkpt>
      <trkpt lat="43.92993" lon="7.24508">
        <ele>1119.769</ele>
        <time>2011-09-11T13:03:22Z</time>
      </trkpt>
      <trkpt lat="43.92987" lon="7.24503">
        <ele>1118.22</ele>
        <time>2011-09-11T13:03:25Z</time>
      </trkpt>
      <trkpt lat="43.92984" lon="7.24502">
        <ele>1117.751</ele>
        <time>2011-09-11T13:03:26Z</time>
      </trkpt>
      <trkpt lat="43.92963" lon="7.24497">
        <ele>1114.543</ele>
        <time>2011-09-11T13:03:32Z</time>
      </trkpt>
      <trkpt lat="43.92956" lon="7.24495">
        <ele>1113.203</ele>
        <time>2011-09-11T13:03:34Z</time>
      </trkpt>
      <trkpt lat="43.92938" lon="7.24486">
        <ele>1110.384</ele>
        <time>2011-09-11T13:03:39Z</time>
      </trkpt>
      <trkpt lat="43.92927" lon="7.24496">
        <ele>1110.686</ele>
        <time>2011-09-11T13:03:43Z</time>
      </trkpt>
      <trkpt lat="43.92918" lon="7.24499">
        <ele>1110.397</ele>
        <time>2011-09-11T13:03:46Z</time>
      </trkpt>
      <trkpt lat="43.92903" lon="7.24497">
        <ele>1109.448</ele>
        <time>2011-09-11T13:03:50Z</time>
      </trkpt>
      <trkpt lat="43.92893" lon="7.24496">
        <ele>1108.638</ele>
        <time>2011-09-11T13:03:53Z</time>
      </trkpt>
      <trkpt lat="43.92886" lon="7.24508">
        <ele>1106.585</ele>
        <time>2011-09-11T13:03:56Z</time>
      </trkpt>
      <trkpt lat="43.92871" lon="7.24516">
        <ele>1106.117</ele>
        <time>2011-09-11T13:04:00Z</time>
      </trkpt>
      <trkpt lat="43.92868" lon="7.24517">
        <ele>1105.778</ele>
        <time>2011-09-11T13:04:01Z</time>
      </trkpt>
      <trkpt lat="43.92851" lon="7.24531">
        <ele>1103.766</ele>
        <time>2011-09-11T13:04:07Z</time>
      </trkpt>
      <trkpt lat="43.92841" lon="7.24522">
        <ele>1099.752</ele>
        <time>2011-09-11T13:04:12Z</time>
      </trkpt>
      <trkpt lat="43.92837" lon="7.24515">
        <ele>1098.481</ele>
        <time>2011-09-11T13:04:14Z</time>
      </trkpt>
      <trkpt lat="43.92824" lon="7.24507">
        <ele>1095.4</ele>
        <time>2011-09-11T13:04:18Z</time>
      </trkpt>
      <trkpt lat="43.92803" lon="7.2452">
        <ele>1093.794</ele>
        <time>2011-09-11T13:04:22Z</time>
      </trkpt>
      <trkpt lat="43.92784" lon="7.2453">
        <ele>1091.891</ele>
        <time>2011-09-11T13:04:26Z</time>
      </trkpt>
      <trkpt lat="43.92764" lon="7.24532">
        <ele>1089.716</ele>
        <time>2011-09-11T13:04:31Z</time>
      </trkpt>
      <trkpt lat="43.92756" lon="7.24534">
        <ele>1087.974</ele>
        <time>2011-09-11T13:04:34Z</time>
      </trkpt>
      <trkpt lat="43.9275" lon="7.24536">
        <ele>1085.213</ele>
        <time>2011-09-11T13:04:38Z</time>
      </trkpt>
      <trkpt lat="43.92747" lon="7.24523">
        <ele>1083.923</ele>
        <time>2011-09-11T13:04:41Z</time>
      </trkpt>
      <trkpt lat="43.92741" lon="7.24508">
        <ele>1080.691</ele>
        <time>2011-09-11T13:04:45Z</time>
      </trkpt>
      <trkpt lat="43.92732" lon="7.2449">
        <ele>1075.885</ele>
        <time>2011-09-11T13:04:49Z</time>
      </trkpt>
      <trkpt lat="43.92724" lon="7.24469">
        <ele>1073.954</ele>
        <time>2011-09-11T13:04:55Z</time>
      </trkpt>
      <trkpt lat="43.92723" lon="7.24466">
        <ele>1073.715</ele>
        <time>2011-09-11T13:04:58Z</time>
      </trkpt>
      <trkpt lat="43.92718" lon="7.24461">
        <ele>1074.558</ele>
        <time>2011-09-11T13:05:04Z</time>
      </trkpt>
      <trkpt lat="43.92716" lon="7.24461">
        <ele>1075.128</ele>
        <time>2011-09-11T13:05:09Z</time>
      </trkpt>
      <trkpt lat="43.9271" lon="7.24462">
        <ele>1075.157</ele>
        <time>2011-09-11T13:05:14Z</time>
      </trkpt>
      <trkpt lat="43.92702" lon="7.24464">
        <ele>1076.87</ele>
        <time>2011-09-11T13:05:19Z</time>
      </trkpt>
      <trkpt lat="43.92692" lon="7.24462">
        <ele>1078.723</ele>
        <time>2011-09-11T13:05:24Z</time>
      </trkpt>
      <trkpt lat="43.92689" lon="7.2446">
        <ele>1079.182</ele>
        <time>2011-09-11T13:05:26Z</time>
      </trkpt>
      <trkpt lat="43.92683" lon="7.24456">
        <ele>1080.052</ele>
        <time>2011-09-11T13:05:30Z</time>
      </trkpt>
      <trkpt lat="43.92672" lon="7.24441">
        <ele>1077.977</ele>
        <time>2011-09-11T13:05:35Z</time>
      </trkpt>
      <trkpt lat="43.92657" lon="7.2444">
        <ele>1076.154</ele>
        <time>2011-09-11T13:05:40Z</time>
      </trkpt>
      <trkpt lat="43.92638" lon="7.24447">
        <ele>1076.115</ele>
        <time>2011-09-11T13:05:44Z</time>
      </trkpt>
      <trkpt lat="43.92623" lon="7.24449">
        <ele>1075.185</ele>
        <time>2011-09-11T13:05:48Z</time>
      </trkpt>
      <trkpt lat="43.9262" lon="7.24451">
        <ele>1075.134</ele>
        <time>2011-09-11T13:05:49Z</time>
      </trkpt>
      <trkpt lat="43.92608" lon="7.24461">
        <ele>1073.073</ele>
        <time>2011-09-11T13:05:54Z</time>
      </trkpt>
      <trkpt lat="43.92597" lon="7.24451">
        <ele>1070.212</ele>
        <time>2011-09-11T13:05:59Z</time>
      </trkpt>
      <trkpt lat="43.92591" lon="7.24441">
        <ele>1066.79</ele>
        <time>2011-09-11T13:06:02Z</time>
      </trkpt>
      <trkpt lat="43.92587" lon="7.24424">
        <ele>1062.628</ele>
        <time>2011-09-11T13:06:06Z</time>
      </trkpt>
      <trkpt lat="43.92586" lon="7.24415">
        <ele>1061.387</ele>
        <time>2011-09-11T13:06:08Z</time>
      </trkpt>
      <trkpt lat="43.92578" lon="7.244">
        <ele>1057.638</ele>
        <time>2011-09-11T13:06:14Z</time>
      </trkpt>
      <trkpt lat="43.92566" lon="7.24398">
        <ele>1054.207</ele>
        <time>2011-09-11T13:06:19Z</time>
      </trkpt>
      <trkpt lat="43.92559" lon="7.24404">
        <ele>1051.686</ele>
        <time>2011-09-11T13:06:22Z</time>
      </trkpt>
      <trkpt lat="43.9254" lon="7.24409">
        <ele>1047.145</ele>
        <time>2011-09-11T13:06:28Z</time>
      </trkpt>
      <trkpt lat="43.92532" lon="7.24412">
        <ele>1046.208</ele>
        <time>2011-09-11T13:06:31Z</time>
      </trkpt>
      <trkpt lat="43.92531" lon="7.24415">
        <ele>1045.6</ele>
        <time>2011-09-11T13:06:34Z</time>
      </trkpt>
      <trkpt lat="43.92544" lon="7.24423">
        <ele>1042.478</ele>
        <time>2011-09-11T13:06:40Z</time>
      </trkpt>
      <trkpt lat="43.92546" lon="7.24429">
        <ele>1040.579</ele>
        <time>2011-09-11T13:06:43Z</time>
      </trkpt>
      <trkpt lat="43.92537" lon="7.24429">
        <ele>1036.036</ele>
        <time>2011-09-11T13:06:48Z</time>
      </trkpt>
      <trkpt lat="43.92527" lon="7.24435">
        <ele>1031.133</ele>
        <time>2011-09-11T13:06:52Z</time>
      </trkpt>
      <trkpt lat="43.92512" lon="7.24444">
        <ele>1026.085</ele>
        <time>2011-09-11T13:06:58Z</time>
      </trkpt>
      <trkpt lat="43.92509" lon="7.24446">
        <ele>1025.325</ele>
        <time>2011-09-11T13:06:59Z</time>
      </trkpt>
      <trkpt lat="43.92485" lon="7.24466">
        <ele>1019.557</ele>
        <time>2011-09-11T13:07:07Z</time>
      </trkpt>
      <trkpt lat="43.9248" lon="7.24471">
        <ele>1017.737</ele>
        <time>2011-09-11T13:07:10Z</time>
      </trkpt>
      <trkpt lat="43.92479" lon="7.24473">
        <ele>1016.337</ele>
        <time>2011-09-11T13:07:12Z</time>
      </trkpt>
      <trkpt lat="43.92487" lon="7.24475">
        <ele>1011.731</ele>
        <time>2011-09-11T13:07:18Z</time>
      </trkpt>
      <trkpt lat="43.92479" lon="7.24485">
        <ele>1008.498</ele>
        <time>2011-09-11T13:07:23Z</time>
      </trkpt>
      <trkpt lat="43.92468" lon="7.24494">
        <ele>1006.508</ele>
        <time>2011-09-11T13:07:28Z</time>
      </trkpt>
      <trkpt lat="43.92457" lon="7.24498">
        <ele>1002.767</ele>
        <time>2011-09-11T13:07:32Z</time>
      </trkpt>
      <trkpt lat="43.92447" lon="7.24506">
        <ele>999.516</ele>
        <time>2011-09-11T13:07:36Z</time>
      </trkpt>
      <trkpt lat="43.92446" lon="7.24509">
        <ele>1000.637</ele>
        <time>2011-09-11T13:07:38Z</time>
      </trkpt>
      <trkpt lat="43.92453" lon="7.24511">
        <ele>999.111</ele>
        <time>2011-09-11T13:07:42Z</time>
      </trkpt>
      <trkpt lat="43.92454" lon="7.24512">
        <ele>998.55</ele>
        <time>2011-09-11T13:07:43Z</time>
      </trkpt>
      <trkpt lat="43.9245" lon="7.24517">
        <ele>995.248</ele>
        <time>2011-09-11T13:07:46Z</time>
      </trkpt>
      <trkpt lat="43.92442" lon="7.24525">
        <ele>990.476</ele>
        <time>2011-09-11T13:07:50Z</time>
      </trkpt>
      <trkpt lat="43.92434" lon="7.24544">
        <ele>986.106</ele>
        <time>2011-09-11T13:07:56Z</time>
      </trkpt>
      <trkpt lat="43.92427" lon="7.24562">
        <ele>980.294</ele>
        <time>2011-09-11T13:08:02Z</time>
      </trkpt>
      <trkpt lat="43.92418" lon="7.24572">
        <ele>977.787</ele>
        <time>2011-09-11T13:08:06Z</time>
      </trkpt>
      <trkpt lat="43.92418" lon="7.24571">
        <ele>976.672</ele>
        <time>2011-09-11T13:08:12Z</time>
      </trkpt>
      <trkpt lat="43.92412" lon="7.24576">
        <ele>978.698</ele>
        <time>2011-09-11T13:10:52Z</time>
      </trkpt>
      <trkpt lat="43.9241" lon="7.24575">
        <ele>978.018</ele>
        <time>2011-09-11T13:10:56Z</time>
      </trkpt>
      <trkpt lat="43.92408" lon="7.24573">
        <ele>976.597</ele>
        <time>2011-09-11T13:11:02Z</time>
      </trkpt>
      <trkpt lat="43.92406" lon="7.2457">
        <ele>971.936</ele>
        <time>2011-09-11T13:11:27Z</time>
      </trkpt>
      <trkpt lat="43.924" lon="7.24562">
        <ele>971.116</ele>
        <time>2011-09-11T13:11:32Z</time>
      </trkpt>
      <trkpt lat="43.92394" lon="7.24558">
        <ele>972.637</ele>
        <time>2011-09-11T13:11:39Z</time>
      </trkpt>
      <trkpt lat="43.92392" lon="7.24559">
        <ele>972.647</ele>
        <time>2011-09-11T13:11:44Z</time>
      </trkpt>
      <trkpt lat="43.92392" lon="7.24559">
        <ele>974.019</ele>
        <time>2011-09-11T13:11:56Z</time>
      </trkpt>
      <trkpt lat="43.92382" lon="7.24562">
        <ele>976.261</ele>
        <time>2011-09-11T13:12:01Z</time>
      </trkpt>
      <trkpt lat="43.92373" lon="7.24554">
        <ele>976.508</ele>
        <time>2011-09-11T13:12:07Z</time>
      </trkpt>
      <trkpt lat="43.92366" lon="7.24538">
        <ele>973.944</ele>
        <time>2011-09-11T13:12:12Z</time>
      </trkpt>
      <trkpt lat="43.92361" lon="7.24528">
        <ele>971.421</ele>
        <time>2011-09-11T13:12:15Z</time>
      </trkpt>
      <trkpt lat="43.92353" lon="7.24515">
        <ele>971.385</ele>
        <time>2011-09-11T13:12:21Z</time>
      </trkpt>
      <trkpt lat="43.92351" lon="7.2451">
        <ele>970.194</ele>
        <time>2011-09-11T13:12:23Z</time>
      </trkpt>
      <trkpt lat="43.92349" lon="7.24501">
        <ele>966.58</ele>
        <time>2011-09-11T13:12:28Z</time>
      </trkpt>
      <trkpt lat="43.92348" lon="7.24504">
        <ele>966.801</ele>
        <time>2011-09-11T13:12:31Z</time>
      </trkpt>
      <trkpt lat="43.92345" lon="7.24496">
        <ele>965.181</ele>
        <time>2011-09-11T13:12:35Z</time>
      </trkpt>
      <trkpt lat="43.9234" lon="7.24481">
        <ele>961.1</ele>
        <time>2011-09-11T13:12:40Z</time>
      </trkpt>
      <trkpt lat="43.92336" lon="7.2448">
        <ele>959.598</ele>
        <time>2011-09-11T13:12:43Z</time>
      </trkpt>
      <trkpt lat="43.92336" lon="7.24487">
        <ele>956.719</ele>
        <time>2011-09-11T13:12:47Z</time>
      </trkpt>
      <trkpt lat="43.92329" lon="7.24477">
        <ele>953.369</ele>
        <time>2011-09-11T13:12:53Z</time>
      </trkpt>
      <trkpt lat="43.92325" lon="7.24468">
        <ele>950.606</ele>
        <time>2011-09-11T13:12:57Z</time>
      </trkpt>
      <trkpt lat="43.92316" lon="7.24459">
        <ele>948.706</ele>
        <time>2011-09-11T13:13:02Z</time>
      </trkpt>
      <trkpt lat="43.92315" lon="7.24447">
        <ele>947.306</ele>
        <time>2011-09-11T13:13:06Z</time>
      </trkpt>
      <trkpt lat="43.92308" lon="7.24435">
        <ele>943.877</ele>
        <time>2011-09-11T13:13:11Z</time>
      </trkpt>
      <trkpt lat="43.92311" lon="7.24423">
        <ele>944.37</ele>
        <time>2011-09-11T13:13:16Z</time>
      </trkpt>
      <trkpt lat="43.92316" lon="7.24406">
        <ele>942.41</ele>
        <time>2011-09-11T13:13:20Z</time>
      </trkpt>
      <trkpt lat="43.92313" lon="7.24393">
        <ele>941.91</ele>
        <time>2011-09-11T13:13:24Z</time>
      </trkpt>
      <trkpt lat="43.92304" lon="7.24384">
        <ele>938.507</ele>
        <time>2011-09-11T13:13:28Z</time>
      </trkpt>
      <trkpt lat="43.92301" lon="7.24383">
        <ele>938.518</ele>
        <time>2011-09-11T13:13:31Z</time>
      </trkpt>
      <trkpt lat="43.92299" lon="7.24382">
        <ele>937.819</ele>
        <time>2011-09-11T13:13:32Z</time>
      </trkpt>
      <trkpt lat="43.92289" lon="7.24385">
        <ele>934.226</ele>
        <time>2011-09-11T13:13:37Z</time>
      </trkpt>
      <trkpt lat="43.92282" lon="7.24386">
        <ele>930.503</ele>
        <time>2011-09-11T13:13:40Z</time>
      </trkpt>
      <trkpt lat="43.92271" lon="7.24379">
        <ele>928.587</ele>
        <time>2011-09-11T13:13:45Z</time>
      </trkpt>
      <trkpt lat="43.92266" lon="7.24377">
        <ele>928.608</ele>
        <time>2011-09-11T13:13:47Z</time>
      </trkpt>
      <trkpt lat="43.92265" lon="7.24379">
        <ele>929.186</ele>
        <time>2011-09-11T13:13:49Z</time>
      </trkpt>
      <trkpt lat="43.92267" lon="7.24384">
        <ele>927.45</ele>
        <time>2011-09-11T13:13:53Z</time>
      </trkpt>
      <trkpt lat="43.92254" lon="7.24381">
        <ele>924.97</ele>
        <time>2011-09-11T13:13:59Z</time>
      </trkpt>
      <trkpt lat="43.92249" lon="7.24365">
        <ele>924.581</ele>
        <time>2011-09-11T13:14:04Z</time>
      </trkpt>
      <trkpt lat="43.92241" lon="7.24361">
        <ele>924.341</ele>
        <time>2011-09-11T13:14:07Z</time>
      </trkpt>
      <trkpt lat="43.9223" lon="7.24362">
        <ele>922.22</ele>
        <time>2011-09-11T13:14:11Z</time>
      </trkpt>
      <trkpt lat="43.92213" lon="7.24365">
        <ele>920.359</ele>
        <time>2011-09-11T13:14:15Z</time>
      </trkpt>
      <trkpt lat="43.92208" lon="7.24354">
        <ele>919.34</ele>
        <time>2011-09-11T13:14:18Z</time>
      </trkpt>
      <trkpt lat="43.92194" lon="7.24329">
        <ele>914.368</ele>
        <time>2011-09-11T13:14:24Z</time>
      </trkpt>
      <trkpt lat="43.92182" lon="7.24322">
        <ele>912.039</ele>
        <time>2011-09-11T13:14:28Z</time>
      </trkpt>
      <trkpt lat="43.92168" lon="7.24323">
        <ele>908.949</ele>
        <time>2011-09-11T13:14:33Z</time>
      </trkpt>
      <trkpt lat="43.92159" lon="7.24333">
        <ele>906.067</ele>
        <time>2011-09-11T13:14:37Z</time>
      </trkpt>
      <trkpt lat="43.92146" lon="7.24347">
        <ele>902.956</ele>
        <time>2011-09-11T13:14:42Z</time>
      </trkpt>
      <trkpt lat="43.92135" lon="7.24365">
        <ele>896.876</ele>
        <time>2011-09-11T13:14:48Z</time>
      </trkpt>
      <trkpt lat="43.92133" lon="7.24369">
        <ele>896.121</ele>
        <time>2011-09-11T13:14:49Z</time>
      </trkpt>
      <trkpt lat="43.92121" lon="7.24373">
        <ele>891.395</ele>
        <time>2011-09-11T13:14:54Z</time>
      </trkpt>
      <trkpt lat="43.92113" lon="7.24368">
        <ele>888.826</ele>
        <time>2011-09-11T13:14:58Z</time>
      </trkpt>
      <trkpt lat="43.92107" lon="7.24366">
        <ele>885.465</ele>
        <time>2011-09-11T13:15:01Z</time>
      </trkpt>
      <trkpt lat="43.92102" lon="7.24373">
        <ele>881.864</ele>
        <time>2011-09-11T13:15:05Z</time>
      </trkpt>
      <trkpt lat="43.92097" lon="7.24371">
        <ele>879.564</ele>
        <time>2011-09-11T13:15:08Z</time>
      </trkpt>
      <trkpt lat="43.92094" lon="7.24371">
        <ele>878.794</ele>
        <time>2011-09-11T13:15:09Z</time>
      </trkpt>
      <trkpt lat="43.92078" lon="7.24366">
        <ele>872.482</ele>
        <time>2011-09-11T13:15:15Z</time>
      </trkpt>
      <trkpt lat="43.92067" lon="7.24363">
        <ele>868.864</ele>
        <time>2011-09-11T13:15:20Z</time>
      </trkpt>
      <trkpt lat="43.92062" lon="7.24365">
        <ele>865.103</ele>
        <time>2011-09-11T13:15:24Z</time>
      </trkpt>
      <trkpt lat="43.92058" lon="7.24353">
        <ele>862.755</ele>
        <time>2011-09-11T13:15:27Z</time>
      </trkpt>
      <trkpt lat="43.92051" lon="7.2435">
        <ele>860.265</ele>
        <time>2011-09-11T13:15:30Z</time>
      </trkpt>
      <trkpt lat="43.92053" lon="7.24353">
        <ele>860.174</ele>
        <time>2011-09-11T13:15:33Z</time>
      </trkpt>
      <trkpt lat="43.92056" lon="7.24349">
        <ele>869.514</ele>
        <time>2011-09-11T13:19:29Z</time>
      </trkpt>
      <trkpt lat="43.92054" lon="7.24365">
        <ele>867.262</ele>
        <time>2011-09-11T13:19:34Z</time>
      </trkpt>
      <trkpt lat="43.92044" lon="7.24381">
        <ele>863.128</ele>
        <time>2011-09-11T13:19:38Z</time>
      </trkpt>
      <trkpt lat="43.92038" lon="7.2439">
        <ele>861.095</ele>
        <time>2011-09-11T13:19:40Z</time>
      </trkpt>
      <trkpt lat="43.92031" lon="7.24407">
        <ele>856.617</ele>
        <time>2011-09-11T13:19:45Z</time>
      </trkpt>
      <trkpt lat="43.9203" lon="7.24409">
        <ele>856.196</ele>
        <time>2011-09-11T13:19:46Z</time>
      </trkpt>
      <trkpt lat="43.92032" lon="7.24409">
        <ele>851.761</ele>
        <time>2011-09-11T13:19:52Z</time>
      </trkpt>
      <trkpt lat="43.92027" lon="7.24411">
        <ele>848.932</ele>
        <time>2011-09-11T13:19:57Z</time>
      </trkpt>
      <trkpt lat="43.92025" lon="7.24416">
        <ele>847.434</ele>
        <time>2011-09-11T13:20:04Z</time>
      </trkpt>
      <trkpt lat="43.92025" lon="7.24416">
        <ele>847.105</ele>
        <time>2011-09-11T13:20:06Z</time>
      </trkpt>
      <trkpt lat="43.92027" lon="7.24415">
        <ele>845.286</ele>
        <time>2011-09-11T13:20:13Z</time>
      </trkpt>
      <trkpt lat="43.92027" lon="7.24415">
        <ele>851.129</ele>
        <time>2011-09-11T13:21:14Z</time>
      </trkpt>
      <trkpt lat="43.9202" lon="7.24431">
        <ele>850.245</ele>
        <time>2011-09-11T13:21:19Z</time>
      </trkpt>
      <trkpt lat="43.92016" lon="7.24439">
        <ele>849.753</ele>
        <time>2011-09-11T13:21:21Z</time>
      </trkpt>
      <trkpt lat="43.92003" lon="7.24455">
        <ele>847.48</ele>
        <time>2011-09-11T13:21:25Z</time>
      </trkpt>
      <trkpt lat="43.91994" lon="7.24463">
        <ele>845.978</ele>
        <time>2011-09-11T13:21:27Z</time>
      </trkpt>
      <trkpt lat="43.91972" lon="7.24474">
        <ele>839.583</ele>
        <time>2011-09-11T13:21:32Z</time>
      </trkpt>
      <trkpt lat="43.91952" lon="7.24482">
        <ele>835.747</ele>
        <time>2011-09-11T13:21:37Z</time>
      </trkpt>
      <trkpt lat="43.91944" lon="7.24486">
        <ele>833.878</ele>
        <time>2011-09-11T13:21:40Z</time>
      </trkpt>
      <trkpt lat="43.91942" lon="7.24491">
        <ele>833.237</ele>
        <time>2011-09-11T13:21:41Z</time>
      </trkpt>
      <trkpt lat="43.91925" lon="7.24514">
        <ele>829.275</ele>
        <time>2011-09-11T13:21:46Z</time>
      </trkpt>
      <trkpt lat="43.91918" lon="7.24517">
        <ele>828.266</ele>
        <time>2011-09-11T13:21:48Z</time>
      </trkpt>
      <trkpt lat="43.91898" lon="7.24523">
        <ele>823.407</ele>
        <time>2011-09-11T13:21:56Z</time>
      </trkpt>
      <trkpt lat="43.9189" lon="7.24527">
        <ele>821.729</ele>
        <time>2011-09-11T13:21:59Z</time>
      </trkpt>
      <trkpt lat="43.91886" lon="7.24527">
        <ele>820.294</ele>
        <time>2011-09-11T13:22:04Z</time>
      </trkpt>
      <trkpt lat="43.91886" lon="7.24528">
        <ele>819.297</ele>
        <time>2011-09-11T13:22:12Z</time>
      </trkpt>
      <trkpt lat="43.91887" lon="7.24528">
        <ele>819.108</ele>
        <time>2011-09-11T13:22:19Z</time>
      </trkpt>
      <trkpt lat="43.91881" lon="7.24537">
        <ele>818.426</ele>
        <time>2011-09-11T13:22:23Z</time>
      </trkpt>
      <trkpt lat="43.9187" lon="7.24556">
        <ele>818.396</ele>
        <time>2011-09-11T13:22:29Z</time>
      </trkpt>
      <trkpt lat="43.91855" lon="7.24587">
        <ele>816.682</ele>
        <time>2011-09-11T13:22:35Z</time>
      </trkpt>
      <trkpt lat="43.91831" lon="7.24632">
        <ele>813.332</ele>
        <time>2011-09-11T13:22:42Z</time>
      </trkpt>
      <trkpt lat="43.91805" lon="7.2468">
        <ele>812.683</ele>
        <time>2011-09-11T13:22:49Z</time>
      </trkpt>
      <trkpt lat="43.91793" lon="7.247">
        <ele>811.111</ele>
        <time>2011-09-11T13:22:52Z</time>
      </trkpt>
      <trkpt lat="43.9178" lon="7.24717">
        <ele>810.062</ele>
        <time>2011-09-11T13:22:55Z</time>
      </trkpt>
      <trkpt lat="43.91775" lon="7.24726">
        <ele>810.324</ele>
        <time>2011-09-11T13:22:57Z</time>
      </trkpt>
      <trkpt lat="43.91769" lon="7.24744">
        <ele>810.528</ele>
        <time>2011-09-11T13:23:02Z</time>
      </trkpt>
      <trkpt lat="43.91776" lon="7.24748">
        <ele>808.375</ele>
        <time>2011-09-11T13:23:06Z</time>
      </trkpt>
      <trkpt lat="43.9178" lon="7.24746">
        <ele>807.353</ele>
        <time>2011-09-11T13:23:07Z</time>
      </trkpt>
      <trkpt lat="43.91799" lon="7.24734">
        <ele>801.508</ele>
        <time>2011-09-11T13:23:11Z</time>
      </trkpt>
      <trkpt lat="43.91808" lon="7.24724">
        <ele>799.827</ele>
        <time>2011-09-11T13:23:13Z</time>
      </trkpt>
      <trkpt lat="43.91824" lon="7.24706">
        <ele>797.778</ele>
        <time>2011-09-11T13:23:17Z</time>
      </trkpt>
      <trkpt lat="43.91852" lon="7.2469">
        <ele>793.227</ele>
        <time>2011-09-11T13:23:22Z</time>
      </trkpt>
      <trkpt lat="43.91877" lon="7.24668">
        <ele>788.028</ele>
        <time>2011-09-11T13:23:27Z</time>
      </trkpt>
      <trkpt lat="43.91899" lon="7.24642">
        <ele>785.629</ele>
        <time>2011-09-11T13:23:31Z</time>
      </trkpt>
      <trkpt lat="43.91922" lon="7.24636">
        <ele>779.845</ele>
        <time>2011-09-11T13:23:35Z</time>
      </trkpt>
      <trkpt lat="43.91935" lon="7.24621">
        <ele>777.086</ele>
        <time>2011-09-11T13:23:38Z</time>
      </trkpt>
      <trkpt lat="43.91946" lon="7.24608">
        <ele>774.486</ele>
        <time>2011-09-11T13:23:41Z</time>
      </trkpt>
      <trkpt lat="43.91955" lon="7.24602">
        <ele>773.095</ele>
        <time>2011-09-11T13:23:43Z</time>
      </trkpt>
      <trkpt lat="43.91971" lon="7.24608">
        <ele>770.976</ele>
        <time>2011-09-11T13:23:47Z</time>
      </trkpt>
      <trkpt lat="43.91979" lon="7.24607">
        <ele>768.732</ele>
        <time>2011-09-11T13:23:49Z</time>
      </trkpt>
      <trkpt lat="43.91993" lon="7.24603">
        <ele>765.304</ele>
        <time>2011-09-11T13:23:52Z</time>
      </trkpt>
      <trkpt lat="43.92007" lon="7.24613">
        <ele>763.297</ele>
        <time>2011-09-11T13:23:56Z</time>
      </trkpt>
      <trkpt lat="43.9202" lon="7.2462">
        <ele>762.228</ele>
        <time>2011-09-11T13:23:59Z</time>
      </trkpt>
      <trkpt lat="43.92045" lon="7.2462">
        <ele>758.227</ele>
        <time>2011-09-11T13:24:04Z</time>
      </trkpt>
      <trkpt lat="43.92056" lon="7.24616">
        <ele>757.169</ele>
        <time>2011-09-11T13:24:07Z</time>
      </trkpt>
      <trkpt lat="43.92068" lon="7.24628">
        <ele>758.353</ele>
        <time>2011-09-11T13:24:10Z</time>
      </trkpt>
      <trkpt lat="43.92088" lon="7.24631">
        <ele>755.039</ele>
        <time>2011-09-11T13:24:14Z</time>
      </trkpt>
      <trkpt lat="43.92097" lon="7.24627">
        <ele>755.451</ele>
        <time>2011-09-11T13:24:17Z</time>
      </trkpt>
      <trkpt lat="43.92103" lon="7.24629">
        <ele>752.519</ele>
        <time>2011-09-11T13:24:20Z</time>
      </trkpt>
      <trkpt lat="43.92106" lon="7.2464">
        <ele>749.707</ele>
        <time>2011-09-11T13:24:23Z</time>
      </trkpt>
      <trkpt lat="43.92105" lon="7.24652">
        <ele>748.329</ele>
        <time>2011-09-11T13:24:25Z</time>
      </trkpt>
      <trkpt lat="43.92097" lon="7.24686">
        <ele>745.811</ele>
        <time>2011-09-11T13:24:30Z</time>
      </trkpt>
      <trkpt lat="43.92099" lon="7.24716">
        <ele>740.559</ele>
        <time>2011-09-11T13:24:34Z</time>
      </trkpt>
      <trkpt lat="43.92098" lon="7.2473">
        <ele>739.61</ele>
        <time>2011-09-11T13:24:36Z</time>
      </trkpt>
      <trkpt lat="43.92092" lon="7.24763">
        <ele>736.588</ele>
        <time>2011-09-11T13:24:41Z</time>
      </trkpt>
      <trkpt lat="43.92095" lon="7.24786">
        <ele>733.307</ele>
        <time>2011-09-11T13:24:44Z</time>
      </trkpt>
      <trkpt lat="43.921" lon="7.24821">
        <ele>728.178</ele>
        <time>2011-09-11T13:24:50Z</time>
      </trkpt>
      <trkpt lat="43.92106" lon="7.24849">
        <ele>723.725</ele>
        <time>2011-09-11T13:24:54Z</time>
      </trkpt>
      <trkpt lat="43.92108" lon="7.2488">
        <ele>719.866</ele>
        <time>2011-09-11T13:24:58Z</time>
      </trkpt>
      <trkpt lat="43.92108" lon="7.24895">
        <ele>716.162</ele>
        <time>2011-09-11T13:25:01Z</time>
      </trkpt>
      <trkpt lat="43.92098" lon="7.24916">
        <ele>713.035</ele>
        <time>2011-09-11T13:25:06Z</time>
      </trkpt>
      <trkpt lat="43.92098" lon="7.24924">
        <ele>713.105</ele>
        <time>2011-09-11T13:25:09Z</time>
      </trkpt>
      <trkpt lat="43.92098" lon="7.24924">
        <ele>712.857</ele>
        <time>2011-09-11T13:25:17Z</time>
      </trkpt>
      <trkpt lat="43.92098" lon="7.24926">
        <ele>713.048</ele>
        <time>2011-09-11T13:25:23Z</time>
      </trkpt>
      <trkpt lat="43.92098" lon="7.24926">
        <ele>713.319</ele>
        <time>2011-09-11T13:25:24Z</time>
      </trkpt>
      <trkpt lat="43.92091" lon="7.24928">
        <ele>712.426</ele>
        <time>2011-09-11T13:25:28Z</time>
      </trkpt>
      <trkpt lat="43.92094" lon="7.24933">
        <ele>712.076</ele>
        <time>2011-09-11T13:25:30Z</time>
      </trkpt>
      <trkpt lat="43.92106" lon="7.24949">
        <ele>710.093</ele>
        <time>2011-09-11T13:25:35Z</time>
      </trkpt>
      <trkpt lat="43.92108" lon="7.24963">
        <ele>708.681</ele>
        <time>2011-09-11T13:25:38Z</time>
      </trkpt>
      <trkpt lat="43.92117" lon="7.24984">
        <ele>705.268</ele>
        <time>2011-09-11T13:25:42Z</time>
      </trkpt>
      <trkpt lat="43.92122" lon="7.24994">
        <ele>704.198</ele>
        <time>2011-09-11T13:25:44Z</time>
      </trkpt>
      <trkpt lat="43.92124" lon="7.25005">
        <ele>702.437</ele>
        <time>2011-09-11T13:25:46Z</time>
      </trkpt>
      <trkpt lat="43.92129" lon="7.25022">
        <ele>699.784</ele>
        <time>2011-09-11T13:25:49Z</time>
      </trkpt>
      <trkpt lat="43.92132" lon="7.25057">
        <ele>694.527</ele>
        <time>2011-09-11T13:25:54Z</time>
      </trkpt>
      <trkpt lat="43.92135" lon="7.2507">
        <ele>691.805</ele>
        <time>2011-09-11T13:25:56Z</time>
      </trkpt>
      <trkpt lat="43.9214" lon="7.25082">
        <ele>689.385</ele>
        <time>2011-09-11T13:25:58Z</time>
      </trkpt>
      <trkpt lat="43.92144" lon="7.25111">
        <ele>684.111</ele>
        <time>2011-09-11T13:26:02Z</time>
      </trkpt>
      <trkpt lat="43.9215" lon="7.25141">
        <ele>680.075</ele>
        <time>2011-09-11T13:26:07Z</time>
      </trkpt>
      <trkpt lat="43.92155" lon="7.25177">
        <ele>674.084</ele>
        <time>2011-09-11T13:26:13Z</time>
      </trkpt>
      <trkpt lat="43.92141" lon="7.25204">
        <ele>669.776</ele>
        <time>2011-09-11T13:26:19Z</time>
      </trkpt>
      <trkpt lat="43.92138" lon="7.25208">
        <ele>667.997</ele>
        <time>2011-09-11T13:26:23Z</time>
      </trkpt>
      <trkpt lat="43.92136" lon="7.2521">
        <ele>674.504</ele>
        <time>2011-09-11T13:26:38Z</time>
      </trkpt>
      <trkpt lat="43.92133" lon="7.25218">
        <ele>673.862</ele>
        <time>2011-09-11T13:26:42Z</time>
      </trkpt>
      <trkpt lat="43.92134" lon="7.25242">
        <ele>669.768</ele>
        <time>2011-09-11T13:26:47Z</time>
      </trkpt>
      <trkpt lat="43.92138" lon="7.25266">
        <ele>667.859</ele>
        <time>2011-09-11T13:26:52Z</time>
      </trkpt>
      <trkpt lat="43.92139" lon="7.25276">
        <ele>666.089</ele>
        <time>2011-09-11T13:26:56Z</time>
      </trkpt>
      <trkpt lat="43.92139" lon="7.25283">
        <ele>666.673</ele>
        <time>2011-09-11T13:27:00Z</time>
      </trkpt>
      <trkpt lat="43.92142" lon="7.25291">
        <ele>667.902</ele>
        <time>2011-09-11T13:27:05Z</time>
      </trkpt>
      <trkpt lat="43.92143" lon="7.25296">
        <ele>669.101</ele>
        <time>2011-09-11T13:27:12Z</time>
      </trkpt>
      <trkpt lat="43.92142" lon="7.25297">
        <ele>670.703</ele>
        <time>2011-09-11T13:27:20Z</time>
      </trkpt>
      <trkpt lat="43.92143" lon="7.25295">
        <ele>671.572</ele>
        <time>2011-09-11T13:27:25Z</time>
      </trkpt>
      <trkpt lat="43.92142" lon="7.25288">
        <ele>671.15</ele>
        <time>2011-09-11T13:27:28Z</time>
      </trkpt>
      <trkpt lat="43.92134" lon="7.25256">
        <ele>669.275</ele>
        <time>2011-09-11T13:27:33Z</time>
      </trkpt>
      <trkpt lat="43.9213" lon="7.25236">
        <ele>670.361</ele>
        <time>2011-09-11T13:27:38Z</time>
      </trkpt>
      <trkpt lat="43.92131" lon="7.2522">
        <ele>671.505</ele>
        <time>2011-09-11T13:27:44Z</time>
      </trkpt>
      <trkpt lat="43.92136" lon="7.25208">
        <ele>671.793</ele>
        <time>2011-09-11T13:27:49Z</time>
      </trkpt>
      <trkpt lat="43.92133" lon="7.25206">
        <ele>671.32</ele>
        <time>2011-09-11T13:27:53Z</time>
      </trkpt>
      <trkpt lat="43.92132" lon="7.25208">
        <ele>671.491</ele>
        <time>2011-09-11T13:27:54Z</time>
      </trkpt>
      <trkpt lat="43.92123" lon="7.25226">
        <ele>669.296</ele>
        <time>2011-09-11T13:28:00Z</time>
      </trkpt>
      <trkpt lat="43.92118" lon="7.2525">
        <ele>665.472</ele>
        <time>2011-09-11T13:28:04Z</time>
      </trkpt>
      <trkpt lat="43.92121" lon="7.25268">
        <ele>662.731</ele>
        <time>2011-09-11T13:28:06Z</time>
      </trkpt>
      <trkpt lat="43.92122" lon="7.25286">
        <ele>659.676</ele>
        <time>2011-09-11T13:28:08Z</time>
      </trkpt>
      <trkpt lat="43.9212" lon="7.25312">
        <ele>656.026</ele>
        <time>2011-09-11T13:28:11Z</time>
      </trkpt>
      <trkpt lat="43.92118" lon="7.25328">
        <ele>653.616</ele>
        <time>2011-09-11T13:28:13Z</time>
      </trkpt>
      <trkpt lat="43.92099" lon="7.25356">
        <ele>646.814</ele>
        <time>2011-09-11T13:28:18Z</time>
      </trkpt>
      <trkpt lat="43.92096" lon="7.25358">
        <ele>645.794</ele>
        <time>2011-09-11T13:28:19Z</time>
      </trkpt>
      <trkpt lat="43.92085" lon="7.25362">
        <ele>643.414</ele>
        <time>2011-09-11T13:28:22Z</time>
      </trkpt>
      <trkpt lat="43.92087" lon="7.25357">
        <ele>640.473</ele>
        <time>2011-09-11T13:28:26Z</time>
      </trkpt>
      <trkpt lat="43.92089" lon="7.25347">
        <ele>636.584</ele>
        <time>2011-09-11T13:28:29Z</time>
      </trkpt>
      <trkpt lat="43.92086" lon="7.25347">
        <ele>634.886</ele>
        <time>2011-09-11T13:28:32Z</time>
      </trkpt>
      <trkpt lat="43.92081" lon="7.25348">
        <ele>633.36</ele>
        <time>2011-09-11T13:28:35Z</time>
      </trkpt>
      <trkpt lat="43.92077" lon="7.25352">
        <ele>632.562</ele>
        <time>2011-09-11T13:28:38Z</time>
      </trkpt>
      <trkpt lat="43.92074" lon="7.25355">
        <ele>630.152</ele>
        <time>2011-09-11T13:28:42Z</time>
      </trkpt>
      <trkpt lat="43.92073" lon="7.25356">
        <ele>629.983</ele>
        <time>2011-09-11T13:28:43Z</time>
      </trkpt>
      <trkpt lat="43.92064" lon="7.25367">
        <ele>627.142</ele>
        <time>2011-09-11T13:28:49Z</time>
      </trkpt>
      <trkpt lat="43.92058" lon="7.25377">
        <ele>625.053</ele>
        <time>2011-09-11T13:28:53Z</time>
      </trkpt>
      <trkpt lat="43.92057" lon="7.25386">
        <ele>623.002</ele>
        <time>2011-09-11T13:28:56Z</time>
      </trkpt>
      <trkpt lat="43.92053" lon="7.25399">
        <ele>618.589</ele>
        <time>2011-09-11T13:29:01Z</time>
      </trkpt>
      <trkpt lat="43.92047" lon="7.25413">
        <ele>616.044</ele>
        <time>2011-09-11T13:29:06Z</time>
      </trkpt>
      <trkpt lat="43.92044" lon="7.25424">
        <ele>615.306</ele>
        <time>2011-09-11T13:29:09Z</time>
      </trkpt>
      <trkpt lat="43.92046" lon="7.25448">
        <ele>612.416</ele>
        <time>2011-09-11T13:29:15Z</time>
      </trkpt>
      <trkpt lat="43.92059" lon="7.25475">
        <ele>610.876</ele>
        <time>2011-09-11T13:29:21Z</time>
      </trkpt>
      <trkpt lat="43.92075" lon="7.255">
        <ele>608.555</ele>
        <time>2011-09-11T13:29:26Z</time>
      </trkpt>
      <trkpt lat="43.92077" lon="7.25503">
        <ele>608.278</ele>
        <time>2011-09-11T13:29:28Z</time>
      </trkpt>
      <trkpt lat="43.92078" lon="7.25499">
        <ele>607.858</ele>
        <time>2011-09-11T13:29:32Z</time>
      </trkpt>
      <trkpt lat="43.92077" lon="7.25497">
        <ele>608.29</ele>
        <time>2011-09-11T13:29:33Z</time>
      </trkpt>
      <trkpt lat="43.92073" lon="7.25493">
        <ele>608.54</ele>
        <time>2011-09-11T13:29:35Z</time>
      </trkpt>
      <trkpt lat="43.92071" lon="7.25498">
        <ele>608.579</ele>
        <time>2011-09-11T13:29:39Z</time>
      </trkpt>
      <trkpt lat="43.92071" lon="7.25501">
        <ele>608.629</ele>
        <time>2011-09-11T13:29:40Z</time>
      </trkpt>
      <trkpt lat="43.92079" lon="7.25519">
        <ele>606.074</ele>
        <time>2011-09-11T13:29:45Z</time>
      </trkpt>
      <trkpt lat="43.9209" lon="7.25535">
        <ele>602.833</ele>
        <time>2011-09-11T13:29:50Z</time>
      </trkpt>
      <trkpt lat="43.92095" lon="7.2554">
        <ele>602.473</ele>
        <time>2011-09-11T13:29:52Z</time>
      </trkpt>
      <trkpt lat="43.92101" lon="7.25553">
        <ele>601.207</ele>
        <time>2011-09-11T13:29:56Z</time>
      </trkpt>
      <trkpt lat="43.92116" lon="7.25567">
        <ele>598.63</ele>
        <time>2011-09-11T13:30:03Z</time>
      </trkpt>
      <trkpt lat="43.92123" lon="7.25576">
        <ele>599.291</ele>
        <time>2011-09-11T13:30:07Z</time>
      </trkpt>
      <trkpt lat="43.92129" lon="7.25583">
        <ele>598.619</ele>
        <time>2011-09-11T13:30:12Z</time>
      </trkpt>
      <trkpt lat="43.92135" lon="7.25589">
        <ele>598.37</ele>
        <time>2011-09-11T13:30:16Z</time>
      </trkpt>
      <trkpt lat="43.92144" lon="7.25585">
        <ele>598.862</ele>
        <time>2011-09-11T13:30:22Z</time>
      </trkpt>
      <trkpt lat="43.92148" lon="7.25579">
        <ele>598.73</ele>
        <time>2011-09-11T13:30:27Z</time>
      </trkpt>
      <trkpt lat="43.92148" lon="7.25577">
        <ele>598.801</ele>
        <time>2011-09-11T13:30:33Z</time>
      </trkpt>
      <trkpt lat="43.92137" lon="7.25579">
        <ele>599.089</ele>
        <time>2011-09-11T13:30:39Z</time>
      </trkpt>
      <trkpt lat="43.92124" lon="7.25572">
        <ele>600.5</ele>
        <time>2011-09-11T13:30:44Z</time>
      </trkpt>
      <trkpt lat="43.92112" lon="7.25559">
        <ele>601.079</ele>
        <time>2011-09-11T13:30:49Z</time>
      </trkpt>
      <trkpt lat="43.92096" lon="7.25544">
        <ele>598.567</ele>
        <time>2011-09-11T13:30:54Z</time>
      </trkpt>
      <trkpt lat="43.92093" lon="7.25543">
        <ele>599.29</ele>
        <time>2011-09-11T13:30:58Z</time>
      </trkpt>
      <trkpt lat="43.92094" lon="7.25543">
        <ele>601.103</ele>
        <time>2011-09-11T13:31:04Z</time>
      </trkpt>
      <trkpt lat="43.92095" lon="7.25549">
        <ele>601.35</ele>
        <time>2011-09-11T13:31:11Z</time>
      </trkpt>
      <trkpt lat="43.92102" lon="7.25568">
        <ele>600.678</ele>
        <time>2011-09-11T13:31:16Z</time>
      </trkpt>
      <trkpt lat="43.92106" lon="7.25576">
        <ele>600.839</ele>
        <time>2011-09-11T13:31:18Z</time>
      </trkpt>
      <trkpt lat="43.92108" lon="7.25596">
        <ele>594.352</ele>
        <time>2011-09-11T13:31:25Z</time>
      </trkpt>
      <trkpt lat="43.92113" lon="7.25616">
        <ele>590.193</ele>
        <time>2011-09-11T13:31:30Z</time>
      </trkpt>
      <trkpt lat="43.92124" lon="7.25633">
        <ele>586.018</ele>
        <time>2011-09-11T13:31:36Z</time>
      </trkpt>
      <trkpt lat="43.92127" lon="7.25635">
        <ele>585.162</ele>
        <time>2011-09-11T13:31:37Z</time>
      </trkpt>
      <trkpt lat="43.92144" lon="7.25647">
        <ele>581.893</ele>
        <time>2011-09-11T13:31:42Z</time>
      </trkpt>
      <trkpt lat="43.92147" lon="7.25648">
        <ele>578.765</ele>
        <time>2011-09-11T13:31:47Z</time>
      </trkpt>
      <trkpt lat="43.92148" lon="7.25646">
        <ele>580.831</ele>
        <time>2011-09-11T13:31:54Z</time>
      </trkpt>
      <trkpt lat="43.92145" lon="7.25645">
        <ele>583.872</ele>
        <time>2011-09-11T13:32:00Z</time>
      </trkpt>
      <trkpt lat="43.92145" lon="7.25647">
        <ele>586.104</ele>
        <time>2011-09-11T13:32:04Z</time>
      </trkpt>
      <trkpt lat="43.92144" lon="7.2565">
        <ele>585.242</ele>
        <time>2011-09-11T13:32:06Z</time>
      </trkpt>
      <trkpt lat="43.92136" lon="7.25652">
        <ele>583.968</ele>
        <time>2011-09-11T13:32:11Z</time>
      </trkpt>
      <trkpt lat="43.92123" lon="7.25642">
        <ele>582.336</ele>
        <time>2011-09-11T13:32:15Z</time>
      </trkpt>
      <trkpt lat="43.9212" lon="7.2565">
        <ele>581.267</ele>
        <time>2011-09-11T13:32:19Z</time>
      </trkpt>
      <trkpt lat="43.92121" lon="7.25653">
        <ele>581.407</ele>
        <time>2011-09-11T13:32:20Z</time>
      </trkpt>
      <trkpt lat="43.92132" lon="7.25677">
        <ele>579.143</ele>
        <time>2011-09-11T13:32:25Z</time>
      </trkpt>
      <trkpt lat="43.92136" lon="7.25685">
        <ele>577.231</ele>
        <time>2011-09-11T13:32:27Z</time>
      </trkpt>
      <trkpt lat="43.92146" lon="7.25684">
        <ele>572.301</ele>
        <time>2011-09-11T13:32:33Z</time>
      </trkpt>
      <trkpt lat="43.92158" lon="7.25686">
        <ele>566.036</ele>
        <time>2011-09-11T13:32:38Z</time>
      </trkpt>
      <trkpt lat="43.92163" lon="7.25687">
        <ele>563.865</ele>
        <time>2011-09-11T13:32:40Z</time>
      </trkpt>
      <trkpt lat="43.92165" lon="7.2569">
        <ele>562.317</ele>
        <time>2011-09-11T13:32:43Z</time>
      </trkpt>
      <trkpt lat="43.92167" lon="7.25696">
        <ele>558.538</ele>
        <time>2011-09-11T13:32:47Z</time>
      </trkpt>
      <trkpt lat="43.92178" lon="7.25693">
        <ele>554.836</ele>
        <time>2011-09-11T13:32:51Z</time>
      </trkpt>
      <trkpt lat="43.9219" lon="7.25695">
        <ele>552.126</ele>
        <time>2011-09-11T13:32:54Z</time>
      </trkpt>
      <trkpt lat="43.92211" lon="7.25705">
        <ele>546.807</ele>
        <time>2011-09-11T13:33:00Z</time>
      </trkpt>
      <trkpt lat="43.92217" lon="7.25711">
        <ele>546.258</ele>
        <time>2011-09-11T13:33:02Z</time>
      </trkpt>
      <trkpt lat="43.92236" lon="7.25719">
        <ele>543.96</ele>
        <time>2011-09-11T13:33:06Z</time>
      </trkpt>
      <trkpt lat="43.92257" lon="7.25721">
        <ele>545.025</ele>
        <time>2011-09-11T13:33:10Z</time>
      </trkpt>
      <trkpt lat="43.92279" lon="7.2572">
        <ele>542.435</ele>
        <time>2011-09-11T13:33:14Z</time>
      </trkpt>
      <trkpt lat="43.9231" lon="7.25721">
        <ele>536.87</ele>
        <time>2011-09-11T13:33:20Z</time>
      </trkpt>
      <trkpt lat="43.92331" lon="7.25724">
        <ele>531.029</ele>
        <time>2011-09-11T13:33:25Z</time>
      </trkpt>
      <trkpt lat="43.92348" lon="7.25725">
        <ele>526.577</ele>
        <time>2011-09-11T13:33:29Z</time>
      </trkpt>
      <trkpt lat="43.92361" lon="7.25726">
        <ele>523.068</ele>
        <time>2011-09-11T13:33:32Z</time>
      </trkpt>
      <trkpt lat="43.9238" lon="7.25727">
        <ele>518.078</ele>
        <time>2011-09-11T13:33:37Z</time>
      </trkpt>
      <trkpt lat="43.92389" lon="7.25723">
        <ele>513.904</ele>
        <time>2011-09-11T13:33:39Z</time>
      </trkpt>
      <trkpt lat="43.92412" lon="7.25728">
        <ele>508.257</ele>
        <time>2011-09-11T13:33:45Z</time>
      </trkpt>
      <trkpt lat="43.92415" lon="7.2573">
        <ele>508.318</ele>
        <time>2011-09-11T13:33:46Z</time>
      </trkpt>
      <trkpt lat="43.92439" lon="7.25734">
        <ele>502.818</ele>
        <time>2011-09-11T13:33:53Z</time>
      </trkpt>
      <trkpt lat="43.92456" lon="7.25734">
        <ele>499.149</ele>
        <time>2011-09-11T13:33:57Z</time>
      </trkpt>
      <trkpt lat="43.9247" lon="7.25733">
        <ele>495.619</ele>
        <time>2011-09-11T13:34:00Z</time>
      </trkpt>
      <trkpt lat="43.92484" lon="7.25729">
        <ele>492</ele>
        <time>2011-09-11T13:34:03Z</time>
      </trkpt>
      <trkpt lat="43.925" lon="7.25723">
        <ele>488.899</ele>
        <time>2011-09-11T13:34:07Z</time>
      </trkpt>
      <trkpt lat="43.92509" lon="7.2572">
        <ele>487.019</ele>
        <time>2011-09-11T13:34:09Z</time>
      </trkpt>
      <trkpt lat="43.92528" lon="7.2571">
        <ele>480.487</ele>
        <time>2011-09-11T13:34:14Z</time>
      </trkpt>
      <trkpt lat="43.92547" lon="7.257">
        <ele>471.053</ele>
        <time>2011-09-11T13:34:19Z</time>
      </trkpt>
      <trkpt lat="43.92553" lon="7.25702">
        <ele>474.371</ele>
        <time>2011-09-11T13:34:23Z</time>
      </trkpt>
      <trkpt lat="43.92553" lon="7.25703">
        <ele>473.801</ele>
        <time>2011-09-11T13:34:24Z</time>
      </trkpt>
      <trkpt lat="43.92549" lon="7.25714">
        <ele>469.598</ele>
        <time>2011-09-11T13:34:27Z</time>
      </trkpt>
      <trkpt lat="43.9255" lon="7.25719">
        <ele>466.712</ele>
        <time>2011-09-11T13:34:30Z</time>
      </trkpt>
      <trkpt lat="43.92565" lon="7.25714">
        <ele>463.546</ele>
        <time>2011-09-11T13:34:37Z</time>
      </trkpt>
      <trkpt lat="43.92581" lon="7.25709">
        <ele>458.055</ele>
        <time>2011-09-11T13:34:42Z</time>
      </trkpt>
      <trkpt lat="43.92602" lon="7.25706">
        <ele>451.063</ele>
        <time>2011-09-11T13:34:48Z</time>
      </trkpt>
      <trkpt lat="43.92618" lon="7.25714">
        <ele>450.119</ele>
        <time>2011-09-11T13:34:53Z</time>
      </trkpt>
      <trkpt lat="43.9262" lon="7.25716">
        <ele>450.862</ele>
        <time>2011-09-11T13:34:56Z</time>
      </trkpt>
      <trkpt lat="43.9262" lon="7.25724">
        <ele>449.403</ele>
        <time>2011-09-11T13:35:00Z</time>
      </trkpt>
      <trkpt lat="43.9262" lon="7.25728">
        <ele>448.155</ele>
        <time>2011-09-11T13:35:02Z</time>
      </trkpt>
      <trkpt lat="43.92615" lon="7.25739">
        <ele>450.762</ele>
        <time>2011-09-11T13:35:08Z</time>
      </trkpt>
      <trkpt lat="43.92612" lon="7.25742">
        <ele>454.036</ele>
        <time>2011-09-11T13:35:10Z</time>
      </trkpt>
      <trkpt lat="43.92604" lon="7.2576">
        <ele>452.775</ele>
        <time>2011-09-11T13:35:16Z</time>
      </trkpt>
      <trkpt lat="43.92604" lon="7.25764">
        <ele>451.904</ele>
        <time>2011-09-11T13:35:17Z</time>
      </trkpt>
      <trkpt lat="43.92607" lon="7.25781">
        <ele>449.871</ele>
        <time>2011-09-11T13:35:23Z</time>
      </trkpt>
      <trkpt lat="43.9261" lon="7.25804">
        <ele>448.602</ele>
        <time>2011-09-11T13:35:30Z</time>
      </trkpt>
      <trkpt lat="43.9261" lon="7.25821">
        <ele>450.246</ele>
        <time>2011-09-11T13:35:36Z</time>
      </trkpt>
      <trkpt lat="43.92611" lon="7.25834">
        <ele>451.466</ele>
        <time>2011-09-11T13:35:41Z</time>
      </trkpt>
      <trkpt lat="43.9261" lon="7.25842">
        <ele>451.927</ele>
        <time>2011-09-11T13:35:44Z</time>
      </trkpt>
      <trkpt lat="43.9261" lon="7.25852">
        <ele>452.256</ele>
        <time>2011-09-11T13:35:47Z</time>
      </trkpt>
      <trkpt lat="43.92596" lon="7.25871">
        <ele>448.938</ele>
        <time>2011-09-11T13:35:52Z</time>
      </trkpt>
      <trkpt lat="43.92591" lon="7.25894">
        <ele>442.961</ele>
        <time>2011-09-11T13:35:56Z</time>
      </trkpt>
      <trkpt lat="43.92589" lon="7.25918">
        <ele>438.03</ele>
        <time>2011-09-11T13:36:00Z</time>
      </trkpt>
      <trkpt lat="43.9259" lon="7.25924">
        <ele>436.809</ele>
        <time>2011-09-11T13:36:01Z</time>
      </trkpt>
      <trkpt lat="43.9259" lon="7.25936">
        <ele>434.049</ele>
        <time>2011-09-11T13:36:03Z</time>
      </trkpt>
      <trkpt lat="43.92588" lon="7.25962">
        <ele>431.212</ele>
        <time>2011-09-11T13:36:08Z</time>
      </trkpt>
      <trkpt lat="43.92588" lon="7.25983">
        <ele>431.408</ele>
        <time>2011-09-11T13:36:14Z</time>
      </trkpt>
      <trkpt lat="43.92596" lon="7.26007">
        <ele>429.204</ele>
        <time>2011-09-11T13:36:19Z</time>
      </trkpt>
      <trkpt lat="43.92601" lon="7.26037">
        <ele>426.814</ele>
        <time>2011-09-11T13:36:24Z</time>
      </trkpt>
      <trkpt lat="43.92606" lon="7.26063">
        <ele>422.751</ele>
        <time>2011-09-11T13:36:29Z</time>
      </trkpt>
      <trkpt lat="43.92606" lon="7.26068">
        <ele>422.029</ele>
        <time>2011-09-11T13:36:30Z</time>
      </trkpt>
      <trkpt lat="43.92602" lon="7.26088">
        <ele>419.131</ele>
        <time>2011-09-11T13:36:34Z</time>
      </trkpt>
      <trkpt lat="43.92605" lon="7.26104">
        <ele>418.163</ele>
        <time>2011-09-11T13:36:38Z</time>
      </trkpt>
      <trkpt lat="43.92606" lon="7.26107">
        <ele>416.923</ele>
        <time>2011-09-11T13:36:41Z</time>
      </trkpt>
      <trkpt lat="43.92606" lon="7.26104">
        <ele>413.836</ele>
        <time>2011-09-11T13:36:48Z</time>
      </trkpt>
      <trkpt lat="43.92603" lon="7.26103">
        <ele>412.213</ele>
        <time>2011-09-11T13:37:19Z</time>
      </trkpt>
      <trkpt lat="43.92601" lon="7.26109">
        <ele>414.472</ele>
        <time>2011-09-11T13:37:24Z</time>
      </trkpt>
      <trkpt lat="43.92596" lon="7.26111">
        <ele>418.73</ele>
        <time>2011-09-11T13:37:37Z</time>
      </trkpt>
      <trkpt lat="43.92599" lon="7.26117">
        <ele>416.288</ele>
        <time>2011-09-11T13:37:42Z</time>
      </trkpt>
      <trkpt lat="43.92601" lon="7.26126">
        <ele>412.395</ele>
        <time>2011-09-11T13:37:47Z</time>
      </trkpt>
      <trkpt lat="43.92601" lon="7.26127">
        <ele>411.677</ele>
        <time>2011-09-11T13:37:51Z</time>
      </trkpt>
      <trkpt lat="43.92599" lon="7.26126">
        <ele>409.417</ele>
        <time>2011-09-11T13:37:57Z</time>
      </trkpt>
      <trkpt lat="43.926" lon="7.26134">
        <ele>407.125</ele>
        <time>2011-09-11T13:38:01Z</time>
      </trkpt>
      <trkpt lat="43.92601" lon="7.26147">
        <ele>404.785</ele>
        <time>2011-09-11T13:38:07Z</time>
      </trkpt>
      <trkpt lat="43.926" lon="7.26146">
        <ele>403.91</ele>
        <time>2011-09-11T13:38:16Z</time>
      </trkpt>
      <trkpt lat="43.92595" lon="7.2614">
        <ele>405.601</ele>
        <time>2011-09-11T13:38:22Z</time>
      </trkpt>
      <trkpt lat="43.92594" lon="7.26142">
        <ele>405.941</ele>
        <time>2011-09-11T13:38:26Z</time>
      </trkpt>
      <trkpt lat="43.92592" lon="7.26155">
        <ele>402.987</ele>
        <time>2011-09-11T13:38:32Z</time>
      </trkpt>
      <trkpt lat="43.92591" lon="7.26166">
        <ele>399.384</ele>
        <time>2011-09-11T13:38:37Z</time>
      </trkpt>
      <trkpt lat="43.92594" lon="7.26173">
        <ele>397.213</ele>
        <time>2011-09-11T13:38:40Z</time>
      </trkpt>
      <trkpt lat="43.92597" lon="7.26188">
        <ele>394.714</ele>
        <time>2011-09-11T13:38:44Z</time>
      </trkpt>
      <trkpt lat="43.926" lon="7.26197">
        <ele>392.482</ele>
        <time>2011-09-11T13:38:46Z</time>
      </trkpt>
      <trkpt lat="43.92614" lon="7.26204">
        <ele>387.47</ele>
        <time>2011-09-11T13:38:51Z</time>
      </trkpt>
      <trkpt lat="43.92631" lon="7.26208">
        <ele>383.911</ele>
        <time>2011-09-11T13:38:56Z</time>
      </trkpt>
      <trkpt lat="43.92645" lon="7.26215">
        <ele>380.68</ele>
        <time>2011-09-11T13:39:00Z</time>
      </trkpt>
      <trkpt lat="43.92653" lon="7.26219">
        <ele>379.04</ele>
        <time>2011-09-11T13:39:02Z</time>
      </trkpt>
      <trkpt lat="43.92668" lon="7.26222">
        <ele>377.14</ele>
        <time>2011-09-11T13:39:05Z</time>
      </trkpt>
      <trkpt lat="43.92684" lon="7.26225">
        <ele>374.899</ele>
        <time>2011-09-11T13:39:08Z</time>
      </trkpt>
      <trkpt lat="43.92695" lon="7.2624">
        <ele>377.765</ele>
        <time>2011-09-11T13:39:12Z</time>
      </trkpt>
      <trkpt lat="43.92697" lon="7.26251">
        <ele>374.004</ele>
        <time>2011-09-11T13:39:18Z</time>
      </trkpt>
      <trkpt lat="43.92699" lon="7.26248">
        <ele>373.237</ele>
        <time>2011-09-11T13:39:22Z</time>
      </trkpt>
      <trkpt lat="43.92699" lon="7.26257">
        <ele>371.342</ele>
        <time>2011-09-11T13:39:44Z</time>
      </trkpt>
      <trkpt lat="43.92711" lon="7.26267">
        <ele>372.072</ele>
        <time>2011-09-11T13:39:48Z</time>
      </trkpt>
      <trkpt lat="43.92731" lon="7.26277">
        <ele>374.656</ele>
        <time>2011-09-11T13:39:52Z</time>
      </trkpt>
      <trkpt lat="43.92736" lon="7.2628">
        <ele>375.177</ele>
        <time>2011-09-11T13:39:53Z</time>
      </trkpt>
      <trkpt lat="43.92757" lon="7.26298">
        <ele>379.678</ele>
        <time>2011-09-11T13:39:59Z</time>
      </trkpt>
      <trkpt lat="43.92768" lon="7.26309">
        <ele>378.521</ele>
        <time>2011-09-11T13:40:04Z</time>
      </trkpt>
      <trkpt lat="43.9289" lon="7.26434">
        <ele>391.613</ele>
        <time>2011-09-11T13:40:54Z</time>
      </trkpt>
      <trkpt lat="43.92897" lon="7.26442">
        <ele>393.263</ele>
        <time>2011-09-11T13:41:00Z</time>
      </trkpt>
      <trkpt lat="43.92903" lon="7.26447">
        <ele>394.862</ele>
        <time>2011-09-11T13:41:05Z</time>
      </trkpt>
      <trkpt lat="43.92915" lon="7.26456">
        <ele>397.512</ele>
        <time>2011-09-11T13:41:13Z</time>
      </trkpt>
      <trkpt lat="43.92925" lon="7.2646">
        <ele>398.802</ele>
        <time>2011-09-11T13:41:20Z</time>
      </trkpt>
      <trkpt lat="43.92935" lon="7.26464">
        <ele>398.55</ele>
        <time>2011-09-11T13:41:27Z</time>
      </trkpt>
      <trkpt lat="43.92988" lon="7.26411">
        <ele>467.654</ele>
        <time>2011-09-11T13:44:03Z</time>
      </trkpt>
      <trkpt lat="43.92979" lon="7.26408">
        <ele>472.445</ele>
        <time>2011-09-11T13:44:18Z</time>
      </trkpt>
      <trkpt lat="43.9298" lon="7.26406">
        <ele>474.876</ele>
        <time>2011-09-11T13:44:25Z</time>
      </trkpt>
      <trkpt lat="43.92954" lon="7.26408">
        <ele>450.488</ele>
        <time>2011-09-11T13:45:26Z</time>
      </trkpt>
      <trkpt lat="43.9297" lon="7.26384">
        <ele>445.838</ele>
        <time>2011-09-11T13:45:32Z</time>
      </trkpt>
      <trkpt lat="43.92991" lon="7.26356">
        <ele>450.202</ele>
        <time>2011-09-11T13:45:39Z</time>
      </trkpt>
      <trkpt lat="43.93" lon="7.26347">
        <ele>450.632</ele>
        <time>2011-09-11T13:45:44Z</time>
      </trkpt>
      <trkpt lat="43.93002" lon="7.26347">
        <ele>452.053</ele>
        <time>2011-09-11T13:45:45Z</time>
      </trkpt>
      <trkpt lat="43.92995" lon="7.26361">
        <ele>446.292</ele>
        <time>2011-09-11T13:45:51Z</time>
      </trkpt>
      <trkpt lat="43.92998" lon="7.2636">
        <ele>450.193</ele>
        <time>2011-09-11T13:45:55Z</time>
      </trkpt>
      <trkpt lat="43.92997" lon="7.26357">
        <ele>447.934</ele>
        <time>2011-09-11T13:45:58Z</time>
      </trkpt>
      <trkpt lat="43.92993" lon="7.26365">
        <ele>442.181</ele>
        <time>2011-09-11T13:46:05Z</time>
      </trkpt>
      <trkpt lat="43.92993" lon="7.26369">
        <ele>436.08</ele>
        <time>2011-09-11T13:46:15Z</time>
      </trkpt>
      <trkpt lat="43.92987" lon="7.26376">
        <ele>430.648</ele>
        <time>2011-09-11T13:46:20Z</time>
      </trkpt>
      <trkpt lat="43.92981" lon="7.26385">
        <ele>424.677</ele>
        <time>2011-09-11T13:46:25Z</time>
      </trkpt>
      <trkpt lat="43.92977" lon="7.26399">
        <ele>416.75</ele>
        <time>2011-09-11T13:46:41Z</time>
      </trkpt>
      <trkpt lat="43.92977" lon="7.26403">
        <ele>413.959</ele>
        <time>2011-09-11T13:46:45Z</time>
      </trkpt>
      <trkpt lat="43.9298" lon="7.26405">
        <ele>412.179</ele>
        <time>2011-09-11T13:46:50Z</time>
      </trkpt>
      <trkpt lat="43.92973" lon="7.26413">
        <ele>405.669</ele>
        <time>2011-09-11T13:46:56Z</time>
      </trkpt>
      <trkpt lat="43.92972" lon="7.26413">
        <ele>404.629</ele>
        <time>2011-09-11T13:46:57Z</time>
      </trkpt>
      <trkpt lat="43.92969" lon="7.2641">
        <ele>400.642</ele>
        <time>2011-09-11T13:47:03Z</time>
      </trkpt>
      <trkpt lat="43.92966" lon="7.26409">
        <ele>399.09</ele>
        <time>2011-09-11T13:47:07Z</time>
      </trkpt>
      <trkpt lat="43.9295" lon="7.26417">
        <ele>393.068</ele>
        <time>2011-09-11T13:47:16Z</time>
      </trkpt>
      <trkpt lat="43.92946" lon="7.26417">
        <ele>389.839</ele>
        <time>2011-09-11T13:47:21Z</time>
      </trkpt>
      <trkpt lat="43.92954" lon="7.26401">
        <ele>392.775</ele>
        <time>2011-09-11T13:47:28Z</time>
      </trkpt>
      <trkpt lat="43.92951" lon="7.26401">
        <ele>391.574</ele>
        <time>2011-09-11T13:47:32Z</time>
      </trkpt>
      <trkpt lat="43.92946" lon="7.26402">
        <ele>389.834</ele>
        <time>2011-09-11T13:47:36Z</time>
      </trkpt>
      <trkpt lat="43.92933" lon="7.26412">
        <ele>387.124</ele>
        <time>2011-09-11T13:47:41Z</time>
      </trkpt>
      <trkpt lat="43.92926" lon="7.26416">
        <ele>387.844</ele>
        <time>2011-09-11T13:47:48Z</time>
      </trkpt>
      <trkpt lat="43.92937" lon="7.26396">
        <ele>393.66</ele>
        <time>2011-09-11T13:47:54Z</time>
      </trkpt>
      <trkpt lat="43.92945" lon="7.26385">
        <ele>399.863</ele>
        <time>2011-09-11T13:47:58Z</time>
      </trkpt>
      <trkpt lat="43.92948" lon="7.26376">
        <ele>404.442</ele>
        <time>2011-09-11T13:48:03Z</time>
      </trkpt>
      <trkpt lat="43.92958" lon="7.2636">
        <ele>413.135</ele>
        <time>2011-09-11T13:48:10Z</time>
      </trkpt>
      <trkpt lat="43.9296" lon="7.2635">
        <ele>420.717</ele>
        <time>2011-09-11T13:48:16Z</time>
      </trkpt>
      <trkpt lat="43.92987" lon="7.26324">
        <ele>454.34</ele>
        <time>2011-09-11T13:48:39Z</time>
      </trkpt>
      <trkpt lat="43.92986" lon="7.26329">
        <ele>461.87</ele>
        <time>2011-09-11T13:48:46Z</time>
      </trkpt>
      <trkpt lat="43.92986" lon="7.26336">
        <ele>471.381</ele>
        <time>2011-09-11T13:48:52Z</time>
      </trkpt>
      <trkpt lat="43.92988" lon="7.26335">
        <ele>473.873</ele>
        <time>2011-09-11T13:48:54Z</time>
      </trkpt>
      <trkpt lat="43.93003" lon="7.2632">
        <ele>483.713</ele>
        <time>2011-09-11T13:49:03Z</time>
      </trkpt>
      <trkpt lat="43.92996" lon="7.26326">
        <ele>480.96</ele>
        <time>2011-09-11T13:49:08Z</time>
      </trkpt>
      <trkpt lat="43.92998" lon="7.26321">
        <ele>481.593</ele>
        <time>2011-09-11T13:49:16Z</time>
      </trkpt>
      <trkpt lat="43.9299" lon="7.26334">
        <ele>483.049</ele>
        <time>2011-09-11T13:49:21Z</time>
      </trkpt>
      <trkpt lat="43.93002" lon="7.26322">
        <ele>488.734</ele>
        <time>2011-09-11T13:49:27Z</time>
      </trkpt>
      <trkpt lat="43.93004" lon="7.26318">
        <ele>489.214</ele>
        <time>2011-09-11T13:49:30Z</time>
      </trkpt>
      <trkpt lat="43.93012" lon="7.26304">
        <ele>486.736</ele>
        <time>2011-09-11T13:49:37Z</time>
      </trkpt>
      <trkpt lat="43.93011" lon="7.26302">
        <ele>479.658</ele>
        <time>2011-09-11T13:49:41Z</time>
      </trkpt>
      <trkpt lat="43.93005" lon="7.26313">
        <ele>465.841</ele>
        <time>2011-09-11T13:49:53Z</time>
      </trkpt>
      <trkpt lat="43.93007" lon="7.26309">
        <ele>459.073</ele>
        <time>2011-09-11T13:50:00Z</time>
      </trkpt>
      <trkpt lat="43.93008" lon="7.2631">
        <ele>458.589</ele>
        <time>2011-09-11T13:50:02Z</time>
      </trkpt>
      <trkpt lat="43.93009" lon="7.26315">
        <ele>456.742</ele>
        <time>2011-09-11T13:50:09Z</time>
      </trkpt>
      <trkpt lat="43.93008" lon="7.26319">
        <ele>455.502</ele>
        <time>2011-09-11T13:50:11Z</time>
      </trkpt>
      <trkpt lat="43.93003" lon="7.26333">
        <ele>450.166</ele>
        <time>2011-09-11T13:50:18Z</time>
      </trkpt>
      <trkpt lat="43.93003" lon="7.26342">
        <ele>447.334</ele>
        <time>2011-09-11T13:50:24Z</time>
      </trkpt>
      <trkpt lat="43.93007" lon="7.26342">
        <ele>447.555</ele>
        <time>2011-09-11T13:50:28Z</time>
      </trkpt>
      <trkpt lat="43.93021" lon="7.26335">
        <ele>452.392</ele>
        <time>2011-09-11T13:50:35Z</time>
      </trkpt>
      <trkpt lat="43.93024" lon="7.26337">
        <ele>451.655</ele>
        <time>2011-09-11T13:50:38Z</time>
      </trkpt>
      <trkpt lat="43.93031" lon="7.26336">
        <ele>451.742</ele>
        <time>2011-09-11T13:50:43Z</time>
      </trkpt>
      <trkpt lat="43.9304" lon="7.26333">
        <ele>454.351</ele>
        <time>2011-09-11T13:50:47Z</time>
      </trkpt>
      <trkpt lat="43.93045" lon="7.26351">
        <ele>447.816</ele>
        <time>2011-09-11T13:51:02Z</time>
      </trkpt>
      <trkpt lat="43.93047" lon="7.26352">
        <ele>445.743</ele>
        <time>2011-09-11T13:51:07Z</time>
      </trkpt>
      <trkpt lat="43.93049" lon="7.26357">
        <ele>442.93</ele>
        <time>2011-09-11T13:51:13Z</time>
      </trkpt>
      <trkpt lat="43.93051" lon="7.26362">
        <ele>440.935</ele>
        <time>2011-09-11T13:51:19Z</time>
      </trkpt>
      <trkpt lat="43.93056" lon="7.26359">
        <ele>444.036</ele>
        <time>2011-09-11T13:51:26Z</time>
      </trkpt>
      <trkpt lat="43.93063" lon="7.26352">
        <ele>444.838</ele>
        <time>2011-09-11T13:52:31Z</time>
      </trkpt>
      <trkpt lat="43.9307" lon="7.26348">
        <ele>442.792</ele>
        <time>2011-09-11T13:52:36Z</time>
      </trkpt>
      <trkpt lat="43.93077" lon="7.2634">
        <ele>439.824</ele>
        <time>2011-09-11T13:52:41Z</time>
      </trkpt>
      <trkpt lat="43.93085" lon="7.26332">
        <ele>439.021</ele>
        <time>2011-09-11T13:52:46Z</time>
      </trkpt>
      <trkpt lat="43.93094" lon="7.26324">
        <ele>444.54</ele>
        <time>2011-09-11T13:52:53Z</time>
      </trkpt>
      <trkpt lat="43.931" lon="7.26324">
        <ele>451.146</ele>
        <time>2011-09-11T13:52:59Z</time>
      </trkpt>
      <trkpt lat="43.93102" lon="7.26327">
        <ele>454.898</ele>
        <time>2011-09-11T13:53:07Z</time>
      </trkpt>
      <trkpt lat="43.93102" lon="7.26328">
        <ele>455.598</ele>
        <time>2011-09-11T13:53:08Z</time>
      </trkpt>
      <trkpt lat="43.93106" lon="7.26328">
        <ele>462.463</ele>
        <time>2011-09-11T13:53:13Z</time>
      </trkpt>
      <trkpt lat="43.9311" lon="7.26326">
        <ele>468.947</ele>
        <time>2011-09-11T13:53:20Z</time>
      </trkpt>
      <trkpt lat="43.93112" lon="7.26327">
        <ele>472.013</ele>
        <time>2011-09-11T13:53:24Z</time>
      </trkpt>
      <trkpt lat="43.93111" lon="7.26328">
        <ele>469.782</ele>
        <time>2011-09-11T13:53:32Z</time>
      </trkpt>
      <trkpt lat="43.93117" lon="7.26315">
        <ele>477.318</ele>
        <time>2011-09-11T13:53:40Z</time>
      </trkpt>
      <trkpt lat="43.93122" lon="7.26311">
        <ele>484.383</ele>
        <time>2011-09-11T13:53:47Z</time>
      </trkpt>
      <trkpt lat="43.93132" lon="7.26304">
        <ele>482.83</ele>
        <time>2011-09-11T13:54:14Z</time>
      </trkpt>
      <trkpt lat="43.93137" lon="7.26302">
        <ele>478.941</ele>
        <time>2011-09-11T13:54:18Z</time>
      </trkpt>
      <trkpt lat="43.9314" lon="7.26305">
        <ele>475.153</ele>
        <time>2011-09-11T13:54:23Z</time>
      </trkpt>
      <trkpt lat="43.93142" lon="7.26308">
        <ele>474.515</ele>
        <time>2011-09-11T13:54:27Z</time>
      </trkpt>
      <trkpt lat="43.93152" lon="7.26307">
        <ele>474.526</ele>
        <time>2011-09-11T13:54:34Z</time>
      </trkpt>
      <trkpt lat="43.93159" lon="7.26311">
        <ele>477.241</ele>
        <time>2011-09-11T13:54:42Z</time>
      </trkpt>
      <trkpt lat="43.93158" lon="7.26312">
        <ele>476.906</ele>
        <time>2011-09-11T13:54:43Z</time>
      </trkpt>
      <trkpt lat="43.9316" lon="7.26323">
        <ele>474.845</ele>
        <time>2011-09-11T13:54:51Z</time>
      </trkpt>
      <trkpt lat="43.93166" lon="7.2633">
        <ele>474.436</ele>
        <time>2011-09-11T13:55:01Z</time>
      </trkpt>
      <trkpt lat="43.93168" lon="7.26337">
        <ele>473.786</ele>
        <time>2011-09-11T13:55:09Z</time>
      </trkpt>
      <trkpt lat="43.93172" lon="7.26341">
        <ele>474.115</ele>
        <time>2011-09-11T13:55:15Z</time>
      </trkpt>
      <trkpt lat="43.93174" lon="7.26346">
        <ele>474.004</ele>
        <time>2011-09-11T13:55:22Z</time>
      </trkpt>
      <trkpt lat="43.93177" lon="7.2635">
        <ele>474.596</ele>
        <time>2011-09-11T13:55:28Z</time>
      </trkpt>
      <trkpt lat="43.93179" lon="7.26355">
        <ele>474.965</ele>
        <time>2011-09-11T13:55:34Z</time>
      </trkpt>
      <trkpt lat="43.93183" lon="7.26357">
        <ele>476.755</ele>
        <time>2011-09-11T13:55:40Z</time>
      </trkpt>
      <trkpt lat="43.93189" lon="7.26354">
        <ele>478.925</ele>
        <time>2011-09-11T13:55:45Z</time>
      </trkpt>
      <trkpt lat="43.93194" lon="7.2636">
        <ele>479.415</ele>
        <time>2011-09-11T13:55:53Z</time>
      </trkpt>
      <trkpt lat="43.93194" lon="7.26364">
        <ele>477.953</ele>
        <time>2011-09-11T13:55:57Z</time>
      </trkpt>
      <trkpt lat="43.93198" lon="7.26363">
        <ele>478.68</ele>
        <time>2011-09-11T13:56:05Z</time>
      </trkpt>
      <trkpt lat="43.93206" lon="7.26362">
        <ele>483.036</ele>
        <time>2011-09-11T13:56:34Z</time>
      </trkpt>
      <trkpt lat="43.93223" lon="7.26362">
        <ele>479.895</ele>
        <time>2011-09-11T13:56:41Z</time>
      </trkpt>
      <trkpt lat="43.93233" lon="7.26358">
        <ele>474.943</ele>
        <time>2011-09-11T13:56:46Z</time>
      </trkpt>
      <trkpt lat="43.93242" lon="7.26349">
        <ele>469.819</ele>
        <time>2011-09-11T13:56:50Z</time>
      </trkpt>
      <trkpt lat="43.93249" lon="7.2634">
        <ele>467.382</ele>
        <time>2011-09-11T13:56:53Z</time>
      </trkpt>
      <trkpt lat="43.93248" lon="7.26327">
        <ele>464.162</ele>
        <time>2011-09-11T13:56:57Z</time>
      </trkpt>
      <trkpt lat="43.93243" lon="7.26301">
        <ele>462.294</ele>
        <time>2011-09-11T13:57:01Z</time>
      </trkpt>
      <trkpt lat="43.93243" lon="7.26277">
        <ele>466.733</ele>
        <time>2011-09-11T13:57:05Z</time>
      </trkpt>
      <trkpt lat="43.93245" lon="7.26271">
        <ele>468.824</ele>
        <time>2011-09-11T13:57:06Z</time>
      </trkpt>
      <trkpt lat="43.93253" lon="7.26245">
        <ele>472.691</ele>
        <time>2011-09-11T13:57:10Z</time>
      </trkpt>
      <trkpt lat="43.93255" lon="7.26238">
        <ele>473.109</ele>
        <time>2011-09-11T13:57:11Z</time>
      </trkpt>
      <trkpt lat="43.9327" lon="7.26214">
        <ele>477.044</ele>
        <time>2011-09-11T13:57:15Z</time>
      </trkpt>
      <trkpt lat="43.93293" lon="7.26193">
        <ele>479.763</ele>
        <time>2011-09-11T13:57:19Z</time>
      </trkpt>
      <trkpt lat="43.93303" lon="7.26185">
        <ele>479.22</ele>
        <time>2011-09-11T13:57:21Z</time>
      </trkpt>
      <trkpt lat="43.93321" lon="7.26158">
        <ele>480.678</ele>
        <time>2011-09-11T13:57:26Z</time>
      </trkpt>
      <trkpt lat="43.93328" lon="7.26145">
        <ele>481.237</ele>
        <time>2011-09-11T13:57:28Z</time>
      </trkpt>
      <trkpt lat="43.93347" lon="7.26121">
        <ele>481.165</ele>
        <time>2011-09-11T13:57:33Z</time>
      </trkpt>
      <trkpt lat="43.93354" lon="7.26114">
        <ele>481.875</ele>
        <time>2011-09-11T13:57:37Z</time>
      </trkpt>
      <trkpt lat="43.93392" lon="7.26195">
        <ele>509.045</ele>
        <time>2011-09-11T13:58:28Z</time>
      </trkpt>
      <trkpt lat="43.9339" lon="7.262">
        <ele>507.267</ele>
        <time>2011-09-11T13:58:39Z</time>
      </trkpt>
      <trkpt lat="43.93389" lon="7.26196">
        <ele>498.513</ele>
        <time>2011-09-11T13:58:46Z</time>
      </trkpt>
      <trkpt lat="43.93392" lon="7.2619">
        <ele>485.547</ele>
        <time>2011-09-11T13:58:52Z</time>
      </trkpt>
      <trkpt lat="43.93393" lon="7.26188">
        <ele>480.836</ele>
        <time>2011-09-11T13:58:54Z</time>
      </trkpt>
      <trkpt lat="43.934" lon="7.262">
        <ele>471.465</ele>
        <time>2011-09-11T13:59:00Z</time>
      </trkpt>
      <trkpt lat="43.93409" lon="7.26217">
        <ele>462.049</ele>
        <time>2011-09-11T13:59:08Z</time>
      </trkpt>
      <trkpt lat="43.93407" lon="7.26215">
        <ele>455.089</ele>
        <time>2011-09-11T13:59:11Z</time>
      </trkpt>
      <trkpt lat="43.93409" lon="7.26211">
        <ele>455.979</ele>
        <time>2011-09-11T13:59:17Z</time>
      </trkpt>
      <trkpt lat="43.9341" lon="7.26207">
        <ele>459.752</ele>
        <time>2011-09-11T13:59:22Z</time>
      </trkpt>
      <trkpt lat="43.93412" lon="7.26204">
        <ele>462.511</ele>
        <time>2011-09-11T13:59:27Z</time>
      </trkpt>
      <trkpt lat="43.93412" lon="7.26203">
        <ele>465.813</ele>
        <time>2011-09-11T13:59:30Z</time>
      </trkpt>
      <trkpt lat="43.93411" lon="7.26219">
        <ele>454.432</ele>
        <time>2011-09-11T13:59:38Z</time>
      </trkpt>
      <trkpt lat="43.93411" lon="7.26233">
        <ele>448.599</ele>
        <time>2011-09-11T13:59:46Z</time>
      </trkpt>
      <trkpt lat="43.93412" lon="7.2624">
        <ele>445.28</ele>
        <time>2011-09-11T13:59:50Z</time>
      </trkpt>
      <trkpt lat="43.93411" lon="7.2625">
        <ele>443.983</ele>
        <time>2011-09-11T13:59:58Z</time>
      </trkpt>
      <trkpt lat="43.93414" lon="7.26259">
        <ele>443.084</ele>
        <time>2011-09-11T14:00:04Z</time>
      </trkpt>
      <trkpt lat="43.93415" lon="7.26263">
        <ele>440.571</ele>
        <time>2011-09-11T14:00:09Z</time>
      </trkpt>
      <trkpt lat="43.93417" lon="7.26272">
        <ele>439.222</ele>
        <time>2011-09-11T14:00:22Z</time>
      </trkpt>
      <trkpt lat="43.93424" lon="7.26285">
        <ele>436.088</ele>
        <time>2011-09-11T14:00:26Z</time>
      </trkpt>
      <trkpt lat="43.9343" lon="7.26296">
        <ele>433.967</ele>
        <time>2011-09-11T14:00:30Z</time>
      </trkpt>
      <trkpt lat="43.93431" lon="7.26298">
        <ele>434.942</ele>
        <time>2011-09-11T14:00:35Z</time>
      </trkpt>
      <trkpt lat="43.93431" lon="7.263">
        <ele>430.981</ele>
        <time>2011-09-11T14:01:29Z</time>
      </trkpt>
      <trkpt lat="43.93436" lon="7.26292">
        <ele>432.855</ele>
        <time>2011-09-11T14:01:45Z</time>
      </trkpt>
      <trkpt lat="43.93433" lon="7.26305">
        <ele>431.803</ele>
        <time>2011-09-11T14:02:07Z</time>
      </trkpt>
      <trkpt lat="43.93449" lon="7.26304">
        <ele>427.437</ele>
        <time>2011-09-11T14:02:13Z</time>
      </trkpt>
      <trkpt lat="43.93457" lon="7.26313">
        <ele>425.267</ele>
        <time>2011-09-11T14:02:18Z</time>
      </trkpt>
      <trkpt lat="43.93458" lon="7.2632">
        <ele>431.398</ele>
        <time>2011-09-11T14:02:22Z</time>
      </trkpt>
      <trkpt lat="43.93456" lon="7.26323">
        <ele>432.178</ele>
        <time>2011-09-11T14:02:24Z</time>
      </trkpt>
      <trkpt lat="43.93457" lon="7.26331">
        <ele>436.402</ele>
        <time>2011-09-11T14:02:29Z</time>
      </trkpt>
      <trkpt lat="43.93455" lon="7.26318">
        <ele>432.603</ele>
        <time>2011-09-11T14:02:34Z</time>
      </trkpt>
      <trkpt lat="43.93456" lon="7.26316">
        <ele>433.525</ele>
        <time>2011-09-11T14:02:35Z</time>
      </trkpt>
      <trkpt lat="43.93454" lon="7.26309">
        <ele>428.658</ele>
        <time>2011-09-11T14:02:41Z</time>
      </trkpt>
      <trkpt lat="43.93454" lon="7.26309">
        <ele>427.717</ele>
        <time>2011-09-11T14:02:42Z</time>
      </trkpt>
      <trkpt lat="43.93453" lon="7.26322">
        <ele>423.224</ele>
        <time>2011-09-11T14:02:47Z</time>
      </trkpt>
      <trkpt lat="43.93435" lon="7.26342">
        <ele>419.14</ele>
        <time>2011-09-11T14:03:01Z</time>
      </trkpt>
      <trkpt lat="43.93394" lon="7.26341">
        <ele>399.097</ele>
        <time>2011-09-11T14:03:56Z</time>
      </trkpt>
      <trkpt lat="43.93392" lon="7.2635">
        <ele>395.376</ele>
        <time>2011-09-11T14:04:01Z</time>
      </trkpt>
      <trkpt lat="43.93392" lon="7.26365">
        <ele>390.263</ele>
        <time>2011-09-11T14:04:05Z</time>
      </trkpt>
      <trkpt lat="43.93391" lon="7.2637">
        <ele>389.293</ele>
        <time>2011-09-11T14:04:06Z</time>
      </trkpt>
      <trkpt lat="43.93298" lon="7.26528">
        <ele>389.222</ele>
        <time>2011-09-11T14:04:56Z</time>
      </trkpt>
      <trkpt lat="43.93297" lon="7.26531">
        <ele>389.502</ele>
        <time>2011-09-11T14:04:57Z</time>
      </trkpt>
      <trkpt lat="43.93287" lon="7.26539">
        <ele>388.641</ele>
        <time>2011-09-11T14:05:03Z</time>
      </trkpt>
      <trkpt lat="43.93371" lon="7.26469">
        <ele>395.132</ele>
        <time>2011-09-11T14:05:41Z</time>
      </trkpt>
      <trkpt lat="43.9338" lon="7.26469">
        <ele>398.769</ele>
        <time>2011-09-11T14:05:46Z</time>
      </trkpt>
      <trkpt lat="43.93389" lon="7.26476">
        <ele>396.792</ele>
        <time>2011-09-11T14:05:54Z</time>
      </trkpt>
      <trkpt lat="43.93395" lon="7.26478">
        <ele>391.027</ele>
        <time>2011-09-11T14:05:59Z</time>
      </trkpt>
      <trkpt lat="43.93415" lon="7.26448">
        <ele>391.75</ele>
        <time>2011-09-11T14:06:19Z</time>
      </trkpt>
      <trkpt lat="43.93403" lon="7.26474">
        <ele>380.609</ele>
        <time>2011-09-11T14:06:41Z</time>
      </trkpt>
      <trkpt lat="43.93409" lon="7.26478">
        <ele>372.963</ele>
        <time>2011-09-11T14:06:47Z</time>
      </trkpt>
      <trkpt lat="43.93416" lon="7.26485">
        <ele>370.418</ele>
        <time>2011-09-11T14:06:52Z</time>
      </trkpt>
      <trkpt lat="43.93409" lon="7.26492">
        <ele>369.729</ele>
        <time>2011-09-11T14:06:57Z</time>
      </trkpt>
      <trkpt lat="43.9339" lon="7.26501">
        <ele>359.178</ele>
        <time>2011-09-11T14:07:05Z</time>
      </trkpt>
      <trkpt lat="43.94294" lon="7.25631">
        <ele>391.182</ele>
        <time>2011-09-11T14:09:47Z</time>
      </trkpt>
      <trkpt lat="43.93994" lon="7.26055">
        <ele>390.916</ele>
        <time>2011-09-11T14:11:05Z</time>
      </trkpt>
      <trkpt lat="43.93923" lon="7.26139">
        <ele>417.137</ele>
        <time>2011-09-11T14:11:12Z</time>
      </trkpt>
      <trkpt lat="43.93851" lon="7.26212">
        <ele>425.659</ele>
        <time>2011-09-11T14:11:33Z</time>
      </trkpt>
      <trkpt lat="43.93563" lon="7.26674">
        <ele>351.61</ele>
        <time>2011-09-11T14:12:10Z</time>
      </trkpt>
      <trkpt lat="43.93559" lon="7.26684">
        <ele>352.29</ele>
        <time>2011-09-11T14:12:11Z</time>
      </trkpt>
      <trkpt lat="43.93563" lon="7.26706">
        <ele>351.796</ele>
        <time>2011-09-11T14:12:16Z</time>
      </trkpt>
      <trkpt lat="43.93571" lon="7.26729">
        <ele>344.37</ele>
        <time>2011-09-11T14:12:22Z</time>
      </trkpt>
      <trkpt lat="43.9358" lon="7.26744">
        <ele>344.234</ele>
        <time>2011-09-11T14:12:27Z</time>
      </trkpt>
      <trkpt lat="43.93587" lon="7.26771">
        <ele>347.512</ele>
        <time>2011-09-11T14:12:33Z</time>
      </trkpt>
      <trkpt lat="43.93584" lon="7.26803">
        <ele>351.915</ele>
        <time>2011-09-11T14:12:39Z</time>
      </trkpt>
      <trkpt lat="43.93583" lon="7.26826">
        <ele>357.728</ele>
        <time>2011-09-11T14:12:44Z</time>
      </trkpt>
      <trkpt lat="43.93581" lon="7.26853">
        <ele>369.87</ele>
        <time>2011-09-11T14:12:50Z</time>
      </trkpt>
      <trkpt lat="43.93581" lon="7.26879">
        <ele>382.294</ele>
        <time>2011-09-11T14:12:56Z</time>
      </trkpt>
      <trkpt lat="43.93587" lon="7.26906">
        <ele>399.757</ele>
        <time>2011-09-11T14:13:01Z</time>
      </trkpt>
      <trkpt lat="43.93598" lon="7.26941">
        <ele>428.506</ele>
        <time>2011-09-11T14:13:07Z</time>
      </trkpt>
      <trkpt lat="43.93618" lon="7.26992">
        <ele>440.897</ele>
        <time>2011-09-11T14:13:15Z</time>
      </trkpt>
      <trkpt lat="43.93624" lon="7.27014">
        <ele>440.153</ele>
        <time>2011-09-11T14:13:19Z</time>
      </trkpt>
      <trkpt lat="43.93629" lon="7.27041">
        <ele>436.96</ele>
        <time>2011-09-11T14:13:23Z</time>
      </trkpt>
      <trkpt lat="43.9363" lon="7.2707">
        <ele>427.969</ele>
        <time>2011-09-11T14:13:28Z</time>
      </trkpt>
      <trkpt lat="43.93623" lon="7.27139">
        <ele>400.539</ele>
        <time>2011-09-11T14:13:39Z</time>
      </trkpt>
      <trkpt lat="43.93626" lon="7.27173">
        <ele>396.876</ele>
        <time>2011-09-11T14:13:45Z</time>
      </trkpt>
      <trkpt lat="43.93626" lon="7.27183">
        <ele>398.092</ele>
        <time>2011-09-11T14:13:50Z</time>
      </trkpt>
      <trkpt lat="43.93627" lon="7.2724">
        <ele>380.812</ele>
        <time>2011-09-11T14:13:59Z</time>
      </trkpt>
      <trkpt lat="43.93623" lon="7.27253">
        <ele>373.889</ele>
        <time>2011-09-11T14:14:01Z</time>
      </trkpt>
      <trkpt lat="43.93618" lon="7.27299">
        <ele>358.596</ele>
        <time>2011-09-11T14:14:08Z</time>
      </trkpt>
      <trkpt lat="43.93616" lon="7.27329">
        <ele>350.847</ele>
        <time>2011-09-11T14:14:13Z</time>
      </trkpt>
      <trkpt lat="43.93622" lon="7.27379">
        <ele>341.4</ele>
        <time>2011-09-11T14:14:21Z</time>
      </trkpt>
      <trkpt lat="43.93623" lon="7.27384">
        <ele>340.852</ele>
        <time>2011-09-11T14:14:22Z</time>
      </trkpt>
      <trkpt lat="43.93633" lon="7.27419">
        <ele>344.025</ele>
        <time>2011-09-11T14:14:29Z</time>
      </trkpt>
      <trkpt lat="43.93642" lon="7.27436">
        <ele>348.601</ele>
        <time>2011-09-11T14:14:33Z</time>
      </trkpt>
      <trkpt lat="43.93667" lon="7.27471">
        <ele>349.538</ele>
        <time>2011-09-11T14:14:39Z</time>
      </trkpt>
      <trkpt lat="43.9369" lon="7.27507">
        <ele>352.191</ele>
        <time>2011-09-11T14:14:46Z</time>
      </trkpt>
      <trkpt lat="43.93715" lon="7.27547">
        <ele>350.429</ele>
        <time>2011-09-11T14:14:53Z</time>
      </trkpt>
      <trkpt lat="43.93737" lon="7.27592">
        <ele>351.26</ele>
        <time>2011-09-11T14:15:00Z</time>
      </trkpt>
      <trkpt lat="43.93746" lon="7.27629">
        <ele>350.4</ele>
        <time>2011-09-11T14:15:06Z</time>
      </trkpt>
      <trkpt lat="43.93762" lon="7.27675">
        <ele>357.677</ele>
        <time>2011-09-11T14:15:13Z</time>
      </trkpt>
      <trkpt lat="43.93783" lon="7.27722">
        <ele>360.708</ele>
        <time>2011-09-11T14:15:19Z</time>
      </trkpt>
      <trkpt lat="43.93799" lon="7.27774">
        <ele>356.987</ele>
        <time>2011-09-11T14:15:26Z</time>
      </trkpt>
      <trkpt lat="43.93818" lon="7.27831">
        <ele>358.109</ele>
        <time>2011-09-11T14:15:34Z</time>
      </trkpt>
      <trkpt lat="43.93823" lon="7.27848">
        <ele>356.647</ele>
        <time>2011-09-11T14:15:36Z</time>
      </trkpt>
      <trkpt lat="43.93829" lon="7.279">
        <ele>355.878</ele>
        <time>2011-09-11T14:15:42Z</time>
      </trkpt>
      <trkpt lat="43.9383" lon="7.27966">
        <ele>361.914</ele>
        <time>2011-09-11T14:15:50Z</time>
      </trkpt>
      <trkpt lat="43.93829" lon="7.2799">
        <ele>363.594</ele>
        <time>2011-09-11T14:15:53Z</time>
      </trkpt>
      <trkpt lat="43.93826" lon="7.28013">
        <ele>364.563</ele>
        <time>2011-09-11T14:15:56Z</time>
      </trkpt>
      <trkpt lat="43.93821" lon="7.28066">
        <ele>362.982</ele>
        <time>2011-09-11T14:16:02Z</time>
      </trkpt>
      <trkpt lat="43.93823" lon="7.28113">
        <ele>360.558</ele>
        <time>2011-09-11T14:16:07Z</time>
      </trkpt>
      <trkpt lat="43.93824" lon="7.28122">
        <ele>359.847</ele>
        <time>2011-09-11T14:16:08Z</time>
      </trkpt>
      <trkpt lat="43.93833" lon="7.28155">
        <ele>358.058</ele>
        <time>2011-09-11T14:16:12Z</time>
      </trkpt>
      <trkpt lat="43.93855" lon="7.28193">
        <ele>359.151</ele>
        <time>2011-09-11T14:16:18Z</time>
      </trkpt>
      <trkpt lat="43.93875" lon="7.28231">
        <ele>353.705</ele>
        <time>2011-09-11T14:16:23Z</time>
      </trkpt>
      <trkpt lat="43.93905" lon="7.28289">
        <ele>349.415</ele>
        <time>2011-09-11T14:16:31Z</time>
      </trkpt>
      <trkpt lat="43.93931" lon="7.28335">
        <ele>350.959</ele>
        <time>2011-09-11T14:16:38Z</time>
      </trkpt>
      <trkpt lat="43.93951" lon="7.28355">
        <ele>349.357</ele>
        <time>2011-09-11T14:16:42Z</time>
      </trkpt>
      <trkpt lat="43.93985" lon="7.28372">
        <ele>345.884</ele>
        <time>2011-09-11T14:16:48Z</time>
      </trkpt>
      <trkpt lat="43.94012" lon="7.2838">
        <ele>342.653</ele>
        <time>2011-09-11T14:16:52Z</time>
      </trkpt>
      <trkpt lat="43.94062" lon="7.28375">
        <ele>346.148</ele>
        <time>2011-09-11T14:17:00Z</time>
      </trkpt>
      <trkpt lat="43.94099" lon="7.28357">
        <ele>351.657</ele>
        <time>2011-09-11T14:17:06Z</time>
      </trkpt>
      <trkpt lat="43.94131" lon="7.28346">
        <ele>357.074</ele>
        <time>2011-09-11T14:17:11Z</time>
      </trkpt>
      <trkpt lat="43.94156" lon="7.28329">
        <ele>362.01</ele>
        <time>2011-09-11T14:17:15Z</time>
      </trkpt>
      <trkpt lat="43.942" lon="7.28303">
        <ele>349.276</ele>
        <time>2011-09-11T14:17:22Z</time>
      </trkpt>
      <trkpt lat="43.9423" lon="7.28283">
        <ele>345.485</ele>
        <time>2011-09-11T14:17:27Z</time>
      </trkpt>
      <trkpt lat="43.94258" lon="7.28286">
        <ele>343.425</ele>
        <time>2011-09-11T14:17:31Z</time>
      </trkpt>
      <trkpt lat="43.94277" lon="7.28291">
        <ele>342.086</ele>
        <time>2011-09-11T14:17:34Z</time>
      </trkpt>
      <trkpt lat="43.94282" lon="7.28291">
        <ele>341.795</ele>
        <time>2011-09-11T14:17:35Z</time>
      </trkpt>
      <trkpt lat="43.94292" lon="7.2829">
        <ele>340.916</ele>
        <time>2011-09-11T14:17:39Z</time>
      </trkpt>
      <trkpt lat="43.94293" lon="7.28291">
        <ele>342.143</ele>
        <time>2011-09-11T14:17:43Z</time>
      </trkpt>
      <trkpt lat="43.94298" lon="7.28286">
        <ele>355.037</ele>
        <time>2011-09-11T14:25:00Z</time>
      </trkpt>
    </trkseg>
  </trk>
</gpx>